# Wetter Temperatur Luftdruck Luftfeuchtigkeit Sichtweite Windgeschwindigkeit Windrichtung Zeit
1 Clouds 12 1018 50 10000 8.75 280 13:25 22.04.2021
2 Clouds 11 1018 53 10000 8.75 280 12:56 22.04.2021
3 Clouds 11 1018 53 10000 8.75 280 12:37 22.04.2021
4 Clouds 11 1018 53 10000 8.75 280 12:37 22.04.2021
5 Clouds 11 1018 49 10000 9.26 280 12:19 22.04.2021
6 Clouds 10 1018 57 10000 8.23 280 11:43 22.04.2021
7 Clouds 9 1018 57 10000 8.23 280 11:22 22.04.2021
8 Clouds 9 1018 57 10000 7.2 290 10:43 22.04.2021
9 Clouds 8 1018 61 10000 7.72 280 10:21 22.04.2021
10 Clouds 7 1018 61 10000 8.23 280 09:42 22.04.2021
11 Clouds 7 1018 61 10000 7.2 280 09:19 22.04.2021
12 Clouds 6 1018 65 10000 7.2 280 08:38 22.04.2021
13 Clouds 6 1017 65 10000 6.69 270 08:18 22.04.2021
14 Clouds 6 1017 65 10000 7.72 270 07:40 22.04.2021
15 Clouds 5 1017 60 10000 6.17 270 07:20 22.04.2021
16 Clouds 5 1017 60 10000 8.23 280 06:23 22.04.2021
17 Clouds 5 1017 60 10000 7.72 280 05:25 22.04.2021
18 Clear 5 1016 56 10000 5.66 290 03:31 22.04.2021
19 Clear 6 1015 49 10000 6.17 300 00:55 22.04.2021
20 Clear 8 1015 49 10000 5.14 310 23:47 21.04.2021
21 Clear 8 1014 46 10000 5.66 310 23:26 21.04.2021
22 Clear 9 1014 49 10000 6.69 300 22:42 21.04.2021
23 Clear 10 1014 50 10000 8.75 310 22:24 21.04.2021
24 Clear 11 1014 46 10000 6.17 300 21:46 21.04.2021
25 Clear 11 1013 43 10000 8.75 300 21:24 21.04.2021
26 Clear 12 1013 50 10000 6.69 300 20:43 21.04.2021
27 Clear 13 1012 54 10000 8.23 310 20:20 21.04.2021
28 Clear 14 1012 44 10000 7.72 310 19:43 21.04.2021
29 Clear 14 1012 41 10000 6.69 320 19:24 21.04.2021
30 Clear 16 1012 38 10000 6.17 310 18:46 21.04.2021
31 Clear 17 1012 33 10000 7.2 290 18:27 21.04.2021
32 Clear 17 1012 36 10000 6.17 280 17:48 21.04.2021
33 Clear 17 1012 34 10000 7.2 270 17:24 21.04.2021
34 Clear 18 1012 31 10000 7.72 290 16:55 21.04.2021
35 Clear 17 1012 31 10000 5.66 290 15:59 21.04.2021
36 Clear 18 1012 31 10000 5.66 290 15:41 21.04.2021
37 Clear 17 1013 34 10000 4.63 290 14:58 21.04.2021
38 Clear 18 1013 33 10000 5.14 280 14:40 21.04.2021
39 Clear 16 1013 33 10000 5.14 280 14:18 21.04.2021
40 Clear 17 1013 36 10000 5.14 300 13:40 21.04.2021
41 Clear 16 1013 33 10000 5.66 290 13:21 21.04.2021
42 Clear 16 1013 36 10000 5.66 290 12:31 21.04.2021
43 Clear 16 1013 38 10000 4.63 290 11:50 21.04.2021
44 Clear 15 1014 38 10000 4.12 280 11:30 21.04.2021
45 Clear 14 1014 47 10000 3.6 290 10:57 21.04.2021
46 Clear 13 1014 50 10000 3.09 290 10:36 21.04.2021
47 Clear 12 1014 58 10000 3.6 280 09:54 21.04.2021
48 Clear 11 1014 68 10000 3.6 270 09:20 21.04.2021
49 Clear 10 1014 71 10000 2.57 260 08:41 21.04.2021
50 Clear 8 1014 76 10000 1.54 250 08:22 21.04.2021
51 Clear 6 1013 81 10000 2.06 270 07:32 21.04.2021
52 Clear 6 1013 81 10000 2.06 300 06:59 21.04.2021
53 Clear 6 1013 81 10000 2.57 290 05:45 21.04.2021
54 Clear 9 1014 66 10000 2.57 350 01:34 21.04.2021
55 Clear 10 1014 57 10000 1.03 40 23:59 20.04.2021
56 Clear 10 1014 53 10000 1.03 0 23:38 20.04.2021
57 Clear 11 1014 50 10000 2.06 50 22:45 20.04.2021
58 Clear 12 1014 44 10000 2.57 350 22:23 20.04.2021
59 Clear 12 1014 47 10000 3.09 340 21:48 20.04.2021
60 Clear 13 1014 41 10000 3.6 360 21:28 20.04.2021
61 Clear 13 1013 36 10000 5.66 350 20:58 20.04.2021
62 Clear 15 1013 36 10000 5.66 350 20:38 20.04.2021
63 Clear 16 1013 36 10000 3.6 360 20:18 20.04.2021
64 Clear 16 1013 34 10000 2.57 330 19:45 20.04.2021
65 Clear 17 1013 34 10000 2.57 320 19:27 20.04.2021
66 Clear 18 1013 32 10000 4.63 340 18:42 20.04.2021
67 Clear 18 1013 36 10000 2.57 270 18:22 20.04.2021
68 Clear 18 1013 39 10000 2.57 340 17:40 20.04.2021
69 Clouds 19 1013 45 10000 2.57 240 16:50 20.04.2021
70 Clouds 18 1014 48 10000 3.09 240 16:25 20.04.2021
71 Clouds 18 1015 55 10000 2.06 0 15:30 20.04.2021
72 Clouds 16 1015 55 10000 3.09 270 14:59 20.04.2021
73 Clouds 17 1015 55 10000 3.09 270 14:36 20.04.2021
74 Clear 16 1015 55 10000 2.06 0 13:55 20.04.2021
75 Clear 16 1015 58 10000 3.09 260 13:27 20.04.2021
76 Clear 16 1016 62 10000 2.06 250 12:53 20.04.2021
77 Clear 14 1016 62 10000 2.06 270 12:23 20.04.2021
78 Clear 15 1016 67 10000 2.06 270 11:46 20.04.2021
79 Clear 15 1016 67 10000 2.06 270 11:46 20.04.2021
80 Clear 13 1016 71 10000 2.57 270 11:25 20.04.2021
81 Clear 14 1016 76 10000 1.54 0 10:47 20.04.2021
82 Clouds 12 1016 76 10000 1.54 270 10:24 20.04.2021
83 Clouds 11 1016 76 10000 1.54 270 09:45 20.04.2021
84 Clear 10 1016 76 10000 1.03 0 09:18 20.04.2021
85 Clear 9 1016 81 10000 2.06 340 08:42 20.04.2021
86 Clear 7 1016 87 10000 1.54 100 07:53 20.04.2021
87 Clear 6 1016 93 10000 2.06 30 07:22 20.04.2021
88 Clear 6 1016 93 10000 1.54 30 05:42 20.04.2021
89 Clear 6 1016 93 10000 2.06 340 04:43 20.04.2021
90 Clear 7 1017 81 10000 3.09 20 03:34 20.04.2021
91 Clear 9 1017 93 10000 2.06 40 00:51 20.04.2021
92 Clouds 10 1017 87 10000 2.57 260 23:54 19.04.2021
93 Clear 10 1017 87 10000 2.06 320 23:30 19.04.2021
94 Clear 11 1017 87 10000 1.54 10 22:39 19.04.2021
95 Clear 12 1018 82 10000 1.03 0 22:19 19.04.2021
96 Clouds 12 1018 82 10000 2.57 70 21:38 19.04.2021
97 Clouds 13 1018 76 10000 5.66 80 21:20 19.04.2021
98 Clouds 13 1017 82 10000 3.09 290 20:41 19.04.2021
99 Clear 13 1017 77 10000 3.6 270 20:20 19.04.2021
100 Clear 15 1017 77 10000 4.63 270 19:48 19.04.2021
101 Clear 16 1017 72 10000 4.63 270 19:26 19.04.2021
102 Clouds 16 1017 72 10000 4.63 270 18:59 19.04.2021
103 Clouds 17 1017 72 10000 4.63 270 18:38 19.04.2021
104 Clouds 17 1017 72 10000 5.14 270 18:19 19.04.2021
105 Clouds 17 1017 72 10000 5.14 260 17:43 19.04.2021
106 Clouds 17 1017 72 10000 5.14 270 17:23 19.04.2021
107 Clouds 17 1018 72 10000 4.63 270 16:43 19.04.2021
108 Clear 17 1018 77 10000 5.14 280 16:24 19.04.2021
109 Clear 16 1018 82 10000 5.66 290 15:42 19.04.2021
110 Clouds 16 1019 82 10000 5.14 280 15:23 19.04.2021
111 Clouds 15 1019 87 10000 4.12 270 14:51 19.04.2021
112 Clouds 15 1019 73 10000 4.02 268 14:30 19.04.2021
113 Clouds 14 1020 93 7000 3.6 260 13:50 19.04.2021
114 Clouds 13 1020 93 7000 3.6 260 13:27 19.04.2021
115 Clouds 13 1020 93 8000 4.12 250 12:47 19.04.2021
116 Clouds 12 1020 87 9000 3.09 270 12:27 19.04.2021
117 Clouds 11 1020 87 9000 2.06 290 11:58 19.04.2021
118 Clouds 11 1020 87 9000 2.57 300 11:27 19.04.2021
119 Clouds 10 1020 93 10000 2.57 10 10:55 19.04.2021
120 Clouds 10 1021 93 9000 1.03 0 10:36 19.04.2021
121 Clouds 9 1021 93 9000 1.03 0 10:18 19.04.2021
122 Clouds 9 1021 93 9000 1.03 0 10:18 19.04.2021
123 Clouds 8 1020 93 9000 2.06 350 09:38 19.04.2021
124 Clouds 7 1020 93 6000 1.54 320 09:20 19.04.2021
125 Mist 6 1020 100 3800 1.03 0 08:32 19.04.2021
126 Mist 6 1020 100 3200 1.03 0 07:49 19.04.2021
127 Mist 5 1020 100 3300 2.06 20 07:21 19.04.2021
128 Fog 5 1020 100 200 1.03 0 06:44 19.04.2021
129 Clouds 7 1020 92 10000 1.83 68 02:41 19.04.2021
130 Fog 6 1021 100 250 0.51 0 01:40 19.04.2021
131 Fog 7 1021 100 10000 2.06 50 00:33 19.04.2021
132 Fog 8 1020 93 10000 2.06 60 23:19 18.04.2021
133 Clouds 8 1020 93 10000 2.57 50 22:53 18.04.2021
134 Clear 8 1020 87 10000 0.51 0 22:31 18.04.2021
135 Clear 8 1020 87 10000 1.54 20 21:49 18.04.2021
136 Clouds 9 1020 87 10000 2.06 360 21:27 18.04.2021
137 Clouds 9 1020 93 10000 2.06 350 20:43 18.04.2021
138 Clear 9 1020 93 10000 2.57 320 20:24 18.04.2021
139 Clear 9 1020 93 10000 2.57 320 20:24 18.04.2021
140 Clouds 10 1020 87 10000 2.06 320 19:56 18.04.2021
141 Clouds 10 1020 87 10000 2.06 320 19:37 18.04.2021
142 Clouds 10 1019 93 10000 2.57 160 19:18 18.04.2021
143 Rain 11 1019 85 10000 4.02 147 18:39 18.04.2021
144 Rain 12 987 83 10000 3.16 84 18:21 18.04.2021
145 Rain 13 1018 67 10000 2.06 260 17:45 18.04.2021
146 Rain 14 1019 67 10000 1.03 0 17:26 18.04.2021
147 Clouds 14 1019 67 10000 2.06 0 16:45 18.04.2021
148 Clouds 12 1019 76 10000 2.06 40 16:24 18.04.2021
149 Clouds 13 1019 87 10000 3.09 80 15:43 18.04.2021
150 Clouds 13 1019 87 10000 3.09 80 15:25 18.04.2021
151 Clouds 13 1019 82 10000 3.6 20 14:46 18.04.2021
152 Clouds 13 1019 81 10000 3.6 360 14:23 18.04.2021
153 Clouds 12 1020 81 10000 3.09 20 13:55 18.04.2021
154 Clouds 12 1020 81 10000 3.09 20 13:34 18.04.2021
155 Clouds 10 1020 87 10000 3.6 360 12:51 18.04.2021
156 Clouds 11 1020 93 10000 4.12 340 12:28 18.04.2021
157 Mist 8 1020 93 5000 5.14 340 11:43 18.04.2021
158 Rain 7 1020 100 8000 5.14 340 11:21 18.04.2021
159 Mist 7 1020 93 5000 3.09 340 10:48 18.04.2021
160 Rain 7 1020 93 3500 4.63 350 10:23 18.04.2021
161 Rain 6 1020 93 3500 3.09 330 09:53 18.04.2021
162 Rain 7 1020 93 3500 3.09 330 09:35 18.04.2021
163 Fog 7 1020 100 900 2.06 30 08:57 18.04.2021
164 Fog 6 1020 100 1200 2.06 20 08:37 18.04.2021
165 Fog 6 1020 100 1200 2.06 20 08:18 18.04.2021
166 Clouds 6 1020 90 10000 2.68 350 07:38 18.04.2021
167 Clouds 6 1020 93 9000 2.57 20 05:45 18.04.2021
168 Clouds 6 1020 93 9000 1.54 20 05:24 18.04.2021
169 Clouds 6 1020 100 9000 1.54 10 03:26 18.04.2021
170 Clouds 6 1020 100 10000 2.57 40 02:22 18.04.2021
171 Clouds 7 1020 93 10000 3.6 30 00:40 18.04.2021
172 Clouds 8 1020 93 10000 3.6 30 00:40 18.04.2021
173 Clouds 8 1020 93 10000 3.09 30 23:39 17.04.2021
174 Clouds 9 1020 100 10000 1.03 0 22:54 17.04.2021
175 Clouds 9 1020 93 10000 2.57 60 22:31 17.04.2021
176 Rain 9 1020 87 10000 5.14 60 21:51 17.04.2021
177 Rain 10 1020 71 10000 3.6 60 21:31 17.04.2021
178 Rain 11 1020 71 10000 2.06 250 20:59 17.04.2021
179 Clear 11 1019 66 10000 3.09 220 20:28 17.04.2021
180 Clouds 11 1019 66 10000 3.09 190 19:46 17.04.2021
181 Clouds 12 1019 62 10000 3.09 220 19:22 17.04.2021
182 Clear 12 1019 62 10000 2.57 240 18:58 17.04.2021
183 Clear 13 1019 62 10000 2.57 240 18:37 17.04.2021
184 Clouds 13 1020 62 10000 2.57 240 18:00 17.04.2021
185 Clouds 13 1020 62 10000 2.57 240 17:40 17.04.2021
186 Clouds 13 1020 62 10000 1.03 0 16:55 17.04.2021
187 Clouds 12 1020 62 10000 2.06 290 16:28 17.04.2021
188 Clouds 13 1020 62 10000 1.03 0 15:55 17.04.2021
189 Clouds 12 1020 62 10000 1.03 0 14:51 17.04.2021
190 Clouds 12 1021 62 10000 2.06 310 14:33 17.04.2021
191 Clouds 12 1021 66 10000 1.54 350 13:50 17.04.2021
192 Clouds 11 1021 62 10000 2.06 0 13:25 17.04.2021
193 Clouds 10 1021 62 10000 2.57 330 12:42 17.04.2021
194 Clouds 9 1021 66 10000 2.06 360 12:20 17.04.2021
195 Clouds 9 1021 66 10000 3.09 20 11:45 17.04.2021
196 Clouds 8 1021 70 10000 2.57 40 11:27 17.04.2021
197 Clouds 7 1021 70 10000 3.6 30 10:46 17.04.2021
198 Clouds 7 1021 70 10000 4.12 10 10:27 17.04.2021
199 Clouds 7 1021 70 10000 4.12 360 09:39 17.04.2021
200 Clouds 6 1021 65 10000 4.12 340 08:41 17.04.2021
201 Clouds 6 1021 65 10000 4.63 340 08:21 17.04.2021
202 Clear 6 1021 61 10000 4.12 330 06:58 17.04.2021
203 Clouds 6 1022 65 10000 4.12 300 03:55 17.04.2021
204 Clouds 6 1022 65 10000 4.12 300 03:37 17.04.2021
205 Clouds 7 1023 61 10000 5.66 20 00:49 17.04.2021
206 Rain 7 1023 61 10000 5.14 360 00:28 17.04.2021
207 Clouds 7 1024 61 10000 6.17 360 23:48 16.04.2021
208 Clouds 7 1023 61 10000 6.17 10 23:25 16.04.2021
209 Clear 7 1023 53 10000 6.69 10 22:50 16.04.2021
210 Clear 7 1023 53 10000 6.17 360 22:21 16.04.2021
211 Clear 8 1023 53 10000 6.17 10 21:51 16.04.2021
212 Clear 8 1023 49 10000 6.69 10 21:30 16.04.2021
213 Clear 8 1023 49 10000 6.17 360 20:50 16.04.2021
214 Clear 9 1023 46 10000 5.66 10 20:27 16.04.2021
215 Clear 9 1023 46 10000 6.17 360 19:55 16.04.2021
216 Clear 10 1023 46 10000 6.17 360 19:30 16.04.2021
217 Clear 10 1022 46 10000 5.14 20 18:46 16.04.2021
218 Clear 11 1022 40 10000 5.66 10 18:21 16.04.2021
219 Clear 11 1022 43 10000 5.66 360 17:45 16.04.2021
220 Clear 11 1022 43 10000 5.66 330 17:19 16.04.2021
221 Clear 12 1023 43 10000 5.14 20 16:43 16.04.2021
222 Clear 12 1023 43 10000 5.66 350 16:24 16.04.2021
223 Clear 12 1023 40 10000 6.17 20 15:51 16.04.2021
224 Clear 12 1023 40 10000 5.66 320 15:23 16.04.2021
225 Clouds 12 1023 46 10000 5.14 20 14:42 16.04.2021
226 Clouds 11 1024 46 10000 5.66 360 14:20 16.04.2021
227 Clouds 11 1024 49 10000 5.66 30 13:50 16.04.2021
228 Clouds 11 1024 57 10000 5.14 10 13:21 16.04.2021
229 Clouds 10 1024 57 10000 5.66 360 12:49 16.04.2021
230 Clouds 10 1024 66 10000 6.26 10 12:29 16.04.2021
231 Clouds 9 1024 65 10000 6.17 360 11:58 16.04.2021
232 Clouds 8 1024 65 10000 6.17 10 11:27 16.04.2021
233 Clouds 8 1024 65 10000 6.17 360 10:59 16.04.2021
234 Clouds 7 1024 65 10000 6.17 360 10:39 16.04.2021
235 Clouds 7 1024 70 10000 6.17 10 10:19 16.04.2021
236 Clouds 6 1024 70 10000 6.69 10 09:43 16.04.2021
237 Clouds 6 1024 75 10000 6.17 360 09:20 16.04.2021
238 Clouds 5 1024 75 10000 5.14 10 08:42 16.04.2021
239 Clouds 5 1024 75 10000 5.14 360 08:18 16.04.2021
240 Clouds 4 1024 75 10000 5.66 350 07:37 16.04.2021
241 Clouds 4 1024 75 10000 5.14 350 06:59 16.04.2021
242 Clouds 4 1024 75 10000 5.66 350 06:24 16.04.2021
243 Clear 4 1024 75 10000 4.63 350 04:23 16.04.2021
244 Clouds 4 1025 87 10000 5.14 340 01:38 16.04.2021
245 Clouds 3 1025 87 10000 5.14 340 00:42 16.04.2021
246 Clouds 3 1025 87 10000 4.63 350 00:20 16.04.2021
247 Clouds 3 1025 87 10000 5.66 340 23:45 15.04.2021
248 Clouds 3 1025 87 10000 7.72 340 23:25 15.04.2021
249 Clouds 3 1026 93 10000 5.66 340 22:47 15.04.2021
250 Clouds 3 1026 87 10000 5.66 330 22:23 15.04.2021
251 Clouds 3 1026 87 10000 5.66 330 21:43 15.04.2021
252 Clouds 3 1026 87 10000 6.17 340 21:24 15.04.2021
253 Snow 4 1026 87 10000 6.17 10 20:47 15.04.2021
254 Rain 5 1026 75 10000 7.2 20 20:25 15.04.2021
255 Clouds 6 1026 65 10000 7.2 10 19:47 15.04.2021
256 Clouds 6 1026 56 10000 8.75 40 19:28 15.04.2021
257 Clear 7 1026 42 10000 9.26 360 18:59 15.04.2021
258 Clear 8 1025 42 10000 7.2 10 18:37 15.04.2021
259 Clear 8 1025 42 10000 7.2 10 18:18 15.04.2021
260 Clear 8 1026 42 10000 9.26 10 17:51 15.04.2021
261 Clear 8 1026 39 10000 7.72 350 17:29 15.04.2021
262 Clear 8 1026 39 10000 6.69 20 16:44 15.04.2021
263 Clear 8 1026 42 10000 6.17 10 16:24 15.04.2021
264 Clouds 8 1026 42 10000 7.2 360 15:47 15.04.2021
265 Clouds 8 1026 45 10000 6.17 10 15:27 15.04.2021
266 Clouds 8 1027 52 10000 7.2 360 14:44 15.04.2021
267 Clouds 8 1027 49 10000 8.75 10 14:25 15.04.2021
268 Clouds 8 1027 45 10000 6.17 360 13:49 15.04.2021
269 Clouds 8 1027 45 10000 7.72 10 13:25 15.04.2021
270 Clouds 8 1027 42 10000 8.23 10 12:50 15.04.2021
271 Clouds 8 1027 45 10000 6.69 20 12:27 15.04.2021
272 Clouds 8 1027 49 10000 7.72 30 11:48 15.04.2021
273 Clouds 7 1027 56 10000 6.69 10 11:29 15.04.2021
274 Clouds 7 1027 56 10000 6.17 20 10:59 15.04.2021
275 Clouds 7 1027 56 10000 6.17 20 10:40 15.04.2021
276 Clouds 6 1027 65 10000 5.14 360 10:22 15.04.2021
277 Clear 5 1027 70 10000 5.14 360 09:31 15.04.2021
278 Clear 4 1027 75 10000 4.12 340 08:53 15.04.2021
279 Clear 3 1027 75 10000 4.12 340 08:34 15.04.2021
280 Clear 2 1027 80 10000 3.6 330 07:47 15.04.2021
281 Clear 2 1027 80 10000 3.6 340 07:18 15.04.2021
282 Clear 1 1027 75 10000 3.6 340 06:36 15.04.2021
283 Clear 1 1027 75 10000 3.09 340 05:47 15.04.2021
284 Clear 2 1027 69 10000 2.57 340 03:59 15.04.2021
285 Clear 4 1027 56 10000 4.12 30 00:23 15.04.2021
286 Clear 4 1027 65 10000 2.57 10 23:36 14.04.2021
287 Clouds 5 1027 60 10000 3.09 30 22:59 14.04.2021
288 Clouds 5 1027 60 10000 3.09 30 22:41 14.04.2021
289 Clouds 5 1027 60 10000 3.09 360 22:21 14.04.2021
290 Clouds 6 1027 56 10000 3.09 350 21:42 14.04.2021
291 Clouds 6 1026 52 10000 3.6 350 21:22 14.04.2021
292 Clouds 6 1026 49 10000 3.6 350 20:54 14.04.2021
293 Clouds 7 1026 45 10000 6.17 360 20:31 14.04.2021
294 Clouds 7 1026 45 10000 6.17 360 20:31 14.04.2021
295 Clouds 7 1026 49 10000 4.12 20 19:48 14.04.2021
296 Clouds 8 1026 46 10000 6.69 10 19:19 14.04.2021
297 Clouds 8 1026 42 10000 3.09 20 18:55 14.04.2021
298 Clouds 9 1026 46 10000 3.6 340 18:21 14.04.2021
299 Clouds 9 1026 46 10000 5.14 300 17:58 14.04.2021
300 Clouds 9 1026 46 10000 4.63 330 17:25 14.04.2021
301 Clouds 9 1026 49 10000 4.63 310 16:54 14.04.2021
302 Clouds 9 1027 52 10000 3.13 299 16:25 14.04.2021
303 Clouds 9 1026 53 10000 5.66 340 15:42 14.04.2021
304 Clouds 9 1026 49 10000 4.12 330 15:23 14.04.2021
305 Clouds 9 1026 42 10000 3.6 320 14:49 14.04.2021
306 Clouds 9 1026 46 10000 4.63 310 14:25 14.04.2021
307 Clouds 9 1026 46 10000 4.63 310 14:25 14.04.2021
308 Clouds 10 994 46 10000 3.79 317 13:57 14.04.2021
309 Clouds 9 1027 56 10000 3.6 310 13:36 14.04.2021
310 Clouds 9 1027 53 10000 3.09 360 12:39 14.04.2021
311 Clouds 8 1027 61 10000 4.63 330 11:44 14.04.2021
312 Clouds 7 1027 65 10000 3.6 300 11:25 14.04.2021
313 Clouds 6 1028 70 10000 4.12 330 10:55 14.04.2021
314 Clouds 6 1028 70 10000 4.12 330 10:33 14.04.2021
315 Clouds 4 1028 75 10000 4.63 320 09:42 14.04.2021
316 Clouds 4 1028 81 10000 4.63 300 09:21 14.04.2021
317 Clouds 3 1028 81 10000 3.09 300 08:46 14.04.2021
318 Clouds 2 1027 87 10000 3.6 300 08:22 14.04.2021
319 Clouds 1 1027 86 10000 3.09 280 07:26 14.04.2021
320 Clear 1 1027 86 10000 2.57 280 06:26 14.04.2021
321 Clear 2 1027 80 10000 3.09 290 05:20 14.04.2021
322 Clouds 3 1027 86 10000 3.6 270 01:54 14.04.2021
323 Clouds 3 1027 87 10000 2.57 280 00:47 14.04.2021
324 Clouds 4 1027 75 10000 2.06 300 23:59 13.04.2021
325 Clouds 4 1027 81 10000 1.54 340 23:31 13.04.2021
326 Clouds 5 1027 70 10000 5.66 360 22:44 13.04.2021
327 Clouds 6 1027 65 10000 3.09 300 22:20 13.04.2021
328 Rain 6 1027 70 10000 3.09 270 21:48 13.04.2021
329 Clouds 6 1027 70 10000 3.09 290 21:29 13.04.2021
330 Clouds 6 1027 70 10000 2.57 280 20:48 13.04.2021
331 Clouds 7 1027 70 10000 2.57 270 20:24 13.04.2021
332 Clouds 8 1026 61 10000 3.09 270 19:56 13.04.2021
333 Clouds 8 1027 70 10000 8.75 300 19:25 13.04.2021
334 Clouds 9 1026 43 10000 5.66 270 18:48 13.04.2021
335 Clouds 9 1026 43 10000 5.14 280 18:30 13.04.2021
336 Clouds 10 1026 46 10000 6.69 280 17:40 13.04.2021
337 Clouds 10 1026 46 10000 6.17 280 17:19 13.04.2021
338 Clouds 11 1026 51 10000 4.92 282 16:45 13.04.2021
339 Clouds 10 1027 49 10000 5.14 280 16:26 13.04.2021
340 Clouds 10 1027 49 10000 6.17 290 15:55 13.04.2021
341 Clouds 10 1027 46 10000 6.69 290 15:36 13.04.2021
342 Clouds 9 1028 49 10000 6.69 290 14:54 13.04.2021
343 Clouds 9 1027 55 10000 4.47 285 14:24 13.04.2021
344 Clouds 9 1028 57 10000 5.66 280 13:53 13.04.2021
345 Clouds 9 1028 61 10000 4.63 310 13:27 13.04.2021
346 Clouds 9 1028 57 10000 5.14 280 12:59 13.04.2021
347 Clouds 9 1028 61 10000 6.17 300 12:41 13.04.2021
348 Clouds 9 1028 61 10000 6.17 300 12:22 13.04.2021
349 Clouds 7 1028 61 10000 5.66 260 11:36 13.04.2021
350 Clouds 7 1028 65 10000 6.17 270 10:57 13.04.2021
351 Clouds 6 1028 70 10000 5.66 270 10:39 13.04.2021
352 Clouds 6 1028 70 10000 5.66 270 10:18 13.04.2021
353 Clouds 5 1028 75 10000 4.12 260 09:46 13.04.2021
354 Clouds 4 1028 81 10000 4.12 270 09:19 13.04.2021
355 Clear 3 1028 80 10000 3.6 260 08:43 13.04.2021
356 Clear 2 1028 93 10000 1.03 0 08:21 13.04.2021
357 Clear 1 1028 93 10000 2.06 240 07:43 13.04.2021
358 Clear 1 1028 93 10000 2.06 260 07:22 13.04.2021
359 Clear 1 1027 93 10000 2.57 270 06:22 13.04.2021
360 Clear 1 1027 86 10000 2.57 270 03:41 13.04.2021
361 Clear 3 1027 80 10000 3.09 260 01:31 13.04.2021
362 Clear 3 1026 80 10000 3.09 250 23:51 12.04.2021
363 Clear 4 1026 75 10000 2.57 260 23:32 12.04.2021
364 Clear 4 1026 75 10000 2.57 270 22:50 12.04.2021
365 Clouds 5 1026 70 10000 3.6 280 22:31 12.04.2021
366 Clear 5 1026 65 10000 4.63 270 21:48 12.04.2021
367 Clear 6 1025 65 10000 3.09 240 21:25 12.04.2021
368 Clouds 6 1024 70 10000 3.58 246 20:58 12.04.2021
369 Clear 6 1025 65 10000 2.57 240 20:36 12.04.2021
370 Clear 7 1025 61 10000 3.09 260 20:18 12.04.2021
371 Clouds 8 1025 57 10000 3.6 270 19:39 12.04.2021
372 Clouds 8 1025 57 10000 3.6 270 19:21 12.04.2021
373 Clouds 9 1024 54 10000 4.02 305 18:48 12.04.2021
374 Clouds 9 1024 49 10000 5.66 280 18:30 12.04.2021
375 Clouds 9 1024 46 10000 4.63 300 17:59 12.04.2021
376 Clouds 9 1024 46 10000 4.63 300 17:40 12.04.2021
377 Clouds 9 1024 49 10000 5.66 290 17:19 12.04.2021
378 Clouds 9 1023 55 10000 4.92 298 16:38 12.04.2021
379 Clouds 9 1023 53 10000 4.92 309 16:19 12.04.2021
380 Clouds 9 1023 53 10000 5.14 300 15:39 12.04.2021
381 Clouds 8 1023 57 10000 6.17 300 14:59 12.04.2021
382 Clouds 8 1023 61 10000 6.17 290 14:40 12.04.2021
383 Clouds 8 1023 61 10000 6.17 290 14:22 12.04.2021
384 Clouds 8 1023 65 10000 6.69 290 13:41 12.04.2021
385 Rain 8 1023 61 10000 5.14 310 13:19 12.04.2021
386 Clouds 8 1022 61 10000 5.14 300 12:44 12.04.2021
387 Clouds 7 1022 65 10000 5.14 320 12:23 12.04.2021
388 Clouds 7 1022 65 10000 5.66 300 11:43 12.04.2021
389 Clouds 6 1021 70 10000 5.66 310 10:52 12.04.2021
390 Clouds 5 1021 75 10000 5.14 310 10:28 12.04.2021
391 Clouds 5 1021 75 10000 5.14 310 10:28 12.04.2021
392 Rain 5 1021 81 10000 5.14 310 09:54 12.04.2021
393 Clouds 5 1021 81 10000 5.14 310 09:33 12.04.2021
394 Clouds 4 1020 81 10000 4.63 300 08:59 12.04.2021
395 Clouds 4 1020 81 10000 5.14 310 08:27 12.04.2021
396 Clouds 4 1019 87 10000 4.63 300 07:31 12.04.2021
397 Rain 4 1018 87 10000 4.63 290 06:47 12.04.2021
398 Clouds 4 1017 93 10000 3.6 300 05:50 12.04.2021
399 Clouds 4 1017 87 10000 5.66 310 03:58 12.04.2021
400 Clouds 6 1014 87 10000 8.75 290 00:50 12.04.2021
401 Clouds 6 1013 87 10000 6.17 290 00:23 12.04.2021
402 Clouds 7 1012 87 10000 5.14 310 23:45 11.04.2021
403 Clouds 7 1012 87 10000 6.69 310 23:23 11.04.2021
404 Clouds 9 1012 87 10000 7.72 300 22:41 11.04.2021
405 Rain 9 1012 87 10000 8.23 290 22:22 11.04.2021
406 Clouds 11 1011 93 10000 7.72 310 21:45 11.04.2021
407 Clouds 12 1010 88 9000 7.2 300 21:27 11.04.2021
408 Rain 14 1009 72 10000 7.2 290 20:52 11.04.2021
409 Rain 16 1008 55 10000 1.03 0 20:28 11.04.2021
410 Rain 16 1008 55 10000 3.09 220 19:54 11.04.2021
411 Clear 17 1008 48 10000 3.09 220 19:36 11.04.2021
412 Clear 17 1008 48 10000 3.09 220 19:18 11.04.2021
413 Clear 17 1008 48 10000 3.09 220 19:18 11.04.2021
414 Clear 18 1008 48 10000 3.09 200 18:42 11.04.2021
415 Clear 19 1008 45 10000 3.09 200 18:23 11.04.2021
416 Clear 19 1008 45 10000 3.6 220 17:45 11.04.2021
417 Clear 20 1008 40 10000 4.12 200 17:26 11.04.2021
418 Clear 20 1008 40 10000 6.17 210 16:47 11.04.2021
419 Clear 20 1008 40 10000 6.17 220 16:23 11.04.2021
420 Clear 20 1008 39 10000 5.66 210 15:54 11.04.2021
421 Clear 20 1008 40 10000 4.12 200 15:27 11.04.2021
422 Clear 20 1008 42 10000 3.09 180 14:55 11.04.2021
423 Clear 20 1009 45 10000 4.12 180 14:31 11.04.2021
424 Clear 18 1009 48 10000 4.12 160 13:52 11.04.2021
425 Clear 17 1009 55 10000 2.57 150 13:31 11.04.2021
426 Clear 16 1009 55 10000 3.6 190 12:54 11.04.2021
427 Clear 15 1009 55 10000 4.63 170 12:22 11.04.2021
428 Clear 14 1009 62 10000 4.63 160 11:52 11.04.2021
429 Clear 12 1009 62 10000 5.14 150 11:27 11.04.2021
430 Clear 11 1009 71 10000 4.63 140 10:50 11.04.2021
431 Clear 10 1010 76 10000 4.12 130 10:31 11.04.2021
432 Clear 10 1010 81 10000 4.63 130 09:58 11.04.2021
433 Clouds 8 1010 87 9000 4.12 110 09:35 11.04.2021
434 Clouds 8 1010 87 6000 4.12 110 08:59 11.04.2021
435 Clouds 7 1010 87 6000 3.09 100 08:26 11.04.2021
436 Rain 7 1010 87 6000 3.6 110 07:24 11.04.2021
437 Mist 7 1011 87 4800 3.6 110 06:56 11.04.2021
438 Rain 7 1011 93 4800 4.63 100 05:44 11.04.2021
439 Rain 7 1011 93 4500 4.63 100 05:21 11.04.2021
440 Rain 7 1012 100 4500 3.09 100 04:35 11.04.2021
441 Rain 7 1013 93 7000 3.09 70 02:56 11.04.2021
442 Rain 7 1014 87 10000 4.63 90 00:40 11.04.2021
443 Rain 7 1015 87 10000 4.63 100 23:51 10.04.2021
444 Rain 7 1015 87 10000 4.63 90 23:27 10.04.2021
445 Clouds 8 1015 81 10000 3.6 90 22:45 10.04.2021
446 Clouds 8 1016 81 10000 3.6 90 22:24 10.04.2021
447 Clear 8 1016 87 10000 2.57 90 21:50 10.04.2021
448 Clear 8 1016 87 10000 2.57 110 21:23 10.04.2021
449 Clouds 8 1016 76 10000 4.47 113 20:48 10.04.2021
450 Clouds 8 1016 81 10000 3.09 120 20:29 10.04.2021
451 Clouds 9 1016 74 10000 3.13 101 19:45 10.04.2021
452 Clouds 9 1016 76 10000 3.09 110 19:27 10.04.2021
453 Clouds 8 1016 76 10000 3.6 110 18:54 10.04.2021
454 Clouds 9 1016 71 10000 3.09 100 18:34 10.04.2021
455 Clouds 9 1016 71 10000 3.09 100 17:54 10.04.2021
456 Clouds 9 1016 71 10000 3.09 100 17:34 10.04.2021
457 Clouds 9 1016 66 10000 2.57 50 16:31 10.04.2021
458 Clouds 9 1016 66 10000 1.54 60 15:56 10.04.2021
459 Clouds 9 1016 66 10000 1.54 60 15:35 10.04.2021
460 Clouds 9 1016 71 10000 2.06 70 14:50 10.04.2021
461 Clouds 9 1016 71 10000 1.03 0 14:25 10.04.2021
462 Clouds 9 1016 76 10000 1.54 70 13:47 10.04.2021
463 Clouds 8 1016 76 10000 2.06 70 13:28 10.04.2021
464 Clouds 8 1016 76 10000 2.57 70 12:38 10.04.2021
465 Clouds 8 1015 87 10000 2.57 40 11:59 10.04.2021
466 Clouds 7 1015 87 10000 2.57 40 11:41 10.04.2021
467 Clouds 7 1015 87 10000 2.57 30 11:18 10.04.2021
468 Clouds 7 1015 87 10000 2.57 30 10:42 10.04.2021
469 Rain 7 1014 93 10000 2.06 60 10:23 10.04.2021
470 Clouds 6 1014 93 10000 1.54 90 09:30 10.04.2021
471 Clouds 6 1014 93 10000 1.54 90 09:30 10.04.2021
472 Clouds 6 1014 87 10000 1.54 80 08:59 10.04.2021
473 Rain 6 1014 87 10000 1.03 30 08:33 10.04.2021
474 Rain 6 1013 93 10000 1.03 0 07:54 10.04.2021
475 Rain 6 1013 81 10000 1.03 0 07:25 10.04.2021
476 Rain 6 1012 70 10000 2.57 20 06:27 10.04.2021
477 Clear 6 1012 75 10000 1.54 240 04:49 10.04.2021
478 Clear 5 1012 70 10000 1.03 0 03:19 10.04.2021
479 Clear 6 1012 65 10000 1.54 210 02:42 10.04.2021
480 Clear 7 1012 61 10000 3.6 220 00:59 10.04.2021
481 Clear 8 1012 57 10000 4.12 220 00:30 10.04.2021
482 Clear 9 1013 53 10000 3.6 220 23:49 09.04.2021
483 Clear 10 1013 53 10000 3.09 200 23:27 09.04.2021
484 Clear 9 1013 57 10000 2.57 210 22:47 09.04.2021
485 Clear 9 1013 53 10000 2.57 230 22:28 09.04.2021
486 Clear 10 1012 57 10000 2.57 240 21:40 09.04.2021
487 Clear 11 1012 50 10000 3.09 230 21:21 09.04.2021
488 Clear 11 1012 46 10000 3.09 220 20:46 09.04.2021
489 Clear 12 1012 50 10000 3.6 230 20:23 09.04.2021
490 Clear 12 1012 43 10000 4.12 230 19:58 09.04.2021
491 Clear 12 1012 43 10000 4.12 230 19:40 09.04.2021
492 Clear 12 1012 43 10000 4.12 230 19:22 09.04.2021
493 Clear 13 1012 43 10000 6.69 230 18:43 09.04.2021
494 Clear 13 1012 43 10000 6.69 250 18:25 09.04.2021
495 Clear 13 1012 41 10000 6.17 260 17:48 09.04.2021
496 Clear 13 1012 38 10000 7.72 250 17:29 09.04.2021
497 Clear 14 1012 41 10000 8.75 250 16:48 09.04.2021
498 Clear 14 1012 38 10000 8.75 230 16:29 09.04.2021
499 Clear 14 1012 40 10000 7.2 230 15:47 09.04.2021
500 Clear 13 1013 40 10000 9.77 240 15:24 09.04.2021
501 Clear 14 1013 41 10000 8.23 230 14:46 09.04.2021
502 Clear 13 1013 43 10000 8.75 250 14:28 09.04.2021
503 Clear 12 1013 43 10000 9.26 240 13:45 09.04.2021
504 Clear 12 1013 43 10000 8.75 230 13:22 09.04.2021
505 Clouds 12 1014 43 10000 8.75 230 12:47 09.04.2021
506 Clouds 12 1014 43 10000 8.75 230 12:47 09.04.2021
507 Clouds 12 1014 43 10000 8.75 230 12:47 09.04.2021
508 Clouds 11 1014 46 10000 8.75 230 12:24 09.04.2021
509 Clear 10 1014 43 10000 9.26 230 11:43 09.04.2021
510 Clear 10 1015 46 10000 8.75 230 11:20 09.04.2021
511 Clear 7 1015 53 10000 8.23 220 10:37 09.04.2021
512 Clear 7 1015 56 10000 7.2 220 09:59 09.04.2021
513 Clear 6 1015 56 10000 7.72 210 09:28 09.04.2021
514 Clear 4 1016 60 10000 6.69 210 08:56 09.04.2021
515 Clear 4 1016 60 10000 6.69 210 08:34 09.04.2021
516 Clear 2 1016 69 10000 5.66 190 07:34 09.04.2021
517 Clear 2 1016 69 10000 6.17 200 06:30 09.04.2021
518 Clear 2 1017 69 10000 5.66 190 05:45 09.04.2021
519 Clear 2 1019 75 10000 4.12 190 03:43 09.04.2021
520 Clear 4 1020 60 10000 5.14 210 00:40 09.04.2021
521 Clear 4 1020 60 10000 5.14 220 00:21 09.04.2021
522 Clear 5 1021 60 10000 4.63 220 23:57 08.04.2021
523 Clear 5 1021 56 10000 4.63 230 22:58 08.04.2021
524 Clear 5 1021 56 10000 4.63 230 22:40 08.04.2021
525 Clear 5 1021 56 10000 4.63 230 22:40 08.04.2021
526 Clear 5 1021 56 10000 4.63 230 22:20 08.04.2021
527 Clear 5 1021 56 10000 4.63 230 21:54 08.04.2021
528 Clear 5 1021 56 10000 4.63 230 21:36 08.04.2021
529 Clear 5 1021 56 10000 5.14 230 21:18 08.04.2021
530 Clear 5 1021 56 10000 5.14 240 20:45 08.04.2021
531 Clear 5 1021 56 10000 5.66 250 20:25 08.04.2021
532 Clouds 6 1021 52 10000 6.69 250 19:42 08.04.2021
533 Clouds 6 1021 52 10000 6.69 260 19:19 08.04.2021
534 Clouds 6 1021 52 10000 7.2 260 18:45 08.04.2021
535 Clouds 7 1021 56 10000 5.66 270 18:20 08.04.2021
536 Clouds 7 1021 56 10000 6.17 270 17:49 08.04.2021
537 Clouds 7 1021 53 10000 5.14 280 17:24 08.04.2021
538 Clouds 7 1020 63 10000 7.6 266 16:49 08.04.2021
539 Clouds 7 1021 52 10000 7.72 270 16:28 08.04.2021
540 Clouds 8 1020 57 10000 7.6 264 15:47 08.04.2021
541 Clouds 7 1021 49 10000 7.72 280 15:28 08.04.2021
542 Clouds 8 1020 49 10000 8.23 280 14:45 08.04.2021
543 Clouds 7 1020 52 10000 8.23 290 14:25 08.04.2021
544 Clouds 8 1020 49 10000 7.72 290 13:56 08.04.2021
545 Clouds 8 1020 49 10000 7.72 290 13:38 08.04.2021
546 Clouds 8 1020 49 10000 7.72 290 13:38 08.04.2021
547 Clouds 8 1020 53 10000 7.72 300 13:19 08.04.2021
548 Clouds 7 1020 52 10000 8.75 290 12:38 08.04.2021
549 Clouds 7 1019 56 10000 9.77 290 12:18 08.04.2021
550 Clouds 6 1019 60 10000 10.29 290 11:42 08.04.2021
551 Clouds 5 1018 70 10000 10.29 290 10:58 08.04.2021
552 Clouds 5 1018 75 10000 10.29 280 10:36 08.04.2021
553 Clouds 4 1018 75 10000 10.29 280 10:18 08.04.2021
554 Clouds 4 1017 75 10000 9.26 280 09:41 08.04.2021
555 Clouds 3 1017 75 10000 9.26 280 08:46 08.04.2021
556 Clouds 3 1016 75 10000 8.75 280 08:28 08.04.2021
557 Clouds 3 1015 80 10000 8.75 280 07:57 08.04.2021
558 Clouds 2 1015 80 10000 8.75 280 07:35 08.04.2021
559 Clouds 3 1013 80 10000 8.75 280 03:54 08.04.2021
560 Clouds 3 1012 81 10000 9.77 280 01:19 08.04.2021
561 Clouds 3 1011 87 10000 8.23 270 00:19 08.04.2021
562 Clouds 3 1011 87 10000 7.2 270 23:41 07.04.2021
563 Rain 3 1010 81 10000 8.75 280 23:21 07.04.2021
564 Clouds 3 1010 93 10000 4.63 270 22:50 07.04.2021
565 Clouds 3 1010 87 10000 3.6 300 22:32 07.04.2021
566 Rain 3 1010 87 10000 6.69 250 21:47 07.04.2021
567 Rain 3 1010 87 10000 7.72 250 21:26 07.04.2021
568 Clouds 4 1010 87 10000 6.17 240 20:47 07.04.2021
569 Rain 3 1009 87 10000 8.23 260 20:21 07.04.2021
570 Rain 4 1009 75 10000 9.77 260 19:46 07.04.2021
571 Rain 5 1009 52 10000 7.72 260 19:26 07.04.2021
572 Rain 6 1009 52 10000 8.23 250 18:49 07.04.2021
573 Clouds 6 1009 52 10000 10.29 260 18:21 07.04.2021
574 Clouds 6 1009 52 10000 9.77 260 17:56 07.04.2021
575 Clouds 6 1009 52 10000 7.72 260 17:37 07.04.2021
576 Clouds 6 1009 56 10000 8.23 260 16:58 07.04.2021
577 Clouds 6 1009 56 10000 8.23 260 16:38 07.04.2021
578 Clouds 6 1010 52 10000 8.23 250 16:19 07.04.2021
579 Clouds 6 1010 52 10000 8.23 250 16:19 07.04.2021
580 Clouds 6 1010 52 10000 9.26 260 15:40 07.04.2021
581 Clouds 6 1010 52 10000 8.75 270 14:58 07.04.2021
582 Clouds 6 1010 56 10000 9.26 270 14:32 07.04.2021
583 Clouds 6 1010 52 10000 9.26 270 13:53 07.04.2021
584 Clouds 6 1009 45 10000 8.75 260 13:28 07.04.2021
585 Clouds 6 1009 52 10000 9.77 260 12:58 07.04.2021
586 Clouds 6 1009 60 10000 8.75 260 12:26 07.04.2021
587 Clouds 5 1009 65 10000 9.26 270 11:59 07.04.2021
588 Clouds 4 1009 70 10000 8.75 280 11:39 07.04.2021
589 Clouds 4 1009 70 10000 8.75 280 11:20 07.04.2021
590 Clouds 3 1009 80 10000 7.2 270 10:33 07.04.2021
591 Clouds 2 1008 75 10000 8.75 280 09:46 07.04.2021
592 Clouds 2 1008 75 10000 8.23 270 09:28 07.04.2021
593 Clouds 2 1008 75 10000 7.2 270 08:51 07.04.2021
594 Clouds 2 1008 80 10000 6.69 270 08:26 07.04.2021
595 Clouds 2 1007 80 10000 6.69 280 07:48 07.04.2021
596 Clouds 2 1007 80 10000 6.17 280 07:28 07.04.2021
597 Clouds 2 1006 80 10000 6.17 270 06:39 07.04.2021
598 Clouds 2 1006 80 10000 7.2 280 04:37 07.04.2021
599 Clouds 2 1005 80 10000 5.66 260 01:23 07.04.2021
600 Clouds 2 1004 80 10000 4.63 250 23:47 06.04.2021
601 Clouds 1 1004 80 10000 5.14 240 23:22 06.04.2021
602 Clouds 1 1004 86 10000 4.12 240 22:55 06.04.2021
603 Clouds 2 972 97 10000 4.74 270 22:21 06.04.2021
604 Snow 1 1004 80 10000 4.12 240 21:55 06.04.2021
605 Snow 1 1004 80 10000 4.12 240 21:37 06.04.2021
606 Clear 1 1004 80 10000 4.12 230 21:18 06.04.2021
607 Clouds 2 1003 81 10000 0.45 248 20:41 06.04.2021
608 Clouds 2 1004 75 10000 5.14 270 20:20 06.04.2021
609 Clouds 2 1003 80 10000 6.69 280 19:44 06.04.2021
610 Clouds 2 1003 80 10000 5.66 300 19:25 06.04.2021
611 Snow 2 1004 75 6000 9.26 320 18:45 06.04.2021
612 Rain 4 1003 70 10000 4.63 320 18:22 06.04.2021
613 Clouds 4 1004 81 10000 8.23 300 17:45 06.04.2021
614 Snow 5 1003 56 10000 10.29 290 17:20 06.04.2021
615 Clouds 5 1003 49 10000 8.23 260 16:49 06.04.2021
616 Rain 7 1003 49 10000 8.75 260 16:30 06.04.2021
617 Clouds 7 1003 56 10000 7.72 240 15:28 06.04.2021
618 Clouds 7 1004 69 10000 9.26 260 14:55 06.04.2021
619 Clouds 6 1004 56 10000 6.17 250 14:37 06.04.2021
620 Clouds 6 1004 56 10000 6.17 250 14:37 06.04.2021
621 Clouds 7 1004 56 10000 6.17 250 14:18 06.04.2021
622 Clouds 7 1004 65 10000 6.69 270 13:40 06.04.2021
623 Clouds 6 1005 60 10000 7.2 250 13:21 06.04.2021
624 Clouds 5 1005 65 10000 7.72 250 12:41 06.04.2021
625 Clouds 5 1005 70 10000 7.72 250 12:20 06.04.2021
626 Clouds 4 1005 70 10000 7.72 270 11:48 06.04.2021
627 Clouds 3 1005 70 10000 8.23 270 11:21 06.04.2021
628 Clouds 3 1005 70 10000 6.17 260 10:47 06.04.2021
629 Clouds 3 1005 69 10000 6.69 250 10:25 06.04.2021
630 Clouds 2 1005 75 10000 7.2 260 09:48 06.04.2021
631 Clouds 2 1005 75 10000 7.2 260 09:48 06.04.2021
632 Clouds 2 1005 75 10000 7.2 250 09:29 06.04.2021
633 Clouds 1 1005 80 10000 6.69 250 08:43 06.04.2021
634 Clear -1 1005 86 10000 5.14 250 07:59 06.04.2021
635 Clear -1 1005 86 10000 5.66 250 06:55 06.04.2021
636 Clear 0 1005 86 10000 5.66 250 05:40 06.04.2021
637 Clear 0 1005 80 10000 7.2 260 02:57 06.04.2021
638 Clouds 1 1004 69 10000 8.23 270 00:44 06.04.2021
639 Clouds 2 1004 69 10000 8.75 270 00:21 06.04.2021
640 Clear 2 1003 69 10000 9.77 280 23:43 05.04.2021
641 Clear 2 1003 64 10000 10.29 270 23:19 05.04.2021
642 Clouds 2 1003 64 10000 9.26 270 22:48 05.04.2021
643 Clouds 2 1003 69 10000 7.72 270 22:26 05.04.2021
644 Clouds 2 1003 64 10000 9.26 280 21:44 05.04.2021
645 Clouds 2 1002 64 10000 7.72 280 21:22 05.04.2021
646 Clouds 2 1002 64 10000 8.75 290 20:45 05.04.2021
647 Clouds 3 1002 60 10000 9.77 290 20:26 05.04.2021
648 Clouds 4 1001 56 10000 11.32 280 19:43 05.04.2021
649 Clouds 4 1001 45 10000 10.29 300 19:23 05.04.2021
650 Clouds 4 1000 48 10000 10.8 290 18:55 05.04.2021
651 Clouds 5 1000 45 10000 10.8 280 18:36 05.04.2021
652 Clouds 5 1000 45 10000 10.8 280 18:18 05.04.2021
653 Clouds 5 1000 45 10000 12.35 280 17:43 05.04.2021
654 Clouds 6 1000 52 10000 10.8 270 17:20 05.04.2021
655 Clouds 6 999 52 10000 11.32 290 16:44 05.04.2021
656 Clouds 6 999 60 10000 7.72 290 16:21 05.04.2021
657 Clouds 5 999 65 10000 9.77 310 15:52 05.04.2021
658 Clouds 5 999 75 10000 7.72 310 15:30 05.04.2021
659 Clouds 4 998 75 10000 7.72 290 14:54 05.04.2021
660 Clouds 4 998 81 10000 8.75 280 14:34 05.04.2021
661 Rain 5 998 87 10000 4.63 270 13:32 05.04.2021
662 Clouds 5 998 81 10000 8.23 300 12:57 05.04.2021
663 Rain 5 997 87 5000 9.77 250 12:37 05.04.2021
664 Rain 5 997 87 5000 9.77 250 12:19 05.04.2021
665 Rain 5 997 87 10000 9.77 240 11:42 05.04.2021
666 Rain 5 997 87 10000 10.8 240 11:22 05.04.2021
667 Rain 6 997 81 10000 9.77 240 10:45 05.04.2021
668 Rain 6 997 81 10000 9.77 240 10:27 05.04.2021
669 Rain 6 998 70 10000 9.26 230 09:48 05.04.2021
670 Rain 6 998 65 10000 8.75 230 09:24 05.04.2021
671 Rain 5 999 70 10000 8.23 230 08:45 05.04.2021
672 Rain 5 999 70 10000 8.75 220 08:26 05.04.2021
673 Rain 5 999 70 10000 8.75 220 08:26 05.04.2021
674 Rain 5 1000 75 10000 7.2 230 07:37 05.04.2021
675 Rain 4 1002 81 10000 5.66 220 06:32 05.04.2021
676 Clear 5 1009 81 10000 5.66 220 02:32 05.04.2021
677 Clouds 6 978 69 10000 5.49 239 00:50 05.04.2021
678 Clouds 6 1012 70 10000 7.72 260 23:52 04.04.2021
679 Clouds 7 1013 70 10000 6.17 270 23:29 04.04.2021
680 Clouds 7 1013 70 10000 5.14 260 22:53 04.04.2021
681 Clouds 7 1014 70 10000 5.66 260 22:30 04.04.2021
682 Clouds 7 1014 65 10000 6.69 260 21:43 04.04.2021
683 Clouds 7 1015 70 10000 6.69 280 21:19 04.04.2021
684 Clouds 7 1015 70 10000 5.14 270 20:37 04.04.2021
685 Clouds 7 1015 61 10000 6.69 290 20:19 04.04.2021
686 Clouds 8 1016 53 10000 7.72 280 19:38 04.04.2021
687 Clouds 9 1016 53 10000 7.72 280 19:19 04.04.2021
688 Clouds 10 1016 50 10000 6.69 280 18:47 04.04.2021
689 Clouds 10 1016 50 10000 7.2 260 18:24 04.04.2021
690 Clouds 10 1016 50 10000 7.2 260 18:24 04.04.2021
691 Clouds 11 1016 50 10000 6.69 270 17:56 04.04.2021
692 Clouds 11 1017 50 10000 7.2 270 17:24 04.04.2021
693 Clouds 11 1017 50 10000 5.66 280 16:54 04.04.2021
694 Clouds 11 1018 46 10000 7.2 260 16:31 04.04.2021
695 Clouds 11 1018 50 10000 6.69 270 15:46 04.04.2021
696 Clouds 11 1019 50 10000 5.66 260 15:28 04.04.2021
697 Clouds 11 1020 50 10000 6.17 260 14:38 04.04.2021
698 Clouds 11 1020 50 10000 6.17 260 14:19 04.04.2021
699 Clouds 11 1021 53 10000 4.63 270 13:26 04.04.2021
700 Clouds 11 1021 53 10000 4.63 260 12:51 04.04.2021
701 Clouds 9 1021 53 10000 4.12 290 12:27 04.04.2021
702 Clouds 9 1022 53 10000 5.14 290 11:49 04.04.2021
703 Clouds 8 1022 49 10000 4.12 260 11:30 04.04.2021
704 Clear 8 1022 52 10000 4.63 270 10:46 04.04.2021
705 Clear 7 1022 56 10000 4.12 270 10:21 04.04.2021
706 Clear 6 1022 56 10000 3.6 240 09:44 04.04.2021
707 Clear 5 1022 69 10000 3.09 230 09:20 04.04.2021
708 Clear 3 1022 75 10000 1.54 230 08:44 04.04.2021
709 Clear 3 1023 74 10000 0.51 0 08:24 04.04.2021
710 Clear 1 1023 86 10000 0.51 0 06:39 04.04.2021
711 Clear 1 1023 86 10000 1.54 210 05:44 04.04.2021
712 Clear 2 1024 74 10000 2.06 250 02:39 04.04.2021
713 Clear 2 1024 69 10000 1.03 240 00:48 04.04.2021
714 Clear 3 1024 69 10000 0.51 20 00:18 04.04.2021
715 Clear 3 1024 69 10000 1.03 40 23:41 03.04.2021
716 Clear 3 1024 64 10000 2.06 60 22:56 03.04.2021
717 Clear 4 1023 60 10000 2.57 60 22:38 03.04.2021
718 Clear 4 1023 60 10000 2.57 60 22:19 03.04.2021
719 Clear 5 1023 56 10000 2.57 30 21:46 03.04.2021
720 Clear 5 1023 52 10000 3.6 40 21:22 03.04.2021
721 Clear 6 1023 45 10000 5.66 40 20:43 03.04.2021
722 Clear 7 1023 39 10000 6.17 360 20:24 03.04.2021
723 Clear 8 1022 39 10000 5.66 10 19:46 03.04.2021
724 Clear 8 1022 34 10000 6.69 10 19:20 03.04.2021
725 Clear 8 1022 36 10000 7.2 10 18:46 03.04.2021
726 Clear 9 1022 34 10000 7.2 360 18:18 03.04.2021
727 Clear 9 1022 34 10000 7.2 350 17:50 03.04.2021
728 Clouds 10 990 34 10000 6.04 356 17:21 03.04.2021
729 Clear 10 1021 37 10000 7.72 340 16:45 03.04.2021
730 Clear 10 1021 40 10000 9.26 340 16:21 03.04.2021
731 Clear 10 1021 37 10000 8.75 350 15:46 03.04.2021
732 Clear 10 1021 40 10000 6.69 360 15:21 03.04.2021
733 Clear 10 1021 46 10000 7.2 330 14:44 03.04.2021
734 Clear 10 1021 46 10000 8.23 350 14:22 03.04.2021
735 Clouds 9 1021 40 10000 6.17 360 13:49 03.04.2021
736 Clouds 10 1021 49 10000 6.69 360 13:24 03.04.2021
737 Clouds 10 1021 49 10000 6.69 10 12:52 03.04.2021
738 Clouds 9 1021 49 10000 7.2 360 12:31 03.04.2021
739 Clouds 9 1021 49 10000 7.2 350 11:39 03.04.2021
740 Clouds 9 1021 49 10000 6.69 340 10:58 03.04.2021
741 Clear 8 1020 57 10000 6.17 330 10:40 03.04.2021
742 Clear 8 1020 57 10000 6.17 330 10:18 03.04.2021
743 Clear 7 1020 70 10000 7.2 340 09:28 03.04.2021
744 Clear 5 1020 81 10000 4.63 320 08:58 03.04.2021
745 Clear 4 1019 81 10000 3.6 310 08:31 03.04.2021
746 Clear 4 1019 87 10000 3.6 300 07:29 03.04.2021
747 Clear 4 1018 87 10000 2.57 310 06:50 03.04.2021
748 Clouds 5 1017 81 10000 5.14 310 03:53 03.04.2021
749 Clouds 6 1017 75 10000 5.14 320 02:53 03.04.2021
750 Clouds 6 1017 81 10000 5.66 320 02:27 03.04.2021
751 Clouds 7 1017 81 10000 5.14 300 00:31 03.04.2021
752 Clouds 7 1017 81 10000 5.14 300 23:55 02.04.2021
753 Clouds 7 1017 70 10000 6.17 300 23:27 02.04.2021
754 Clouds 7 1017 70 10000 5.14 300 22:56 02.04.2021
755 Clear 7 1017 65 10000 4.63 300 22:37 02.04.2021
756 Clouds 7 1017 65 10000 6.17 300 21:56 02.04.2021
757 Clouds 7 1017 65 10000 5.66 300 21:38 02.04.2021
758 Clouds 8 1017 65 10000 5.66 300 21:18 02.04.2021
759 Clouds 8 1017 65 10000 6.17 300 20:38 02.04.2021
760 Clouds 8 1017 65 10000 6.17 300 20:18 02.04.2021
761 Clouds 8 1017 65 10000 6.69 300 19:40 02.04.2021
762 Clouds 8 1017 65 10000 8.23 290 19:22 02.04.2021
763 Clouds 8 1017 57 10000 7.72 310 18:43 02.04.2021
764 Clouds 9 1017 57 10000 10.29 310 18:23 02.04.2021
765 Clouds 10 1017 53 10000 8.75 300 17:54 02.04.2021
766 Clouds 11 1017 57 10000 9.26 320 17:24 02.04.2021
767 Clouds 12 1017 43 10000 5.66 270 16:24 02.04.2021
768 Clear 13 1018 43 10000 7.72 270 15:43 02.04.2021
769 Clouds 12 1018 43 10000 7.2 290 15:19 02.04.2021
770 Clouds 11 1019 49 10000 6.69 280 14:33 02.04.2021
771 Clouds 11 1019 49 10000 6.69 280 14:33 02.04.2021
772 Clouds 11 1019 49 10000 5.66 270 13:50 02.04.2021
773 Clouds 10 1020 57 10000 4.12 300 13:28 02.04.2021
774 Clouds 11 1020 57 10000 4.12 280 12:55 02.04.2021
775 Clouds 10 1020 57 10000 4.12 280 12:36 02.04.2021
776 Clouds 10 1020 66 10000 3.6 300 12:18 02.04.2021
777 Clouds 9 1021 70 10000 3.09 300 11:44 02.04.2021
778 Clouds 8 1021 70 10000 2.57 310 11:18 02.04.2021
779 Clouds 7 1021 75 10000 2.57 300 10:42 02.04.2021
780 Clear 6 1021 70 10000 2.57 360 10:21 02.04.2021
781 Clouds 5 1021 75 10000 1.03 0 09:39 02.04.2021
782 Clouds 5 1021 75 10000 1.03 0 09:21 02.04.2021
783 Clouds 5 1021 75 10000 1.03 0 09:21 02.04.2021
784 Clouds 4 1021 81 10000 2.06 310 08:45 02.04.2021
785 Clouds 4 1021 81 10000 2.06 310 08:25 02.04.2021
786 Clouds 3 1021 87 10000 1.03 360 07:20 02.04.2021
787 Clouds 3 1021 87 10000 4.12 360 06:34 02.04.2021
788 Clouds 5 1021 75 10000 6.69 350 03:39 02.04.2021
789 Clouds 6 1020 81 10000 5.66 10 01:37 02.04.2021
790 Clouds 6 1020 81 10000 7.2 340 00:41 02.04.2021
791 Clouds 7 1020 81 10000 6.69 350 23:44 01.04.2021
792 Clouds 7 1019 81 10000 6.69 350 23:26 01.04.2021
793 Drizzle 8 1019 87 10000 7.72 340 22:23 01.04.2021
794 Clouds 8 1019 81 10000 6.17 330 21:59 01.04.2021
795 Clouds 8 1019 81 10000 6.17 330 21:41 01.04.2021
796 Drizzle 9 1018 81 10000 8.23 340 21:22 01.04.2021
797 Clouds 10 1018 81 10000 6.17 330 20:41 01.04.2021
798 Clouds 10 1018 81 10000 6.17 350 20:21 01.04.2021
799 Clouds 11 1017 81 10000 7.72 340 19:41 01.04.2021
800 Clouds 12 1017 76 10000 8.23 330 19:20 01.04.2021
801 Clouds 12 1016 71 10000 8.23 330 18:44 01.04.2021
802 Clouds 14 1016 62 10000 7.2 320 18:18 01.04.2021
803 Clear 16 1016 55 10000 7.2 330 17:41 01.04.2021
804 Clear 16 1015 58 10000 7.2 320 17:23 01.04.2021
805 Clouds 17 1015 48 10000 7.2 320 16:48 01.04.2021
806 Clouds 17 1015 51 10000 4.12 280 16:18 01.04.2021
807 Clear 18 1015 55 10000 5.66 280 15:40 01.04.2021
808 Rain 18 1015 52 10000 2.68 266 15:19 01.04.2021
809 Clouds 18 1015 67 10000 1.03 0 14:40 01.04.2021
810 Clouds 18 1015 48 10000 2.06 320 14:40 01.04.2021
811 Clouds 18 1015 67 10000 1.03 0 14:40 01.04.2021
812 Clouds 18 1015 67 10000 1.03 0 14:40 01.04.2021
813 Clouds 17 1015 48 10000 2.06 320 14:21 01.04.2021
814 Rain 17 1015 42 10000 4.12 330 13:50 01.04.2021
815 Clear 17 1015 45 10000 3.6 310 13:29 01.04.2021
816 Clouds 17 1015 42 10000 2.57 290 12:47 01.04.2021
817 Clouds 17 1016 48 10000 2.06 290 12:29 01.04.2021
818 Rain 17 1016 42 10000 3.09 290 11:45 01.04.2021
819 Rain 17 1016 45 10000 1.03 0 11:24 01.04.2021
820 Rain 16 1016 55 10000 2.57 290 10:53 01.04.2021
821 Clear 15 1016 58 10000 2.06 250 10:33 01.04.2021
822 Clear 14 1016 62 10000 2.57 310 09:54 01.04.2021
823 Clear 14 1016 71 10000 2.06 270 09:24 01.04.2021
824 Clouds 13 1015 59 10000 1.34 250 08:33 01.04.2021
825 Clouds 13 1015 59 10000 0.89 266 07:57 01.04.2021
826 Clouds 13 1015 58 10000 0.89 296 07:19 01.04.2021
827 Clear 12 1015 71 10000 2.57 250 06:42 01.04.2021
828 Clear 12 1016 66 10000 1.03 210 03:30 01.04.2021
829 Clear 11 1018 66 10000 1.54 170 00:49 01.04.2021
830 Clear 12 1018 58 10000 1.03 0 23:44 31.03.2021
831 Clear 13 1018 58 10000 1.03 230 23:19 31.03.2021
832 Clear 15 1018 50 10000 1.03 0 22:41 31.03.2021
833 Clear 16 1018 44 10000 0.51 0 22:20 31.03.2021
834 Clear 14 1019 44 10000 1.03 170 21:45 31.03.2021
835 Clear 16 1019 44 10000 1.03 160 21:23 31.03.2021
836 Clear 15 1019 39 10000 1.54 190 20:56 31.03.2021
837 Clear 17 1019 34 10000 1.54 200 20:38 31.03.2021
838 Clear 17 1019 34 10000 1.54 200 20:18 31.03.2021
839 Clear 20 1019 28 10000 3.6 230 19:38 31.03.2021
840 Clear 21 1019 28 10000 3.6 230 19:18 31.03.2021
841 Clear 22 1019 26 10000 3.6 230 18:49 31.03.2021
842 Clear 23 1020 25 10000 2.57 220 17:58 31.03.2021
843 Clear 23 1020 25 10000 2.57 220 17:36 31.03.2021
844 Clear 24 1020 23 10000 3.6 210 17:18 31.03.2021
845 Clear 23 1021 23 10000 2.57 220 16:48 31.03.2021
846 Clear 23 1021 25 10000 3.6 200 16:25 31.03.2021
847 Clear 23 1021 23 10000 3.09 220 15:50 31.03.2021
848 Clear 23 1022 28 10000 2.57 230 15:19 31.03.2021
849 Clear 23 1022 31 10000 1.03 0 14:45 31.03.2021
850 Clear 22 1023 33 10000 2.06 180 14:24 31.03.2021
851 Clear 21 1023 37 10000 2.06 190 13:42 31.03.2021
852 Clear 22 1024 37 10000 2.57 200 13:19 31.03.2021
853 Clear 20 1024 40 10000 1.54 170 12:37 31.03.2021
854 Clear 20 1024 39 10000 1.54 0 12:18 31.03.2021
855 Clear 19 1025 51 10000 1.54 180 11:22 31.03.2021
856 Clear 17 1025 63 10000 1.54 210 10:48 31.03.2021
857 Clear 16 1025 62 10000 0.51 0 10:27 31.03.2021
858 Clear 14 1025 67 10000 1.03 0 09:45 31.03.2021
859 Clear 12 1025 76 10000 1.03 0 09:27 31.03.2021
860 Clear 11 1025 81 10000 0.51 0 08:43 31.03.2021
861 Clear 10 1025 87 10000 2.06 180 08:21 31.03.2021
862 Clear 9 1025 100 10000 1.03 0 07:19 31.03.2021
863 Clear 10 1026 87 10000 1.03 0 04:34 31.03.2021
864 Clear 9 1027 93 10000 0.51 0 02:37 31.03.2021
865 Clear 10 1027 81 10000 1.03 190 00:54 31.03.2021
866 Clear 10 1027 81 10000 1.03 0 00:22 31.03.2021
867 Clear 11 1028 81 10000 1.03 200 23:54 30.03.2021
868 Clear 11 1028 76 10000 0.51 0 23:22 30.03.2021
869 Clear 12 1028 71 10000 1.03 280 22:49 30.03.2021
870 Clear 12 1028 71 10000 1.03 280 22:49 30.03.2021
871 Clear 12 1028 67 10000 0.51 0 22:30 30.03.2021
872 Clear 13 1028 67 10000 1.03 210 21:56 30.03.2021
873 Clear 14 1028 58 10000 0.51 200 21:29 30.03.2021
874 Clear 14 1028 58 10000 1.03 320 20:58 30.03.2021
875 Clear 16 1028 48 10000 2.06 310 20:31 30.03.2021
876 Clear 18 1028 45 10000 2.06 300 19:56 30.03.2021
877 Clear 18 1028 42 10000 2.57 300 19:37 30.03.2021
878 Clear 21 1028 40 10000 3.6 290 18:57 30.03.2021
879 Clear 21 1028 40 10000 4.12 280 18:27 30.03.2021
880 Clear 21 1028 37 10000 3.6 280 17:47 30.03.2021
881 Clear 22 1028 37 10000 5.14 280 17:29 30.03.2021
882 Clear 21 1028 37 10000 5.14 270 16:47 30.03.2021
883 Clear 21 1029 35 10000 4.63 270 16:27 30.03.2021
884 Clear 21 1029 35 10000 4.63 260 15:38 30.03.2021
885 Clear 21 1029 32 10000 4.63 270 15:19 30.03.2021
886 Clear 21 1029 37 10000 3.6 270 14:45 30.03.2021
887 Clear 21 1030 37 10000 5.14 260 14:20 30.03.2021
888 Clear 20 1030 42 10000 4.63 270 13:49 30.03.2021
889 Clear 19 1030 42 10000 4.63 280 13:26 30.03.2021
890 Clear 19 1030 42 10000 3.6 270 12:42 30.03.2021
891 Clear 18 1031 42 10000 4.63 290 12:21 30.03.2021
892 Clear 17 1031 42 10000 4.63 280 11:47 30.03.2021
893 Clear 16 1031 44 10000 4.12 270 11:20 30.03.2021
894 Clear 16 1031 47 10000 4.12 280 10:42 30.03.2021
895 Clear 15 1031 47 10000 4.63 280 10:19 30.03.2021
896 Clear 14 1030 54 10000 3.6 260 09:43 30.03.2021
897 Clear 12 1030 58 10000 2.57 250 09:23 30.03.2021
898 Clear 11 1030 62 10000 2.57 230 08:51 30.03.2021
899 Clear 7 1030 71 10000 2.06 230 08:31 30.03.2021
900 Clear 8 1030 76 10000 2.06 190 07:45 30.03.2021
901 Clear 7 1029 75 10000 1.03 0 06:56 30.03.2021
902 Clear 8 1029 76 10000 1.54 270 05:25 30.03.2021
903 Clear 10 1029 71 10000 2.57 230 02:32 30.03.2021
904 Clear 12 1028 62 10000 4.12 250 23:56 29.03.2021
905 Clear 11 1028 62 10000 3.6 250 23:28 29.03.2021
906 Clear 12 1028 62 10000 3.09 260 22:43 29.03.2021
907 Clear 13 1027 58 10000 4.12 250 21:59 29.03.2021
908 Clear 14 1027 54 10000 4.12 250 21:37 29.03.2021
909 Clear 14 1027 54 10000 3.09 250 20:59 29.03.2021
910 Clear 14 1027 54 10000 3.09 250 20:37 29.03.2021
911 Clear 17 1026 45 10000 4.63 250 19:57 29.03.2021
912 Clear 17 1026 45 10000 4.63 250 19:34 29.03.2021
913 Clear 18 1026 45 10000 5.14 230 18:58 29.03.2021
914 Clear 18 1026 45 10000 5.14 230 18:39 29.03.2021
915 Clear 19 1026 45 10000 5.14 210 18:20 29.03.2021
916 Clear 19 1026 45 10000 5.14 210 18:20 29.03.2021
917 Clear 19 1026 39 10000 6.69 220 17:39 29.03.2021
918 Clear 19 1026 39 10000 6.69 230 16:59 29.03.2021
919 Clear 19 1026 39 10000 6.69 230 16:35 29.03.2021
920 Clouds 18 1026 42 10000 7.72 230 15:52 29.03.2021
921 Clouds 17 1026 42 10000 8.23 240 15:34 29.03.2021
922 Clear 17 1026 44 10000 8.75 240 14:55 29.03.2021
923 Clear 15 1027 47 10000 7.72 230 14:34 29.03.2021
924 Clear 15 1027 55 10000 6.69 230 13:52 29.03.2021
925 Clear 16 1027 44 10000 8.75 230 13:26 29.03.2021
926 Rain 15 1027 47 10000 9.26 230 12:50 29.03.2021
927 Clear 14 1027 51 10000 8.23 230 12:21 29.03.2021
928 Clear 13 1027 51 10000 7.72 230 11:40 29.03.2021
929 Clear 13 1027 54 10000 7.2 230 11:22 29.03.2021
930 Clear 13 1027 54 10000 7.2 230 11:22 29.03.2021
931 Clear 13 1027 54 10000 7.2 230 10:38 29.03.2021
932 Rain 12 1027 58 10000 5.66 220 09:48 29.03.2021
933 Clouds 11 1026 68 10000 3.58 195 08:59 29.03.2021
934 Clouds 11 1027 66 10000 4.63 190 08:28 29.03.2021
935 Clear 10 1026 71 10000 4.12 190 07:42 29.03.2021
936 Clouds 10 1026 71 10000 4.12 230 06:42 29.03.2021
937 Clouds 11 1026 62 10000 5.14 220 04:22 29.03.2021
938 Clouds 11 1026 62 10000 3.6 220 02:21 29.03.2021
939 Clouds 10 1026 76 10000 3.09 220 00:24 29.03.2021
940 Clouds 10 1026 66 10000 3.09 230 23:51 28.03.2021
941 Clouds 10 1026 71 10000 2.57 210 23:20 28.03.2021
942 Clouds 10 1026 66 10000 2.57 220 22:42 28.03.2021
943 Clear 10 1026 76 10000 3.09 240 22:23 28.03.2021
944 Clouds 10 1026 76 10000 3.09 250 21:45 28.03.2021
945 Clouds 10 1026 66 10000 5.14 240 21:24 28.03.2021
946 Rain 11 1026 66 10000 4.12 230 20:51 28.03.2021
947 Rain 11 1026 62 10000 4.12 210 20:33 28.03.2021
948 Rain 11 1026 58 10000 4.63 220 19:47 28.03.2021
949 Rain 11 1025 54 10000 5.66 220 19:25 28.03.2021
950 Rain 12 1025 54 10000 5.14 220 18:59 28.03.2021
951 Clear 12 1026 54 10000 7.72 220 18:36 28.03.2021
952 Clear 12 1026 54 10000 7.72 220 17:59 28.03.2021
953 Clear 12 1026 54 10000 7.72 220 17:36 28.03.2021
954 Clear 12 1026 58 10000 7.72 220 16:55 28.03.2021
955 Clear 12 1026 54 10000 7.2 230 16:28 28.03.2021
956 Clear 13 1026 50 10000 9.77 230 15:57 28.03.2021
957 Clear 13 1026 47 10000 8.75 230 15:24 28.03.2021
958 Clear 13 1026 47 10000 8.23 240 14:46 28.03.2021
959 Clear 13 1027 43 10000 9.26 230 14:18 28.03.2021
960 Clouds 12 1027 50 10000 7.2 230 13:35 28.03.2021
961 Clear 11 1027 53 10000 7.72 220 12:56 28.03.2021
962 Clear 10 1027 53 10000 6.69 220 12:34 28.03.2021
963 Clear 10 1027 61 10000 5.66 220 11:55 28.03.2021
964 Clear 9 1027 61 10000 5.66 220 11:37 28.03.2021
965 Clear 7 1027 65 10000 6.69 230 10:49 28.03.2021
966 Clear 7 1027 70 10000 4.63 220 10:31 28.03.2021
967 Clear 6 1027 81 10000 4.63 210 09:51 28.03.2021
968 Clear 5 1027 81 10000 4.12 220 09:28 28.03.2021
969 Clear 3 1027 87 10000 3.09 210 08:51 28.03.2021
970 Clear 3 1027 86 10000 4.12 210 08:33 28.03.2021
971 Clear 2 1027 86 10000 4.63 210 07:41 28.03.2021
972 Clouds 2 1027 86 10000 4.63 230 06:21 28.03.2021
973 Clear 3 1026 93 10000 4.12 220 03:50 28.03.2021
974 Clear 3 1026 93 10000 4.63 250 00:45 28.03.2021
975 Clear 3 1025 93 10000 5.14 260 23:53 27.03.2021
976 Clear 3 1025 87 10000 4.63 250 23:35 27.03.2021
977 Clear 4 1024 81 10000 5.66 260 22:42 27.03.2021
978 Clear 4 1024 87 10000 5.66 250 22:22 27.03.2021
979 Clouds 4 991 82 10000 5.3 260 21:45 27.03.2021
980 Clear 4 1023 81 10000 4.12 230 21:21 27.03.2021
981 Clouds 4 991 82 10000 5.09 255 20:58 27.03.2021
982 Clouds 4 1023 87 10000 4.12 240 20:37 27.03.2021
983 Clouds 5 1022 75 10000 5.14 270 19:57 27.03.2021
984 Clouds 5 1022 75 10000 5.14 270 19:38 27.03.2021
985 Clouds 5 1021 75 10000 7.72 280 19:20 27.03.2021
986 Clouds 6 1021 70 10000 7.72 270 18:46 27.03.2021
987 Clouds 6 1020 75 10000 6.17 220 18:22 27.03.2021
988 Clouds 8 1020 76 10000 6.17 230 17:37 27.03.2021
989 Clouds 8 987 68 10000 6.29 264 17:18 27.03.2021
990 Clouds 8 1019 73 10000 12.07 248 16:46 27.03.2021
991 Clouds 8 1019 76 10000 11.62 246 16:25 27.03.2021
992 Clouds 7 1019 81 10000 8.23 240 15:45 27.03.2021
993 Rain 7 1019 75 10000 12.86 260 15:18 27.03.2021
994 Clouds 9 1018 70 10000 13.38 280 14:39 27.03.2021
995 Clouds 11 1017 54 10000 8.23 260 13:39 27.03.2021
996 Clouds 11 1017 62 10000 10.8 260 13:19 27.03.2021
997 Clouds 10 1017 81 10000 7.2 250 12:47 27.03.2021
998 Clouds 8 1016 87 10000 7.2 260 11:53 27.03.2021
999 Clouds 7 1016 87 10000 6.69 270 11:33 27.03.2021
1000 Clouds 7 1015 87 10000 9.26 270 10:58 27.03.2021
1001 Rain 7 1014 81 10000 12.35 270 10:39 27.03.2021
1002 Rain 8 1013 81 10000 9.26 260 09:59 27.03.2021
1003 Clouds 9 1012 81 10000 5.66 240 09:21 27.03.2021
1004 Rain 11 1011 66 10000 5.66 200 08:40 27.03.2021
1005 Clear 9 1011 76 10000 3.6 190 07:56 27.03.2021
1006 Clear 9 1011 76 10000 3.6 190 07:31 27.03.2021
1007 Clear 8 1011 76 10000 3.09 190 06:43 27.03.2021
1008 Clear 8 1012 87 10000 2.06 170 04:42 27.03.2021
1009 Clear 8 1012 81 10000 3.6 150 03:29 27.03.2021
1010 Clear 8 1014 81 10000 3.6 140 00:48 27.03.2021
1011 Clear 8 1015 81 10000 3.09 150 00:26 27.03.2021
1012 Clear 10 1015 76 10000 3.09 150 23:43 26.03.2021
1013 Clear 9 1015 81 10000 2.57 140 22:53 26.03.2021
1014 Clear 10 1016 76 10000 3.09 150 22:34 26.03.2021
1015 Clear 11 1016 71 10000 3.09 160 21:25 26.03.2021
1016 Clear 10 1016 66 10000 3.09 160 20:58 26.03.2021
1017 Clear 11 1016 66 10000 3.09 170 20:32 26.03.2021
1018 Clear 12 1016 66 10000 2.57 170 19:56 26.03.2021
1019 Clear 11 1016 66 10000 2.57 170 19:37 26.03.2021
1020 Clear 12 1016 66 10000 3.09 170 19:18 26.03.2021
1021 Clear 13 1016 62 10000 2.57 180 18:41 26.03.2021
1022 Clear 14 1016 58 10000 3.09 220 18:19 26.03.2021
1023 Clear 15 1017 55 10000 4.12 230 17:45 26.03.2021
1024 Clouds 16 1017 44 10000 3.6 210 16:54 26.03.2021
1025 Clouds 16 1017 41 10000 4.12 200 16:32 26.03.2021
1026 Clouds 16 1017 51 10000 3.6 210 15:51 26.03.2021
1027 Clouds 16 1017 48 10000 5.66 200 15:21 26.03.2021
1028 Clouds 16 1018 48 10000 5.66 220 14:24 26.03.2021
1029 Clear 16 1018 48 10000 3.09 170 13:34 26.03.2021
1030 Clear 16 1019 48 10000 4.63 210 12:50 26.03.2021
1031 Clear 15 1019 48 10000 3.6 160 12:24 26.03.2021
1032 Clear 15 1020 55 10000 2.06 70 11:35 26.03.2021
1033 Clear 13 1020 62 10000 2.57 70 10:55 26.03.2021
1034 Clear 13 1020 58 10000 2.06 40 10:35 26.03.2021
1035 Clear 12 1020 71 10000 0.51 0 09:44 26.03.2021
1036 Clouds 10 1020 76 9000 1.03 0 09:22 26.03.2021
1037 Clouds 9 1020 81 8000 1.03 0 08:42 26.03.2021
1038 Clouds 9 1020 87 7000 1.03 0 08:22 26.03.2021
1039 Clouds 9 1020 93 7000 2.57 270 07:24 26.03.2021
1040 Rain 8 1019 87 7000 2.06 150 06:58 26.03.2021
1041 Clouds 8 1019 93 7000 2.06 140 06:35 26.03.2021
1042 Clouds 8 1019 87 7000 0.51 0 05:31 26.03.2021
1043 Clouds 9 1020 93 9000 0.51 0 02:22 26.03.2021
1044 Clear 8 1020 87 10000 1.03 130 00:32 26.03.2021
1045 Clouds 9 1020 76 10000 0.51 0 23:45 25.03.2021
1046 Clear 8 1020 81 10000 0.51 0 23:20 25.03.2021
1047 Clear 9 1020 76 10000 1.03 0 22:37 25.03.2021
1048 Clear 9 1020 76 10000 1.03 0 22:37 25.03.2021
1049 Clear 9 1019 76 10000 1.03 150 21:53 25.03.2021
1050 Clear 10 1019 71 10000 1.03 130 21:34 25.03.2021
1051 Clear 10 1019 66 10000 0.73 48 20:47 25.03.2021
1052 Clear 11 1019 62 10000 1.03 20 20:27 25.03.2021
1053 Clear 11 1019 62 10000 1.54 70 19:50 25.03.2021
1054 Clear 11 1019 62 10000 2.06 320 19:31 25.03.2021
1055 Clear 12 1019 54 10000 2.06 320 18:57 25.03.2021
1056 Clear 13 1019 54 10000 2.06 320 18:39 25.03.2021
1057 Clear 13 1018 54 10000 1.54 280 18:18 25.03.2021
1058 Clear 14 1018 51 10000 2.06 260 17:37 25.03.2021
1059 Clear 15 1018 44 10000 3.6 290 16:57 25.03.2021
1060 Clear 15 1018 44 10000 3.6 290 16:34 25.03.2021
1061 Clouds 16 1018 44 10000 3.09 260 15:49 25.03.2021
1062 Clear 16 1019 44 10000 3.09 290 15:26 25.03.2021
1063 Clear 16 1019 44 10000 2.57 280 14:57 25.03.2021
1064 Clouds 16 1019 44 10000 3.6 280 14:38 25.03.2021
1065 Clouds 15 1019 51 10000 2.57 250 13:29 25.03.2021
1066 Clear 15 1020 51 10000 3.6 280 12:56 25.03.2021
1067 Clear 14 1020 51 10000 2.06 260 12:36 25.03.2021
1068 Clear 15 1020 51 10000 2.06 260 12:18 25.03.2021
1069 Clear 14 1020 58 10000 2.06 290 11:44 25.03.2021
1070 Clear 14 1020 62 10000 2.57 210 11:25 25.03.2021
1071 Clear 12 1020 62 10000 1.54 250 10:49 25.03.2021
1072 Clear 12 1020 66 10000 1.54 290 10:21 25.03.2021
1073 Clear 10 1020 76 10000 1.54 0 09:53 25.03.2021
1074 Clouds 9 1020 76 9000 2.06 260 09:35 25.03.2021
1075 Clear 10 1020 76 10000 1.54 0 09:35 25.03.2021
1076 Clouds 7 1020 87 8000 2.06 220 08:37 25.03.2021
1077 Mist 6 1019 93 5000 2.57 180 07:57 25.03.2021
1078 Mist 4 1019 93 5000 1.54 170 06:59 25.03.2021
1079 Mist 4 1019 100 4300 1.54 180 06:24 25.03.2021
1080 Clouds 4 1019 100 6000 2.06 170 05:46 25.03.2021
1081 Clear 6 1019 93 10000 1.54 160 02:43 25.03.2021
1082 Clear 7 1020 93 10000 2.06 190 00:21 25.03.2021
1083 Clear 7 1020 87 10000 1.54 170 23:50 24.03.2021
1084 Clear 7 1020 87 10000 1.54 190 23:25 24.03.2021
1085 Clear 8 1020 81 10000 1.54 180 22:43 24.03.2021
1086 Clear 8 1020 87 10000 1.54 140 22:20 24.03.2021
1087 Clear 8 1020 87 10000 0.51 0 21:42 24.03.2021
1088 Clear 8 1021 81 10000 1.03 0 21:21 24.03.2021
1089 Clear 8 1021 81 10000 1.54 140 20:41 24.03.2021
1090 Clear 8 1021 81 10000 1.54 140 20:41 24.03.2021
1091 Clear 9 1021 76 10000 1.54 130 20:20 24.03.2021
1092 Clear 9 1021 71 10000 1.54 130 19:39 24.03.2021
1093 Clouds 10 1021 62 10000 1.03 0 19:20 24.03.2021
1094 Clouds 11 1021 62 10000 1.03 260 18:43 24.03.2021
1095 Clear 12 1021 54 10000 2.06 270 18:20 24.03.2021
1096 Clear 13 1021 54 10000 2.57 270 17:49 24.03.2021
1097 Clouds 13 1021 50 10000 3.09 270 17:29 24.03.2021
1098 Clouds 13 1021 50 10000 3.6 270 16:51 24.03.2021
1099 Clouds 13 1021 50 10000 3.6 280 16:29 24.03.2021
1100 Clouds 14 1021 50 10000 3.09 280 15:49 24.03.2021
1101 Clouds 13 1021 50 10000 3.09 270 15:30 24.03.2021
1102 Clouds 13 1022 54 10000 4.63 270 14:47 24.03.2021
1103 Clouds 13 1022 54 10000 4.63 270 14:26 24.03.2021
1104 Clouds 13 1022 54 10000 5.14 280 13:54 24.03.2021
1105 Clouds 12 1023 57 10000 4.63 310 13:27 24.03.2021
1106 Clouds 11 1023 57 10000 5.66 290 12:42 24.03.2021
1107 Clouds 11 1023 57 10000 5.14 290 12:23 24.03.2021
1108 Clouds 10 1023 61 10000 4.63 290 11:44 24.03.2021
1109 Clouds 10 1024 61 10000 4.12 300 10:59 24.03.2021
1110 Clouds 9 1024 61 10000 4.12 300 10:40 24.03.2021
1111 Clouds 9 1024 71 10000 5.14 270 10:20 24.03.2021
1112 Clouds 8 1024 76 10000 5.14 280 09:51 24.03.2021
1113 Clouds 8 1024 76 10000 5.14 270 09:22 24.03.2021
1114 Clouds 7 1023 76 10000 2.57 270 08:51 24.03.2021
1115 Clouds 7 1023 81 10000 2.57 260 08:26 24.03.2021
1116 Clouds 7 1023 81 10000 2.57 230 07:40 24.03.2021
1117 Clouds 5 1023 81 10000 1.54 150 06:54 24.03.2021
1118 Clouds 5 1023 81 10000 1.54 150 06:54 24.03.2021
1119 Clouds 5 1023 81 10000 2.57 220 05:35 24.03.2021
1120 Clouds 6 1023 87 10000 1.54 240 00:55 24.03.2021
1121 Clouds 6 1024 87 10000 1.54 260 00:25 24.03.2021
1122 Clouds 7 1024 81 10000 3.6 240 23:22 23.03.2021
1123 Clouds 7 1024 81 10000 3.6 230 22:55 23.03.2021
1124 Clouds 7 1024 81 10000 2.06 230 22:36 23.03.2021
1125 Clouds 7 1024 81 10000 1.54 230 21:58 23.03.2021
1126 Clouds 7 1024 81 10000 1.54 230 21:39 23.03.2021
1127 Clouds 7 1024 81 10000 2.06 230 21:19 23.03.2021
1128 Clouds 7 1024 81 10000 2.06 240 20:40 23.03.2021
1129 Clouds 7 1024 81 10000 2.06 250 20:22 23.03.2021
1130 Clouds 7 1024 81 10000 2.57 260 19:44 23.03.2021
1131 Clouds 7 1024 81 10000 2.06 270 19:23 23.03.2021
1132 Clouds 7 1023 81 10000 3.09 270 18:43 23.03.2021
1133 Clouds 7 1023 81 10000 3.6 280 18:21 23.03.2021
1134 Clouds 7 1023 76 10000 4.63 270 17:44 23.03.2021
1135 Clouds 7 1023 76 10000 4.63 290 17:21 23.03.2021
1136 Clouds 7 1023 70 10000 4.63 290 16:26 23.03.2021
1137 Clouds 8 1023 70 10000 6.17 280 15:59 23.03.2021
1138 Clouds 8 1023 70 10000 4.12 250 15:38 23.03.2021
1139 Clouds 8 1023 70 10000 5.14 270 14:51 23.03.2021
1140 Clouds 8 1023 61 10000 4.63 280 14:21 23.03.2021
1141 Clouds 8 1023 61 10000 3.09 260 13:50 23.03.2021
1142 Clouds 8 1024 70 10000 4.12 280 13:26 23.03.2021
1143 Clouds 8 1024 70 10000 3.6 280 12:47 23.03.2021
1144 Clouds 8 1024 78 10000 3.13 307 12:27 23.03.2021
1145 Clouds 7 1024 75 10000 4.12 280 11:56 23.03.2021
1146 Clouds 7 1024 75 10000 4.12 310 11:36 23.03.2021
1147 Clouds 6 1024 75 10000 4.63 310 10:44 23.03.2021
1148 Clouds 6 1023 81 10000 4.12 310 10:22 23.03.2021
1149 Clouds 6 1023 87 10000 5.14 290 09:57 23.03.2021
1150 Clouds 6 1023 87 10000 5.14 290 09:36 23.03.2021
1151 Clouds 6 1023 87 10000 4.12 290 09:18 23.03.2021
1152 Clouds 6 1022 87 10000 5.14 300 08:39 23.03.2021
1153 Clouds 6 1022 87 10000 4.63 290 08:20 23.03.2021
1154 Clouds 5 1022 87 10000 4.63 290 07:28 23.03.2021
1155 Clouds 5 1022 87 10000 4.63 290 07:28 23.03.2021
1156 Clouds 5 1022 87 10000 4.63 290 06:59 23.03.2021
1157 Clouds 5 1022 87 10000 4.63 290 06:24 23.03.2021
1158 Clouds 6 1021 93 10000 4.63 280 03:21 23.03.2021
1159 Rain 6 1021 81 10000 5.66 300 01:34 23.03.2021
1160 Clouds 6 1021 65 10000 3.09 270 23:33 22.03.2021
1161 Clear 6 1021 70 10000 3.09 270 22:54 22.03.2021
1162 Clear 5 1021 69 10000 3.09 270 22:36 22.03.2021
1163 Clear 5 1021 69 10000 3.09 270 22:18 22.03.2021
1164 Clear 4 1021 70 10000 3.09 270 21:40 22.03.2021
1165 Clear 4 1021 65 10000 3.6 250 21:21 22.03.2021
1166 Clear 4 1021 65 10000 3.09 260 20:41 22.03.2021
1167 Clear 5 1020 65 10000 3.09 270 20:21 22.03.2021
1168 Clear 6 1020 56 10000 3.09 280 19:52 22.03.2021
1169 Clear 7 1020 49 10000 3.6 280 19:30 22.03.2021
1170 Clear 7 1019 49 10000 4.12 280 18:47 22.03.2021
1171 Clear 9 1019 43 10000 4.63 280 18:28 22.03.2021
1172 Clear 9 1019 40 10000 3.6 290 17:58 22.03.2021
1173 Clear 10 1019 37 10000 3.6 280 17:38 22.03.2021
1174 Clear 10 1019 37 10000 3.6 280 17:19 22.03.2021
1175 Clear 10 1019 37 10000 4.63 290 16:43 22.03.2021
1176 Clear 11 1019 34 10000 3.6 330 15:59 22.03.2021
1177 Clear 11 1019 34 10000 3.6 330 15:38 22.03.2021
1178 Clear 11 1019 37 10000 4.12 310 15:18 22.03.2021
1179 Clear 10 1019 34 10000 3.6 330 14:51 22.03.2021
1180 Clear 11 1019 34 10000 3.6 330 14:32 22.03.2021
1181 Clear 11 1019 34 10000 4.63 330 13:47 22.03.2021
1182 Clear 10 1019 34 10000 4.63 330 13:26 22.03.2021
1183 Clear 10 1019 37 10000 3.6 350 12:54 22.03.2021
1184 Clear 9 1019 37 10000 3.6 350 12:24 22.03.2021
1185 Clear 9 1019 46 10000 4.12 340 11:49 22.03.2021
1186 Clear 8 1019 46 10000 4.12 340 11:26 22.03.2021
1187 Clear 8 1019 45 10000 3.6 360 10:45 22.03.2021
1188 Clear 7 1019 53 10000 3.09 340 10:24 22.03.2021
1189 Clear 6 1019 60 10000 3.6 330 09:46 22.03.2021
1190 Clear 5 1019 60 10000 3.6 340 09:27 22.03.2021
1191 Clear 4 1018 70 10000 3.09 320 08:45 22.03.2021
1192 Clear 3 1018 87 10000 3.6 310 08:26 22.03.2021
1193 Clear 2 1018 86 10000 3.6 300 07:50 22.03.2021
1194 Clear 1 1018 93 10000 2.57 290 07:30 22.03.2021
1195 Clear 2 1017 86 10000 3.09 290 06:49 22.03.2021
1196 Clear 2 1016 74 10000 2.57 280 02:47 22.03.2021
1197 Clear 3 1016 56 10000 2.06 340 00:48 22.03.2021
1198 Clear 3 1016 60 10000 4.12 310 23:59 21.03.2021
1199 Clear 3 1016 60 10000 4.12 310 23:39 21.03.2021
1200 Clear 4 1016 65 10000 3.6 310 23:18 21.03.2021
1201 Clear 4 1016 60 10000 2.57 310 22:41 21.03.2021
1202 Clear 4 1015 60 10000 2.57 300 21:43 21.03.2021
1203 Clear 5 1015 56 10000 4.12 330 21:25 21.03.2021
1204 Clear 5 1015 49 10000 6.17 330 20:57 21.03.2021
1205 Clear 5 1015 49 10000 5.66 330 20:38 21.03.2021
1206 Clear 5 1015 49 10000 5.66 330 20:19 21.03.2021
1207 Clear 6 1014 42 10000 6.69 340 19:46 21.03.2021
1208 Clear 6 1014 39 10000 6.17 340 19:20 21.03.2021
1209 Clear 6 1013 39 10000 5.66 340 18:41 21.03.2021
1210 Clear 8 1013 34 10000 6.69 330 18:18 21.03.2021
1211 Clear 8 1013 37 10000 6.17 350 17:42 21.03.2021
1212 Clear 9 1012 43 10000 7.2 350 17:18 21.03.2021
1213 Clear 9 1012 46 10000 7.72 350 16:51 21.03.2021
1214 Clouds 10 1012 50 10000 7.2 330 16:27 21.03.2021
1215 Clouds 10 1012 57 10000 8.23 340 15:48 21.03.2021
1216 Clouds 10 1012 61 10000 6.17 330 15:22 21.03.2021
1217 Clouds 9 1012 71 10000 5.14 320 14:58 21.03.2021
1218 Clouds 9 1012 71 10000 5.14 320 14:39 21.03.2021
1219 Clouds 9 1012 76 10000 6.69 310 14:20 21.03.2021
1220 Clouds 7 1012 85 10000 7.15 298 13:51 21.03.2021
1221 Clouds 6 1012 81 10000 6.69 310 12:46 21.03.2021
1222 Clouds 6 1011 93 10000 8.75 290 12:26 21.03.2021
1223 Clouds 6 1011 87 10000 8.23 290 11:47 21.03.2021
1224 Clouds 6 1011 87 10000 8.23 290 11:27 21.03.2021
1225 Clouds 6 1010 87 10000 8.23 290 10:53 21.03.2021
1226 Clouds 6 1010 93 6000 7.2 280 10:32 21.03.2021
1227 Clouds 6 1010 93 6000 8.23 280 09:57 21.03.2021
1228 Clouds 6 1010 93 6000 8.23 280 09:38 21.03.2021
1229 Rain 6 1011 100 4800 7.72 270 09:19 21.03.2021
1230 Rain 5 1011 96 10000 5.81 270 08:38 21.03.2021
1231 Rain 5 1011 96 10000 5.81 270 08:19 21.03.2021
1232 Rain 5 1011 93 7000 7.2 260 07:31 21.03.2021
1233 Rain 4 1012 100 3300 6.17 240 06:30 21.03.2021
1234 Clouds 4 1013 93 10000 6.69 250 04:58 21.03.2021
1235 Clouds 4 1013 93 10000 6.69 250 04:58 21.03.2021
1236 Clouds 3 1018 64 10000 7.2 230 00:59 21.03.2021
1237 Clouds 3 1018 64 10000 7.2 230 00:39 21.03.2021
1238 Clouds 3 1018 64 10000 6.69 230 00:21 21.03.2021
1239 Clouds 3 1019 64 10000 6.69 240 23:47 20.03.2021
1240 Clouds 3 1019 60 10000 6.69 240 23:20 20.03.2021
1241 Clouds 3 1020 55 10000 6.69 240 22:50 20.03.2021
1242 Clouds 3 1020 55 10000 6.17 230 22:21 20.03.2021
1243 Clouds 3 1021 55 10000 6.69 230 21:45 20.03.2021
1244 Clouds 3 1021 55 10000 6.69 230 21:24 20.03.2021
1245 Clouds 3 1022 53 10000 4.92 250 20:44 20.03.2021
1246 Clouds 3 1022 55 10000 5.14 230 20:22 20.03.2021
1247 Clouds 3 1022 51 10000 5.14 240 19:49 20.03.2021
1248 Clear 3 1023 51 10000 5.66 240 19:26 20.03.2021
1249 Clouds 4 1023 48 10000 5.14 240 18:49 20.03.2021
1250 Clouds 4 1023 48 10000 5.66 250 18:26 20.03.2021
1251 Clear 4 1023 44 10000 6.17 270 17:54 20.03.2021
1252 Clear 4 1024 48 10000 6.17 260 17:32 20.03.2021
1253 Clear 4 1024 44 10000 6.17 260 16:47 20.03.2021
1254 Clear 4 1025 44 10000 6.17 270 16:21 20.03.2021
1255 Clear 4 1025 44 10000 6.17 270 16:21 20.03.2021
1256 Clear 4 1025 41 10000 6.17 270 15:59 20.03.2021
1257 Clear 4 1025 41 10000 6.17 270 15:39 20.03.2021
1258 Clear 4 1025 41 10000 6.17 270 15:39 20.03.2021
1259 Clear 5 1026 41 10000 6.17 290 14:49 20.03.2021
1260 Clear 5 1026 41 10000 6.17 290 14:49 20.03.2021
1261 Clear 5 1026 45 10000 5.66 270 14:28 20.03.2021
1262 Clear 5 1026 41 10000 6.69 270 13:42 20.03.2021
1263 Clouds 5 1027 41 10000 4.63 280 13:18 20.03.2021
1264 Clouds 4 1028 48 10000 4.63 290 12:27 20.03.2021
1265 Clouds 3 1028 51 10000 4.63 290 11:50 20.03.2021
1266 Clouds 3 1028 51 10000 3.09 310 11:30 20.03.2021
1267 Clouds 3 1028 48 10000 3.6 300 10:57 20.03.2021
1268 Clouds 3 1028 48 10000 3.6 300 10:38 20.03.2021
1269 Clouds 3 1028 55 10000 2.57 310 10:19 20.03.2021
1270 Clouds 2 1028 60 10000 2.57 300 09:42 20.03.2021
1271 Clouds 1 1028 60 10000 3.6 310 09:21 20.03.2021
1272 Clouds 0 1028 69 10000 2.57 290 08:46 20.03.2021
1273 Clouds -1 1028 69 10000 1.54 320 07:56 20.03.2021
1274 Clouds -1 1028 69 10000 1.54 320 07:37 20.03.2021
1275 Clouds -1 1028 69 10000 1.03 330 07:19 20.03.2021
1276 Clear -1 1027 74 10000 2.57 330 06:27 20.03.2021
1277 Clear -2 1027 74 10000 2.06 330 04:44 20.03.2021
1278 Clear -2 1027 74 10000 2.06 340 03:43 20.03.2021
1279 Clear -2 1027 80 10000 3.6 360 00:43 20.03.2021
1280 Clear -2 1027 74 10000 3.6 360 23:45 19.03.2021
1281 Clear -2 1027 74 10000 4.63 20 23:18 19.03.2021
1282 Clear -1 1027 74 10000 4.63 20 22:42 19.03.2021
1283 Clear -1 1026 74 10000 5.66 20 22:22 19.03.2021
1284 Clear -1 1026 69 10000 6.17 20 21:38 19.03.2021
1285 Clear -1 1026 69 10000 6.17 20 21:38 19.03.2021
1286 Clear -1 1026 69 10000 6.69 20 21:19 19.03.2021
1287 Clear -1 1026 69 10000 6.69 20 20:45 19.03.2021
1288 Clouds -1 1025 64 10000 6.17 20 20:26 19.03.2021
1289 Clouds 0 1025 55 10000 7.2 10 19:48 19.03.2021
1290 Clear 1 1024 51 10000 6.17 30 19:22 19.03.2021
1291 Clouds 1 1024 55 10000 6.69 30 18:49 19.03.2021
1292 Clouds 2 1024 55 10000 8.23 40 18:27 19.03.2021
1293 Clouds 2 1023 51 10000 8.23 20 17:58 19.03.2021
1294 Clouds 2 1023 51 10000 8.23 20 17:38 19.03.2021
1295 Clouds 3 1023 64 10000 8.23 20 17:38 19.03.2021
1296 Clouds 3 1023 64 10000 8.23 20 17:18 19.03.2021
1297 Clouds 3 1023 69 10000 5.81 13 16:44 19.03.2021
1298 Clouds 3 1023 80 10000 7.2 30 16:25 19.03.2021
1299 Clouds 4 1022 56 10000 8.23 360 15:34 19.03.2021
1300 Clouds 4 1022 60 10000 8.23 20 14:53 19.03.2021
1301 Clouds 5 1022 72 10000 6.26 23 14:33 19.03.2021
1302 Clouds 5 1022 74 10000 6.71 13 13:53 19.03.2021
1303 Clouds 5 1022 77 8154 3.58 39 13:19 19.03.2021
1304 Clouds 5 1021 70 10000 4.12 20 12:47 19.03.2021
1305 Clouds 4 1022 75 10000 5.66 50 12:18 19.03.2021
1306 Clouds 4 1021 93 10000 3.6 350 11:34 19.03.2021
1307 Clouds 3 1021 86 600 5.66 350 10:52 19.03.2021
1308 Clouds 3 1021 80 10000 4.63 360 10:25 19.03.2021
1309 Rain 3 1021 80 10000 3.09 350 09:46 19.03.2021
1310 Clouds 2 1021 86 10000 3.6 360 09:26 19.03.2021
1311 Clouds 2 1020 86 10000 4.63 360 08:52 19.03.2021
1312 Clouds 1 1020 86 10000 3.6 360 08:29 19.03.2021
1313 Clouds 1 1020 86 10000 2.57 20 07:50 19.03.2021
1314 Clouds 0 1020 93 10000 3.09 10 07:32 19.03.2021
1315 Snow 1 1019 93 7000 3.09 20 06:36 19.03.2021
1316 Clouds 2 1018 93 10000 1.54 350 02:37 19.03.2021
1317 Clouds 2 1018 93 10000 1.03 0 23:58 18.03.2021
1318 Rain 3 1018 93 10000 1.54 180 23:30 18.03.2021
1319 Rain 3 1018 93 10000 1.54 180 23:30 18.03.2021
1320 Rain 3 1018 93 10000 2.06 160 22:58 18.03.2021
1321 Rain 3 1018 93 10000 2.06 140 22:27 18.03.2021
1322 Clouds 3 1018 93 10000 2.57 120 21:59 18.03.2021
1323 Clouds 3 1018 93 10000 2.57 120 21:38 18.03.2021
1324 Clouds 4 1018 93 10000 3.09 130 20:43 18.03.2021
1325 Clouds 4 1018 87 10000 3.09 130 20:24 18.03.2021
1326 Clouds 4 1018 87 10000 2.06 130 19:45 18.03.2021
1327 Clouds 4 1018 87 10000 2.06 130 19:25 18.03.2021
1328 Clouds 5 1018 81 10000 1.03 0 18:55 18.03.2021
1329 Clouds 6 1018 66 10000 2.68 1 18:33 18.03.2021
1330 Clouds 5 1018 81 10000 5.14 70 17:50 18.03.2021
1331 Clouds 6 1018 65 10000 1.54 250 17:25 18.03.2021
1332 Clouds 7 1018 64 10000 4.02 300 16:47 18.03.2021
1333 Clouds 7 1018 75 10000 2.06 230 16:29 18.03.2021
1334 Clouds 6 1019 81 10000 2.06 80 15:47 18.03.2021
1335 Clouds 5 1020 81 10000 9.26 360 15:26 18.03.2021
1336 Clouds 7 1019 61 10000 2.57 0 14:55 18.03.2021
1337 Clouds 7 1019 61 10000 4.63 280 14:32 18.03.2021
1338 Clouds 7 1020 65 10000 5.66 290 13:53 18.03.2021
1339 Clouds 7 1020 65 10000 4.63 300 13:26 18.03.2021
1340 Clouds 7 1021 70 10000 5.14 290 12:45 18.03.2021
1341 Clouds 6 1021 81 10000 4.63 280 12:27 18.03.2021
1342 Clouds 6 1021 81 10000 4.63 280 12:27 18.03.2021
1343 Clouds 6 1021 81 10000 4.63 280 11:55 18.03.2021
1344 Clouds 5 1022 81 10000 6.69 290 11:34 18.03.2021
1345 Clouds 5 1022 75 10000 3.09 270 10:49 18.03.2021
1346 Clouds 5 1022 75 10000 3.09 270 10:49 18.03.2021
1347 Clouds 5 1022 81 10000 2.57 260 10:28 18.03.2021
1348 Clouds 5 1022 93 10000 3.09 270 09:58 18.03.2021
1349 Clouds 3 1022 93 10000 2.06 270 09:30 18.03.2021
1350 Clouds 2 1022 93 10000 1.54 250 08:57 18.03.2021
1351 Clouds 2 1022 93 10000 2.06 240 08:33 18.03.2021
1352 Clouds 1 1022 93 10000 3.09 240 07:58 18.03.2021
1353 Clouds 1 1022 93 10000 3.09 240 07:40 18.03.2021
1354 Clouds 1 1023 93 10000 2.57 230 06:40 18.03.2021
1355 Clouds 0 1023 93 10000 2.57 250 06:21 18.03.2021
1356 Clear 0 1023 100 10000 2.06 240 04:42 18.03.2021
1357 Clear 0 1024 93 10000 1.54 310 00:40 18.03.2021
1358 Clear 1 1024 93 10000 1.54 340 23:19 17.03.2021
1359 Clear 1 1024 93 10000 2.06 340 22:38 17.03.2021
1360 Clouds 2 1024 86 10000 2.57 340 22:20 17.03.2021
1361 Clouds 2 1024 93 10000 2.57 340 21:49 17.03.2021
1362 Clear 2 1023 87 10000 2.06 320 21:30 17.03.2021
1363 Clear 2 1023 87 10000 2.57 310 20:48 17.03.2021
1364 Clear 2 1023 87 10000 3.09 300 20:26 17.03.2021
1365 Clear 3 1023 93 10000 3.09 300 19:58 17.03.2021
1366 Clear 3 1023 93 10000 3.09 300 19:58 17.03.2021
1367 Clear 3 1023 93 10000 3.09 300 19:39 17.03.2021
1368 Clouds 4 1023 87 10000 3.6 300 19:19 17.03.2021
1369 Clouds 4 1023 87 10000 2.57 270 18:47 17.03.2021
1370 Clouds 5 1023 81 10000 2.06 300 18:29 17.03.2021
1371 Clouds 5 1022 81 10000 5.14 20 17:32 17.03.2021
1372 Clouds 5 1022 87 10000 3.09 300 16:58 17.03.2021
1373 Clouds 5 1022 81 10000 2.68 349 16:39 17.03.2021
1374 Clouds 5 1022 87 10000 3.09 300 16:39 17.03.2021
1375 Clouds 5 1022 81 10000 2.68 342 16:20 17.03.2021
1376 Clouds 5 1022 87 10000 6.69 10 15:45 17.03.2021
1377 Clouds 5 1022 87 10000 4.63 30 15:26 17.03.2021
1378 Rain 7 1021 75 10000 3.6 310 14:40 17.03.2021
1379 Clouds 7 1021 81 10000 3.6 310 14:19 17.03.2021
1380 Clouds 6 1021 81 10000 3.6 340 13:54 17.03.2021
1381 Clouds 6 1021 87 10000 2.06 350 13:24 17.03.2021
1382 Drizzle 5 1021 87 10000 3.6 360 12:43 17.03.2021
1383 Clouds 5 1021 81 10000 2.57 340 12:25 17.03.2021
1384 Clouds 5 1021 81 10000 1.54 330 11:41 17.03.2021
1385 Drizzle 4 1021 81 10000 3.6 340 11:21 17.03.2021
1386 Clouds 4 1021 81 10000 3.09 320 10:52 17.03.2021
1387 Clouds 4 1021 87 10000 3.09 330 10:23 17.03.2021
1388 Clouds 3 1021 87 10000 2.57 320 09:46 17.03.2021
1389 Clouds 3 1020 87 10000 3.09 310 09:20 17.03.2021
1390 Clouds 2 1020 87 10000 4.12 300 08:53 17.03.2021
1391 Clouds 2 1020 87 10000 3.6 300 08:33 17.03.2021
1392 Clouds 2 1020 93 10000 2.57 310 07:46 17.03.2021
1393 Clear 1 1019 93 10000 3.6 290 06:59 17.03.2021
1394 Clouds 1 1019 93 10000 3.09 310 06:30 17.03.2021
1395 Clouds 1 1019 86 10000 1.54 270 04:19 17.03.2021
1396 Clouds 0 1019 93 10000 1.03 290 02:44 17.03.2021
1397 Clear 1 1019 86 10000 2.57 280 00:39 17.03.2021
1398 Clear 1 1019 80 10000 2.06 330 23:28 16.03.2021
1399 Clear 2 1019 80 10000 2.57 340 22:48 16.03.2021
1400 Clear 2 1019 80 10000 2.57 340 22:29 16.03.2021
1401 Clear 2 1019 75 10000 2.57 340 21:47 16.03.2021
1402 Clear 3 1018 75 10000 3.09 340 21:29 16.03.2021
1403 Clear 3 1018 75 10000 2.57 350 20:58 16.03.2021
1404 Clear 4 1018 70 10000 2.57 350 20:20 16.03.2021
1405 Clouds 4 1018 60 10000 2.57 360 19:58 16.03.2021
1406 Clouds 4 1018 60 10000 2.57 360 19:39 16.03.2021
1407 Clouds 5 1018 65 10000 2.57 330 19:19 16.03.2021
1408 Clouds 6 1017 61 10000 3.6 340 18:40 16.03.2021
1409 Clouds 6 1017 57 10000 4.12 340 18:21 16.03.2021
1410 Clouds 7 1017 57 10000 5.14 310 17:47 16.03.2021
1411 Clouds 8 1017 57 10000 6.69 320 17:29 16.03.2021
1412 Clouds 8 1017 66 10000 5.36 321 16:52 16.03.2021
1413 Clouds 8 1017 57 10000 6.17 310 16:28 16.03.2021
1414 Clouds 8 1017 61 10000 6.69 310 15:47 16.03.2021
1415 Clouds 8 1017 57 10000 6.17 310 15:21 16.03.2021
1416 Clouds 8 1016 67 10000 4.92 304 14:58 16.03.2021
1417 Clouds 8 1016 68 10000 5.81 291 14:40 16.03.2021
1418 Clouds 7 1016 65 10000 7.2 290 14:20 16.03.2021
1419 Clouds 7 1016 65 10000 6.69 290 13:49 16.03.2021
1420 Clouds 8 1016 70 10000 4.02 312 13:26 16.03.2021
1421 Clouds 8 1016 71 10000 3.58 310 12:54 16.03.2021
1422 Clouds 7 1016 65 10000 7.2 310 12:35 16.03.2021
1423 Clouds 6 1016 70 10000 6.69 320 11:54 16.03.2021
1424 Clouds 5 1016 70 10000 7.72 310 11:27 16.03.2021
1425 Clouds 5 1016 75 10000 6.17 290 10:45 16.03.2021
1426 Clouds 5 1016 75 10000 6.17 320 10:20 16.03.2021
1427 Clouds 4 1015 75 10000 6.17 320 09:39 16.03.2021
1428 Clouds 4 1015 75 10000 6.17 320 09:19 16.03.2021
1429 Clouds 4 1014 75 10000 6.17 310 08:51 16.03.2021
1430 Clouds 4 1014 81 10000 5.66 310 08:32 16.03.2021
1431 Clouds 4 1014 75 10000 5.66 330 07:50 16.03.2021
1432 Clouds 4 1013 81 10000 6.17 310 06:57 16.03.2021
1433 Clouds 4 1013 81 10000 6.17 310 06:37 16.03.2021
1434 Drizzle 4 1012 87 10000 7.72 310 05:35 16.03.2021
1435 Drizzle 4 1010 93 10000 6.17 310 02:46 16.03.2021
1436 Drizzle 4 1010 93 10000 6.17 300 02:25 16.03.2021
1437 Clouds 5 1008 87 10000 6.17 310 00:25 16.03.2021
1438 Clouds 5 1008 87 10000 6.69 310 23:53 15.03.2021
1439 Clouds 5 1008 93 10000 5.14 290 23:19 15.03.2021
1440 Clouds 5 1008 93 10000 5.66 300 22:42 15.03.2021
1441 Clouds 5 1007 87 10000 6.69 290 22:24 15.03.2021
1442 Rain 5 1007 93 10000 6.17 290 21:48 15.03.2021
1443 Clouds 5 1007 93 10000 5.14 300 21:27 15.03.2021
1444 Clouds 5 1006 93 10000 4.63 280 20:47 15.03.2021
1445 Rain 5 1006 93 10000 4.12 290 20:28 15.03.2021
1446 Rain 5 1006 93 10000 4.63 270 19:58 15.03.2021
1447 Clouds 5 1006 93 10000 4.63 270 19:39 15.03.2021
1448 Clouds 5 1005 93 10000 4.12 260 19:21 15.03.2021
1449 Clouds 5 1005 87 10000 3.09 270 18:42 15.03.2021
1450 Clouds 5 1005 87 10000 4.63 250 18:22 15.03.2021
1451 Rain 6 1005 87 10000 3.6 240 17:52 15.03.2021
1452 Rain 6 1005 87 10000 7.72 260 17:22 15.03.2021
1453 Rain 7 1005 76 10000 5.14 230 16:49 15.03.2021
1454 Rain 7 1005 81 10000 4.63 230 16:20 15.03.2021
1455 Clouds 7 1005 70 10000 7.2 250 15:39 15.03.2021
1456 Clouds 7 1005 70 10000 7.2 250 15:20 15.03.2021
1457 Clouds 8 1005 66 10000 7.2 240 14:41 15.03.2021
1458 Rain 7 1005 66 10000 7.2 240 14:21 15.03.2021
1459 Clouds 8 1005 66 10000 7.2 240 13:46 15.03.2021
1460 Clouds 8 1005 76 10000 6.17 250 13:24 15.03.2021
1461 Clouds 8 1006 76 10000 5.66 260 12:47 15.03.2021
1462 Clouds 7 1006 70 10000 5.66 250 12:18 15.03.2021
1463 Clouds 7 1006 76 10000 5.66 230 11:47 15.03.2021
1464 Clouds 6 1006 87 10000 4.63 240 11:29 15.03.2021
1465 Clouds 5 1006 81 10000 6.17 240 10:45 15.03.2021
1466 Clouds 5 1006 87 10000 4.12 240 10:27 15.03.2021
1467 Clouds 5 1007 87 10000 5.14 230 09:51 15.03.2021
1468 Clouds 5 1006 87 10000 4.63 220 09:31 15.03.2021
1469 Clouds 4 1006 93 10000 3.6 230 08:49 15.03.2021
1470 Clouds 4 1006 93 10000 4.12 240 08:28 15.03.2021
1471 Clouds 4 1006 93 10000 4.12 240 07:51 15.03.2021
1472 Clouds 4 1006 93 10000 4.12 230 07:31 15.03.2021
1473 Clouds 3 1006 100 10000 4.63 230 06:39 15.03.2021
1474 Clouds 4 1006 93 10000 3.6 220 05:32 15.03.2021
1475 Clouds 4 1007 93 10000 4.63 260 01:31 15.03.2021
1476 Clear 5 1008 93 10000 4.12 250 23:56 14.03.2021
1477 Clouds 5 1008 87 10000 3.6 240 23:20 14.03.2021
1478 Clouds 5 1008 93 10000 5.14 230 22:46 14.03.2021
1479 Clouds 5 1008 93 10000 6.17 240 22:23 14.03.2021
1480 Clouds 5 1008 93 10000 4.12 240 21:45 14.03.2021
1481 Clouds 5 1008 87 10000 5.14 270 21:19 14.03.2021
1482 Clouds 5 1008 87 10000 4.63 250 20:49 14.03.2021
1483 Rain 5 1007 93 10000 4.12 240 20:26 14.03.2021
1484 Rain 5 1007 93 10000 4.12 240 20:26 14.03.2021
1485 Clouds 5 1007 87 10000 4.12 240 19:48 14.03.2021
1486 Clouds 5 1007 87 10000 4.63 240 19:24 14.03.2021
1487 Clouds 6 1007 87 10000 5.66 270 18:49 14.03.2021
1488 Clouds 6 1006 87 10000 5.66 330 18:28 14.03.2021
1489 Clouds 6 1006 87 10000 2.57 270 17:41 14.03.2021
1490 Rain 7 1006 87 10000 6.17 290 17:23 14.03.2021
1491 Clouds 8 1005 66 10000 4.63 280 16:49 14.03.2021
1492 Clouds 8 1005 71 10000 4.63 280 16:28 14.03.2021
1493 Clouds 8 1005 76 10000 7.2 270 15:56 14.03.2021
1494 Clouds 8 1005 76 10000 7.2 270 15:36 14.03.2021
1495 Clouds 7 1005 81 10000 6.69 280 14:41 14.03.2021
1496 Clouds 7 1005 87 10000 7.2 290 14:23 14.03.2021
1497 Rain 7 1004 76 10000 7.72 280 13:50 14.03.2021
1498 Clouds 7 1004 76 10000 9.77 280 13:29 14.03.2021
1499 Clouds 6 1004 81 10000 9.77 280 12:47 14.03.2021
1500 Clouds 6 1003 81 10000 9.26 280 12:29 14.03.2021
1501 Clouds 6 1003 87 10000 9.26 280 11:58 14.03.2021
1502 Clouds 6 1002 87 10000 9.26 270 11:36 14.03.2021
1503 Clouds 5 1001 87 10000 10.29 250 10:59 14.03.2021
1504 Clouds 5 1001 87 10000 10.29 250 10:38 14.03.2021
1505 Clouds 5 1001 87 10000 8.23 260 10:19 14.03.2021
1506 Clouds 5 1000 93 10000 8.23 260 09:44 14.03.2021
1507 Clouds 4 1000 87 8000 9.26 260 09:23 14.03.2021
1508 Clouds 4 999 87 10000 9.77 260 08:51 14.03.2021
1509 Clouds 4 998 87 10000 9.26 260 08:32 14.03.2021
1510 Clouds 4 998 87 10000 10.8 250 07:48 14.03.2021
1511 Clouds 4 998 87 10000 10.8 250 07:48 14.03.2021
1512 Rain 4 997 87 9000 9.77 260 07:20 14.03.2021
1513 Rain 4 995 87 10000 11.32 240 05:33 14.03.2021
1514 Rain 4 995 87 10000 11.32 240 05:33 14.03.2021
1515 Clouds 5 994 75 10000 9.77 230 00:59 14.03.2021
1516 Clouds 5 994 75 10000 9.77 230 00:59 14.03.2021
1517 Clouds 5 994 75 10000 10.8 230 00:20 14.03.2021
1518 Clouds 5 994 75 10000 10.8 230 00:20 14.03.2021
1519 Clouds 6 994 75 10000 10.8 230 23:57 13.03.2021
1520 Clouds 6 994 75 10000 10.8 230 23:37 13.03.2021
1521 Clouds 6 994 75 10000 9.26 220 22:58 13.03.2021
1522 Clouds 6 994 75 10000 9.26 220 22:40 13.03.2021
1523 Clouds 6 994 75 10000 10.29 220 21:50 13.03.2021
1524 Clear 6 994 75 10000 10.29 220 21:30 13.03.2021
1525 Clear 5 994 81 10000 7.72 210 20:56 13.03.2021
1526 Clear 5 994 93 10000 5.66 210 20:32 13.03.2021
1527 Clouds 5 994 87 10000 5.66 210 19:58 13.03.2021
1528 Clouds 5 994 87 10000 5.66 210 19:38 13.03.2021
1529 Clouds 6 994 81 10000 10.29 250 19:19 13.03.2021
1530 Rain 5 994 75 10000 7.72 230 18:42 13.03.2021
1531 Clouds 5 994 87 10000 3.6 290 18:20 13.03.2021
1532 Clouds 6 993 76 10000 10.8 230 17:47 13.03.2021
1533 Rain 8 993 76 10000 10.29 230 17:28 13.03.2021
1534 Clouds 8 993 76 10000 9.77 230 16:51 13.03.2021
1535 Clouds 8 993 81 10000 8.23 220 16:33 13.03.2021
1536 Clouds 8 993 76 10000 8.23 230 15:55 13.03.2021
1537 Rain 9 992 66 10000 9.26 210 14:59 13.03.2021
1538 Rain 9 992 66 10000 9.26 210 14:41 13.03.2021
1539 Clouds 10 993 71 10000 8.23 200 14:20 13.03.2021
1540 Clouds 9 994 76 10000 9.26 190 13:27 13.03.2021
1541 Clouds 8 994 81 10000 8.75 190 12:52 13.03.2021
1542 Rain 8 995 87 10000 8.23 180 12:34 13.03.2021
1543 Rain 7 995 87 10000 7.2 180 11:54 13.03.2021
1544 Rain 7 996 93 10000 6.69 180 11:33 13.03.2021
1545 Rain 6 997 93 10000 7.2 190 10:58 13.03.2021
1546 Rain 6 998 87 10000 6.69 190 10:31 13.03.2021
1547 Rain 6 999 87 10000 8.75 200 09:59 13.03.2021
1548 Rain 6 999 81 10000 6.69 200 09:32 13.03.2021
1549 Rain 6 999 75 10000 7.72 210 08:54 13.03.2021
1550 Rain 6 999 75 10000 7.72 210 08:21 13.03.2021
1551 Clear 6 1000 75 10000 6.69 210 07:57 13.03.2021
1552 Clear 5 1000 75 10000 6.69 210 07:33 13.03.2021
1553 Clouds 5 1001 81 10000 7.2 220 05:30 13.03.2021
1554 Clouds 5 1001 81 10000 8.23 230 02:42 13.03.2021
1555 Clouds 5 1001 93 10000 6.17 240 00:36 13.03.2021
1556 Rain 6 1001 75 10000 10.8 260 23:46 12.03.2021
1557 Rain 7 1001 57 10000 7.2 210 23:26 12.03.2021
1558 Clouds 8 1001 57 10000 8.75 210 22:41 12.03.2021
1559 Clear 8 1002 57 10000 7.2 200 22:20 12.03.2021
1560 Clear 8 1002 61 10000 6.69 210 21:38 12.03.2021
1561 Rain 8 1002 61 10000 6.69 210 21:38 12.03.2021
1562 Clear 8 1002 61 10000 7.72 200 21:20 12.03.2021
1563 Clear 8 1002 61 10000 6.17 190 20:54 12.03.2021
1564 Clear 8 1003 61 10000 6.17 200 20:31 12.03.2021
1565 Clear 8 1003 61 10000 7.2 210 19:48 12.03.2021
1566 Clear 8 1003 61 10000 5.66 200 19:30 12.03.2021
1567 Clear 9 1003 53 10000 6.17 210 18:54 12.03.2021
1568 Clear 9 1003 49 10000 6.69 220 18:32 12.03.2021
1569 Clear 10 1004 49 10000 8.23 230 17:46 12.03.2021
1570 Clear 10 1004 49 10000 8.23 230 17:46 12.03.2021
1571 Clear 10 1004 46 10000 8.23 240 17:27 12.03.2021
1572 Clouds 10 1004 51 10000 6.71 241 16:54 12.03.2021
1573 Clear 10 1004 46 10000 9.26 240 16:33 12.03.2021
1574 Clear 11 1004 43 10000 9.26 240 15:50 12.03.2021
1575 Clouds 11 1005 49 10000 8.05 251 15:25 12.03.2021
1576 Clouds 10 1005 46 10000 10.8 240 14:47 12.03.2021
1577 Clouds 10 1005 50 10000 11.32 240 14:20 12.03.2021
1578 Clouds 10 1005 53 10000 9.26 250 13:42 12.03.2021
1579 Clouds 10 1005 53 10000 9.77 250 13:21 12.03.2021
1580 Clouds 10 1005 57 10000 8.23 250 12:56 12.03.2021
1581 Clouds 9 1005 61 10000 8.75 250 12:36 12.03.2021
1582 Clouds 9 1005 61 10000 8.75 250 12:18 12.03.2021
1583 Clouds 8 1005 70 10000 8.23 260 11:40 12.03.2021
1584 Clouds 8 1005 70 10000 8.23 260 11:19 12.03.2021
1585 Clouds 7 1005 75 10000 9.26 250 10:45 12.03.2021
1586 Clouds 7 1004 81 10000 8.75 240 10:22 12.03.2021
1587 Clouds 6 1004 87 10000 7.72 240 09:37 12.03.2021
1588 Clouds 6 1004 87 10000 7.72 250 09:19 12.03.2021
1589 Clouds 6 1003 87 10000 7.72 250 08:39 12.03.2021
1590 Rain 5 1002 93 10000 7.72 240 07:51 12.03.2021
1591 Rain 5 1002 87 10000 7.2 250 07:29 12.03.2021
1592 Rain 5 1001 87 10000 8.75 250 06:44 12.03.2021
1593 Rain 6 1000 87 10000 6.17 250 05:56 12.03.2021
1594 Clear 7 998 81 10000 5.66 240 00:59 12.03.2021
1595 Clouds 7 997 81 10000 5.14 230 23:56 11.03.2021
1596 Clouds 7 997 87 10000 5.14 230 23:19 11.03.2021
1597 Clouds 7 997 87 10000 5.66 240 22:41 11.03.2021
1598 Clear 7 997 87 10000 6.17 260 22:21 11.03.2021
1599 Clouds 8 997 76 10000 8.75 260 21:46 11.03.2021
1600 Clouds 8 997 81 10000 9.26 260 21:26 11.03.2021
1601 Clouds 8 996 71 10000 7.72 280 20:49 11.03.2021
1602 Rain 8 996 71 10000 7.2 290 20:23 11.03.2021
1603 Clouds 9 995 76 10000 8.75 260 19:57 11.03.2021
1604 Clouds 9 995 81 10000 4.63 230 19:38 11.03.2021
1605 Clouds 9 994 81 10000 4.63 260 18:55 11.03.2021
1606 Clouds 9 994 71 10000 8.75 270 18:35 11.03.2021
1607 Clouds 9 993 82 10000 7.6 220 17:57 11.03.2021
1608 Rain 11 993 71 10000 9.77 210 17:39 11.03.2021
1609 Clouds 12 994 76 10000 8.75 200 16:42 11.03.2021
1610 Clouds 12 994 66 10000 9.26 210 16:24 11.03.2021
1611 Clouds 11 994 71 10000 8.23 210 15:44 11.03.2021
1612 Clouds 10 995 76 10000 8.23 200 15:21 11.03.2021
1613 Rain 10 996 76 10000 9.26 200 14:45 11.03.2021
1614 Rain 10 996 76 10000 9.26 200 14:45 11.03.2021
1615 Clouds 10 996 71 10000 10.8 210 14:19 11.03.2021
1616 Clouds 10 997 81 10000 9.26 200 13:46 11.03.2021
1617 Clouds 10 998 81 10000 9.26 190 13:24 11.03.2021
1618 Clouds 8 998 87 10000 7.72 190 12:57 11.03.2021
1619 Clouds 7 999 93 10000 7.2 190 12:36 11.03.2021
1620 Clouds 7 999 93 10000 7.2 190 12:18 11.03.2021
1621 Rain 5 1000 93 8000 6.69 180 11:42 11.03.2021
1622 Rain 5 1000 93 5000 6.17 190 11:20 11.03.2021
1623 Rain 5 1001 94 5759 5.81 180 10:28 11.03.2021
1624 Rain 4 1001 93 6000 7.2 170 09:57 11.03.2021
1625 Rain 4 1001 93 6000 7.2 170 09:37 11.03.2021
1626 Rain 4 1001 93 6000 8.75 170 09:18 11.03.2021
1627 Clouds 4 1002 93 5000 8.75 170 08:44 11.03.2021
1628 Clouds 4 1002 87 5000 8.75 160 08:18 11.03.2021
1629 Rain 4 1004 93 6000 6.69 160 07:28 11.03.2021
1630 Rain 3 1004 87 7000 6.69 150 06:49 11.03.2021
1631 Rain 3 1005 87 9000 6.69 150 06:25 11.03.2021
1632 Rain 3 1010 75 10000 6.17 160 02:50 11.03.2021
1633 -273 0 0 0 0 0 00:56 11.03.2021
1634 Clear 2 1014 51 10000 4.63 150 23:32 10.03.2021
1635 Clear 2 1014 51 10000 4.63 150 23:32 10.03.2021
1636 Clear 2 1015 51 10000 4.12 150 22:54 10.03.2021
1637 -273 0 0 0 0 0 22:32 10.03.2021
1638 Clear 2 1016 44 10000 3.09 130 21:47 10.03.2021
1639 Clear 3 1016 44 10000 4.12 130 21:25 10.03.2021
1640 Clear 3 1017 44 10000 2.57 140 20:48 10.03.2021
1641 Clear 4 1017 41 10000 3.6 140 20:30 10.03.2021
1642 Clear 4 1017 41 10000 3.6 140 20:30 10.03.2021
1643 Clear 4 1017 44 10000 3.6 130 19:53 10.03.2021
1644 Clear 5 1017 45 10000 2.57 130 19:30 10.03.2021
1645 Clear 5 1017 45 10000 2.57 140 18:55 10.03.2021
1646 Clear 5 1017 45 10000 2.57 140 18:36 10.03.2021
1647 Clear 6 1017 45 10000 3.09 150 18:18 10.03.2021
1648 Clear 7 1018 36 10000 4.12 150 17:41 10.03.2021
1649 Clear 7 1018 36 10000 4.12 150 17:19 10.03.2021
1650 Clear 8 1018 33 10000 4.63 170 16:47 10.03.2021
1651 Clear 8 1018 29 10000 4.12 160 16:25 10.03.2021
1652 Clear 9 1018 29 10000 3.6 160 15:49 10.03.2021
1653 Clear 9 1018 27 10000 4.12 170 15:25 10.03.2021
1654 Clear 8 1019 27 10000 3.09 180 14:57 10.03.2021
1655 Clear 8 1019 27 10000 3.6 150 14:22 10.03.2021
1656 Clear 9 1019 27 10000 3.6 180 13:54 10.03.2021
1657 Clear 9 1019 24 10000 4.12 190 13:31 10.03.2021
1658 Clear 8 1020 31 10000 3.09 150 12:48 10.03.2021
1659 Clear 8 1020 29 10000 3.09 160 12:24 10.03.2021
1660 Clear 7 1020 28 10000 3.6 130 11:53 10.03.2021
1661 Clear 6 1020 36 10000 2.57 140 11:28 10.03.2021
1662 Clear 6 1020 38 10000 2.57 110 10:51 10.03.2021
1663 Clear 5 1020 48 10000 3.09 110 10:33 10.03.2021
1664 Clear 4 1020 51 10000 1.54 100 09:57 10.03.2021
1665 Clear 3 1020 51 10000 1.54 100 09:38 10.03.2021
1666 Clear 1 1020 64 10000 2.06 90 09:19 10.03.2021
1667 Clear 1 1020 74 10000 1.54 90 08:45 10.03.2021
1668 Clear 0 1020 74 10000 1.54 90 08:27 10.03.2021
1669 Clear 0 1020 74 10000 1.54 80 07:44 10.03.2021
1670 Clear -1 1019 80 10000 0.51 100 07:25 10.03.2021
1671 Clear -1 1019 80 10000 1.03 130 06:52 10.03.2021
1672 Clear -1 1019 74 10000 2.57 70 02:45 10.03.2021
1673 Clear 0 1019 68 10000 1.03 90 00:39 10.03.2021
1674 Clear 0 1019 63 10000 1.54 70 23:45 09.03.2021
1675 Clear 0 1019 59 10000 2.57 90 22:58 09.03.2021
1676 Clear 1 1019 59 10000 2.06 80 22:38 09.03.2021
1677 Clear 1 1019 59 10000 2.06 80 22:18 09.03.2021
1678 Clear 0 1019 64 10000 2.57 70 21:42 09.03.2021
1679 Clear 1 1019 59 10000 2.57 70 21:22 09.03.2021
1680 Clear 1 1019 51 10000 2.06 120 20:56 09.03.2021
1681 Clear 0 1019 51 10000 2.06 120 20:37 09.03.2021
1682 Clear 1 1019 44 10000 2.06 120 20:19 09.03.2021
1683 Clear 1 1019 41 10000 2.06 120 19:43 09.03.2021
1684 Clear 2 1019 44 10000 1.54 130 19:25 09.03.2021
1685 Clear 2 1018 41 10000 1.54 160 18:42 09.03.2021
1686 Clear 4 1018 35 10000 1.54 160 18:20 09.03.2021
1687 Clear 5 1018 33 10000 2.06 160 17:47 09.03.2021
1688 Clear 6 1018 31 10000 1.54 190 17:27 09.03.2021
1689 Clear 7 1018 31 10000 2.06 160 16:41 09.03.2021
1690 Clear 7 1018 26 10000 3.6 170 16:21 09.03.2021
1691 Clear 7 1018 26 10000 2.57 170 15:56 09.03.2021
1692 Clear 7 1018 29 10000 2.57 150 15:28 09.03.2021
1693 Clear 7 1019 31 10000 2.06 200 14:52 09.03.2021
1694 Clear 7 1019 33 10000 1.54 0 14:27 09.03.2021
1695 Clear 7 1019 33 10000 2.57 200 13:43 09.03.2021
1696 Clear 7 1019 33 10000 3.09 0 13:22 09.03.2021
1697 Clear 7 1020 33 10000 3.09 170 12:55 09.03.2021
1698 Clear 6 1020 36 10000 2.57 160 12:37 09.03.2021
1699 Clear 6 1020 42 10000 2.57 140 11:58 09.03.2021
1700 Clear 5 1020 45 10000 2.57 130 11:39 09.03.2021
1701 Clear 5 1020 45 10000 2.57 130 11:19 09.03.2021
1702 Clear 3 1020 48 10000 2.57 140 10:41 09.03.2021
1703 Clear 3 1020 55 10000 2.06 110 10:22 09.03.2021
1704 Clear 2 1021 64 10000 2.06 90 09:58 09.03.2021
1705 Clear 1 1021 64 10000 2.06 100 09:37 09.03.2021
1706 Clear 1 1021 64 10000 2.06 100 09:18 09.03.2021
1707 Clear 0 1021 64 10000 2.06 120 08:35 09.03.2021
1708 Clear -1 1021 80 10000 1.54 100 07:48 09.03.2021
1709 Clear -2 1021 74 10000 1.54 80 07:28 09.03.2021
1710 Clear -2 1021 74 10000 1.54 80 07:28 09.03.2021
1711 Clear -2 1021 74 10000 1.54 100 06:59 09.03.2021
1712 Clear -2 1021 74 10000 2.06 90 05:54 09.03.2021
1713 Clear -1 1022 74 10000 1.54 80 02:27 09.03.2021
1714 Clear -1 1022 64 10000 2.06 80 00:18 09.03.2021
1715 Clear -1 1023 64 10000 2.06 90 23:39 08.03.2021
1716 Clear -1 1023 64 10000 2.57 80 23:21 08.03.2021
1717 Clear -1 1023 64 10000 2.57 90 22:43 08.03.2021
1718 Clear 0 1023 64 10000 2.57 80 22:25 08.03.2021
1719 Clear 0 1023 59 10000 2.57 80 21:53 08.03.2021
1720 Clear 0 1023 59 10000 3.09 70 21:34 08.03.2021
1721 Clear 1 1023 59 10000 2.57 80 20:45 08.03.2021
1722 Clear 0 1023 47 10000 2.57 90 20:25 08.03.2021
1723 Clear 1 1023 55 10000 3.09 70 19:58 08.03.2021
1724 Clear 2 1022 48 10000 0.51 0 19:28 08.03.2021
1725 Clear 3 1022 35 10000 0.51 0 18:39 08.03.2021
1726 Clear 4 1022 38 10000 1.54 330 18:20 08.03.2021
1727 Clear 5 1022 33 10000 1.03 0 17:51 08.03.2021
1728 Clear 6 1022 33 10000 2.06 10 17:25 08.03.2021
1729 Clear 6 1022 31 10000 3.09 20 16:48 08.03.2021
1730 Clear 7 1022 31 10000 1.54 330 16:29 08.03.2021
1731 Clear 6 1022 33 10000 1.54 20 15:51 08.03.2021
1732 Clear 7 1022 31 10000 2.06 70 15:29 08.03.2021
1733 Clear 6 1022 33 10000 2.57 30 14:46 08.03.2021
1734 Clear 7 1022 33 10000 1.03 0 14:20 08.03.2021
1735 Clear 6 1023 33 10000 2.57 30 13:43 08.03.2021
1736 Clear 7 1023 36 10000 2.57 0 13:20 08.03.2021
1737 Clear 6 1023 33 10000 3.6 40 12:46 08.03.2021
1738 Clear 6 1023 33 10000 3.6 20 12:27 08.03.2021
1739 Clear 6 1023 38 10000 4.12 350 11:40 08.03.2021
1740 Clouds 5 1023 45 10000 4.12 10 11:19 08.03.2021
1741 Clear 5 1023 52 10000 3.6 30 10:43 08.03.2021
1742 Clear 4 1022 60 10000 2.57 20 10:25 08.03.2021
1743 Clear 3 1022 69 10000 3.09 10 09:42 08.03.2021
1744 Clear 3 1022 69 10000 2.57 10 09:23 08.03.2021
1745 Clear 1 1021 86 10000 2.57 360 08:29 08.03.2021
1746 Clear -1 1021 86 10000 1.54 340 07:48 08.03.2021
1747 Clear -1 1021 93 10000 1.54 350 07:20 08.03.2021
1748 Clear 0 1019 86 10000 2.57 350 05:18 08.03.2021
1749 Clouds 2 1018 93 10000 2.57 300 01:26 08.03.2021
1750 Clouds 3 1018 93 10000 4.12 290 00:33 08.03.2021
1751 Clouds 3 1018 93 10000 5.14 280 23:51 07.03.2021
1752 Clouds 3 1018 87 10000 4.63 290 23:20 07.03.2021
1753 Clouds 3 1018 81 10000 5.66 270 22:45 07.03.2021
1754 Rain 3 1018 75 10000 5.14 270 22:26 07.03.2021
1755 Rain 3 1018 75 10000 5.66 270 21:49 07.03.2021
1756 Clouds 4 1018 75 10000 5.66 260 21:30 07.03.2021
1757 Clouds 4 1018 70 10000 5.66 260 20:50 07.03.2021
1758 Clouds 4 1018 70 10000 5.14 260 20:32 07.03.2021
1759 Clouds 4 1018 70 10000 5.66 260 19:59 07.03.2021
1760 Clouds 4 1018 70 10000 5.66 260 19:39 07.03.2021
1761 Clouds 4 1018 65 10000 5.66 250 19:21 07.03.2021
1762 Clouds 4 1018 65 10000 5.66 260 18:50 07.03.2021
1763 Clouds 4 1018 60 10000 5.66 260 18:20 07.03.2021
1764 Clouds 4 1018 60 10000 5.66 260 17:56 07.03.2021
1765 Clouds 4 1018 60 10000 5.66 260 17:37 07.03.2021
1766 Clouds 5 1018 60 10000 6.17 250 17:18 07.03.2021
1767 Clouds 5 1018 60 10000 6.17 250 17:18 07.03.2021
1768 Clouds 5 1018 60 10000 6.17 250 17:18 07.03.2021
1769 Clouds 4 1019 65 10000 6.17 260 16:42 07.03.2021
1770 Clouds 5 1019 60 10000 6.69 260 16:20 07.03.2021
1771 Clouds 5 1019 60 10000 7.2 260 15:49 07.03.2021
1772 Clouds 5 1020 60 10000 8.23 280 15:31 07.03.2021
1773 Clouds 4 1020 60 10000 8.75 290 14:47 07.03.2021
1774 Clouds 4 1020 65 10000 8.75 280 14:29 07.03.2021
1775 Clouds 4 1021 65 10000 7.2 280 13:48 07.03.2021
1776 Clouds 4 1021 60 10000 7.72 280 13:26 07.03.2021
1777 Clouds 4 1021 65 10000 7.72 280 12:48 07.03.2021
1778 Clouds 4 1022 65 10000 7.72 280 12:30 07.03.2021
1779 Clouds 4 1022 65 10000 7.2 270 11:58 07.03.2021
1780 Clouds 4 1022 65 10000 7.72 270 11:23 07.03.2021
1781 Clouds 3 1022 65 10000 8.23 270 10:54 07.03.2021
1782 Clouds 3 1022 65 10000 7.2 260 10:36 07.03.2021
1783 Clouds 3 1022 65 10000 8.23 270 09:53 07.03.2021
1784 Clouds 3 1022 75 10000 5.36 278 09:27 07.03.2021
1785 Clouds 3 1023 69 10000 7.72 280 08:59 07.03.2021
1786 Clouds 3 1023 69 10000 7.72 280 08:39 07.03.2021
1787 Clouds 2 1023 69 10000 7.2 270 08:21 07.03.2021
1788 Clouds 2 1024 75 10000 6.17 270 06:25 07.03.2021
1789 Clouds 3 1025 87 10000 4.63 260 02:39 07.03.2021
1790 Clouds 3 1027 81 10000 4.63 260 00:34 07.03.2021
1791 Clouds 3 1027 81 10000 4.63 250 23:40 06.03.2021
1792 Clouds 4 1027 81 10000 4.63 250 23:20 06.03.2021
1793 Clouds 4 1027 81 10000 5.14 260 22:45 06.03.2021
1794 Clouds 4 1028 81 10000 5.14 250 22:21 06.03.2021
1795 Clouds 4 1028 81 10000 4.63 250 21:46 06.03.2021
1796 Clouds 4 1028 81 10000 4.63 240 21:20 06.03.2021
1797 Clouds 4 1028 81 10000 4.63 240 20:42 06.03.2021
1798 Clouds 4 1028 81 10000 4.63 240 20:18 06.03.2021
1799 Clouds 4 1029 81 10000 4.12 250 19:38 06.03.2021
1800 Clouds 4 1029 81 10000 4.12 250 19:18 06.03.2021
1801 Clouds 4 1029 81 10000 4.12 260 18:41 06.03.2021
1802 Clouds 4 1029 81 10000 3.6 260 18:21 06.03.2021
1803 Clouds 4 1029 70 10000 4.63 260 17:54 06.03.2021
1804 Clouds 4 1029 70 10000 4.63 260 17:32 06.03.2021
1805 Clouds 4 1029 70 10000 4.12 270 16:59 06.03.2021
1806 Clouds 4 1029 70 10000 4.12 270 16:37 06.03.2021
1807 Clouds 4 1030 70 10000 5.14 280 16:18 06.03.2021
1808 Clouds 4 1030 65 10000 6.17 280 15:39 06.03.2021
1809 Clouds 4 1030 65 10000 7.2 280 15:21 06.03.2021
1810 Clouds 4 1030 70 10000 6.17 270 14:33 06.03.2021
1811 Clouds 4 1030 70 10000 7.2 270 13:56 06.03.2021
1812 Clouds 4 1031 70 10000 8.75 270 13:37 06.03.2021
1813 Clouds 4 1031 70 10000 8.75 270 13:19 06.03.2021
1814 Clouds 5 1031 70 10000 6.69 280 12:43 06.03.2021
1815 Clouds 5 1031 65 10000 6.69 280 12:19 06.03.2021
1816 Clouds 5 1031 65 10000 6.17 270 11:48 06.03.2021
1817 Clouds 4 1031 60 10000 6.69 270 11:21 06.03.2021
1818 Clouds 4 1031 70 10000 6.69 270 10:48 06.03.2021
1819 Clouds 3 1031 69 10000 5.14 260 10:18 06.03.2021
1820 Clouds 2 1031 75 10000 4.63 260 09:41 06.03.2021
1821 Clouds 1 1031 74 10000 4.12 260 09:19 06.03.2021
1822 Clouds 0 1031 74 10000 4.63 250 08:39 06.03.2021
1823 Clear 0 1031 80 10000 2.57 230 07:57 06.03.2021
1824 Clear -1 1031 86 10000 2.57 240 07:24 06.03.2021
1825 Clear -1 1031 80 10000 3.09 250 06:58 06.03.2021
1826 Clear -1 1031 80 10000 2.06 260 05:34 06.03.2021
1827 Clear -1 1031 80 10000 2.06 260 05:34 06.03.2021
1828 Clear 0 1031 80 10000 3.6 240 02:38 06.03.2021
1829 Clear 0 1031 74 10000 3.09 250 00:48 06.03.2021
1830 Clear 0 1031 74 10000 2.57 290 23:53 05.03.2021
1831 Clear 1 1030 74 10000 2.57 290 23:29 05.03.2021
1832 Clear -1 1030 69 10000 3.09 290 22:49 05.03.2021
1833 Clear 0 1030 59 10000 2.57 290 22:23 05.03.2021
1834 Clear -1 1030 64 10000 2.57 290 21:54 05.03.2021
1835 Clear 0 1030 64 10000 2.57 290 21:35 05.03.2021
1836 Clear 0 1029 55 10000 3.09 290 20:58 05.03.2021
1837 Clear 0 1029 55 10000 3.09 290 20:40 05.03.2021
1838 Clear 2 1029 55 10000 2.57 290 20:22 05.03.2021
1839 Clouds 1 1028 51 10000 3.09 300 19:41 05.03.2021
1840 Clouds 2 1028 48 10000 2.06 320 19:20 05.03.2021
1841 Clouds 3 1028 41 10000 2.06 340 18:43 05.03.2021
1842 Clouds 4 1027 41 10000 5.14 350 18:25 05.03.2021
1843 Clear 5 1027 36 10000 3.6 350 17:39 05.03.2021
1844 Clear 5 1027 36 10000 4.63 350 17:20 05.03.2021
1845 Clear 6 1026 36 10000 4.63 340 16:41 05.03.2021
1846 Clear 6 1026 33 10000 5.14 340 16:22 05.03.2021
1847 Clouds 7 1026 33 10000 5.14 20 15:53 05.03.2021
1848 Clouds 7 1026 36 10000 5.14 360 15:26 05.03.2021
1849 Clouds 6 1026 42 10000 6.17 340 14:40 05.03.2021
1850 Clouds 7 1026 45 10000 6.17 360 14:21 05.03.2021
1851 Clouds 6 1026 48 10000 4.12 350 13:43 05.03.2021
1852 Clouds 7 1026 45 10000 5.14 360 13:21 05.03.2021
1853 Clouds 6 1026 48 10000 5.14 360 12:42 05.03.2021
1854 Clouds 4 1025 70 10000 4.63 330 11:39 05.03.2021
1855 Clouds 5 1025 70 10000 4.63 330 11:39 05.03.2021
1856 Clouds 4 1025 70 10000 4.63 330 11:19 05.03.2021
1857 Clouds 4 1024 65 10000 4.12 340 10:43 05.03.2021
1858 Clouds 3 1024 65 10000 2.57 340 10:24 05.03.2021
1859 Clear 3 1024 70 10000 3.09 350 09:58 05.03.2021
1860 Clear 3 1024 70 10000 3.09 350 09:38 05.03.2021
1861 Clear 2 1024 80 10000 3.09 350 09:20 05.03.2021
1862 Clear 1 1023 86 10000 2.06 340 08:38 05.03.2021
1863 Clear 1 1023 86 10000 2.57 340 08:20 05.03.2021
1864 Clear -1 1022 86 10000 2.57 340 07:33 05.03.2021
1865 Clear -1 1021 86 10000 3.09 10 06:34 05.03.2021
1866 Clear 0 1021 86 10000 3.09 10 05:42 05.03.2021
1867 Clouds 3 1018 87 10000 3.6 20 01:18 05.03.2021
1868 Clouds 3 1018 93 10000 3.6 20 23:54 04.03.2021
1869 Clouds 3 1018 81 10000 4.12 30 23:24 04.03.2021
1870 Drizzle 3 1017 87 10000 4.12 10 22:30 04.03.2021
1871 Drizzle 3 1017 87 10000 2.57 290 21:54 04.03.2021
1872 Drizzle 3 1017 87 10000 2.57 290 21:33 04.03.2021
1873 Drizzle 4 1016 87 10000 3.09 290 20:58 04.03.2021
1874 Drizzle 4 1016 87 10000 3.09 290 20:39 04.03.2021
1875 Drizzle 3 1017 87 10000 2.57 300 20:20 04.03.2021
1876 Drizzle 4 1017 87 10000 3.09 270 19:50 04.03.2021
1877 Clouds 4 1016 81 10000 2.57 280 19:23 04.03.2021
1878 Clouds 4 1016 81 10000 2.57 290 18:52 04.03.2021
1879 Clouds 4 1016 81 10000 2.57 290 18:52 04.03.2021
1880 Clouds 4 1016 81 10000 2.06 280 18:30 04.03.2021
1881 Clouds 4 1016 81 10000 3.09 290 17:50 04.03.2021
1882 Clouds 4 1016 81 10000 2.57 280 17:31 04.03.2021
1883 Clouds 4 1016 81 10000 2.57 300 16:56 04.03.2021
1884 Clouds 4 1016 81 10000 2.57 300 16:38 04.03.2021
1885 Clouds 4 1017 81 10000 3.09 300 16:19 04.03.2021
1886 Clouds 4 1017 75 10000 3.09 320 15:45 04.03.2021
1887 Clouds 4 1017 75 10000 4.63 340 15:24 04.03.2021
1888 Clouds 4 1017 81 10000 5.14 310 14:40 04.03.2021
1889 Clouds 4 1017 81 10000 5.14 310 13:59 04.03.2021
1890 Clouds 4 1017 81 10000 5.14 310 13:40 04.03.2021
1891 Clouds 4 1017 75 10000 5.14 300 13:19 04.03.2021
1892 Clouds 4 1017 81 10000 4.63 300 12:41 04.03.2021
1893 Clouds 4 1018 81 10000 4.63 300 11:51 04.03.2021
1894 Clouds 4 1018 81 10000 4.63 300 11:32 04.03.2021
1895 Clouds 4 1018 87 8000 4.63 300 10:58 04.03.2021
1896 Clouds 4 1018 87 8000 4.63 300 10:36 04.03.2021
1897 Clouds 4 1018 87 8000 5.14 280 09:53 04.03.2021
1898 Clouds 4 1018 87 8000 4.63 290 09:28 04.03.2021
1899 Clouds 4 1018 87 6000 5.14 300 08:51 04.03.2021
1900 Mist 4 1018 93 5000 4.63 300 08:25 04.03.2021
1901 Mist 4 1018 93 5000 3.09 300 07:37 04.03.2021
1902 Mist 4 1018 87 5000 5.14 270 06:41 04.03.2021
1903 Mist 4 1018 87 5000 6.17 280 06:21 04.03.2021
1904 Clear 6 1019 93 10000 4.63 260 02:38 04.03.2021
1905 Clear 8 1020 76 10000 4.12 280 00:20 04.03.2021
1906 Clear 9 1021 81 10000 4.63 250 22:39 03.03.2021
1907 Clear 9 1021 81 10000 4.12 240 22:20 03.03.2021
1908 Clear 9 1021 76 10000 4.12 240 21:41 03.03.2021
1909 Clear 9 1021 76 10000 4.63 230 21:23 03.03.2021
1910 Clear 10 1021 76 10000 4.63 230 20:55 03.03.2021
1911 Clear 10 1022 71 10000 4.63 230 20:36 03.03.2021
1912 Clear 10 1022 71 10000 4.63 230 20:36 03.03.2021
1913 Clear 10 1022 71 10000 4.63 230 20:36 03.03.2021
1914 Clear 10 1022 71 10000 3.6 220 19:54 03.03.2021
1915 Clear 10 1022 71 10000 3.6 220 19:36 03.03.2021
1916 Clear 10 1022 76 10000 3.6 220 19:18 03.03.2021
1917 Clear 12 1023 66 10000 3.09 220 18:40 03.03.2021
1918 Clear 12 1023 66 10000 3.6 210 17:58 03.03.2021
1919 Clear 13 1023 62 10000 4.63 220 17:23 03.03.2021
1920 Clear 13 1024 62 10000 3.6 220 16:58 03.03.2021
1921 Clear 13 1024 62 10000 3.6 220 16:39 03.03.2021
1922 Clear 14 1024 54 10000 5.14 220 16:21 03.03.2021
1923 Clear 14 1024 54 10000 3.6 240 15:33 03.03.2021
1924 Clear 14 1025 54 10000 3.6 240 14:52 03.03.2021
1925 Clear 14 1025 62 10000 2.57 210 14:28 03.03.2021
1926 Clear 13 1026 62 10000 2.57 220 13:52 03.03.2021
1927 Clear 12 1026 66 10000 3.09 230 13:30 03.03.2021
1928 Clear 11 1027 71 10000 3.09 210 12:44 03.03.2021
1929 Clear 10 1027 71 10000 2.57 230 12:24 03.03.2021
1930 Clear 9 1027 76 10000 3.6 210 11:46 03.03.2021
1931 Clear 8 1028 75 10000 2.06 200 11:28 03.03.2021
1932 Clear 6 1028 81 10000 2.06 190 10:48 03.03.2021
1933 Clear 6 1028 81 10000 1.54 170 10:26 03.03.2021
1934 Clear 3 1028 87 10000 1.03 0 09:48 03.03.2021
1935 Clear 4 1028 87 8000 2.06 190 09:26 03.03.2021
1936 Clear 3 1028 86 6000 1.54 110 08:41 03.03.2021
1937 Mist 3 1029 93 4000 1.54 160 08:21 03.03.2021
1938 Mist 1 1029 93 4000 1.54 210 07:41 03.03.2021
1939 Clear 1 1029 100 8000 1.54 130 06:51 03.03.2021
1940 Clear 2 1029 93 10000 2.06 100 05:49 03.03.2021
1941 Clear 2 1029 100 10000 2.06 100 04:59 03.03.2021
1942 Clear 2 1029 100 10000 2.06 100 04:35 03.03.2021
1943 Clear 2 1031 100 10000 1.03 110 02:19 03.03.2021
1944 Clear 4 1032 100 10000 1.54 130 23:58 02.03.2021
1945 Clear 4 1032 93 10000 1.54 60 23:31 02.03.2021
1946 Clear 4 1032 100 10000 1.03 70 22:42 02.03.2021
1947 Clear 5 1032 100 10000 0.51 0 22:19 02.03.2021
1948 Clear 5 1032 93 10000 0.51 180 21:41 02.03.2021
1949 Clear 6 1032 87 10000 1.03 0 21:22 02.03.2021
1950 Clear 6 1032 87 10000 1.03 70 20:48 02.03.2021
1951 Clear 7 1032 81 10000 1.03 300 20:23 02.03.2021
1952 Clear 7 1032 81 10000 1.03 270 19:58 02.03.2021
1953 Clear 7 1032 75 10000 0.51 260 19:39 02.03.2021
1954 Clear 8 1032 75 10000 0.51 260 19:21 02.03.2021
1955 Clear 7 1032 76 10000 1.54 260 18:41 02.03.2021
1956 Clear 9 1032 71 10000 1.54 230 18:21 02.03.2021
1957 Clear 9 1032 66 10000 1.54 240 17:50 02.03.2021
1958 Clear 11 1032 58 10000 1.03 0 17:30 02.03.2021
1959 Clear 12 1033 54 10000 1.03 0 16:58 02.03.2021
1960 Clear 12 1033 54 10000 1.03 0 16:36 02.03.2021
1961 Clear 12 1033 58 10000 1.03 0 15:52 02.03.2021
1962 Clear 12 1033 58 10000 1.03 0 15:52 02.03.2021
1963 Clear 11 1034 57 10000 1.03 240 15:25 02.03.2021
1964 Clear 11 1034 71 10000 1.54 290 14:28 02.03.2021
1965 Clear 11 1034 76 10000 1.03 0 13:59 02.03.2021
1966 Clear 11 1034 76 10000 1.03 0 13:39 02.03.2021
1967 Clouds 10 1035 81 10000 1.54 240 13:20 02.03.2021
1968 Fog 9 1035 87 3500 1.54 0 12:31 02.03.2021
1969 Fog 4 1035 100 1200 1.03 0 11:59 02.03.2021
1970 Fog 4 1035 100 1200 1.03 0 11:38 02.03.2021
1971 Fog 1 1035 93 250 0.51 0 11:19 02.03.2021
1972 Fog 0 1035 100 200 0.51 0 10:42 02.03.2021
1973 Fog -1 1035 100 200 0.51 0 10:23 02.03.2021
1974 Fog -2 1035 100 250 1.03 0 09:40 02.03.2021
1975 Fog -2 1035 100 300 2.06 230 09:21 02.03.2021
1976 Fog 0 1035 100 200 2.06 230 08:40 02.03.2021
1977 Fog 1 1035 100 250 2.06 240 08:21 02.03.2021
1978 Fog 0 1035 100 300 1.54 230 07:38 02.03.2021
1979 Fog 1 1034 93 600 2.06 240 06:36 02.03.2021
1980 Fog 1 1034 93 800 2.06 240 05:46 02.03.2021
1981 Fog 1 1034 93 800 2.06 240 05:46 02.03.2021
1982 Fog 1 1034 100 300 2.06 230 05:28 02.03.2021
1983 Fog 2 1035 100 10000 1.03 230 01:46 02.03.2021
1984 Clear 3 1035 93 10000 1.03 250 01:28 02.03.2021
1985 Clear 3 1035 100 10000 1.03 240 00:52 02.03.2021
1986 Clear 4 1035 93 10000 2.57 250 23:29 01.03.2021
1987 Clear 4 1035 93 10000 2.06 250 22:43 01.03.2021
1988 Clear 4 1035 93 10000 1.03 290 22:24 01.03.2021
1989 Clear 5 1035 87 10000 1.54 270 21:52 01.03.2021
1990 Clear 5 1035 87 10000 1.54 280 21:24 01.03.2021
1991 Clear 5 1035 87 10000 2.06 280 20:59 01.03.2021
1992 Clear 5 1035 87 10000 2.06 280 20:39 01.03.2021
1993 Clear 5 1035 87 10000 1.54 280 20:18 01.03.2021
1994 Clear 6 1035 81 10000 2.57 250 19:42 01.03.2021
1995 Clear 6 1035 81 10000 2.57 240 19:18 01.03.2021
1996 Clear 7 1035 75 10000 2.06 250 18:40 01.03.2021
1997 Clear 7 1035 75 10000 1.03 250 18:21 01.03.2021
1998 Clear 8 1035 70 10000 1.03 260 17:42 01.03.2021
1999 Clear 8 1035 66 10000 1.54 210 17:20 01.03.2021
2000 Clear 9 1035 66 10000 1.03 0 16:46 01.03.2021
2001 Clear 9 1035 66 10000 1.54 260 16:26 01.03.2021
2002 Clear 9 1035 66 10000 2.06 260 15:46 01.03.2021
2003 Clouds 9 1035 66 10000 2.57 260 15:22 01.03.2021
2004 Clouds 9 1035 70 10000 2.06 250 14:57 01.03.2021
2005 Clouds 9 1035 70 10000 2.06 250 14:39 01.03.2021
2006 Clear 8 1036 72 10000 1.79 285 13:47 01.03.2021
2007 Clouds 9 1036 73 10000 1.79 284 13:28 01.03.2021
2008 Clouds 8 1036 74 10000 1.79 271 12:59 01.03.2021
2009 Clouds 8 1037 75 10000 1.54 260 12:41 01.03.2021
2010 Clouds 7 1037 81 10000 3.09 290 12:21 01.03.2021
2011 Clouds 7 1037 81 10000 2.06 290 11:47 01.03.2021
2012 Clouds 6 1037 75 10000 3.09 280 11:18 01.03.2021
2013 Clouds 6 1036 81 10000 2.57 270 10:37 01.03.2021
2014 Clouds 6 1036 81 10000 2.57 270 10:18 01.03.2021
2015 Clouds 5 1036 93 9000 2.57 270 09:48 01.03.2021
2016 Clouds 5 1036 93 9000 2.06 240 09:25 01.03.2021
2017 Clouds 4 1036 93 9000 2.57 250 08:55 01.03.2021
2018 Clouds 4 1036 93 8000 2.06 260 08:22 01.03.2021
2019 Clouds 3 1035 93 7000 2.57 250 06:55 01.03.2021
2020 Clouds 4 1035 93 8000 2.57 230 06:24 01.03.2021
2021 Clouds 4 1036 93 8000 2.57 230 02:38 01.03.2021
2022 Clouds 4 1035 100 10000 3.6 250 23:47 28.02.2021
2023 Clouds 4 1036 93 10000 2.57 240 22:57 28.02.2021
2024 Clouds 4 1036 93 10000 2.57 240 22:37 28.02.2021
2025 Clouds 4 1036 93 10000 1.03 230 22:18 28.02.2021
2026 Clouds 5 1035 93 10000 2.06 250 21:43 28.02.2021
2027 Clouds 5 1035 93 10000 2.57 230 21:23 28.02.2021
2028 Clouds 5 1035 87 10000 3.09 220 20:39 28.02.2021
2029 Clouds 5 1035 87 10000 3.09 220 20:19 28.02.2021
2030 Clouds 5 1035 87 10000 3.09 230 19:46 28.02.2021
2031 Clouds 5 1035 87 10000 0.51 0 19:27 28.02.2021
2032 Clouds 5 1035 93 10000 2.06 310 18:46 28.02.2021
2033 Clouds 5 1035 93 10000 2.57 280 18:26 28.02.2021
2034 Clouds 5 1035 93 10000 3.09 280 17:56 28.02.2021
2035 Clouds 5 1035 93 10000 3.09 280 17:37 28.02.2021
2036 Clouds 5 1035 93 10000 3.09 290 17:18 28.02.2021
2037 Clouds 4 1036 100 10000 3.6 290 16:44 28.02.2021
2038 Clouds 3 1036 93 10000 3.6 310 16:26 28.02.2021
2039 Clouds 3 1036 93 10000 4.12 280 15:51 28.02.2021
2040 Clouds 3 1036 93 10000 4.12 290 15:26 28.02.2021
2041 Clouds 3 1036 93 10000 3.6 290 14:58 28.02.2021
2042 Clouds 2 1036 93 8000 4.12 280 14:32 28.02.2021
2043 Clouds 2 1037 93 8000 3.6 270 13:58 28.02.2021
2044 Clouds 2 1037 93 8000 3.6 270 13:37 28.02.2021
2045 Mist 2 1037 93 5000 4.12 270 13:18 28.02.2021
2046 Mist 2 1037 93 5000 3.6 280 12:51 28.02.2021
2047 Mist 2 1037 93 5000 2.57 310 12:31 28.02.2021
2048 Mist 2 1037 93 3200 4.12 330 11:56 28.02.2021
2049 Mist 2 1037 93 2100 3.6 310 11:37 28.02.2021
2050 Mist 2 1037 93 2100 3.6 310 11:18 28.02.2021
2051 Mist 2 1036 93 2300 4.63 300 10:30 28.02.2021
2052 Mist 2 1036 100 2300 5.14 290 09:59 28.02.2021
2053 Mist 3 1036 100 2300 5.14 290 09:39 28.02.2021
2054 Clouds 3 1036 100 6000 4.63 280 09:20 28.02.2021
2055 Clear 3 1036 93 10000 3.09 270 08:43 28.02.2021
2056 Clear 2 1036 93 10000 3.6 260 08:24 28.02.2021
2057 Clear 2 1036 93 10000 3.6 240 07:46 28.02.2021
2058 Clouds 1 1036 93 10000 2.57 250 07:25 28.02.2021
2059 Clouds 2 1036 93 10000 3.09 230 06:24 28.02.2021
2060 Clouds 2 1037 93 10000 2.06 260 05:20 28.02.2021
2061 Clouds 2 1038 93 10000 3.6 230 02:29 28.02.2021
2062 Clouds 2 1038 93 10000 3.6 230 01:28 28.02.2021
2063 Clear 3 1038 93 10000 3.09 250 00:40 28.02.2021
2064 Clouds 2 1038 93 10000 2.57 250 23:58 27.02.2021
2065 Clouds 2 1038 93 10000 2.06 260 23:39 27.02.2021
2066 Clouds 2 1038 93 10000 2.06 260 23:18 27.02.2021
2067 Clouds 3 1038 87 10000 3.09 280 22:42 27.02.2021
2068 Clouds 2 1038 87 10000 3.09 280 22:42 27.02.2021
2069 Clouds 3 1038 93 10000 3.09 280 22:18 27.02.2021
2070 Clouds 3 1038 86 10000 3.09 270 21:38 27.02.2021
2071 Clouds 4 1038 87 10000 3.6 280 21:20 27.02.2021
2072 Clouds 4 1038 93 10000 3.6 270 20:46 27.02.2021
2073 Clouds 4 1038 87 10000 3.6 270 20:26 27.02.2021
2074 Clouds 5 1038 81 10000 4.12 280 19:45 27.02.2021
2075 Clouds 5 1038 81 10000 3.6 280 19:25 27.02.2021
2076 Clouds 5 1037 87 10000 3.6 280 18:43 27.02.2021
2077 Clouds 6 1037 81 10000 4.12 270 18:21 27.02.2021
2078 Clouds 6 1037 75 10000 4.12 280 17:54 27.02.2021
2079 Clouds 7 1037 76 10000 4.12 280 17:36 27.02.2021
2080 Clouds 7 1037 76 10000 4.12 280 17:18 27.02.2021
2081 Clouds 8 1037 76 10000 5.14 290 16:44 27.02.2021
2082 Clouds 8 1037 76 10000 5.66 280 16:25 27.02.2021
2083 Clouds 8 1037 76 10000 5.66 280 15:41 27.02.2021
2084 Clouds 8 1037 76 10000 5.66 290 14:57 27.02.2021
2085 Clouds 8 1037 76 10000 5.66 270 14:39 27.02.2021
2086 Clouds 8 1037 76 10000 5.66 270 14:19 27.02.2021
2087 Clouds 7 1037 76 10000 5.66 280 13:37 27.02.2021
2088 Clouds 7 1037 76 10000 5.66 280 13:18 27.02.2021
2089 Clouds 7 1037 76 10000 5.14 290 12:45 27.02.2021
2090 Clouds 7 1037 76 10000 5.14 290 12:22 27.02.2021
2091 Clouds 7 1037 75 10000 4.63 290 11:46 27.02.2021
2092 Clouds 6 1036 81 10000 5.14 300 11:27 27.02.2021
2093 Clouds 6 1036 75 10000 5.14 310 10:48 27.02.2021
2094 Clouds 6 1036 75 10000 5.66 330 10:29 27.02.2021
2095 Clouds 6 1035 75 10000 5.66 320 09:52 27.02.2021
2096 Clouds 6 1035 81 10000 5.14 320 09:31 27.02.2021
2097 Clouds 5 1035 81 10000 5.14 310 08:43 27.02.2021
2098 Clouds 5 1035 81 10000 5.66 320 08:22 27.02.2021
2099 Clouds 5 1034 81 10000 4.63 300 07:43 27.02.2021
2100 Clouds 5 1033 81 10000 5.14 280 06:33 27.02.2021
2101 Clouds 5 1032 81 10000 4.12 300 01:22 27.02.2021
2102 Clouds 5 1032 81 10000 4.12 300 01:22 27.02.2021
2103 Clouds 5 1031 81 10000 5.66 290 00:26 27.02.2021
2104 Clouds 6 1031 75 10000 5.66 290 23:40 26.02.2021
2105 Clouds 6 1031 75 10000 5.66 290 23:20 26.02.2021
2106 Clouds 7 1030 76 10000 5.66 300 22:34 26.02.2021
2107 Clouds 7 1030 71 10000 4.63 300 21:54 26.02.2021
2108 Clouds 8 1030 76 10000 4.12 290 21:35 26.02.2021
2109 Clouds 8 1030 76 10000 3.6 270 20:55 26.02.2021
2110 Clouds 8 1030 76 10000 3.6 270 20:37 26.02.2021
2111 Clouds 8 1030 87 10000 3.09 270 20:18 26.02.2021
2112 Clouds 8 1030 81 10000 4.12 250 19:26 26.02.2021
2113 Clouds 8 1029 81 10000 3.09 260 18:55 26.02.2021
2114 Clouds 8 1029 76 10000 3.6 270 18:25 26.02.2021
2115 Clouds 9 1029 71 10000 4.12 270 17:58 26.02.2021
2116 Clouds 9 1029 66 10000 4.63 280 17:36 26.02.2021
2117 Clouds 9 1029 66 10000 4.63 280 17:18 26.02.2021
2118 Clouds 9 997 84 10000 3.87 290 16:46 26.02.2021
2119 Clouds 9 1028 76 10000 4.02 281 16:27 26.02.2021
2120 Clouds 9 1029 76 10000 6.17 290 15:44 26.02.2021
2121 Clouds 9 1029 76 10000 6.69 300 15:24 26.02.2021
2122 Clouds 9 1029 76 10000 6.17 300 14:57 26.02.2021
2123 Clouds 9 1029 76 10000 6.17 290 14:35 26.02.2021
2124 Rain 9 1029 76 10000 6.17 290 13:54 26.02.2021
2125 Rain 9 1029 81 10000 5.66 280 13:34 26.02.2021
2126 Rain 9 1029 81 10000 5.14 290 12:58 26.02.2021
2127 Clouds 9 1029 81 10000 5.66 280 12:31 26.02.2021
2128 Clouds 8 1029 81 10000 4.63 290 11:47 26.02.2021
2129 Clouds 8 1029 87 10000 5.66 300 11:20 26.02.2021
2130 Clouds 8 1029 87 10000 5.66 300 11:20 26.02.2021
2131 Clouds 8 1029 81 10000 5.14 300 10:44 26.02.2021
2132 Clouds 8 1028 87 10000 2.06 290 09:49 26.02.2021
2133 Clouds 8 1028 93 10000 2.06 300 09:29 26.02.2021
2134 Clouds 7 1028 93 10000 2.06 310 08:51 26.02.2021
2135 Clouds 7 1027 93 7000 3.09 20 08:18 26.02.2021
2136 Clouds 8 1027 93 10000 3.09 20 07:41 26.02.2021
2137 Rain 8 1027 81 10000 4.12 10 06:35 26.02.2021
2138 Rain 9 1026 87 10000 3.09 340 05:21 26.02.2021
2139 Clear 9 1026 93 10000 1.03 0 02:54 26.02.2021
2140 Clear 9 1026 87 10000 2.57 230 00:36 26.02.2021
2141 Clear 10 1026 87 10000 1.54 220 23:44 25.02.2021
2142 Clear 11 1026 87 10000 2.06 230 23:25 25.02.2021
2143 Clear 11 1026 87 10000 2.06 230 22:47 25.02.2021
2144 Clear 11 1026 76 10000 2.57 250 21:59 25.02.2021
2145 Clear 10 1026 76 10000 2.57 250 21:38 25.02.2021
2146 Clear 11 1026 76 10000 3.09 250 21:19 25.02.2021
2147 Clear 12 1026 71 10000 3.6 240 20:40 25.02.2021
2148 Clear 11 1026 71 10000 3.6 240 20:22 25.02.2021
2149 Clear 13 1026 71 10000 3.6 250 19:51 25.02.2021
2150 Clear 12 1026 66 10000 3.09 250 19:21 25.02.2021
2151 Clear 13 1025 62 10000 3.09 230 18:56 25.02.2021
2152 Clear 15 1025 55 10000 3.6 220 18:24 25.02.2021
2153 Clear 15 1025 55 10000 4.12 230 17:49 25.02.2021
2154 Clear 17 1025 51 10000 4.12 220 17:26 25.02.2021
2155 Clear 17 1025 48 10000 4.63 230 16:43 25.02.2021
2156 Clear 19 1025 45 10000 5.14 240 16:25 25.02.2021
2157 Clear 19 1025 45 10000 5.14 220 15:30 25.02.2021
2158 Clear 19 1025 42 10000 4.63 230 14:57 25.02.2021
2159 Clear 19 1025 48 10000 4.63 210 14:24 25.02.2021
2160 Clear 19 1025 48 10000 5.14 240 13:53 25.02.2021
2161 Clear 18 1026 51 10000 5.14 220 13:26 25.02.2021
2162 Clear 18 1026 48 10000 6.17 230 12:55 25.02.2021
2163 Clear 17 1026 51 10000 5.14 240 12:22 25.02.2021
2164 Clear 16 1026 55 10000 4.12 230 11:47 25.02.2021
2165 Clear 15 1026 62 10000 2.57 210 11:20 25.02.2021
2166 Clear 14 1026 71 10000 3.09 200 10:45 25.02.2021
2167 Clear 13 1026 76 10000 3.6 190 10:26 25.02.2021
2168 Clear 11 1027 76 10000 3.09 200 09:43 25.02.2021
2169 Clear 9 1027 100 10000 2.57 180 08:56 25.02.2021
2170 Clear 7 1027 93 10000 1.54 180 08:25 25.02.2021
2171 Clear 7 1027 100 10000 2.57 170 07:56 25.02.2021
2172 Clear 7 1027 100 10000 2.57 170 07:35 25.02.2021
2173 Clear 7 1027 100 10000 2.06 180 06:55 25.02.2021
2174 Clear 8 1028 100 10000 1.03 150 02:59 25.02.2021
2175 Clear 9 1028 100 10000 1.54 160 01:38 25.02.2021
2176 Clear 9 1028 100 10000 1.54 160 01:38 25.02.2021
2177 Clear 9 1029 100 10000 2.06 180 00:42 25.02.2021
2178 Clear 11 1029 87 10000 2.57 180 23:53 24.02.2021
2179 Clear 10 1029 87 10000 2.06 190 23:32 24.02.2021
2180 Clear 11 1029 87 10000 3.09 200 22:45 24.02.2021
2181 Clear 12 1029 87 10000 2.06 190 22:26 24.02.2021
2182 Clear 12 1029 87 10000 2.06 190 22:26 24.02.2021
2183 Clear 10 1029 87 10000 2.57 210 21:46 24.02.2021
2184 Clear 12 1029 87 10000 2.57 230 21:24 24.02.2021
2185 Clear 12 1029 81 10000 3.09 220 20:45 24.02.2021
2186 Clear 12 1029 76 10000 3.09 210 20:22 24.02.2021
2187 Clear 13 1029 76 10000 4.12 190 19:38 24.02.2021
2188 Clear 13 1029 76 10000 3.6 190 19:20 24.02.2021
2189 Clear 13 1029 67 10000 3.09 190 18:48 24.02.2021
2190 Clear 14 1029 67 10000 3.6 190 18:29 24.02.2021
2191 Clear 15 1029 67 10000 4.12 190 17:39 24.02.2021
2192 Clear 17 1030 59 10000 3.09 200 17:21 24.02.2021
2193 Clear 17 1030 55 10000 4.63 200 16:46 24.02.2021
2194 Clear 18 1030 55 10000 4.12 190 16:20 24.02.2021
2195 Clear 19 1030 52 10000 3.6 190 15:50 24.02.2021
2196 Clear 19 1030 55 10000 3.6 190 15:28 24.02.2021
2197 Clear 19 1030 55 10000 3.09 180 14:44 24.02.2021
2198 Clear 19 1031 55 10000 3.6 190 14:26 24.02.2021
2199 Clear 19 1031 55 10000 3.09 200 13:41 24.02.2021
2200 Clear 18 1031 52 10000 3.09 210 13:23 24.02.2021
2201 Clear 17 1032 55 10000 3.09 210 12:55 24.02.2021
2202 Clear 16 1032 59 10000 3.09 220 12:33 24.02.2021
2203 Clear 16 1032 59 10000 4.12 240 11:52 24.02.2021
2204 Clear 15 1032 63 10000 4.12 230 11:30 24.02.2021
2205 Clear 13 1032 71 10000 3.09 220 10:40 24.02.2021
2206 Clear 13 1032 71 10000 3.09 220 10:20 24.02.2021
2207 Clear 10 1032 81 10000 2.06 230 09:24 24.02.2021
2208 Clear 10 1032 87 10000 3.09 200 08:45 24.02.2021
2209 Clear 9 1032 87 10000 3.09 190 08:24 24.02.2021
2210 Clear 9 1032 87 10000 3.09 190 08:24 24.02.2021
2211 Clear 9 1032 87 10000 2.57 180 07:37 24.02.2021
2212 Clear 9 1032 87 10000 2.57 190 07:18 24.02.2021
2213 Clear 8 1033 87 10000 2.06 190 05:22 24.02.2021
2214 Clear 10 1032 81 10000 3.6 200 01:25 24.02.2021
2215 Clear 10 1033 87 10000 1.54 180 23:38 23.02.2021
2216 Clear 10 1033 87 10000 2.06 170 22:45 23.02.2021
2217 Clear 10 1033 87 10000 1.03 190 22:22 23.02.2021
2218 Clear 10 1032 87 10000 3.09 220 21:47 23.02.2021
2219 Clear 11 1032 81 10000 2.57 220 21:24 23.02.2021
2220 Clear 11 1032 71 10000 3.6 220 20:57 23.02.2021
2221 Clear 11 1032 76 10000 3.6 220 20:37 23.02.2021
2222 Clear 11 1032 76 10000 3.6 220 20:19 23.02.2021
2223 Clear 12 1032 71 10000 4.12 210 19:42 23.02.2021
2224 Clear 12 1032 71 10000 4.12 190 19:24 23.02.2021
2225 Clear 12 1031 67 10000 3.6 200 18:44 23.02.2021
2226 Clear 13 1031 67 10000 4.12 210 18:24 23.02.2021
2227 Clear 14 1031 62 10000 3.09 220 17:51 23.02.2021
2228 Clear 15 1031 55 10000 2.06 220 17:27 23.02.2021
2229 Clear 16 1031 51 10000 2.57 220 16:46 23.02.2021
2230 Clear 18 1031 45 10000 3.6 220 16:23 23.02.2021
2231 Clear 17 1031 45 10000 3.6 200 15:49 23.02.2021
2232 Clear 18 1031 45 10000 3.6 190 15:29 23.02.2021
2233 Clear 18 1031 48 10000 2.57 180 14:55 23.02.2021
2234 Clear 17 1031 45 10000 2.06 180 14:37 23.02.2021
2235 Clear 17 1031 45 10000 2.06 180 14:19 23.02.2021
2236 Clear 17 1031 51 10000 2.57 190 13:38 23.02.2021
2237 Clear 16 1031 51 10000 2.06 200 13:18 23.02.2021
2238 Clear 15 1031 54 10000 2.57 200 12:44 23.02.2021
2239 Clear 14 1031 58 10000 2.57 180 12:19 23.02.2021
2240 Clear 13 1032 66 10000 2.06 190 11:45 23.02.2021
2241 Clear 11 1031 66 10000 2.57 180 11:18 23.02.2021
2242 Clear 11 1031 71 10000 2.57 180 10:39 23.02.2021
2243 Clear 11 1031 71 10000 2.57 180 10:39 23.02.2021
2244 Clear 9 1031 76 10000 3.09 220 10:19 23.02.2021
2245 Clear 9 1031 81 10000 1.54 210 09:42 23.02.2021
2246 Clear 7 1031 81 10000 1.03 180 09:21 23.02.2021
2247 Clear 7 1030 81 10000 2.06 190 08:47 23.02.2021
2248 Clear 6 1030 87 10000 1.54 180 08:21 23.02.2021
2249 Clear 6 1029 87 10000 2.57 200 07:39 23.02.2021
2250 Clear 6 1029 93 10000 2.57 170 05:29 23.02.2021
2251 Clear 6 1028 93 10000 1.54 160 02:54 23.02.2021
2252 Clear 6 1027 93 10000 2.06 180 02:33 23.02.2021
2253 Clear 5 1026 93 10000 2.06 160 00:20 23.02.2021
2254 Clear 5 1026 93 10000 2.06 170 23:46 22.02.2021
2255 Clear 5 1025 87 10000 2.06 130 23:20 22.02.2021
2256 Clear 6 1025 87 10000 2.06 170 22:39 22.02.2021
2257 Clear 6 1025 87 10000 2.57 130 22:20 22.02.2021
2258 Clear 6 1025 87 10000 1.54 230 21:40 22.02.2021
2259 Clear 6 1025 87 10000 1.54 230 21:21 22.02.2021
2260 Clear 6 1025 75 10000 2.06 200 20:49 22.02.2021
2261 Clear 6 1024 76 10000 2.57 160 20:27 22.02.2021
2262 Clear 6 1024 70 10000 2.57 190 19:51 22.02.2021
2263 Clear 6 1024 75 10000 3.09 170 19:30 22.02.2021
2264 Clear 8 1024 66 10000 2.57 170 18:56 22.02.2021
2265 Clear 8 1024 66 10000 2.57 170 18:37 22.02.2021
2266 Clear 10 1023 62 10000 2.57 150 18:18 22.02.2021
2267 Clear 12 1023 54 10000 2.06 170 17:22 22.02.2021
2268 Clear 11 1023 54 10000 1.54 150 16:54 22.02.2021
2269 Clear 13 1023 50 10000 1.54 180 16:31 22.02.2021
2270 Clear 13 1022 50 10000 2.06 160 15:44 22.02.2021
2271 Clear 13 1022 54 10000 2.57 200 15:25 22.02.2021
2272 Clear 13 1022 50 10000 2.57 180 14:47 22.02.2021
2273 Clear 12 1022 54 10000 3.09 210 14:23 22.02.2021
2274 Clear 12 1022 58 10000 2.57 200 13:46 22.02.2021
2275 Clear 12 1022 58 10000 2.57 200 13:46 22.02.2021
2276 Clear 12 1022 62 10000 2.57 170 12:56 22.02.2021
2277 Clear 10 1022 66 10000 2.57 180 12:24 22.02.2021
2278 Clear 9 1022 66 10000 3.6 190 11:58 22.02.2021
2279 Clear 8 1022 70 10000 3.09 170 11:39 22.02.2021
2280 Clear 8 1022 70 10000 3.09 170 11:20 22.02.2021
2281 Clear 6 1022 75 10000 3.6 180 10:45 22.02.2021
2282 Clear 6 1022 81 10000 3.6 170 10:22 22.02.2021
2283 Clear 5 1021 87 10000 3.6 160 09:42 22.02.2021
2284 Clear 4 1021 87 10000 4.12 150 09:24 22.02.2021
2285 Clear 3 1021 87 10000 3.6 150 08:49 22.02.2021
2286 Clear 2 1021 93 10000 3.09 130 08:24 22.02.2021
2287 Clear 2 1021 100 10000 3.09 140 07:56 22.02.2021
2288 Clear 2 1021 100 10000 2.57 140 07:26 22.02.2021
2289 Clear 2 1021 93 10000 3.09 150 06:32 22.02.2021
2290 Clear 2 1021 93 10000 2.57 150 05:42 22.02.2021
2291 Clear 3 1020 87 10000 3.09 160 03:29 22.02.2021
2292 Clear 3 1020 87 10000 3.6 150 02:49 22.02.2021
2293 Clear 4 1020 87 10000 3.6 150 00:45 22.02.2021
2294 Clear 5 1020 87 10000 3.6 160 00:22 22.02.2021
2295 Clear 6 1020 81 10000 4.12 150 23:30 21.02.2021
2296 Clear 6 1020 81 10000 3.6 150 22:53 21.02.2021
2297 Clear 6 1019 75 10000 3.6 150 22:23 21.02.2021
2298 Clear 7 1019 75 10000 5.14 150 21:43 21.02.2021
2299 Clear 8 1019 76 10000 4.63 160 21:24 21.02.2021
2300 Clear 7 1019 76 10000 4.63 160 20:44 21.02.2021
2301 Clear 8 1019 76 10000 4.12 160 20:20 21.02.2021
2302 Clear 8 1019 71 10000 4.63 150 19:53 21.02.2021
2303 Clear 8 1019 66 10000 4.12 150 19:33 21.02.2021
2304 Clear 9 1018 62 10000 3.6 150 18:59 21.02.2021
2305 Clear 10 1018 58 10000 3.6 160 18:26 21.02.2021
2306 Clear 12 1018 58 10000 3.6 150 17:47 21.02.2021
2307 Clear 13 1018 54 10000 4.63 160 17:20 21.02.2021
2308 Clear 15 1018 48 10000 3.6 150 16:47 21.02.2021
2309 Clear 15 1018 45 10000 2.57 190 16:26 21.02.2021
2310 Clear 16 1018 42 10000 4.12 170 15:25 21.02.2021
2311 Clear 16 1018 42 10000 4.12 170 15:25 21.02.2021
2312 Clear 16 1018 48 10000 4.12 180 14:58 21.02.2021
2313 Clear 15 1018 48 10000 4.12 180 14:37 21.02.2021
2314 Clear 15 1018 48 10000 4.12 180 14:37 21.02.2021
2315 Clear 15 1018 47 10000 4.12 190 13:57 21.02.2021
2316 Clear 15 1019 47 10000 4.12 190 13:29 21.02.2021
2317 Clear 14 1019 51 10000 5.14 200 12:50 21.02.2021
2318 Clear 13 1019 54 10000 5.66 200 12:26 21.02.2021
2319 Clear 12 1019 58 10000 4.12 180 11:42 21.02.2021
2320 Clear 11 1019 71 10000 3.6 180 10:50 21.02.2021
2321 Clear 9 1019 71 10000 3.09 150 10:22 21.02.2021
2322 Clear 8 1019 76 10000 3.09 160 09:51 21.02.2021
2323 Clear 6 1019 75 10000 3.09 150 09:26 21.02.2021
2324 Clear 5 1018 81 10000 3.09 150 08:43 21.02.2021
2325 Clear 4 1018 81 10000 3.09 140 08:19 21.02.2021
2326 Clear 4 1018 87 10000 3.09 130 07:30 21.02.2021
2327 Clear 4 1018 87 10000 2.06 130 06:46 21.02.2021
2328 Clear 5 1018 87 10000 4.12 150 02:45 21.02.2021
2329 Clear 6 1018 81 10000 4.63 150 02:24 21.02.2021
2330 Clear 6 1018 81 10000 3.6 160 00:36 21.02.2021
2331 Clear 7 1018 75 10000 4.12 150 00:18 21.02.2021
2332 Clear 7 1018 76 10000 4.63 150 22:59 20.02.2021
2333 Clear 7 1018 76 10000 4.63 150 22:39 20.02.2021
2334 Clear 7 1018 76 10000 4.63 150 22:19 20.02.2021
2335 Clear 7 1018 71 10000 5.14 150 21:41 20.02.2021
2336 Clear 7 1019 71 10000 4.63 150 21:19 20.02.2021
2337 Clear 8 1018 71 10000 3.09 140 20:42 20.02.2021
2338 Clear 6 1018 71 10000 3.09 140 20:21 20.02.2021
2339 Clear 7 1018 76 10000 3.6 130 19:52 20.02.2021
2340 Clear 7 1018 71 10000 3.09 130 19:23 20.02.2021
2341 Clear 8 1019 66 10000 3.09 120 18:39 20.02.2021
2342 Clear 9 1019 66 10000 3.09 120 18:20 20.02.2021
2343 Clear 9 1018 66 10000 2.06 130 17:38 20.02.2021
2344 Clear 11 1018 62 10000 3.09 160 16:55 20.02.2021
2345 Clear 11 1018 58 10000 4.63 160 16:32 20.02.2021
2346 Clear 11 1018 58 10000 4.63 160 16:32 20.02.2021
2347 Clear 12 1018 58 10000 5.14 160 15:53 20.02.2021
2348 Clear 12 1019 58 10000 4.63 150 15:31 20.02.2021
2349 Clear 12 1019 58 10000 5.14 160 14:47 20.02.2021
2350 Clear 12 1019 62 10000 5.14 150 14:23 20.02.2021
2351 Clear 11 1019 62 10000 5.14 140 13:48 20.02.2021
2352 Clear 11 1020 62 10000 3.6 150 13:24 20.02.2021
2353 Clear 10 1020 62 10000 4.63 160 12:50 20.02.2021
2354 Clear 10 1020 66 10000 4.12 160 12:24 20.02.2021
2355 Clear 8 1020 66 10000 4.12 150 11:44 20.02.2021
2356 Clear 7 1020 70 10000 3.09 140 11:25 20.02.2021
2357 Clear 7 1020 75 10000 4.12 140 10:50 20.02.2021
2358 Clear 4 1020 87 10000 3.6 140 09:59 20.02.2021
2359 Clear 4 1020 87 10000 3.6 140 09:40 20.02.2021
2360 Clear 2 1020 93 10000 3.6 150 08:48 20.02.2021
2361 Clear 2 1020 86 10000 2.06 130 08:18 20.02.2021
2362 Clear 1 1020 93 10000 2.06 130 03:40 20.02.2021
2363 Clear 2 1020 100 10000 1.54 130 02:30 20.02.2021
2364 Clear 1 1020 100 10000 2.57 100 01:50 20.02.2021
2365 Clear 2 1020 93 10000 2.57 100 00:48 20.02.2021
2366 Clear 2 1020 100 10000 1.54 120 00:24 20.02.2021
2367 Clear 3 1020 87 10000 2.06 140 23:19 19.02.2021
2368 Clear 3 1020 81 10000 1.03 0 22:37 19.02.2021
2369 Clear 4 1020 81 10000 1.03 0 22:19 19.02.2021
2370 Clear 2 1020 81 10000 2.06 210 21:39 19.02.2021
2371 Clear 4 1020 87 10000 2.06 180 21:20 19.02.2021
2372 Clear 3 1020 81 10000 2.06 190 20:40 19.02.2021
2373 Clear 4 1020 81 10000 2.57 210 20:22 19.02.2021
2374 Clear 5 1019 75 10000 2.57 190 19:43 19.02.2021
2375 Clear 5 1019 81 10000 2.57 210 19:20 19.02.2021
2376 Clear 6 1019 75 10000 3.09 220 18:43 19.02.2021
2377 Clear 6 1019 70 10000 2.57 230 18:23 19.02.2021
2378 Clear 8 1019 70 10000 2.57 240 17:35 19.02.2021
2379 Clouds 9 1019 61 10000 4.12 270 16:41 19.02.2021
2380 Clouds 10 1018 57 10000 6.17 280 16:21 19.02.2021
2381 Clouds 10 1018 53 10000 6.69 270 15:53 19.02.2021
2382 Clouds 10 1018 57 10000 6.69 270 15:27 19.02.2021
2383 Clouds 10 1018 57 10000 7.72 270 14:48 19.02.2021
2384 Clouds 10 1018 61 10000 8.23 260 14:27 19.02.2021
2385 Clouds 9 1018 66 10000 6.69 270 13:54 19.02.2021
2386 Clouds 9 1018 66 10000 6.69 270 13:35 19.02.2021
2387 Clouds 9 1017 71 10000 7.72 260 12:53 19.02.2021
2388 Clouds 9 1017 76 10000 7.72 260 12:27 19.02.2021
2389 Clouds 8 1017 76 10000 6.69 270 11:57 19.02.2021
2390 Clouds 8 1017 81 10000 7.2 270 11:32 19.02.2021
2391 Clouds 7 1017 81 10000 7.2 260 10:55 19.02.2021
2392 Clouds 7 1017 81 10000 6.17 260 10:33 19.02.2021
2393 Clear 6 1017 87 10000 6.17 250 09:58 19.02.2021
2394 Clear 6 1016 93 10000 4.63 250 09:27 19.02.2021
2395 Clear 6 1015 91 10000 4.02 280 08:55 19.02.2021
2396 Clouds 6 1015 93 10000 4.12 260 08:28 19.02.2021
2397 Clouds 6 1015 93 10000 4.12 260 08:28 19.02.2021
2398 Clouds 6 1014 93 10000 6.17 260 07:56 19.02.2021
2399 Clouds 6 1014 93 10000 6.17 260 07:36 19.02.2021
2400 Rain 6 1013 93 10000 5.66 250 06:59 19.02.2021
2401 Rain 6 1013 93 10000 5.66 250 06:36 19.02.2021
2402 Rain 5 1011 93 10000 5.14 200 04:42 19.02.2021
2403 Rain 6 1011 81 10000 4.12 140 02:44 19.02.2021
2404 Clear 6 1011 81 10000 4.12 140 01:28 19.02.2021
2405 Rain 5 1012 75 10000 4.12 160 00:35 19.02.2021
2406 Clear 6 1012 75 10000 5.14 140 23:45 18.02.2021
2407 Clear 6 1012 75 10000 5.66 140 23:27 18.02.2021
2408 Clear 6 1013 70 10000 5.66 150 22:37 18.02.2021
2409 Clear 6 1013 70 10000 5.66 150 22:18 18.02.2021
2410 Clear 6 1014 70 10000 5.66 140 21:40 18.02.2021
2411 Clear 6 1014 70 10000 5.66 140 21:21 18.02.2021
2412 Clear 6 1014 70 10000 5.66 150 20:39 18.02.2021
2413 Clear 6 1014 76 10000 5.14 130 20:21 18.02.2021
2414 Clear 6 1014 76 10000 4.63 130 19:44 18.02.2021
2415 Clear 6 1015 76 10000 4.12 130 19:21 18.02.2021
2416 Clear 6 1015 81 10000 3.6 120 18:51 18.02.2021
2417 Clear 7 1015 76 10000 3.6 120 18:27 18.02.2021
2418 Clear 7 1015 76 10000 4.12 120 17:52 18.02.2021
2419 Clear 8 1016 71 10000 4.63 130 17:25 18.02.2021
2420 Clear 9 1016 66 10000 3.6 130 16:52 18.02.2021
2421 Clear 9 1016 71 10000 3.6 140 16:33 18.02.2021
2422 Clear 9 1017 66 10000 4.12 150 15:44 18.02.2021
2423 Clear 9 1017 66 10000 4.12 150 15:24 18.02.2021
2424 Clear 10 1017 66 10000 3.09 180 14:58 18.02.2021
2425 Clear 9 1017 71 10000 3.09 170 14:36 18.02.2021
2426 Clear 9 1018 71 10000 2.57 170 13:58 18.02.2021
2427 Clear 9 1018 71 10000 2.57 170 13:40 18.02.2021
2428 Clear 9 1018 71 10000 2.57 170 13:18 18.02.2021
2429 Clear 9 1018 71 10000 2.57 190 12:41 18.02.2021
2430 Clear 8 1018 76 10000 2.57 180 12:21 18.02.2021
2431 Clear 8 1018 76 10000 3.09 170 11:46 18.02.2021
2432 Clouds 7 1018 76 10000 2.57 150 11:25 18.02.2021
2433 Clouds 6 1018 81 10000 2.06 130 10:44 18.02.2021
2434 Clouds 6 1018 81 10000 2.57 160 10:25 18.02.2021
2435 Clouds 5 1019 87 10000 1.54 140 09:40 18.02.2021
2436 Clouds 4 1019 93 10000 1.54 110 09:21 18.02.2021
2437 Clouds 5 1019 93 10000 1.54 110 08:40 18.02.2021
2438 Clouds 4 1019 100 10000 1.03 130 08:21 18.02.2021
2439 Clouds 4 1018 93 10000 2.06 170 07:32 18.02.2021
2440 Clouds 4 1018 93 10000 1.54 160 06:50 18.02.2021
2441 Clouds 3 1019 93 10000 2.06 190 02:33 18.02.2021
2442 Clouds 3 1018 100 10000 2.06 230 23:55 17.02.2021
2443 Clouds 3 1018 100 10000 2.06 250 23:24 17.02.2021
2444 Clouds 3 1018 93 10000 2.57 250 22:52 17.02.2021
2445 Clouds 3 1018 93 10000 1.54 240 22:26 17.02.2021
2446 Clouds 4 1018 93 10000 3.09 240 21:54 17.02.2021
2447 Clouds 4 1018 93 10000 3.6 250 21:22 17.02.2021
2448 Clouds 4 1018 87 10000 4.12 250 20:49 17.02.2021
2449 Clouds 4 1017 87 10000 5.66 250 20:31 17.02.2021
2450 Clouds 4 1017 87 10000 2.06 260 19:50 17.02.2021
2451 Clouds 5 1017 87 10000 3.09 250 19:32 17.02.2021
2452 Clouds 5 1017 87 10000 2.57 260 18:46 17.02.2021
2453 Clouds 6 1017 87 10000 3.6 260 18:26 17.02.2021
2454 Clouds 6 1017 87 10000 4.63 270 17:42 17.02.2021
2455 Clouds 7 1016 87 10000 4.12 270 17:20 17.02.2021
2456 Clouds 6 1016 87 10000 4.63 270 16:47 17.02.2021
2457 Clouds 7 1015 87 10000 5.14 260 16:28 17.02.2021
2458 Clouds 6 1015 81 10000 5.66 270 15:45 17.02.2021
2459 Clouds 7 1015 81 10000 5.66 270 15:27 17.02.2021
2460 Clouds 7 1015 87 10000 6.17 270 14:50 17.02.2021
2461 Clouds 7 1014 87 10000 5.66 270 14:29 17.02.2021
2462 Clouds 7 1014 87 10000 6.69 270 13:52 17.02.2021
2463 Clouds 7 1014 87 10000 6.69 270 13:33 17.02.2021
2464 Clouds 6 1014 87 10000 6.69 270 12:57 17.02.2021
2465 Clouds 6 1014 93 10000 6.69 260 12:26 17.02.2021
2466 Clouds 6 1013 93 10000 6.69 260 11:47 17.02.2021
2467 Clouds 6 1013 93 10000 6.17 260 11:29 17.02.2021
2468 Clouds 6 1013 98 10000 4.92 265 10:50 17.02.2021
2469 Clouds 5 1012 99 10000 4.47 269 10:31 17.02.2021
2470 Clouds 5 1012 99 10000 4.47 263 09:58 17.02.2021
2471 Mist 5 1013 93 4300 4.63 240 09:37 17.02.2021
2472 Clouds 5 1011 99 10000 4.47 241 08:56 17.02.2021
2473 Clouds 5 1011 99 10000 4.47 250 08:36 17.02.2021
2474 Clouds 5 1011 99 10000 5.36 268 08:18 17.02.2021
2475 Rain 3 1010 100 6000 4.12 230 06:37 17.02.2021
2476 Rain 3 1010 100 6000 4.12 230 06:37 17.02.2021
2477 Clouds 2 1010 93 10000 2.57 160 03:53 17.02.2021
2478 Clear 2 1010 93 10000 2.57 150 02:32 17.02.2021
2479 Clear 2 1011 93 10000 2.06 160 01:36 17.02.2021
2480 Clear 2 1011 93 10000 3.09 130 00:28 17.02.2021
2481 Clear 2 1012 93 10000 3.09 150 23:43 16.02.2021
2482 Clear 2 1012 93 10000 2.06 150 23:23 16.02.2021
2483 Clear 2 1013 93 10000 2.57 150 22:41 16.02.2021
2484 Clear 2 1012 93 10000 3.6 150 22:21 16.02.2021
2485 Clear 2 1013 93 10000 2.57 120 21:40 16.02.2021
2486 Clear 2 1013 93 10000 2.57 120 21:22 16.02.2021
2487 Clear 2 1014 93 10000 2.57 150 20:57 16.02.2021
2488 Clear 2 1014 93 10000 2.57 150 20:38 16.02.2021
2489 Clear 2 1014 93 10000 2.57 150 20:20 16.02.2021
2490 Clear 3 1015 93 10000 3.09 180 19:40 16.02.2021
2491 Clouds 3 1015 93 10000 2.06 170 19:21 16.02.2021
2492 Clouds 3 1015 93 8000 1.54 170 18:38 16.02.2021
2493 Clouds 3 1015 93 8000 3.6 170 18:19 16.02.2021
2494 Clouds 3 1016 93 8000 2.06 150 17:49 16.02.2021
2495 Clouds 3 1016 93 8000 1.54 210 17:23 16.02.2021
2496 Clouds 4 1016 93 7000 3.09 200 16:47 16.02.2021
2497 Mist 4 1016 93 6000 3.09 170 16:24 16.02.2021
2498 Mist 4 1017 100 5000 2.57 170 15:47 16.02.2021
2499 Mist 4 1017 100 5000 2.57 170 15:47 16.02.2021
2500 Mist 4 1017 100 3800 2.57 170 15:26 16.02.2021
2501 Mist 4 1018 100 1900 2.06 180 14:48 16.02.2021
2502 Mist 4 1018 100 1300 2.57 190 14:30 16.02.2021
2503 Mist 3 1018 100 1000 2.57 220 13:58 16.02.2021
2504 Fog 3 1018 100 500 2.57 220 13:34 16.02.2021
2505 Fog 3 1019 100 400 2.57 220 12:47 16.02.2021
2506 Fog 3 1019 100 300 2.57 230 12:26 16.02.2021
2507 Fog 3 1019 100 300 2.57 200 11:50 16.02.2021
2508 Fog 2 1019 100 300 3.09 210 11:24 16.02.2021
2509 Clouds 2 1019 97 119 2.24 219 10:58 16.02.2021
2510 Fog 2 1019 100 300 3.09 220 10:39 16.02.2021
2511 Fog 2 1019 100 300 3.09 220 10:20 16.02.2021
2512 Fog 2 1020 100 300 3.6 230 09:48 16.02.2021
2513 Fog 1 1020 100 300 3.09 230 09:26 16.02.2021
2514 Fog 1 1020 100 300 3.09 240 08:45 16.02.2021
2515 Fog 1 1020 100 300 3.09 240 08:45 16.02.2021
2516 Fog 1 1020 100 400 1.54 240 08:22 16.02.2021
2517 Fog 1 1020 93 800 3.09 250 07:30 16.02.2021
2518 Mist 0 1020 100 2700 2.57 230 06:24 16.02.2021
2519 Snow -2 1021 93 4500 4.12 150 01:52 16.02.2021
2520 Snow -2 1023 93 2900 4.63 150 23:46 15.02.2021
2521 Snow -2 1023 93 3500 6.17 160 23:24 15.02.2021
2522 Snow -2 1023 93 2300 5.66 160 22:46 15.02.2021
2523 Snow -2 1024 93 4500 5.14 140 22:25 15.02.2021
2524 Snow -2 1024 86 10000 5.14 150 21:42 15.02.2021
2525 Snow -2 1024 93 10000 5.14 140 21:24 15.02.2021
2526 Snow -2 1025 93 7000 6.17 150 20:53 15.02.2021
2527 Snow -2 1025 93 7000 6.17 150 20:34 15.02.2021
2528 Snow -1 1026 80 2500 9.26 180 19:48 15.02.2021
2529 Snow 0 1027 47 10000 6.17 150 19:25 15.02.2021
2530 Snow 0 1026 51 10000 6.69 140 18:51 15.02.2021
2531 Snow 0 1028 51 10000 5.66 150 18:27 15.02.2021
2532 Clear 0 1028 51 10000 5.14 140 17:51 15.02.2021
2533 Snow 0 1029 51 10000 4.63 140 17:28 15.02.2021
2534 Clear 0 1029 51 10000 4.12 150 16:59 15.02.2021
2535 Snow 0 1029 51 10000 3.6 140 16:37 15.02.2021
2536 Snow 1 1029 51 10000 3.6 140 16:18 15.02.2021
2537 Snow 1 1030 51 10000 4.63 130 15:42 15.02.2021
2538 Clear 1 1030 51 10000 4.63 130 15:19 15.02.2021
2539 Snow 1 1031 47 10000 4.12 140 14:43 15.02.2021
2540 Clear 1 1032 47 10000 4.63 150 14:20 15.02.2021
2541 Clear 1 1032 51 10000 4.63 150 13:49 15.02.2021
2542 Clear 0 1033 51 10000 3.09 140 13:20 15.02.2021
2543 Clear -1 1033 55 10000 3.6 130 12:45 15.02.2021
2544 Clear -1 1034 51 10000 2.57 140 12:25 15.02.2021
2545 Clear -1 1034 54 10000 2.06 150 11:51 15.02.2021
2546 Clear -3 1034 58 10000 1.54 140 11:25 15.02.2021
2547 Clear -3 1034 68 10000 1.03 0 10:50 15.02.2021
2548 Clear -4 1035 79 10000 1.03 0 10:30 15.02.2021
2549 Clear -7 1035 85 10000 1.54 120 09:59 15.02.2021
2550 Clear -8 1035 85 10000 1.54 120 09:41 15.02.2021
2551 Clear -8 1035 79 10000 1.03 120 09:22 15.02.2021
2552 Clear -10 1036 85 10000 1.54 120 08:21 15.02.2021
2553 Clear -10 1036 85 10000 1.03 120 07:18 15.02.2021
2554 Clear -10 1036 85 10000 1.54 90 06:41 15.02.2021
2555 Clear -8 1038 85 10000 1.03 100 02:52 15.02.2021
2556 Clear -7 1038 92 10000 1.03 180 02:20 15.02.2021
2557 Clear -7 1039 92 10000 1.03 170 23:59 14.02.2021
2558 Clear -8 1039 92 10000 1.54 170 23:25 14.02.2021
2559 Clear -7 1040 92 10000 1.54 170 22:46 14.02.2021
2560 Clear -7 1040 92 10000 1.03 0 22:23 14.02.2021
2561 Clear -7 1040 92 10000 2.06 240 21:51 14.02.2021
2562 Clear -6 1040 92 10000 0.51 0 21:30 14.02.2021
2563 Clear -6 1040 86 10000 2.57 230 20:53 14.02.2021
2564 Clear -6 1040 79 10000 2.57 240 20:30 14.02.2021
2565 Clear -5 1040 79 10000 1.54 210 19:50 14.02.2021
2566 Clear -6 1041 79 10000 2.57 220 19:31 14.02.2021
2567 Clear -5 1041 74 10000 2.57 230 18:43 14.02.2021
2568 Clear -5 1040 74 10000 1.03 210 18:22 14.02.2021
2569 Clear -4 1040 74 10000 1.03 180 17:45 14.02.2021
2570 Clear -2 1040 74 10000 2.06 220 17:25 14.02.2021
2571 Clear -2 1040 69 10000 2.57 260 16:40 14.02.2021
2572 Clear -1 1040 82 10000 1.79 250 16:20 14.02.2021
2573 Clear 0 1041 74 10000 1.54 200 15:44 14.02.2021
2574 Clouds -1 1041 80 10000 3.09 170 14:59 14.02.2021
2575 Clear 0 1041 84 10000 1.79 249 14:32 14.02.2021
2576 Clear -1 1041 88 10000 1.79 231 13:58 14.02.2021
2577 Clouds -2 1042 86 10000 1.54 240 13:32 14.02.2021
2578 Clear -2 1041 91 10000 1.79 258 12:54 14.02.2021
2579 Clear -3 1042 93 10000 3.13 268 12:22 14.02.2021
2580 Clear -3 1042 93 10000 3.13 268 12:22 14.02.2021
2581 Clear -3 1042 93 10000 3.58 265 11:52 14.02.2021
2582 Mist -4 1042 93 5000 2.57 260 11:26 14.02.2021
2583 Snow -5 1042 93 4100 2.57 260 10:57 14.02.2021
2584 Snow -5 1042 93 700 2.57 270 09:59 14.02.2021
2585 Snow -5 1042 93 700 2.57 270 09:40 14.02.2021
2586 Clear -5 1042 96 10000 2.24 250 09:21 14.02.2021
2587 Snow -6 1042 100 2500 2.57 260 08:52 14.02.2021
2588 Mist -7 1042 93 3100 3.6 270 07:58 14.02.2021
2589 Mist -6 1041 100 1300 4.12 280 06:54 14.02.2021
2590 Mist -6 1041 100 1300 4.12 280 06:54 14.02.2021
2591 Mist -6 1041 93 1900 3.09 280 05:43 14.02.2021
2592 Mist -6 1041 93 1400 3.6 270 03:51 14.02.2021
2593 Clouds -6 1041 93 10000 2.57 260 02:29 14.02.2021
2594 Clear -7 1041 92 10000 3.6 270 00:57 14.02.2021
2595 Clear -6 1041 89 10000 2.68 277 00:37 14.02.2021
2596 Clear -6 1041 92 10000 4.12 270 23:44 13.02.2021
2597 Clear -6 1041 92 10000 3.6 260 23:25 13.02.2021
2598 Clear -6 1041 92 10000 3.09 260 22:50 13.02.2021
2599 Clear -6 1041 92 10000 3.6 270 22:21 13.02.2021
2600 Clear -6 1041 92 10000 3.6 270 21:49 13.02.2021
2601 Clear -6 1041 93 10000 3.6 270 21:26 13.02.2021
2602 Clear -6 1041 93 10000 4.12 270 20:44 13.02.2021
2603 Clear -5 1041 86 10000 3.6 270 20:24 13.02.2021
2604 Clear -5 1041 86 10000 4.12 280 19:48 13.02.2021
2605 Clouds -5 1041 93 10000 3.6 270 19:23 13.02.2021
2606 Clear -5 1041 86 10000 2.57 280 18:49 13.02.2021
2607 Clouds -4 1040 86 10000 2.57 280 18:25 13.02.2021
2608 Clouds -3 1040 74 10000 3.09 290 17:44 13.02.2021
2609 Clouds -2 1040 74 10000 3.09 310 17:24 13.02.2021
2610 Clouds -1 1040 74 10000 3.6 310 16:50 13.02.2021
2611 Clouds -1 1040 69 10000 3.6 300 16:31 13.02.2021
2612 Clouds -1 1040 69 10000 3.09 330 15:43 13.02.2021
2613 Clouds -1 1040 69 10000 2.57 350 15:24 13.02.2021
2614 Clouds 0 1040 69 10000 2.57 340 14:40 13.02.2021
2615 Clouds -1 1040 59 10000 1.54 170 13:49 13.02.2021
2616 Clouds 0 1040 64 10000 1.54 160 13:27 13.02.2021
2617 Clouds -1 1040 69 10000 1.54 140 12:52 13.02.2021
2618 Clouds -1 1040 59 10000 1.03 0 12:21 13.02.2021
2619 Clouds -3 1040 68 10000 1.03 0 11:55 13.02.2021
2620 Clouds -4 1040 79 10000 2.06 220 11:22 13.02.2021
2621 Clouds -4 1040 86 10000 2.06 240 10:59 13.02.2021
2622 Clouds -4 1040 86 10000 2.06 240 10:41 13.02.2021
2623 Clouds -5 1040 86 10000 2.06 260 10:21 13.02.2021
2624 Clouds -6 1040 86 10000 1.54 270 09:45 13.02.2021
2625 Clouds -7 1039 92 10000 1.54 250 09:23 13.02.2021
2626 Clouds -7 1039 88 10000 1.34 260 08:46 13.02.2021
2627 Clouds -8 1039 85 10000 3.09 260 08:18 13.02.2021
2628 Clouds -9 1039 92 10000 2.06 270 06:50 13.02.2021
2629 Clouds -9 1039 92 10000 1.54 310 06:22 13.02.2021
2630 Clear -9 1038 92 10000 1.54 290 04:31 13.02.2021
2631 Clear -8 1038 85 10000 1.54 310 02:37 13.02.2021
2632 Clear -7 1038 86 10000 2.57 310 00:54 13.02.2021
2633 Clear -7 1038 79 10000 1.54 290 00:18 13.02.2021
2634 Clear -8 1037 79 10000 2.57 330 23:44 12.02.2021
2635 Clear -7 1037 79 10000 3.6 340 23:18 12.02.2021
2636 Clear -6 1037 73 10000 3.6 340 22:32 12.02.2021
2637 Clear -6 1037 73 10000 3.09 340 21:58 12.02.2021
2638 Clear -7 1037 73 10000 3.09 340 21:39 12.02.2021
2639 Clear -6 1037 74 10000 3.6 350 21:21 12.02.2021
2640 Clear -7 1037 79 10000 3.09 350 20:40 12.02.2021
2641 Clear -5 1037 74 10000 3.09 340 20:21 12.02.2021
2642 Clear -5 1036 68 10000 3.09 350 19:49 12.02.2021
2643 Clear -5 1036 68 10000 3.09 350 19:28 12.02.2021
2644 Clouds -5 1036 68 10000 3.6 350 18:35 12.02.2021
2645 Clouds -4 1036 63 10000 4.63 20 17:54 12.02.2021
2646 Clouds -3 1036 63 10000 4.63 20 17:35 12.02.2021
2647 Clouds -3 1035 54 10000 3.09 350 16:53 12.02.2021
2648 Clouds -1 1035 50 10000 3.6 20 16:18 12.02.2021
2649 Clouds -1 1035 51 10000 3.09 350 15:43 12.02.2021
2650 Clouds -1 1035 54 10000 3.09 360 15:20 12.02.2021
2651 Clouds -1 1035 59 10000 3.6 40 14:36 12.02.2021
2652 Clouds -1 1035 64 10000 4.12 50 13:49 12.02.2021
2653 Clouds -1 1035 64 10000 4.63 30 13:29 12.02.2021
2654 Clouds -2 1035 64 10000 4.12 30 12:54 12.02.2021
2655 Clouds -1 1035 69 10000 4.12 20 12:36 12.02.2021
2656 Clouds -2 1035 68 10000 3.6 350 11:48 12.02.2021
2657 Clouds -3 1034 63 10000 3.09 10 11:22 12.02.2021
2658 Clouds -5 1034 74 10000 3.6 360 10:51 12.02.2021
2659 Clouds -5 1034 74 10000 3.6 340 10:33 12.02.2021
2660 Clouds -5 1034 86 10000 2.06 300 09:43 12.02.2021
2661 Clouds -6 1034 86 10000 2.06 300 09:24 12.02.2021
2662 Clouds -6 1034 93 10000 1.54 330 08:47 12.02.2021
2663 Fog -7 1033 86 10000 1.54 320 08:27 12.02.2021
2664 Clouds -7 1033 93 10000 2.57 330 07:53 12.02.2021
2665 Clouds -6 1033 93 10000 2.57 360 07:28 12.02.2021
2666 Clouds -6 1033 93 10000 1.03 0 06:54 12.02.2021
2667 Clouds -6 1033 100 10000 1.03 0 05:39 12.02.2021
2668 Fog -6 1032 100 10000 1.54 50 03:48 12.02.2021
2669 Fog -6 1032 93 10000 3.09 30 01:23 12.02.2021
2670 Fog -6 1031 92 10000 1.03 0 23:40 11.02.2021
2671 Fog -6 1031 92 10000 0.51 0 23:22 11.02.2021
2672 Fog -6 1031 93 10000 1.03 0 22:45 11.02.2021
2673 Clouds -5 1030 93 10000 1.54 310 22:24 11.02.2021
2674 Clouds -5 1030 93 10000 1.54 350 21:54 11.02.2021
2675 Clouds -5 1030 93 10000 1.54 350 21:36 11.02.2021
2676 Clouds -6 1030 93 10000 2.06 350 21:18 11.02.2021
2677 Clouds -5 1030 93 10000 3.09 320 20:41 11.02.2021
2678 Clouds -5 1030 86 10000 1.54 320 20:21 11.02.2021
2679 Clouds -5 1030 86 10000 2.57 350 19:47 11.02.2021
2680 Clouds -5 1029 80 10000 2.06 10 19:27 11.02.2021
2681 Clouds -5 1029 74 10000 2.57 10 18:47 11.02.2021
2682 Clouds -4 1029 80 10000 2.57 350 18:25 11.02.2021
2683 Clouds -3 1028 74 10000 2.57 340 17:50 11.02.2021
2684 Clouds -3 1028 69 10000 2.57 310 17:22 11.02.2021
2685 Clouds -2 1028 74 10000 3.09 310 16:49 11.02.2021
2686 Clouds -2 1028 69 10000 3.09 300 16:31 11.02.2021
2687 Clouds -2 1027 69 10000 3.09 300 15:58 11.02.2021
2688 Clouds -1 1027 69 10000 3.09 300 15:38 11.02.2021
2689 Clouds -1 1027 69 10000 3.09 330 15:20 11.02.2021
2690 Clouds -1 1027 64 10000 2.57 340 14:40 11.02.2021
2691 Clouds -1 1027 69 10000 3.6 360 14:21 11.02.2021
2692 Clouds -2 1026 69 10000 3.6 360 13:38 11.02.2021
2693 Snow -1 1026 69 10000 3.6 360 13:18 11.02.2021
2694 Snow -2 1026 69 10000 3.09 340 12:44 11.02.2021
2695 Snow -2 1026 74 10000 3.09 340 12:21 11.02.2021
2696 Snow -3 1026 80 10000 3.6 350 11:41 11.02.2021
2697 Clouds -3 1025 86 10000 3.6 340 11:20 11.02.2021
2698 Snow -4 1025 80 7000 4.63 340 10:44 11.02.2021
2699 Snow -4 1025 80 7000 4.63 340 10:25 11.02.2021
2700 Snow -4 1024 80 10000 4.12 340 09:45 11.02.2021
2701 Clouds -4 1024 80 10000 5.66 340 09:19 11.02.2021
2702 Clouds -4 1024 80 10000 4.63 330 08:50 11.02.2021
2703 Snow -5 1023 80 10000 4.12 340 08:18 11.02.2021
2704 Clouds -4 1022 86 10000 3.6 330 06:52 11.02.2021
2705 Clouds -5 1021 86 6000 3.6 340 06:33 11.02.2021
2706 Snow -5 1020 86 10000 4.12 340 04:55 11.02.2021
2707 Clouds -6 1019 86 10000 2.06 290 02:28 11.02.2021
2708 Clear -8 1018 92 10000 2.06 290 00:46 11.02.2021
2709 Clouds -8 1018 92 10000 2.57 250 00:19 11.02.2021
2710 Clouds -9 1017 92 10000 2.06 280 23:39 10.02.2021
2711 Clouds -8 1017 92 10000 1.54 280 22:52 10.02.2021
2712 Clouds -8 1016 85 10000 2.06 280 22:28 10.02.2021
2713 Clouds -8 1016 85 10000 2.06 290 21:58 10.02.2021
2714 Clouds -8 1015 85 10000 2.06 300 21:38 10.02.2021
2715 Clouds -8 1015 85 10000 2.06 300 21:19 10.02.2021
2716 Clouds -7 1015 79 10000 2.06 330 20:40 10.02.2021
2717 Clouds -6 1015 73 10000 2.57 330 20:22 10.02.2021
2718 Clouds -6 1015 73 10000 2.57 360 19:45 10.02.2021
2719 Clouds -6 1014 79 10000 2.06 340 19:24 10.02.2021
2720 Clouds -6 1014 79 10000 2.06 330 18:42 10.02.2021
2721 Clouds -6 1013 73 10000 1.54 340 18:22 10.02.2021
2722 Clouds -6 1013 73 10000 2.57 330 17:55 10.02.2021
2723 Clouds -5 1013 63 10000 2.06 340 17:24 10.02.2021
2724 Clouds -5 1012 58 10000 2.57 10 16:53 10.02.2021
2725 Clouds -5 1012 58 10000 2.57 20 16:31 10.02.2021
2726 Clouds -4 1012 58 10000 2.57 20 15:55 10.02.2021
2727 Clouds -4 1011 54 10000 3.09 20 15:24 10.02.2021
2728 Clouds -4 1011 54 10000 1.03 0 14:51 10.02.2021
2729 Clouds -4 1011 54 10000 1.54 20 14:31 10.02.2021
2730 Clouds -4 1010 63 10000 1.54 360 13:53 10.02.2021
2731 Clouds -5 1010 74 10000 2.06 0 13:29 10.02.2021
2732 Clouds -6 1010 86 10000 2.57 260 12:52 10.02.2021
2733 Clouds -6 1010 79 10000 3.09 260 12:30 10.02.2021
2734 Clouds -6 1010 79 10000 3.09 250 11:57 10.02.2021
2735 Snow -7 1010 79 10000 2.06 260 11:38 10.02.2021
2736 Snow -6 1010 79 10000 2.06 260 11:19 10.02.2021
2737 Snow -7 1009 79 6000 1.54 270 10:23 10.02.2021
2738 Snow -7 1009 92 6000 1.03 230 09:56 10.02.2021
2739 Snow -8 1009 92 9000 1.54 250 09:31 10.02.2021
2740 Snow -8 1009 86 10000 2.06 250 08:53 10.02.2021
2741 Snow -9 1008 92 10000 1.54 250 08:32 10.02.2021
2742 Snow -9 1008 92 10000 1.03 0 07:37 10.02.2021
2743 Clouds -9 1008 92 10000 0.51 130 06:21 10.02.2021
2744 Snow -8 1008 92 10000 2.06 240 01:28 10.02.2021
2745 Snow -9 1008 92 10000 1.03 250 23:59 09.02.2021
2746 Snow -9 1008 92 10000 1.03 250 23:32 09.02.2021
2747 Snow -7 1008 86 5000 1.03 260 22:49 09.02.2021
2748 Snow -7 1008 93 4800 1.54 230 22:24 09.02.2021
2749 Snow -7 1008 93 5000 1.54 240 21:52 09.02.2021
2750 Snow -7 1008 93 7000 1.54 240 21:25 09.02.2021
2751 Snow -7 1008 93 8000 2.06 230 20:45 09.02.2021
2752 Snow -7 1008 93 7000 1.54 220 20:25 09.02.2021
2753 Snow -7 1008 86 10000 2.06 240 19:53 09.02.2021
2754 Snow -7 1008 86 9000 1.54 260 19:30 09.02.2021
2755 Snow -7 1008 86 9000 2.06 250 18:56 09.02.2021
2756 Snow -7 1008 86 9000 2.06 250 18:35 09.02.2021
2757 Snow -7 1007 86 9000 2.06 260 17:56 09.02.2021
2758 Snow -7 1007 79 9000 1.54 310 17:36 09.02.2021
2759 Snow -7 1007 79 9000 1.54 310 17:18 09.02.2021
2760 Snow -7 1007 79 9000 1.03 330 16:39 09.02.2021
2761 Snow -6 1007 79 9000 1.03 330 16:18 09.02.2021
2762 Snow -6 1007 79 7000 1.54 330 15:47 09.02.2021
2763 Snow -6 1006 73 7000 1.54 340 15:24 09.02.2021
2764 Snow -6 1006 73 8000 1.03 0 14:49 09.02.2021
2765 Snow -6 1006 73 9000 1.03 0 14:26 09.02.2021
2766 Snow -6 1006 73 9000 1.54 340 13:45 09.02.2021
2767 Snow -6 1006 73 10000 0.51 60 13:21 09.02.2021
2768 Snow -7 1006 73 10000 1.03 0 12:49 09.02.2021
2769 Snow -7 1006 73 10000 0.51 0 12:31 09.02.2021
2770 Snow -7 1006 79 10000 0.51 0 11:54 09.02.2021
2771 Snow -7 1006 79 10000 1.03 0 11:36 09.02.2021
2772 Snow -7 1006 79 10000 1.03 0 11:18 09.02.2021
2773 Snow -8 1006 79 10000 1.54 70 10:41 09.02.2021
2774 Snow -8 1006 86 10000 1.54 30 10:18 09.02.2021
2775 Snow -8 1005 86 10000 1.54 30 09:42 09.02.2021
2776 Snow -8 1005 79 10000 1.54 50 09:23 09.02.2021
2777 Snow -9 1005 79 10000 1.54 50 08:42 09.02.2021
2778 Snow -9 1004 85 10000 2.06 50 08:22 09.02.2021
2779 Snow -9 1004 85 10000 2.06 40 06:18 09.02.2021
2780 Snow -9 1003 85 10000 1.54 50 03:51 09.02.2021
2781 Snow -9 1003 85 10000 3.09 60 02:31 09.02.2021
2782 Snow -10 1003 85 10000 1.54 40 00:33 09.02.2021
2783 Snow -10 1003 85 10000 2.57 30 23:57 08.02.2021
2784 Snow -10 1003 85 10000 2.06 50 23:21 08.02.2021
2785 Snow -9 1003 79 8000 4.12 60 22:44 08.02.2021
2786 Snow -9 1003 79 10000 3.6 60 22:24 08.02.2021
2787 Snow -9 1003 79 10000 3.6 60 22:24 08.02.2021
2788 Snow -9 1003 85 10000 4.12 60 21:55 08.02.2021
2789 Snow -9 1003 85 10000 4.12 60 21:32 08.02.2021
2790 Snow -9 1003 85 10000 4.12 60 20:59 08.02.2021
2791 Snow -9 1003 85 10000 4.12 60 20:39 08.02.2021
2792 Snow -9 1003 85 5000 4.63 60 20:21 08.02.2021
2793 Snow -9 1003 85 4500 4.63 60 19:43 08.02.2021
2794 Snow -9 1003 85 2000 4.12 60 19:25 08.02.2021
2795 Snow -9 1003 79 6000 4.12 60 18:49 08.02.2021
2796 Snow -9 1003 79 8000 3.09 60 18:23 08.02.2021
2797 Snow -9 1003 85 4000 4.12 60 17:46 08.02.2021
2798 Snow -9 1003 85 3000 5.14 60 17:26 08.02.2021
2799 Snow -9 1003 85 2000 3.6 70 16:45 08.02.2021
2800 Snow -9 1003 85 1400 7.72 70 16:23 08.02.2021
2801 Snow -9 1003 79 1600 6.17 60 15:48 08.02.2021
2802 Snow -9 1003 79 3000 6.69 70 15:21 08.02.2021
2803 Snow -8 1003 79 3000 7.2 60 14:59 08.02.2021
2804 Snow -8 1003 79 3000 7.2 60 14:41 08.02.2021
2805 Snow -8 1003 79 2500 6.17 60 14:22 08.02.2021
2806 Snow -8 1003 79 1400 6.69 60 13:42 08.02.2021
2807 Snow -8 1003 79 1400 6.69 60 13:23 08.02.2021
2808 Snow -9 1003 79 1200 6.69 60 12:38 08.02.2021
2809 Snow -9 1004 79 1600 7.72 60 11:58 08.02.2021
2810 Snow -9 1004 79 1800 6.17 60 11:26 08.02.2021
2811 Snow -9 1004 79 1600 7.72 70 10:46 08.02.2021
2812 Snow -9 1004 73 2500 7.72 60 10:25 08.02.2021
2813 Snow -9 1004 73 6000 7.2 60 09:55 08.02.2021
2814 Snow -9 1004 73 6000 7.2 60 09:36 08.02.2021
2815 Snow -9 1004 73 3300 7.72 60 08:54 08.02.2021
2816 Snow -9 1004 73 4500 7.72 60 08:24 08.02.2021
2817 Snow -9 1004 73 4500 7.2 60 07:40 08.02.2021
2818 Snow -8 1004 73 10000 8.23 60 06:33 08.02.2021
2819 Clouds -8 1004 67 10000 9.77 70 04:56 08.02.2021
2820 Clear -7 1005 63 10000 9.26 60 02:26 08.02.2021
2821 Snow -6 1006 63 10000 10.8 70 00:25 08.02.2021
2822 Snow -6 1007 68 10000 10.8 70 23:54 07.02.2021
2823 Snow -6 1007 58 10000 9.77 70 23:28 07.02.2021
2824 Snow -6 1007 58 10000 10.29 70 22:58 07.02.2021
2825 Snow -6 1007 58 10000 10.29 70 22:40 07.02.2021
2826 Clear -6 1007 58 10000 11.32 70 22:21 07.02.2021
2827 Snow -6 1007 63 10000 11.83 70 21:50 07.02.2021
2828 Snow -6 1008 63 10000 10.8 70 21:25 07.02.2021
2829 Snow -6 1008 63 10000 10.8 70 21:25 07.02.2021
2830 Snow -6 1008 63 10000 11.32 70 20:50 07.02.2021
2831 Snow -5 1008 68 10000 10.29 80 20:29 07.02.2021
2832 Snow -6 1008 73 4800 9.77 70 19:52 07.02.2021
2833 Snow -6 1008 73 2500 9.26 70 19:29 07.02.2021
2834 Snow -6 1008 73 6000 9.77 70 18:49 07.02.2021
2835 Snow -6 1009 68 7000 9.77 70 18:29 07.02.2021
2836 Snow -6 1009 68 9000 10.8 70 17:58 07.02.2021
2837 Snow -6 1009 68 9000 10.8 70 17:40 07.02.2021
2838 Snow -6 1009 63 9000 11.32 70 17:18 07.02.2021
2839 Snow -6 1009 68 8000 9.77 70 16:43 07.02.2021
2840 Snow -6 1009 73 10000 8.75 80 16:22 07.02.2021
2841 Snow -6 1009 79 6000 10.8 70 15:46 07.02.2021
2842 Snow -6 1008 79 4200 10.8 70 15:27 07.02.2021
2843 Snow -6 1009 79 1600 10.29 80 14:47 07.02.2021
2844 Snow -6 1009 79 1500 10.8 80 14:29 07.02.2021
2845 Snow -6 1010 73 4800 10.29 80 13:52 07.02.2021
2846 Snow -6 1010 73 10000 10.8 80 13:34 07.02.2021
2847 Snow -7 1010 79 5000 11.83 80 12:45 07.02.2021
2848 Snow -7 1010 79 8000 10.8 70 12:22 07.02.2021
2849 Snow -7 1011 79 6000 11.32 70 11:50 07.02.2021
2850 Snow -7 1011 79 1500 10.29 70 11:27 07.02.2021
2851 Snow -7 1012 79 1200 9.26 80 10:51 07.02.2021
2852 Snow -7 1012 79 2500 9.26 70 10:27 07.02.2021
2853 Snow -6 1012 73 2000 8.75 70 09:49 07.02.2021
2854 Snow -6 1012 63 3500 9.26 80 09:21 07.02.2021
2855 Snow -6 1011 63 10000 9.26 70 08:36 07.02.2021
2856 Snow -5 1012 63 10000 9.26 80 07:44 07.02.2021
2857 Clouds -5 1013 58 10000 9.26 80 05:58 07.02.2021
2858 Clear -5 1014 58 10000 9.77 70 03:55 07.02.2021
2859 Clear -4 1015 63 10000 9.77 70 01:39 07.02.2021
2860 Clear -4 1016 63 10000 9.26 80 00:36 07.02.2021
2861 Clear -4 1016 63 10000 9.26 80 23:47 06.02.2021
2862 Clear -4 1017 68 10000 8.75 80 22:50 06.02.2021
2863 Clear -4 1017 74 10000 9.26 70 21:45 06.02.2021
2864 Clear -3 1017 74 10000 9.26 70 21:24 06.02.2021
2865 Clouds -3 1017 74 10000 8.75 80 20:53 06.02.2021
2866 Clouds -3 1018 74 10000 8.75 70 20:26 06.02.2021
2867 Clouds -3 1018 74 10000 8.75 80 19:59 06.02.2021
2868 Clouds -2 1018 74 10000 8.75 80 19:40 06.02.2021
2869 Clouds -2 1018 74 10000 8.23 70 19:19 06.02.2021
2870 Clear -2 1018 74 10000 8.23 70 18:43 06.02.2021
2871 Clear -2 1018 74 10000 8.75 70 18:24 06.02.2021
2872 Clear -2 1018 74 10000 8.75 70 17:41 06.02.2021
2873 Clear -1 1018 74 10000 7.2 70 17:21 06.02.2021
2874 Clear -1 1018 69 10000 8.23 80 16:47 06.02.2021
2875 Clear -1 1018 69 10000 7.72 70 16:29 06.02.2021
2876 Clear 0 1018 69 10000 7.72 70 15:52 06.02.2021
2877 Clear 0 1018 69 10000 8.23 80 15:29 06.02.2021
2878 Clear 0 1018 69 10000 8.23 70 14:49 06.02.2021
2879 Clouds 0 1018 69 10000 8.75 70 14:29 06.02.2021
2880 Clouds 0 1019 69 10000 9.77 80 13:57 06.02.2021
2881 Clouds 0 1019 69 10000 8.75 80 13:38 06.02.2021
2882 Clouds -1 1019 64 10000 8.75 80 12:36 06.02.2021
2883 Clouds -1 1019 64 10000 8.75 80 12:18 06.02.2021
2884 Clouds -1 1019 69 10000 7.72 70 11:40 06.02.2021
2885 Clouds -1 1019 74 10000 8.23 70 11:20 06.02.2021
2886 Clouds -1 1019 74 10000 8.23 80 10:52 06.02.2021
2887 Clouds -1 1019 74 10000 8.23 70 10:25 06.02.2021
2888 Clouds -1 1019 74 10000 9.26 70 09:38 06.02.2021
2889 Clouds -1 1019 74 10000 7.2 70 09:19 06.02.2021
2890 Clouds -1 1019 74 10000 7.2 70 09:19 06.02.2021
2891 Clouds -1 1019 74 10000 7.2 70 08:59 06.02.2021
2892 Clouds -1 1019 74 10000 7.2 80 08:29 06.02.2021
2893 Clouds -1 1018 80 10000 7.2 70 06:58 06.02.2021
2894 Clouds -1 1018 80 10000 6.69 80 05:41 06.02.2021
2895 Snow -1 1018 86 10000 6.17 70 02:52 06.02.2021
2896 Snow -1 1018 86 10000 6.17 80 00:59 06.02.2021
2897 Snow -1 1018 86 10000 6.17 80 00:41 06.02.2021
2898 Snow -1 1018 86 10000 5.66 70 00:18 06.02.2021
2899 Snow -1 1018 86 10000 6.17 80 23:41 05.02.2021
2900 Snow -1 1018 93 6000 6.17 80 23:23 05.02.2021
2901 Snow -1 1018 93 4500 5.14 70 22:43 05.02.2021
2902 Snow -1 1018 93 3500 5.14 70 22:18 05.02.2021
2903 Snow -1 1018 93 4000 4.63 80 21:40 05.02.2021
2904 Snow -1 1018 93 7000 4.63 80 20:59 05.02.2021
2905 Snow -1 1018 93 7000 4.63 80 20:38 05.02.2021
2906 Snow 0 1018 93 6000 5.66 80 19:48 05.02.2021
2907 Snow 0 1018 93 6000 5.14 70 19:19 05.02.2021
2908 Snow 0 1018 93 7000 5.14 80 18:45 05.02.2021
2909 Snow 0 1018 80 5000 5.66 80 18:19 05.02.2021
2910 Snow 0 1018 80 10000 4.63 80 17:43 05.02.2021
2911 Snow 0 1018 80 8000 5.14 80 17:21 05.02.2021
2912 Snow 0 1018 80 7000 5.66 80 16:47 05.02.2021
2913 Snow 1 1018 80 7000 6.69 80 16:23 05.02.2021
2914 Snow 1 1018 75 5000 5.14 80 15:54 05.02.2021
2915 Snow 1 1018 75 10000 5.66 80 15:26 05.02.2021
2916 Snow 1 1018 75 10000 5.66 80 14:40 05.02.2021
2917 Clouds 2 1018 80 10000 5.14 80 14:22 05.02.2021
2918 Clouds 2 1018 80 10000 5.66 90 13:59 05.02.2021
2919 Snow 2 1019 80 10000 5.66 90 13:36 05.02.2021
2920 Clouds 1 1019 80 10000 5.66 90 12:55 05.02.2021
2921 Clouds 1 1019 80 10000 6.17 80 12:36 05.02.2021
2922 Clouds 1 1019 80 10000 5.66 80 11:41 05.02.2021
2923 Clouds 1 1019 80 10000 5.66 90 11:21 05.02.2021
2924 Clouds 1 1019 80 10000 5.14 100 10:58 05.02.2021
2925 Clouds 0 1019 80 10000 5.14 100 10:27 05.02.2021
2926 Clouds 0 1019 80 10000 5.66 90 09:48 05.02.2021
2927 Clouds 0 1019 80 10000 5.66 90 09:29 05.02.2021
2928 Clouds 0 1019 89 10000 4.92 109 08:58 05.02.2021
2929 Clouds 0 1019 89 4668 4.92 85 08:28 05.02.2021
2930 Clouds 0 1018 86 10000 5.14 90 07:38 05.02.2021
2931 Clouds 0 1018 93 10000 5.66 80 06:57 05.02.2021
2932 Clouds 0 1018 93 10000 5.14 90 05:38 05.02.2021
2933 Clouds 0 1018 93 9000 5.66 90 04:49 05.02.2021
2934 Clouds 1 1018 93 10000 4.63 100 02:25 05.02.2021
2935 Snow 0 1018 93 10000 4.12 90 00:41 05.02.2021
2936 Snow 0 1018 93 10000 4.12 90 00:21 05.02.2021
2937 Snow 1 1018 93 10000 3.6 100 23:59 04.02.2021
2938 Snow 1 1018 93 10000 4.12 90 23:40 04.02.2021
2939 Snow 0 1018 93 10000 4.12 90 23:21 04.02.2021
2940 Snow 1 1018 93 10000 4.12 90 22:52 04.02.2021
2941 Snow 1 1018 100 10000 3.09 80 22:29 04.02.2021
2942 Snow 1 1018 93 10000 3.09 90 21:43 04.02.2021
2943 Snow 1 1018 100 10000 3.6 100 21:22 04.02.2021
2944 Snow 1 1018 100 10000 3.09 100 20:54 04.02.2021
2945 Snow 1 1017 100 10000 3.6 90 20:34 04.02.2021
2946 Snow 1 1017 100 10000 3.6 90 20:34 04.02.2021
2947 Snow 1 1017 100 8000 3.09 90 19:49 04.02.2021
2948 Snow 1 1017 100 8000 2.57 90 19:21 04.02.2021
2949 Snow 1 1017 100 10000 2.57 80 18:40 04.02.2021
2950 Snow 1 1017 100 10000 3.09 80 18:21 04.02.2021
2951 Snow 1 1016 93 144 2.24 87 17:45 04.02.2021
2952 Snow 1 1016 93 168 2.68 75 17:21 04.02.2021
2953 Snow 1 1016 93 10000 3.6 70 16:48 04.02.2021
2954 Snow 1 1016 93 10000 2.57 70 16:20 04.02.2021
2955 Snow 1 1015 93 10000 3.6 70 15:41 04.02.2021
2956 Snow 1 1015 93 10000 3.6 70 15:41 04.02.2021
2957 Clouds 2 1015 93 10000 3.6 70 15:21 04.02.2021
2958 Snow 1 1015 93 10000 4.12 60 14:57 04.02.2021
2959 Snow 1 1015 93 10000 4.12 60 14:39 04.02.2021
2960 Clouds 1 1015 93 10000 3.09 70 14:19 04.02.2021
2961 Clouds 1 1014 93 10000 3.6 70 13:43 04.02.2021
2962 Clouds 1 1014 93 10000 3.09 80 12:57 04.02.2021
2963 Clouds 1 1013 93 10000 4.12 70 12:33 04.02.2021
2964 Snow 1 1013 93 8000 3.09 60 11:53 04.02.2021
2965 Clouds 1 1012 93 8000 3.09 50 11:33 04.02.2021
2966 Clouds 1 1012 93 10000 2.57 40 10:48 04.02.2021
2967 Snow 1 1011 93 9000 3.6 30 10:19 04.02.2021
2968 Snow 1 1010 100 8000 2.57 10 09:44 04.02.2021
2969 Snow 1 1010 93 8000 2.57 360 09:19 04.02.2021
2970 Snow 1 1009 93 10000 2.57 350 08:48 04.02.2021
2971 Snow 1 1008 93 10000 3.09 360 08:24 04.02.2021
2972 Snow 1 1007 93 10000 2.06 340 07:43 04.02.2021
2973 Snow 2 1007 93 10000 2.57 330 07:22 04.02.2021
2974 Snow 2 1006 93 10000 3.6 320 06:43 04.02.2021
2975 Rain 2 1002 93 10000 4.12 300 04:31 04.02.2021
2976 Rain 2 998 93 10000 7.72 310 02:27 04.02.2021
2977 Clouds 5 994 87 10000 10.8 270 00:57 04.02.2021
2978 Clouds 7 993 87 10000 7.72 250 23:52 03.02.2021
2979 Clouds 7 993 93 10000 6.17 230 23:27 03.02.2021
2980 Clouds 7 993 93 10000 4.63 210 22:36 03.02.2021
2981 Clouds 7 993 93 10000 4.63 210 22:18 03.02.2021
2982 Clouds 7 993 100 10000 3.09 210 21:41 03.02.2021
2983 Clouds 7 993 100 10000 3.6 190 21:22 03.02.2021
2984 Clouds 7 993 93 10000 3.6 170 20:48 03.02.2021
2985 Rain 7 993 93 4300 4.12 120 20:29 03.02.2021
2986 Rain 7 994 93 3700 3.6 120 19:54 03.02.2021
2987 Rain 7 994 100 3300 3.09 120 19:24 03.02.2021
2988 Rain 7 995 100 5000 3.09 100 18:57 03.02.2021
2989 Rain 7 995 100 5000 3.09 100 18:37 03.02.2021
2990 Rain 7 995 100 6000 3.09 90 18:19 03.02.2021
2991 Rain 7 996 93 8000 1.54 130 17:43 03.02.2021
2992 Rain 7 996 93 10000 1.54 160 17:19 03.02.2021
2993 Rain 8 996 87 10000 2.57 150 16:42 03.02.2021
2994 Rain 8 997 87 10000 3.09 160 16:22 03.02.2021
2995 Rain 8 997 96 10000 1.79 127 15:40 03.02.2021
2996 Clouds 8 997 87 10000 3.6 200 15:22 03.02.2021
2997 Clouds 8 997 96 10000 1.34 91 14:45 03.02.2021
2998 Clouds 8 998 93 10000 1.54 120 14:22 03.02.2021
2999 Clouds 6 999 100 10000 1.54 120 13:47 03.02.2021
3000 Clouds 6 999 100 10000 1.03 0 13:21 03.02.2021
3001 Clouds 5 999 100 8000 1.54 120 12:42 03.02.2021
3002 Clouds 4 1000 100 7000 1.54 110 12:21 03.02.2021
3003 Clouds 4 1000 100 6000 2.06 120 11:43 03.02.2021
3004 Clouds 4 1000 93 6000 2.57 90 11:24 03.02.2021
3005 Clouds 3 1000 100 6000 3.09 90 10:42 03.02.2021
3006 Rain 3 1000 97 10000 1.34 79 10:20 03.02.2021
3007 Mist 2 1000 100 4800 1.54 70 09:45 03.02.2021
3008 Mist 2 1000 100 3400 2.06 80 09:27 03.02.2021
3009 Mist 2 1000 93 2300 2.06 60 08:48 03.02.2021
3010 Mist 2 1000 100 3600 2.06 60 07:59 03.02.2021
3011 Snow 2 1000 100 2400 1.54 80 07:26 03.02.2021
3012 Snow 2 1000 100 1900 2.06 110 06:38 03.02.2021
3013 Fog 2 1000 100 800 2.57 70 04:50 03.02.2021
3014 Fog 2 1001 100 800 1.54 90 04:27 03.02.2021
3015 Mist 2 1001 100 1000 1.54 70 02:43 03.02.2021
3016 Mist 2 1001 100 1100 2.57 60 02:23 03.02.2021
3017 Mist 2 1000 93 2300 2.57 70 00:27 03.02.2021
3018 Mist 2 1000 93 2300 2.06 60 23:48 02.02.2021
3019 Mist 2 1000 93 2200 2.57 80 23:28 02.02.2021
3020 Mist 2 1000 93 2200 2.57 80 22:59 02.02.2021
3021 Rain 2 1000 93 2700 2.57 90 22:22 02.02.2021
3022 Mist 2 1000 93 2500 3.6 80 21:55 02.02.2021
3023 Mist 2 1000 100 2500 3.6 70 21:30 02.02.2021
3024 Rain 2 1001 100 2300 3.09 80 20:59 02.02.2021
3025 Rain 2 1001 100 2300 3.09 80 20:41 02.02.2021
3026 Rain 2 1001 100 2300 3.09 80 20:19 02.02.2021
3027 Rain 2 1001 100 2000 2.57 70 19:47 02.02.2021
3028 Rain 2 1001 100 3200 3.09 70 19:29 02.02.2021
3029 Snow 2 1001 100 4500 2.57 80 18:44 02.02.2021
3030 Rain 2 1001 100 8000 2.06 80 18:25 02.02.2021
3031 Rain 2 1001 100 9000 2.06 70 17:50 02.02.2021
3032 Rain 2 1002 93 10000 1.54 90 17:23 02.02.2021
3033 Rain 2 1002 87 10000 1.54 130 16:57 02.02.2021
3034 Rain 2 1002 87 10000 1.54 160 16:37 02.02.2021
3035 Clouds 2 1002 87 10000 2.06 180 15:59 02.02.2021
3036 Clouds 2 1002 87 10000 2.06 180 15:41 02.02.2021
3037 Clouds 3 1002 87 10000 2.57 180 15:21 02.02.2021
3038 Clouds 3 1003 87 10000 3.09 190 14:41 02.02.2021
3039 Rain 3 1003 87 10000 2.06 210 14:19 02.02.2021
3040 Clouds 3 1003 87 10000 2.06 250 13:54 02.02.2021
3041 Clouds 2 1003 87 10000 2.06 250 13:36 02.02.2021
3042 Clouds 2 1003 87 10000 2.57 250 13:18 02.02.2021
3043 Clouds 2 1003 86 10000 3.6 270 12:29 02.02.2021
3044 Clouds 1 1003 86 10000 5.14 270 11:43 02.02.2021
3045 Clouds 1 1003 93 10000 4.12 270 11:21 02.02.2021
3046 Snow 1 1003 93 10000 4.63 260 10:53 02.02.2021
3047 Clouds 1 1003 93 10000 4.63 260 10:27 02.02.2021
3048 Clouds 1 1003 93 8000 4.12 260 09:46 02.02.2021
3049 Snow 1 1003 93 7000 4.12 250 09:25 02.02.2021
3050 Snow 1 1003 93 5000 3.6 260 08:48 02.02.2021
3051 Snow 1 1002 93 3800 4.63 260 08:22 02.02.2021
3052 Mist 1 1001 100 3000 4.63 250 07:29 02.02.2021
3053 Mist 1 1001 100 3000 4.63 250 06:43 02.02.2021
3054 Mist 1 1001 93 3200 3.6 250 05:53 02.02.2021
3055 Mist 0 1001 93 3000 2.57 220 04:37 02.02.2021
3056 Clouds -1 1000 80 9000 3.09 150 02:26 02.02.2021
3057 Clouds -1 1000 80 9000 2.06 150 01:55 02.02.2021
3058 Clouds -1 999 74 10000 2.57 140 00:34 02.02.2021
3059 Clouds -1 999 69 10000 3.6 130 23:19 01.02.2021
3060 Snow -1 999 69 10000 3.6 120 22:50 01.02.2021
3061 Clouds 0 999 69 10000 3.6 130 22:32 01.02.2021
3062 Clouds 0 999 69 10000 3.6 130 21:53 01.02.2021
3063 Clear 0 999 69 10000 3.09 120 21:34 01.02.2021
3064 Clouds 0 999 69 10000 3.6 110 20:57 01.02.2021
3065 Clouds 0 999 69 10000 3.09 120 20:37 01.02.2021
3066 Clouds 0 999 69 10000 3.09 120 20:19 01.02.2021
3067 Clouds 0 999 64 10000 3.09 120 19:38 01.02.2021
3068 Clouds 0 999 64 10000 3.09 120 19:19 01.02.2021
3069 Clouds 0 998 69 10000 2.57 110 18:47 01.02.2021
3070 Clouds 0 998 69 10000 2.57 100 18:27 01.02.2021
3071 Clear 0 998 69 10000 2.57 110 17:47 01.02.2021
3072 Clear 0 998 64 10000 2.57 120 17:23 01.02.2021
3073 Clear 0 998 64 10000 4.12 110 16:55 01.02.2021
3074 Clouds 0 998 66 10000 4.47 110 16:29 01.02.2021
3075 Clear 1 998 55 10000 5.14 110 15:44 01.02.2021
3076 Clear 1 998 55 10000 5.66 110 15:19 01.02.2021
3077 Clouds 1 998 67 10000 4.47 102 14:52 01.02.2021
3078 Clouds 1 998 67 10000 4.47 96 14:33 01.02.2021
3079 Clear 1 998 55 10000 5.66 110 13:50 01.02.2021
3080 Clear 0 999 59 10000 6.17 110 13:27 01.02.2021
3081 Clear 0 999 59 10000 5.66 110 12:56 01.02.2021
3082 Clear 0 999 59 10000 5.66 110 12:37 01.02.2021
3083 Clear 0 999 64 10000 5.66 100 12:19 01.02.2021
3084 Clear -2 999 63 10000 6.17 100 11:39 01.02.2021
3085 Clear -3 999 68 10000 5.66 100 11:18 01.02.2021
3086 Clear -4 999 74 10000 4.63 100 10:42 01.02.2021
3087 Clouds -3 1000 76 10000 5.36 109 10:19 01.02.2021
3088 Clear -4 1000 79 10000 4.63 100 09:43 01.02.2021
3089 Clear -6 1000 86 10000 4.12 90 08:58 01.02.2021
3090 Clear -6 1000 86 10000 3.6 100 08:27 01.02.2021
3091 Clear -6 1000 92 10000 3.09 100 07:37 01.02.2021
3092 Clear -6 1000 86 10000 3.09 100 05:59 01.02.2021
3093 Clear -6 1002 92 10000 2.06 90 02:43 01.02.2021
3094 Clear -5 1003 93 10000 1.54 90 00:31 01.02.2021
3095 Clear -5 1003 100 10000 1.54 100 23:40 31.01.2021
3096 Fog -4 1003 100 9000 2.06 120 22:43 31.01.2021
3097 Fog -4 1003 93 8000 2.06 110 22:23 31.01.2021
3098 Fog -4 1003 100 8000 1.54 120 21:49 31.01.2021
3099 Fog -4 1004 93 9000 1.54 120 21:23 31.01.2021
3100 Fog -4 1004 93 10000 2.06 140 20:49 31.01.2021
3101 Fog -3 1004 93 10000 1.54 140 20:21 31.01.2021
3102 Clear -4 1004 93 10000 2.06 160 19:56 31.01.2021
3103 Clear -3 1004 100 10000 2.06 160 19:37 31.01.2021
3104 Clear -3 1004 100 10000 2.06 160 19:19 31.01.2021
3105 Clear -3 1004 93 10000 2.57 170 18:41 31.01.2021
3106 Clear -3 1004 93 10000 2.57 170 18:41 31.01.2021
3107 Clear -3 1005 86 10000 2.57 190 18:21 31.01.2021
3108 Clear -2 1004 86 10000 2.06 180 17:47 31.01.2021
3109 Clear -2 1005 86 10000 1.54 180 17:23 31.01.2021
3110 Clouds -2 1005 86 10000 1.54 160 16:51 31.01.2021
3111 Clouds -2 1005 86 10000 1.54 160 16:51 31.01.2021
3112 Clouds -1 1005 86 10000 0.51 0 16:33 31.01.2021
3113 Clouds 0 1005 80 10000 1.03 0 15:52 31.01.2021
3114 Clouds 0 1006 86 10000 1.03 0 15:34 31.01.2021
3115 Clouds 0 1006 86 10000 1.54 180 14:45 31.01.2021
3116 Clouds 0 1006 93 10000 2.06 180 14:25 31.01.2021
3117 Clouds 0 1006 93 10000 1.03 0 13:56 31.01.2021
3118 Clouds 0 1006 93 10000 1.03 0 13:56 31.01.2021
3119 Clouds 0 1006 93 10000 1.03 0 13:37 31.01.2021
3120 Clear 0 1007 93 10000 1.03 0 12:50 31.01.2021
3121 Clear -2 1007 93 10000 0.51 0 12:23 31.01.2021
3122 Clouds -3 1007 100 5000 0.51 0 11:58 31.01.2021
3123 Clouds -3 1007 100 5000 0.51 0 11:38 31.01.2021
3124 Fog -3 1007 93 900 0.51 0 11:19 31.01.2021
3125 Fog -5 1007 100 550 1.03 0 10:43 31.01.2021
3126 Fog -4 1007 93 450 1.03 200 10:24 31.01.2021
3127 Fog -5 1007 100 300 1.54 180 09:33 31.01.2021
3128 Fog -5 1006 93 300 2.06 180 08:34 31.01.2021
3129 Fog -5 1006 93 300 1.03 0 07:50 31.01.2021
3130 Fog -4 1006 100 200 1.54 240 05:54 31.01.2021
3131 Fog -4 1006 100 200 1.54 240 05:54 31.01.2021
3132 Fog -4 1006 100 10000 2.06 230 01:55 31.01.2021
3133 Fog -4 1005 100 10000 0.51 130 00:28 31.01.2021
3134 Fog -2 1005 100 10000 1.54 110 23:42 30.01.2021
3135 Clouds -2 1005 93 10000 0.51 90 23:20 30.01.2021
3136 Clouds -2 1005 93 10000 0.51 0 22:37 30.01.2021
3137 Clouds -1 1005 86 10000 2.06 40 21:45 30.01.2021
3138 Clouds -1 1005 80 10000 1.54 40 21:24 30.01.2021
3139 Clouds -1 1005 86 10000 1.54 60 20:58 30.01.2021
3140 Clouds -1 1004 86 10000 1.03 0 20:38 30.01.2021
3141 Clouds -1 1004 86 10000 0.51 0 19:59 30.01.2021
3142 Clouds 0 1004 86 10000 0.51 0 19:40 30.01.2021
3143 Clouds -1 1004 86 10000 0.51 0 19:19 30.01.2021
3144 Clouds -1 1004 86 10000 0.51 0 19:19 30.01.2021
3145 Clouds 0 1004 80 10000 1.54 280 18:40 30.01.2021
3146 Clouds 0 1004 80 10000 1.54 280 18:20 30.01.2021
3147 Clouds 0 1004 74 10000 1.54 310 17:47 30.01.2021
3148 Clouds 0 1004 74 10000 1.54 320 17:19 30.01.2021
3149 Clouds 0 1003 74 10000 1.03 310 16:42 30.01.2021
3150 Clouds 1 1003 69 10000 1.54 340 16:23 30.01.2021
3151 Clouds 1 1003 75 10000 1.54 330 15:49 30.01.2021
3152 Clouds 1 1003 75 10000 2.06 360 15:25 30.01.2021
3153 Clouds 1 1003 75 10000 1.54 330 14:58 30.01.2021
3154 Clouds 1 1003 75 10000 1.54 330 14:39 30.01.2021
3155 Clouds 1 1003 75 10000 2.06 20 14:18 30.01.2021
3156 Clouds 1 1003 75 10000 4.12 350 13:24 30.01.2021
3157 Clouds 1 1003 80 10000 2.57 290 12:46 30.01.2021
3158 Clouds 1 1003 86 10000 2.57 300 12:28 30.01.2021
3159 Clouds 1 1003 86 10000 2.57 290 11:53 30.01.2021
3160 Clouds 0 1003 86 10000 2.06 320 11:21 30.01.2021
3161 Snow 0 1002 86 10000 2.57 320 10:43 30.01.2021
3162 Clouds 0 1002 86 10000 3.09 330 09:43 30.01.2021
3163 Clouds -1 1002 93 10000 4.12 330 09:25 30.01.2021
3164 Clouds -1 1001 93 6000 4.12 340 08:47 30.01.2021
3165 Snow -1 1000 100 4500 3.6 340 07:44 30.01.2021
3166 Snow -1 998 93 4000 3.6 350 06:35 30.01.2021
3167 Snow -1 996 93 3500 3.6 30 04:28 30.01.2021
3168 Snow -1 996 93 2000 4.12 40 03:33 30.01.2021
3169 Snow -1 996 93 2700 4.12 40 02:23 30.01.2021
3170 Snow -1 996 93 4400 4.12 50 01:26 30.01.2021
3171 Snow -1 996 100 4800 4.12 60 00:35 30.01.2021
3172 Snow -1 996 100 4900 3.6 60 23:58 29.01.2021
3173 Snow -1 996 100 4900 3.6 60 23:40 29.01.2021
3174 Snow -1 996 100 4800 3.09 70 23:18 29.01.2021
3175 Snow -1 996 93 5000 3.09 90 22:38 29.01.2021
3176 Snow -1 996 93 5000 3.09 90 22:18 29.01.2021
3177 Snow -1 996 93 4600 3.6 80 21:28 29.01.2021
3178 Snow -1 996 93 4200 3.6 70 20:45 29.01.2021
3179 Snow -1 996 93 3400 3.09 70 20:25 29.01.2021
3180 Snow -1 996 93 3400 3.09 60 19:57 29.01.2021
3181 Snow -1 996 93 3400 3.09 60 19:38 29.01.2021
3182 Snow 0 996 86 9000 3.6 70 19:18 29.01.2021
3183 Snow 0 996 86 9000 2.57 90 18:21 29.01.2021
3184 Snow 0 996 74 10000 3.09 90 17:39 29.01.2021
3185 Snow 0 996 74 10000 3.09 90 17:20 29.01.2021
3186 Snow 1 996 74 10000 4.63 70 16:45 29.01.2021
3187 Snow 0 996 74 10000 3.6 70 16:23 29.01.2021
3188 Snow 1 996 74 10000 3.09 70 15:48 29.01.2021
3189 Clouds 1 995 64 10000 3.6 90 15:27 29.01.2021
3190 Snow 1 995 64 10000 3.6 90 14:47 29.01.2021
3191 Clear 1 995 64 10000 4.12 90 14:18 29.01.2021
3192 Clear 1 996 74 10000 4.63 80 13:41 29.01.2021
3193 Clear 1 996 74 10000 4.63 90 13:22 29.01.2021
3194 Clear 1 997 80 10000 4.12 110 12:28 29.01.2021
3195 Clear 0 997 80 10000 3.6 130 11:49 29.01.2021
3196 Clear 0 998 80 10000 4.12 100 11:20 29.01.2021
3197 Clear -1 998 86 10000 3.6 100 10:51 29.01.2021
3198 Clear -1 998 86 10000 3.09 110 10:31 29.01.2021
3199 Clear -1 999 86 10000 2.57 130 09:49 29.01.2021
3200 Clear -1 999 86 10000 2.57 100 09:28 29.01.2021
3201 Clear -2 1000 93 10000 2.06 110 08:46 29.01.2021
3202 Clear -2 1000 93 10000 2.06 100 08:22 29.01.2021
3203 Clear -2 1000 93 10000 2.57 150 07:41 29.01.2021
3204 Clear -2 1000 93 10000 2.06 140 07:20 29.01.2021
3205 Clear -2 1002 93 10000 0.51 250 05:38 29.01.2021
3206 Clear -1 1003 93 10000 2.57 250 03:50 29.01.2021
3207 Clear -1 1004 86 10000 2.57 290 00:45 29.01.2021
3208 Clear -1 1004 93 10000 2.57 280 00:22 29.01.2021
3209 Clear -1 1004 93 10000 2.57 280 00:22 29.01.2021
3210 Clear -1 1004 86 10000 3.09 280 23:45 28.01.2021
3211 Clear -1 1003 86 10000 2.06 290 23:26 28.01.2021
3212 Clear -1 1003 74 10000 1.54 330 22:57 28.01.2021
3213 Clear -1 1003 80 10000 1.54 330 22:37 28.01.2021
3214 Clear -1 1003 80 10000 1.54 330 22:18 28.01.2021
3215 Clear -1 1004 80 10000 2.57 340 21:41 28.01.2021
3216 Clear 0 1003 80 10000 3.09 340 21:20 28.01.2021
3217 Clear 0 1003 80 10000 3.09 340 20:40 28.01.2021
3218 Clear 0 1003 80 10000 3.6 360 20:19 28.01.2021
3219 Clear 0 1003 74 10000 4.12 10 19:48 28.01.2021
3220 Clear 0 1002 80 10000 4.63 10 19:27 28.01.2021
3221 Clear 1 1002 75 10000 4.12 10 18:49 28.01.2021
3222 Clear 1 1002 75 10000 4.63 10 18:29 28.01.2021
3223 Clouds 1 1002 80 10000 3.6 360 17:53 28.01.2021
3224 Clouds 2 1001 80 10000 3.6 10 17:32 28.01.2021
3225 Clouds 2 1001 75 10000 2.57 10 16:57 28.01.2021
3226 Clouds 2 1001 75 10000 2.57 10 16:37 28.01.2021
3227 Clouds 3 1001 75 10000 3.09 10 16:18 28.01.2021
3228 Clouds 3 1001 75 10000 2.57 360 15:25 28.01.2021
3229 Clouds 4 1002 75 10000 2.57 360 14:48 28.01.2021
3230 Clouds 3 1002 81 10000 3.09 340 14:26 28.01.2021
3231 Clouds 4 1002 81 10000 2.57 350 13:58 28.01.2021
3232 Clouds 4 1002 81 10000 2.57 350 13:23 28.01.2021
3233 Clouds 4 1002 81 10000 2.57 350 12:50 28.01.2021
3234 Clouds 3 1003 81 10000 2.57 340 12:28 28.01.2021
3235 Clouds 3 1003 87 10000 3.09 340 11:57 28.01.2021
3236 Clouds 3 1003 87 10000 3.09 340 11:39 28.01.2021
3237 Clouds 3 1004 87 10000 4.12 310 11:18 28.01.2021
3238 Clouds 3 1004 94 10000 2.68 311 10:48 28.01.2021
3239 Clouds 3 1004 93 10000 3.6 330 10:24 28.01.2021
3240 Clouds 3 1004 93 6000 4.12 300 09:42 28.01.2021
3241 Clouds 3 1004 100 6000 4.63 270 09:20 28.01.2021
3242 Clouds 3 1004 100 10000 5.14 240 08:46 28.01.2021
3243 Clouds 4 1004 100 10000 5.66 240 07:51 28.01.2021
3244 Clouds 4 1004 93 10000 6.17 240 07:22 28.01.2021
3245 Clouds 3 1004 93 10000 6.17 240 06:48 28.01.2021
3246 Clouds 2 1006 93 7000 5.66 240 04:33 28.01.2021
3247 Clouds 2 1006 93 4500 5.66 230 03:42 28.01.2021
3248 Rain 2 1008 93 10000 4.63 210 00:57 28.01.2021
3249 Clouds 2 1009 80 10000 5.14 220 23:43 27.01.2021
3250 Clouds 2 1009 86 10000 3.6 190 23:23 27.01.2021
3251 Clouds 2 1009 80 10000 3.6 190 22:41 27.01.2021
3252 Clouds 2 1009 80 10000 4.12 190 22:21 27.01.2021
3253 Clouds 2 1009 80 10000 4.63 190 21:42 27.01.2021
3254 Clouds 2 1009 80 10000 4.63 190 21:22 27.01.2021
3255 Clouds 2 1010 80 10000 4.12 180 20:50 27.01.2021
3256 Clouds 2 1009 81 10000 3.58 190 20:20 27.01.2021
3257 Clouds 2 1009 76 10000 2.24 202 19:49 27.01.2021
3258 Clouds 2 1011 80 10000 4.12 200 19:22 27.01.2021
3259 Clouds 2 1011 80 10000 4.12 190 18:45 27.01.2021
3260 Clouds 3 1011 75 10000 4.63 190 18:24 27.01.2021
3261 Clouds 3 1011 75 10000 4.12 190 17:52 27.01.2021
3262 Clouds 3 1011 75 10000 4.12 190 17:34 27.01.2021
3263 Clouds 3 1011 75 10000 4.12 190 16:57 27.01.2021
3264 Clouds 4 1011 70 10000 4.12 190 16:38 27.01.2021
3265 Clouds 4 1011 70 10000 4.12 190 16:20 27.01.2021
3266 Clouds 5 1011 70 10000 4.12 200 15:49 27.01.2021
3267 Clouds 5 1011 70 10000 4.12 200 15:49 27.01.2021
3268 Clouds 5 1012 75 10000 3.09 220 15:29 27.01.2021
3269 Clouds 5 1012 70 10000 4.63 220 14:24 27.01.2021
3270 Clouds 5 1012 75 10000 3.6 220 13:53 27.01.2021
3271 Clouds 5 1013 75 10000 3.09 220 13:35 27.01.2021
3272 Clouds 4 1013 81 10000 4.12 220 12:42 27.01.2021
3273 Clouds 4 1013 81 10000 3.6 200 12:24 27.01.2021
3274 Clouds 3 1013 87 10000 2.57 210 11:48 27.01.2021
3275 Clouds 2 1014 93 10000 2.57 210 11:26 27.01.2021
3276 Clouds 2 1014 93 6000 3.09 210 10:48 27.01.2021
3277 Clouds 2 1014 100 6000 3.6 220 10:26 27.01.2021
3278 Clouds 1 1014 93 6000 2.57 220 09:56 27.01.2021
3279 Clouds 1 1014 93 5000 3.09 220 09:28 27.01.2021
3280 Mist 1 1014 93 5000 2.57 220 08:47 27.01.2021
3281 Clouds 1 1014 93 5000 2.06 240 07:57 27.01.2021
3282 Clouds 1 1014 94 9744 2.68 271 07:37 27.01.2021
3283 Clouds 0 1014 100 6000 2.06 220 06:45 27.01.2021
3284 Clouds 0 1014 100 10000 1.54 250 05:56 27.01.2021
3285 Clouds 0 1014 93 10000 3.6 250 05:34 27.01.2021
3286 Clouds 1 1014 93 10000 4.12 280 02:46 27.01.2021
3287 Clouds 1 1014 93 10000 5.14 280 02:20 27.01.2021
3288 Clouds 1 1014 93 10000 5.14 280 01:46 27.01.2021
3289 Clouds 2 1014 86 10000 3.6 280 00:29 27.01.2021
3290 Clouds 1 1014 86 10000 3.6 290 23:40 26.01.2021
3291 Clouds 2 1014 80 10000 4.63 290 23:22 26.01.2021
3292 Clouds 2 1014 75 10000 5.14 290 22:44 26.01.2021
3293 Clouds 2 1014 80 10000 6.69 290 22:20 26.01.2021
3294 Clouds 2 1013 80 10000 7.2 290 21:53 26.01.2021
3295 Clouds 2 1013 80 10000 7.72 280 21:26 26.01.2021
3296 Clouds 2 1013 80 10000 7.2 270 20:56 26.01.2021
3297 Clear 2 1013 80 10000 5.14 260 20:38 26.01.2021
3298 Clear 2 1013 80 10000 5.14 260 20:20 26.01.2021
3299 Clouds 2 1013 86 10000 5.14 270 19:43 26.01.2021
3300 Clouds 2 1013 80 10000 4.63 260 19:20 26.01.2021
3301 Clouds 2 1013 80 10000 5.14 270 18:46 26.01.2021
3302 Clouds 2 1013 80 10000 5.14 270 18:24 26.01.2021
3303 Clouds 2 1012 87 10000 3.6 270 17:48 26.01.2021
3304 Clouds 2 1012 80 10000 3.09 270 17:27 26.01.2021
3305 Clouds 2 1012 80 10000 3.09 300 16:55 26.01.2021
3306 Clouds 2 1012 80 10000 4.12 300 16:37 26.01.2021
3307 Clouds 2 1012 80 10000 4.12 300 16:18 26.01.2021
3308 Clouds 3 1012 80 10000 4.63 270 15:40 26.01.2021
3309 Clouds 3 1011 75 10000 4.63 280 15:20 26.01.2021
3310 Clouds 3 1011 75 10000 5.14 280 14:37 26.01.2021
3311 Clouds 3 1011 75 10000 5.14 280 14:18 26.01.2021
3312 Clouds 3 1011 80 10000 3.6 250 13:33 26.01.2021
3313 Clouds 3 1011 80 10000 3.6 270 12:57 26.01.2021
3314 Clouds 3 1011 80 10000 3.6 270 12:38 26.01.2021
3315 Clouds 3 1011 80 10000 3.6 260 12:19 26.01.2021
3316 Clouds 1 1011 86 10000 3.6 260 11:50 26.01.2021
3317 Clouds 0 1011 86 10000 2.57 260 11:19 26.01.2021
3318 Clouds 0 1010 86 10000 2.57 240 10:39 26.01.2021
3319 Clouds 0 1010 93 10000 1.54 230 10:20 26.01.2021
3320 Clouds 0 1010 93 10000 3.09 230 09:40 26.01.2021
3321 Clouds 0 1010 93 10000 2.57 240 09:40 26.01.2021
3322 Clouds 0 1010 93 10000 3.09 230 09:21 26.01.2021
3323 Clouds -1 1010 93 10000 2.57 230 08:48 26.01.2021
3324 Clear -1 1009 93 10000 3.09 230 07:57 26.01.2021
3325 Clear -1 1009 93 10000 3.09 230 07:19 26.01.2021
3326 Clear 0 1009 93 10000 3.09 230 05:53 26.01.2021
3327 Clear 0 1009 93 10000 3.09 260 05:34 26.01.2021
3328 Clear 1 1008 93 10000 3.09 250 03:39 26.01.2021
3329 Clouds 1 1008 91 10000 2.68 241 01:19 26.01.2021
3330 Snow 1 1008 93 10000 3.09 250 00:30 26.01.2021
3331 Clouds 1 1007 93 10000 2.57 260 23:33 25.01.2021
3332 Clouds 2 1007 93 10000 3.09 260 22:51 25.01.2021
3333 Clouds 2 1007 93 10000 2.57 260 22:33 25.01.2021
3334 Clouds 2 1007 86 10000 3.09 270 21:48 25.01.2021
3335 Clouds 2 1006 86 10000 2.57 260 21:22 25.01.2021
3336 Clouds 2 1006 86 10000 3.6 280 20:45 25.01.2021
3337 Clouds 2 1006 86 10000 3.6 280 20:27 25.01.2021
3338 Clouds 2 1006 86 10000 5.14 290 19:50 25.01.2021
3339 Clouds 2 1005 86 10000 3.09 290 19:27 25.01.2021
3340 Clouds 2 1005 86 10000 3.09 290 19:27 25.01.2021
3341 Clouds 2 1005 86 10000 2.57 300 18:48 25.01.2021
3342 Clouds 2 1005 86 10000 4.12 300 18:27 25.01.2021
3343 Clouds 2 1005 80 10000 4.12 300 17:50 25.01.2021
3344 Clouds 2 1004 80 10000 3.09 300 17:31 25.01.2021
3345 Clouds 2 1004 80 10000 4.12 300 16:59 25.01.2021
3346 Clouds 2 1004 80 10000 4.12 300 16:40 25.01.2021
3347 Clouds 2 1003 80 10000 4.12 300 16:21 25.01.2021
3348 Clouds 3 1003 75 10000 5.14 290 15:43 25.01.2021
3349 Clouds 3 1003 75 10000 4.63 290 15:23 25.01.2021
3350 Clouds 3 1003 75 10000 5.66 280 14:40 25.01.2021
3351 Clouds 3 1003 81 10000 4.63 270 14:19 25.01.2021
3352 Clouds 2 1003 80 10000 4.12 270 13:47 25.01.2021
3353 Clouds 2 1002 87 10000 4.12 270 13:26 25.01.2021
3354 Clouds 3 1002 87 10000 4.63 260 12:45 25.01.2021
3355 Clouds 3 1002 87 10000 4.63 260 12:20 25.01.2021
3356 Clouds 2 1002 87 10000 3.6 260 11:47 25.01.2021
3357 Clouds 2 1002 93 10000 3.09 260 11:18 25.01.2021
3358 Clouds 2 1002 93 10000 3.6 260 10:40 25.01.2021
3359 Clouds 2 1001 93 8000 4.12 270 10:18 25.01.2021
3360 Clouds 2 1001 93 7000 3.6 260 09:43 25.01.2021
3361 Clouds 2 1001 93 6000 3.6 250 09:25 25.01.2021
3362 Clouds 1 1000 100 6000 3.6 230 08:28 25.01.2021
3363 Clouds 1 1000 93 8000 2.06 250 07:32 25.01.2021
3364 Clouds 1 1000 100 10000 2.06 240 06:55 25.01.2021
3365 Clouds 1 999 100 7000 3.09 270 04:18 25.01.2021
3366 Clouds 2 998 100 6000 3.09 260 01:32 25.01.2021
3367 Clouds 2 998 100 6000 3.6 260 23:51 24.01.2021
3368 Clouds 2 998 100 6000 1.54 260 23:19 24.01.2021
3369 Clouds 2 998 100 7000 1.54 250 22:43 24.01.2021
3370 Clouds 2 998 100 7000 1.54 290 22:21 24.01.2021
3371 Rain 2 998 100 7000 2.06 300 21:49 24.01.2021
3372 Rain 2 997 100 7000 1.54 300 21:24 24.01.2021
3373 Rain 2 997 100 7000 1.54 300 21:24 24.01.2021
3374 Clouds 2 997 100 8000 1.54 280 20:46 24.01.2021
3375 Clouds 2 997 100 9000 1.03 310 20:22 24.01.2021
3376 Clouds 2 997 93 10000 1.54 320 19:53 24.01.2021
3377 Snow 2 997 100 10000 1.03 0 19:28 24.01.2021
3378 Snow 2 997 100 10000 1.54 360 18:59 24.01.2021
3379 Clouds 2 997 100 10000 1.54 360 18:40 24.01.2021
3380 Drizzle 2 996 100 7000 2.06 30 18:21 24.01.2021
3381 Drizzle 2 996 100 6000 2.57 20 17:57 24.01.2021
3382 Clouds 2 996 94 230 2.24 17 17:38 24.01.2021
3383 Clouds 2 996 94 85 2.24 26 17:18 24.01.2021
3384 Clouds 2 996 94 85 1.79 41 16:41 24.01.2021
3385 Clouds 2 996 93 10000 2.06 40 16:20 24.01.2021
3386 Clouds 2 996 100 10000 2.06 50 15:45 24.01.2021
3387 Clouds 2 996 93 10000 2.57 60 15:20 24.01.2021
3388 Clouds 2 995 100 10000 3.09 60 14:47 24.01.2021
3389 Clouds 2 995 100 10000 3.09 60 14:24 24.01.2021
3390 Clouds 2 995 100 6000 3.09 60 13:34 24.01.2021
3391 Snow 2 996 100 6000 2.57 80 12:51 24.01.2021
3392 Snow 2 996 93 6000 2.06 80 12:23 24.01.2021
3393 Rain 2 996 94 72 2.24 115 11:59 24.01.2021
3394 Snow 2 996 100 8000 2.06 90 11:41 24.01.2021
3395 Clouds 2 995 100 10000 2.57 100 11:20 24.01.2021
3396 Snow 2 995 93 9000 1.54 80 10:35 24.01.2021
3397 Snow 2 995 93 10000 2.06 80 09:50 24.01.2021
3398 Snow 1 995 94 30 3.13 113 09:22 24.01.2021
3399 Snow 1 995 100 7000 2.57 90 08:51 24.01.2021
3400 Snow 1 996 100 6000 1.54 80 05:18 24.01.2021
3401 Clouds 1 996 100 7000 2.06 130 02:21 24.01.2021
3402 Clouds 1 996 100 7000 1.03 0 00:58 24.01.2021
3403 Clear 1 996 93 10000 1.54 110 00:23 24.01.2021
3404 Clear 1 996 93 10000 3.09 170 23:46 23.01.2021
3405 Clouds 1 996 100 9000 3.09 200 23:22 23.01.2021
3406 Clouds 1 996 93 9000 3.09 180 22:41 23.01.2021
3407 Clouds 1 996 100 9000 2.06 230 22:21 23.01.2021
3408 Clouds 1 996 100 9000 2.06 230 22:21 23.01.2021
3409 Clear 1 996 100 10000 2.57 180 21:48 23.01.2021
3410 Clear 1 996 100 10000 2.57 180 21:21 23.01.2021
3411 Clouds 2 996 93 9000 2.57 220 20:43 23.01.2021
3412 Clouds 2 997 100 9000 2.57 210 20:21 23.01.2021
3413 Clouds 3 996 93 9000 3.09 220 19:46 23.01.2021
3414 Clouds 3 996 93 9000 3.09 190 19:20 23.01.2021
3415 Clear 3 996 93 10000 2.57 220 18:46 23.01.2021
3416 Clear 3 996 93 10000 2.57 220 18:24 23.01.2021
3417 Clear 3 996 93 10000 1.54 220 17:45 23.01.2021
3418 Clear 3 996 93 10000 2.57 270 17:26 23.01.2021
3419 Clouds 4 996 87 10000 1.03 0 16:48 23.01.2021
3420 Clear 4 996 87 10000 1.03 0 16:25 23.01.2021
3421 Clouds 4 996 93 10000 3.09 250 15:40 23.01.2021
3422 Clouds 3 996 93 10000 2.57 270 15:21 23.01.2021
3423 Clouds 3 996 87 10000 2.57 310 14:32 23.01.2021
3424 Rain 3 996 93 10000 4.12 330 13:54 23.01.2021
3425 Clouds 3 996 93 8000 5.14 310 13:36 23.01.2021
3426 Rain 3 996 92 10000 3.13 310 12:57 23.01.2021
3427 Rain 3 996 92 10000 3.13 310 12:57 23.01.2021
3428 Rain 3 996 92 10000 3.13 310 12:57 23.01.2021
3429 Snow 2 996 100 5000 4.63 310 12:28 23.01.2021
3430 Snow 2 996 93 4500 5.14 320 11:48 23.01.2021
3431 Snow 2 996 93 3500 4.12 310 11:28 23.01.2021
3432 Snow 1 996 93 4100 3.6 310 10:52 23.01.2021
3433 Snow 2 997 93 5000 3.6 330 10:21 23.01.2021
3434 Snow 2 997 100 8000 3.09 330 09:48 23.01.2021
3435 Rain 3 997 93 10000 1.54 350 08:57 23.01.2021
3436 Rain 3 997 93 10000 0.51 0 08:31 23.01.2021
3437 Clouds 2 996 87 10000 2.57 340 07:37 23.01.2021
3438 Clear 2 997 93 10000 1.03 0 05:32 23.01.2021
3439 Clear 2 997 93 10000 1.03 90 00:54 23.01.2021
3440 Clear 2 998 87 10000 1.54 180 23:53 22.01.2021
3441 Rain 2 998 93 10000 3.09 180 23:34 22.01.2021
3442 Clear 2 997 86 10000 2.06 230 22:40 22.01.2021
3443 Clear 3 997 80 10000 3.09 230 21:51 22.01.2021
3444 Clear 3 997 81 10000 4.12 230 21:32 22.01.2021
3445 Clear 4 997 75 10000 4.63 220 20:59 22.01.2021
3446 Clear 4 996 81 10000 4.12 230 20:39 22.01.2021
3447 Clear 4 996 81 10000 3.09 220 19:59 22.01.2021
3448 Clear 4 996 81 10000 2.57 240 19:26 22.01.2021
3449 Clear 5 995 75 10000 3.6 240 18:59 22.01.2021
3450 Clear 5 995 75 10000 3.6 240 18:41 22.01.2021
3451 Clear 6 995 75 10000 3.09 240 18:22 22.01.2021
3452 Clear 6 995 75 10000 4.12 240 17:43 22.01.2021
3453 Clear 7 994 75 10000 3.09 230 17:24 22.01.2021
3454 Clear 7 994 75 10000 3.09 230 16:44 22.01.2021
3455 Clear 7 994 70 10000 3.09 230 16:23 22.01.2021
3456 Clear 7 993 70 10000 2.57 250 15:30 22.01.2021
3457 Clear 7 993 70 10000 3.09 270 14:58 22.01.2021
3458 Clouds 7 992 70 10000 5.14 260 14:30 22.01.2021
3459 Clear 7 992 71 10000 4.12 240 13:50 22.01.2021
3460 Clear 7 992 76 10000 4.12 270 13:31 22.01.2021
3461 Clouds 8 992 76 10000 4.12 250 12:48 22.01.2021
3462 Clouds 8 992 81 10000 5.14 260 12:23 22.01.2021
3463 Clouds 7 992 87 10000 4.63 260 11:46 22.01.2021
3464 Clouds 7 991 87 10000 5.66 270 11:22 22.01.2021
3465 Clouds 8 991 81 10000 10.29 270 10:45 22.01.2021
3466 Rain 9 989 66 10000 9.77 200 09:59 22.01.2021
3467 Clear 9 989 71 10000 8.23 200 09:31 22.01.2021
3468 Clear 9 989 66 10000 8.75 190 08:51 22.01.2021
3469 Clear 10 988 66 10000 8.75 190 08:30 22.01.2021
3470 Clear 10 989 66 10000 8.75 180 07:38 22.01.2021
3471 Clear 10 991 66 10000 10.8 200 03:41 22.01.2021
3472 Rain 8 994 81 10000 6.17 150 00:54 22.01.2021
3473 Rain 8 994 81 10000 5.66 160 00:25 22.01.2021
3474 Rain 8 995 81 10000 6.17 190 23:42 21.01.2021
3475 Rain 8 996 71 10000 5.66 200 22:59 21.01.2021
3476 Rain 8 996 71 10000 5.66 200 22:41 21.01.2021
3477 Clear 8 996 81 10000 5.14 180 21:44 21.01.2021
3478 Clear 8 996 81 10000 5.66 190 21:23 21.01.2021
3479 Clouds 8 996 87 10000 5.14 190 20:59 21.01.2021
3480 Clouds 8 996 87 10000 5.14 190 20:41 21.01.2021
3481 Clouds 8 997 81 10000 4.63 190 20:20 21.01.2021
3482 Clouds 9 997 76 10000 5.66 220 19:47 21.01.2021
3483 Clouds 9 997 76 10000 6.17 210 19:25 21.01.2021
3484 Clouds 9 996 76 10000 7.72 200 18:43 21.01.2021
3485 Clouds 9 996 76 10000 7.72 210 18:22 21.01.2021
3486 Clouds 10 996 66 10000 7.72 220 17:57 21.01.2021
3487 Rain 10 996 66 10000 6.69 210 17:22 21.01.2021
3488 Clear 9 996 71 10000 5.14 240 16:59 21.01.2021
3489 Clear 9 996 71 10000 5.14 240 16:40 21.01.2021
3490 Clear 10 996 66 10000 4.12 260 16:22 21.01.2021
3491 Clouds 10 996 62 10000 6.17 270 15:48 21.01.2021
3492 Clouds 11 996 54 10000 8.23 220 15:28 21.01.2021
3493 Clouds 12 995 47 10000 9.26 220 14:47 21.01.2021
3494 Clouds 12 995 47 10000 9.77 220 14:25 21.01.2021
3495 Clear 12 995 47 10000 9.26 210 13:46 21.01.2021
3496 Clear 13 996 44 10000 8.75 200 13:26 21.01.2021
3497 Clear 13 996 47 10000 11.32 200 12:45 21.01.2021
3498 Clear 13 996 47 10000 10.8 200 12:25 21.01.2021
3499 Clear 12 996 46 10000 10.8 200 11:56 21.01.2021
3500 Clear 11 996 46 10000 9.77 190 11:35 21.01.2021
3501 Clear 10 996 50 10000 6.69 180 10:53 21.01.2021
3502 Clear 9 995 53 10000 8.23 170 10:34 21.01.2021
3503 Clear 9 995 50 10000 10.29 180 09:56 21.01.2021
3504 Clear 8 996 53 10000 7.2 170 09:37 21.01.2021
3505 Clear 8 996 53 10000 7.2 170 09:18 21.01.2021
3506 Clear 8 996 57 10000 7.72 170 08:34 21.01.2021
3507 Rain 7 996 57 10000 7.2 170 07:46 21.01.2021
3508 Clear 7 997 57 10000 7.2 170 07:26 21.01.2021
3509 Clear 7 997 61 10000 5.14 160 06:31 21.01.2021
3510 Clear 6 998 65 10000 4.63 150 04:55 21.01.2021
3511 Clear 6 999 70 10000 4.63 180 02:19 21.01.2021
3512 Clear 6 1000 65 10000 6.17 190 00:42 21.01.2021
3513 Clear 6 1000 70 10000 6.17 180 23:50 20.01.2021
3514 Clear 6 1001 70 10000 4.63 200 23:26 20.01.2021
3515 Clear 6 1001 70 10000 5.66 210 22:53 20.01.2021
3516 Clear 6 1001 65 10000 5.14 190 22:30 20.01.2021
3517 Clear 6 1001 70 10000 5.66 190 21:54 20.01.2021
3518 Clear 6 1001 70 10000 4.12 190 21:23 20.01.2021
3519 Clear 6 1002 70 10000 5.14 190 20:52 20.01.2021
3520 Clear 6 1002 70 10000 5.14 190 20:52 20.01.2021
3521 Clear 7 1001 70 10000 5.14 190 20:24 20.01.2021
3522 Clear 7 1001 70 10000 5.14 190 19:50 20.01.2021
3523 Clear 7 1002 70 10000 5.66 190 19:31 20.01.2021
3524 Clear 7 1002 70 10000 4.63 190 18:52 20.01.2021
3525 Clear 7 1002 65 10000 5.66 200 18:33 20.01.2021
3526 Clear 7 1002 70 10000 4.63 200 17:56 20.01.2021
3527 Clear 8 1002 70 10000 5.66 190 17:36 20.01.2021
3528 Rain 8 1002 70 10000 5.66 190 16:52 20.01.2021
3529 Rain 8 1002 70 10000 7.2 200 16:30 20.01.2021
3530 Rain 8 1002 70 10000 7.2 200 16:30 20.01.2021
3531 Clouds 8 1002 61 10000 6.69 200 15:47 20.01.2021
3532 Clear 9 1002 57 10000 8.23 210 15:19 20.01.2021
3533 Clear 8 1002 61 10000 9.26 220 14:46 20.01.2021
3534 Clouds 9 1002 61 10000 7.72 220 14:22 20.01.2021
3535 Clouds 8 1002 66 10000 7.72 220 13:41 20.01.2021
3536 Clouds 8 1002 66 10000 7.72 210 13:21 20.01.2021
3537 Clear 7 1003 70 10000 7.72 210 12:35 20.01.2021
3538 Clear 7 1003 70 10000 6.69 210 11:55 20.01.2021
3539 Clear 6 1003 70 10000 6.69 210 11:35 20.01.2021
3540 Clouds 5 1004 75 10000 6.17 210 10:55 20.01.2021
3541 Clouds 5 1004 75 10000 6.17 210 10:32 20.01.2021
3542 Rain 4 1004 81 10000 5.14 210 09:50 20.01.2021
3543 Rain 4 1004 81 10000 6.17 210 09:24 20.01.2021
3544 Rain 4 1004 81 10000 5.66 210 08:55 20.01.2021
3545 Clear 4 1004 81 10000 5.66 220 08:29 20.01.2021
3546 Clear 4 1004 81 10000 6.17 220 07:56 20.01.2021
3547 Clear 4 1004 87 10000 5.66 210 07:25 20.01.2021
3548 Clouds 4 1004 87 10000 5.14 210 05:51 20.01.2021
3549 Clouds 5 1004 93 10000 6.69 210 03:28 20.01.2021
3550 Rain 5 1004 93 10000 7.72 230 01:19 20.01.2021
3551 Rain 5 1004 93 10000 6.69 230 00:46 20.01.2021
3552 Rain 5 1004 100 10000 6.17 230 23:49 19.01.2021
3553 Rain 5 1004 100 10000 6.17 220 23:26 19.01.2021
3554 Rain 5 1004 100 10000 6.17 220 23:26 19.01.2021
3555 Drizzle 4 1004 100 6000 7.2 230 22:57 19.01.2021
3556 Rain 4 1004 100 6000 7.2 230 22:37 19.01.2021
3557 Rain 4 1004 93 10000 6.69 230 22:19 19.01.2021
3558 Rain 4 1003 98 10000 4.92 222 21:50 19.01.2021
3559 Rain 3 1004 100 10000 5.66 220 21:26 19.01.2021
3560 Clouds 3 1004 93 4200 4.12 220 20:44 19.01.2021
3561 Rain 3 1004 93 3500 5.14 220 20:24 19.01.2021
3562 Drizzle 3 1004 100 3800 5.66 220 19:54 19.01.2021
3563 Drizzle 2 1004 100 5000 6.17 220 19:29 19.01.2021
3564 Drizzle 2 1004 100 4500 5.66 220 18:49 19.01.2021
3565 Drizzle 2 1004 93 8000 6.69 220 18:27 19.01.2021
3566 Drizzle 2 1004 93 9000 6.69 220 17:47 19.01.2021
3567 Rain 2 1004 100 10000 6.69 220 17:29 19.01.2021
3568 Drizzle 2 1004 100 10000 5.66 210 16:59 19.01.2021
3569 Drizzle 1 1004 100 10000 5.66 210 16:38 19.01.2021
3570 Rain 2 1004 93 10000 5.66 200 16:18 19.01.2021
3571 Drizzle 1 1004 93 10000 5.66 200 15:41 19.01.2021
3572 Rain 1 1005 93 7000 6.17 190 15:21 19.01.2021
3573 Snow 1 1005 96 236 4.47 195 14:41 19.01.2021
3574 Snow 1 1005 95 59 5.36 180 14:23 19.01.2021
3575 Snow 1 1006 100 1200 5.66 190 13:48 19.01.2021
3576 Rain 2 1007 93 10000 7.2 200 13:21 19.01.2021
3577 Rain 3 1007 87 10000 6.69 200 12:48 19.01.2021
3578 Rain 3 1008 87 10000 6.17 200 12:30 19.01.2021
3579 Clouds 3 1009 87 10000 7.2 210 11:50 19.01.2021
3580 Clouds 4 1010 81 10000 7.72 210 11:28 19.01.2021
3581 Clouds 3 1010 87 10000 6.17 210 10:52 19.01.2021
3582 Clouds 3 1011 87 10000 6.17 210 10:32 19.01.2021
3583 Clouds 3 1011 87 10000 6.17 200 09:53 19.01.2021
3584 Clouds 3 1011 87 10000 5.66 210 09:31 19.01.2021
3585 Clouds 3 1012 93 10000 5.66 210 08:59 19.01.2021
3586 Clouds 3 1012 93 10000 5.14 210 08:26 19.01.2021
3587 Clouds 3 1013 87 10000 5.66 220 07:49 19.01.2021
3588 Clouds 3 1013 93 10000 4.12 230 06:55 19.01.2021
3589 Clouds 3 1014 93 10000 5.14 240 03:20 19.01.2021
3590 Clouds 3 1014 93 10000 5.14 240 02:21 19.01.2021
3591 Clouds 3 1015 100 10000 6.17 250 00:18 19.01.2021
3592 Rain 3 1015 100 10000 6.69 250 23:41 18.01.2021
3593 Rain 2 1015 93 10000 6.17 250 23:22 18.01.2021
3594 Rain 2 1015 93 10000 7.2 250 22:41 18.01.2021
3595 Rain 2 1015 93 10000 7.2 250 22:20 18.01.2021
3596 Rain 2 1015 93 10000 6.69 240 21:43 18.01.2021
3597 Rain 2 1015 93 10000 7.2 240 21:22 18.01.2021
3598 Rain 2 1016 93 9000 7.2 240 20:53 18.01.2021
3599 Rain 2 1016 93 10000 6.69 230 20:33 18.01.2021
3600 Rain 2 1016 93 10000 5.66 230 19:52 18.01.2021
3601 Rain 2 1016 93 10000 5.66 230 19:34 18.01.2021
3602 Rain 2 1016 93 10000 6.69 240 18:48 18.01.2021
3603 Rain 2 1016 93 10000 6.17 230 18:25 18.01.2021
3604 Snow 2 1017 100 8000 5.14 220 17:47 18.01.2021
3605 Rain 2 1017 100 3800 3.6 200 17:28 18.01.2021
3606 Rain 1 1017 93 4400 3.09 180 16:50 18.01.2021
3607 Rain 1 1017 100 4400 2.57 180 16:25 18.01.2021
3608 Snow 1 1018 100 5000 2.06 170 15:52 18.01.2021
3609 Mist 1 1018 93 3000 2.06 180 15:27 18.01.2021
3610 Clouds 1 1018 93 7546 1.34 198 14:58 18.01.2021
3611 Mist 0 1018 100 2500 2.06 220 14:38 18.01.2021
3612 Snow 0 1018 100 1400 1.54 190 14:20 18.01.2021
3613 Mist 0 1019 93 2900 2.06 190 13:44 18.01.2021
3614 Mist -1 1019 100 4600 2.57 190 13:20 18.01.2021
3615 Snow -1 1019 93 6000 3.09 190 12:46 18.01.2021
3616 Snow -2 1019 93 8000 2.06 190 12:19 18.01.2021
3617 Snow -2 1019 93 4300 2.57 190 11:46 18.01.2021
3618 Snow -2 1020 93 4300 2.06 170 11:25 18.01.2021
3619 Snow -2 1020 86 9000 2.06 180 10:47 18.01.2021
3620 Snow -3 1020 93 9000 2.06 180 10:26 18.01.2021
3621 Snow -3 1020 86 6000 2.57 170 09:39 18.01.2021
3622 Snow -3 1020 86 6000 2.57 170 09:18 18.01.2021
3623 Clouds -3 1020 89 6282 2.24 157 08:27 18.01.2021
3624 Snow -4 1020 93 5000 2.06 160 07:54 18.01.2021
3625 Clouds -4 1020 93 10000 2.57 140 06:35 18.01.2021
3626 Clear -4 1020 93 10000 2.57 110 04:46 18.01.2021
3627 Clear -4 1020 93 10000 2.57 120 04:27 18.01.2021
3628 Clear -5 1020 93 10000 2.06 120 03:52 18.01.2021
3629 Clear -5 1020 93 10000 1.54 130 03:29 18.01.2021
3630 Clear -5 1021 93 10000 2.57 140 02:58 18.01.2021
3631 Clear -4 1021 86 10000 3.09 150 02:20 18.01.2021
3632 Clear -4 1021 86 10000 2.57 150 00:41 18.01.2021
3633 Clear -4 1021 86 10000 2.57 150 00:19 18.01.2021
3634 Clear -4 1021 93 10000 2.57 130 23:41 17.01.2021
3635 Clear -4 1022 93 10000 2.06 130 23:19 17.01.2021
3636 Clouds -4 1022 86 10000 2.06 130 22:25 17.01.2021
3637 Clouds -3 1022 86 10000 2.57 130 21:57 17.01.2021
3638 Clouds -3 1022 86 10000 3.09 120 21:37 17.01.2021
3639 Clouds -2 1022 86 10000 3.09 120 21:19 17.01.2021
3640 Clouds -3 1022 86 10000 3.09 120 20:41 17.01.2021
3641 Clouds -2 1022 86 10000 2.06 120 20:19 17.01.2021
3642 Clouds -2 1022 80 10000 2.57 110 19:41 17.01.2021
3643 Clouds -2 1021 86 10000 3.09 100 18:59 17.01.2021
3644 Clouds -1 1021 86 10000 3.09 100 18:38 17.01.2021
3645 Clouds -1 1021 80 10000 2.57 100 18:19 17.01.2021
3646 Clouds -1 1021 80 10000 2.57 110 17:43 17.01.2021
3647 Clouds -1 1021 80 10000 2.57 110 17:23 17.01.2021
3648 Clouds -1 1021 80 10000 2.57 110 17:23 17.01.2021
3649 Clouds -1 1021 80 10000 1.03 0 16:43 17.01.2021
3650 Clouds 0 1020 74 10000 1.03 0 16:19 17.01.2021
3651 Clouds 0 1020 80 10000 1.54 60 15:41 17.01.2021
3652 Clouds 0 1020 80 10000 0.51 0 15:21 17.01.2021
3653 Clouds 0 1020 80 10000 0.51 0 14:47 17.01.2021
3654 Clouds 0 1020 74 10000 0.51 0 14:26 17.01.2021
3655 Clouds 0 1020 74 10000 0.51 0 13:44 17.01.2021
3656 Clouds 0 1020 80 10000 1.54 160 13:26 17.01.2021
3657 Clouds 0 1020 82 10000 0.89 56 12:52 17.01.2021
3658 Clouds 0 1020 80 10000 1.03 0 12:30 17.01.2021
3659 Clouds 0 1019 80 10000 1.03 0 11:54 17.01.2021
3660 Clouds -1 1019 80 10000 1.03 140 11:22 17.01.2021
3661 Clouds -1 1019 80 10000 0.51 0 10:46 17.01.2021
3662 Clouds -1 1019 86 10000 0.51 0 10:21 17.01.2021
3663 Clouds -2 1018 80 10000 1.03 250 09:25 17.01.2021
3664 Clouds -2 1018 80 10000 1.54 260 08:44 17.01.2021
3665 Clouds -2 1018 86 10000 2.06 260 06:52 17.01.2021
3666 Clouds -2 1017 86 10000 2.06 270 04:28 17.01.2021
3667 Clouds -2 1018 86 10000 2.57 250 02:48 17.01.2021
3668 Clouds -1 1019 69 10000 1.54 10 00:51 17.01.2021
3669 Clouds -1 1019 69 10000 2.06 360 00:18 17.01.2021
3670 Clouds -1 1019 69 10000 2.06 350 23:49 16.01.2021
3671 Clouds -1 1019 69 10000 2.06 330 23:20 16.01.2021
3672 Clouds -1 1019 69 10000 3.6 310 22:45 16.01.2021
3673 Clouds -1 1019 69 10000 2.06 310 21:58 16.01.2021
3674 Clouds -1 1019 69 10000 2.06 310 21:38 16.01.2021
3675 Clouds -1 1019 69 10000 3.6 320 21:18 16.01.2021
3676 Clouds -1 1019 69 10000 4.12 300 20:44 16.01.2021
3677 Clouds -1 1019 69 10000 3.6 310 20:22 16.01.2021
3678 Clouds -1 1020 69 10000 4.12 320 19:48 16.01.2021
3679 Clouds -1 1020 69 10000 5.66 320 19:29 16.01.2021
3680 Clouds -1 1020 69 10000 4.12 310 18:44 16.01.2021
3681 Clouds -1 1020 69 10000 5.66 290 18:26 16.01.2021
3682 Clouds -1 1020 69 10000 5.14 290 17:49 16.01.2021
3683 Clouds -1 1020 69 10000 4.63 290 17:30 16.01.2021
3684 Clouds -1 1021 69 10000 5.14 300 16:47 16.01.2021
3685 Clouds -1 1021 69 10000 5.14 300 16:47 16.01.2021
3686 Clouds -1 1021 69 10000 5.14 300 16:29 16.01.2021
3687 Clouds 0 1021 69 10000 6.17 300 15:54 16.01.2021
3688 Clouds 0 1021 69 10000 7.2 290 15:33 16.01.2021
3689 Clouds 0 1021 74 10000 6.17 290 14:30 16.01.2021
3690 Clouds 0 1021 74 10000 6.17 290 14:30 16.01.2021
3691 Clouds 0 1021 74 10000 6.69 290 13:50 16.01.2021
3692 Clouds 0 1022 74 10000 6.17 280 13:30 16.01.2021
3693 Clouds 0 1022 74 10000 5.66 290 12:47 16.01.2021
3694 Clouds 0 1022 74 10000 6.69 290 12:22 16.01.2021
3695 Clouds 0 1023 74 10000 6.17 290 11:55 16.01.2021
3696 Clouds -1 1023 80 10000 5.14 290 11:26 16.01.2021
3697 Snow -1 1023 86 10000 5.14 280 10:51 16.01.2021
3698 Snow -1 1023 80 10000 5.66 290 10:33 16.01.2021
3699 Snow -1 1023 80 10000 5.66 290 09:50 16.01.2021
3700 Snow -1 1024 80 10000 4.63 290 09:19 16.01.2021
3701 Snow -1 1024 80 10000 4.12 280 08:18 16.01.2021
3702 Clouds -2 1024 85 4909 3.58 269 06:49 16.01.2021
3703 Snow -2 1025 69 10000 5.66 280 04:53 16.01.2021
3704 Clouds -2 1025 64 10000 4.12 290 02:59 16.01.2021
3705 Clouds -2 1025 64 10000 3.6 310 02:37 16.01.2021
3706 Clouds -2 1025 64 10000 4.63 310 00:45 16.01.2021
3707 Clouds -2 1025 64 10000 4.63 330 00:21 16.01.2021
3708 Clouds -2 1025 68 10000 4.63 330 23:36 15.01.2021
3709 Clouds -2 1025 64 10000 6.17 340 22:39 15.01.2021
3710 Clouds -2 1025 69 10000 5.66 360 22:21 15.01.2021
3711 Clouds -2 1025 69 10000 5.66 350 21:42 15.01.2021
3712 Clouds -2 1025 64 10000 5.66 350 20:49 15.01.2021
3713 Snow -2 1025 64 10000 6.69 340 20:24 15.01.2021
3714 Snow -2 1025 74 10000 7.2 360 19:48 15.01.2021
3715 Snow -1 1024 74 10000 6.69 350 19:29 15.01.2021
3716 Snow -1 1024 74 10000 6.17 350 18:54 15.01.2021
3717 Snow -1 1024 74 10000 5.14 360 18:21 15.01.2021
3718 Clouds -1 1024 80 10000 5.14 350 17:59 15.01.2021
3719 Clouds -1 1024 80 10000 5.14 350 17:40 15.01.2021
3720 Snow 0 1024 80 10000 5.14 340 17:21 15.01.2021
3721 Snow 0 1023 80 10000 4.63 340 16:46 15.01.2021
3722 Snow 0 1023 80 10000 5.14 340 16:23 15.01.2021
3723 Snow 0 1023 80 10000 5.66 340 15:41 15.01.2021
3724 Snow 0 1023 80 10000 6.17 340 15:21 15.01.2021
3725 Snow 0 1022 80 10000 5.14 330 14:46 15.01.2021
3726 Snow 0 1022 80 10000 4.63 320 14:27 15.01.2021
3727 Snow 0 1022 80 10000 4.63 320 13:43 15.01.2021
3728 Snow 0 1022 80 10000 4.63 340 13:22 15.01.2021
3729 Snow 0 1022 80 10000 7.2 340 12:57 15.01.2021
3730 Snow 0 1022 80 10000 5.66 340 12:32 15.01.2021
3731 Snow 0 1022 86 6000 5.14 340 11:56 15.01.2021
3732 Snow 0 1022 86 7000 3.6 340 11:36 15.01.2021
3733 Snow 0 1022 80 8000 4.63 340 10:57 15.01.2021
3734 Snow 0 1022 80 8000 4.63 340 10:39 15.01.2021
3735 Snow 1 1022 80 10000 4.63 340 10:19 15.01.2021
3736 Snow 1 1022 80 10000 4.12 350 09:45 15.01.2021
3737 Snow 1 1022 80 10000 4.63 350 09:27 15.01.2021
3738 Snow 1 1021 86 10000 3.6 360 08:27 15.01.2021
3739 Clouds 1 1021 86 10000 5.66 350 07:41 15.01.2021
3740 Clouds 1 1021 86 10000 5.14 350 07:20 15.01.2021
3741 Clouds 1 1020 86 10000 3.09 340 05:36 15.01.2021
3742 Clouds 2 1020 87 10000 4.12 350 02:19 15.01.2021
3743 Clouds 2 1020 87 10000 3.6 330 00:32 15.01.2021
3744 Clouds 2 1019 93 10000 3.6 350 23:29 14.01.2021
3745 Snow 2 1019 93 10000 4.63 350 22:50 14.01.2021
3746 Clouds 2 1019 93 10000 3.6 350 22:27 14.01.2021
3747 Clouds 2 1019 93 10000 4.63 350 21:58 14.01.2021
3748 Clouds 2 1019 93 10000 4.63 350 21:39 14.01.2021
3749 Clouds 2 1019 93 10000 4.12 350 21:20 14.01.2021
3750 Clouds 2 1019 93 10000 4.12 340 20:43 14.01.2021
3751 Clouds 2 1019 87 10000 4.12 340 19:57 14.01.2021
3752 Clouds 2 1018 87 10000 4.63 340 19:36 14.01.2021
3753 Clouds 2 1018 87 10000 4.63 340 19:18 14.01.2021
3754 Clouds 2 1018 87 10000 4.12 340 18:42 14.01.2021
3755 Clouds 2 1018 87 10000 4.63 330 17:59 14.01.2021
3756 Clouds 2 1018 87 10000 4.63 330 17:59 14.01.2021
3757 Clouds 2 1018 87 10000 4.63 330 17:59 14.01.2021
3758 Clouds 2 1018 87 10000 5.14 330 17:38 14.01.2021
3759 Clouds 2 1018 87 10000 5.14 330 17:19 14.01.2021
3760 Clouds 2 1017 87 10000 5.66 320 16:37 14.01.2021
3761 Clouds 2 1017 80 10000 5.66 310 15:55 14.01.2021
3762 Clouds 2 1017 87 10000 5.14 310 15:37 14.01.2021
3763 Clouds 2 1016 87 10000 5.66 320 14:50 14.01.2021
3764 Clouds 2 1016 87 10000 5.14 310 14:31 14.01.2021
3765 Clouds 2 1016 87 10000 5.14 310 13:57 14.01.2021
3766 Clouds 2 1016 87 10000 5.14 310 13:57 14.01.2021
3767 Clouds 2 1016 87 10000 6.17 340 13:39 14.01.2021
3768 Clouds 2 1016 87 10000 6.17 340 13:18 14.01.2021
3769 Clouds 2 1016 87 10000 5.14 330 12:38 14.01.2021
3770 Clouds 2 1016 87 10000 5.14 330 12:18 14.01.2021
3771 Clouds 2 1015 87 10000 6.17 340 11:41 14.01.2021
3772 Clouds 2 1015 87 10000 5.66 340 11:20 14.01.2021
3773 Clouds 2 1015 87 10000 5.66 340 10:49 14.01.2021
3774 Clouds 2 1014 86 10000 4.12 330 10:22 14.01.2021
3775 Clouds 1 1013 86 10000 4.12 340 09:44 14.01.2021
3776 Clouds 1 1013 86 10000 5.66 340 09:22 14.01.2021
3777 Clouds 1 1012 86 10000 5.14 340 08:48 14.01.2021
3778 Clouds 1 1011 86 10000 5.14 340 08:22 14.01.2021
3779 Clouds 1 1010 86 10000 5.14 360 07:45 14.01.2021
3780 Clouds 1 1009 86 10000 6.17 360 06:52 14.01.2021
3781 Clouds 1 1007 86 10000 6.69 360 05:46 14.01.2021
3782 Snow 0 1001 80 10000 9.77 270 00:45 14.01.2021
3783 Snow 0 1001 86 10000 8.75 270 23:54 13.01.2021
3784 Snow 1 1002 80 10000 7.72 280 23:23 13.01.2021
3785 Clouds 1 1002 86 10000 7.72 280 22:29 13.01.2021
3786 Snow 1 1002 86 10000 8.75 280 21:57 13.01.2021
3787 Snow 1 1002 86 10000 8.75 280 21:39 13.01.2021
3788 Snow 1 1001 86 10000 7.2 270 20:59 13.01.2021
3789 Snow 1 1001 93 10000 7.2 270 20:38 13.01.2021
3790 Snow 1 1001 93 10000 7.2 270 20:19 13.01.2021
3791 Snow 1 1001 100 6000 6.69 260 19:42 13.01.2021
3792 Snow 1 1001 100 2600 6.69 260 19:21 13.01.2021
3793 Snow 1 1002 93 3300 10.8 280 18:41 13.01.2021
3794 Rain 3 1002 81 10000 10.29 230 17:51 13.01.2021
3795 Rain 3 1003 81 10000 10.29 230 17:26 13.01.2021
3796 Snow 3 1003 81 10000 8.75 230 16:59 13.01.2021
3797 Clouds 3 1004 81 10000 8.23 240 16:23 13.01.2021
3798 Rain 4 1005 81 10000 8.23 240 15:59 13.01.2021
3799 Rain 4 1005 81 10000 8.23 240 15:59 13.01.2021
3800 Clouds 4 1005 75 10000 8.23 250 15:39 13.01.2021
3801 Clouds 4 1005 81 10000 8.23 250 14:56 13.01.2021
3802 Clouds 4 1006 81 10000 7.2 250 14:21 13.01.2021
3803 Clouds 4 1006 81 10000 8.23 250 13:37 13.01.2021
3804 Clouds 3 1006 81 10000 7.72 250 13:18 13.01.2021
3805 Clouds 3 1007 81 10000 7.72 260 12:44 13.01.2021
3806 Clouds 3 1007 81 10000 7.72 260 12:22 13.01.2021
3807 Clouds 3 1008 87 10000 6.17 250 11:49 13.01.2021
3808 Clouds 3 1008 87 10000 5.66 260 11:31 13.01.2021
3809 Clouds 3 1008 87 10000 6.17 260 10:48 13.01.2021
3810 Clouds 2 1008 87 10000 6.69 260 10:26 13.01.2021
3811 Clouds 2 1008 87 10000 6.17 260 09:40 13.01.2021
3812 Clouds 2 1008 86 10000 7.72 270 08:58 13.01.2021
3813 Clouds 1 1008 86 10000 7.72 270 08:40 13.01.2021
3814 Clouds 2 1008 86 10000 6.17 270 08:20 13.01.2021
3815 Clouds 2 1007 86 10000 6.17 260 07:28 13.01.2021
3816 Clouds 1 1007 86 10000 7.2 270 05:55 13.01.2021
3817 Clouds 1 1007 86 10000 7.2 270 04:18 13.01.2021
3818 Clouds 1 1007 86 10000 7.72 270 03:43 13.01.2021
3819 Clouds 1 1007 86 10000 7.72 270 03:22 13.01.2021
3820 Clouds 1 1006 86 10000 6.69 280 00:48 13.01.2021
3821 Clouds 1 1006 86 10000 5.14 290 23:44 12.01.2021
3822 Clouds 1 1005 86 10000 7.2 300 22:59 12.01.2021
3823 Clouds 1 1005 86 10000 7.2 300 22:39 12.01.2021
3824 Clouds 1 1005 87 10000 7.2 300 22:20 12.01.2021
3825 Snow 2 1004 87 10000 7.72 290 21:44 12.01.2021
3826 Clouds 2 1003 93 10000 6.17 260 21:26 12.01.2021
3827 Snow 2 1003 93 10000 6.17 240 20:48 12.01.2021
3828 Snow 2 1003 93 10000 6.17 240 20:48 12.01.2021
3829 Clouds 2 1003 93 10000 5.14 240 20:27 12.01.2021
3830 Clouds 2 1002 94 10000 3.13 273 19:47 12.01.2021
3831 Snow 2 1003 93 10000 4.12 260 19:26 12.01.2021
3832 Clouds 2 1002 93 10000 4.12 280 18:42 12.01.2021
3833 Clouds 2 1002 93 10000 5.66 300 18:23 12.01.2021
3834 Clouds 2 1002 93 10000 5.66 310 17:40 12.01.2021
3835 Clouds 3 1002 93 10000 5.14 300 17:22 12.01.2021
3836 Rain 3 1001 93 10000 5.66 300 16:43 12.01.2021
3837 Clouds 3 1001 93 10000 4.63 290 16:23 12.01.2021
3838 Clouds 3 1000 93 10000 5.14 260 15:39 12.01.2021
3839 Clouds 3 1000 93 10000 4.63 250 15:18 12.01.2021
3840 Rain 3 1000 93 10000 5.66 240 14:41 12.01.2021
3841 Rain 3 1000 100 10000 5.14 240 14:21 12.01.2021
3842 Rain 3 1000 100 10000 5.14 230 13:52 12.01.2021
3843 Clouds 2 1000 95 7924 5.81 213 12:55 12.01.2021
3844 Clouds 2 1000 95 10000 5.36 219 12:22 12.01.2021
3845 Clouds 2 1001 95 10000 5.81 230 11:41 12.01.2021
3846 Clouds 2 1001 95 10000 5.36 215 10:55 12.01.2021
3847 Rain 2 1002 93 7000 7.2 220 10:25 12.01.2021
3848 Snow 2 1002 93 7000 7.72 220 09:58 12.01.2021
3849 Rain 2 1002 93 7000 7.72 220 09:38 12.01.2021
3850 Rain 2 1002 93 5000 8.75 220 09:18 12.01.2021
3851 Snow 2 1002 93 6000 7.72 220 08:26 12.01.2021
3852 Snow 1 1003 93 4800 8.23 220 07:37 12.01.2021
3853 Snow 1 1003 93 3800 8.75 210 06:50 12.01.2021
3854 Snow 1 1005 93 3600 8.23 210 05:34 12.01.2021
3855 Snow 1 1007 75 10000 9.26 210 03:28 12.01.2021
3856 Snow 1 1007 75 10000 9.26 210 03:28 12.01.2021
3857 Clouds 2 1008 75 10000 9.26 210 02:21 12.01.2021
3858 Clouds 2 1008 75 10000 9.26 210 01:31 12.01.2021
3859 Clouds 2 1010 75 10000 8.23 210 23:58 11.01.2021
3860 Clouds 2 1010 75 10000 8.23 210 23:37 11.01.2021
3861 Clouds 2 1011 75 10000 8.23 220 23:18 11.01.2021
3862 Clouds 2 1011 75 10000 7.2 210 22:45 11.01.2021
3863 Clouds 2 1011 75 10000 7.2 210 22:27 11.01.2021
3864 Clouds 2 1012 75 10000 7.2 210 21:43 11.01.2021
3865 Clouds 2 1012 75 10000 8.23 220 21:25 11.01.2021
3866 Clouds 2 1012 75 10000 7.72 220 20:49 11.01.2021
3867 Clouds 2 1013 75 10000 7.72 210 20:30 11.01.2021
3868 Snow 1 1013 75 10000 7.2 220 19:58 11.01.2021
3869 Snow 1 1013 75 10000 7.2 220 19:37 11.01.2021
3870 Snow 1 1013 75 10000 7.2 220 19:19 11.01.2021
3871 Clear 1 1014 75 10000 6.69 220 18:41 11.01.2021
3872 Clear 1 1014 75 10000 6.69 210 18:22 11.01.2021
3873 Clouds 1 1014 85 86 5.81 205 17:42 11.01.2021
3874 Clouds 1 1014 85 325 6.26 201 17:23 11.01.2021
3875 Clouds 1 1015 75 10000 6.17 210 16:47 11.01.2021
3876 Rain 1 1015 75 10000 6.17 210 16:28 11.01.2021
3877 Rain 1 1016 80 10000 5.66 210 15:50 11.01.2021
3878 Rain 1 1016 80 10000 5.66 210 15:32 11.01.2021
3879 Snow 1 1016 80 10000 6.17 210 14:45 11.01.2021
3880 Snow 1 1016 80 10000 5.66 210 14:26 11.01.2021
3881 Snow 1 1017 80 9000 5.14 210 13:45 11.01.2021
3882 Snow 1 1017 80 10000 5.14 210 13:22 11.01.2021
3883 Snow 1 1018 80 10000 5.66 210 12:42 11.01.2021
3884 Snow 1 1018 80 10000 5.14 210 12:24 11.01.2021
3885 Snow 1 1018 80 10000 4.63 210 11:45 11.01.2021
3886 Clouds 1 1019 80 10000 4.63 220 10:59 11.01.2021
3887 Snow 1 1019 80 10000 4.63 220 10:39 11.01.2021
3888 Snow 1 1019 86 10000 4.63 220 09:59 11.01.2021
3889 Clouds 0 1019 86 10000 4.63 220 09:37 11.01.2021
3890 Clouds 1 1018 86 10000 4.63 210 09:19 11.01.2021
3891 Clouds 0 1018 91 10000 5.36 217 08:38 11.01.2021
3892 Clouds 0 1019 93 10000 4.12 210 07:50 11.01.2021
3893 Clouds 0 1018 92 6472 5.36 216 07:25 11.01.2021
3894 Snow 0 1019 91 1892 5.36 228 06:49 11.01.2021
3895 Clouds 0 1020 86 10000 5.14 220 02:52 11.01.2021
3896 Clear 0 1021 86 10000 4.63 210 00:57 11.01.2021
3897 Clouds -1 1021 93 10000 4.63 210 23:51 10.01.2021
3898 Clouds -1 1022 93 10000 4.12 200 23:24 10.01.2021
3899 Clouds -1 1022 93 10000 4.12 200 22:46 10.01.2021
3900 Clouds -1 1022 93 10000 3.6 200 22:20 10.01.2021
3901 Clouds -1 1022 93 9000 4.12 220 21:44 10.01.2021
3902 Clouds -1 1022 93 9000 5.14 210 21:20 10.01.2021
3903 Clouds 0 1023 93 10000 4.63 220 20:50 10.01.2021
3904 Clouds 0 1023 93 10000 5.14 200 20:32 10.01.2021
3905 Clouds 0 1023 93 10000 4.63 180 19:43 10.01.2021
3906 Clouds 0 1023 86 10000 4.63 190 19:25 10.01.2021
3907 Clouds 1 1023 86 10000 4.12 180 18:49 10.01.2021
3908 Clouds 1 1023 86 10000 2.57 180 18:21 10.01.2021
3909 Clouds 1 1023 80 10000 2.57 190 17:41 10.01.2021
3910 Clouds 1 1023 80 10000 2.06 220 17:20 10.01.2021
3911 Clouds 1 1023 80 10000 3.6 230 16:32 10.01.2021
3912 Clouds 1 1023 80 10000 3.6 230 16:32 10.01.2021
3913 Clouds 1 1023 80 10000 4.63 220 15:56 10.01.2021
3914 Clouds 2 1023 80 10000 4.63 230 15:25 10.01.2021
3915 Clouds 2 1023 80 10000 4.63 240 14:50 10.01.2021
3916 Clouds 2 1023 80 10000 3.6 240 14:31 10.01.2021
3917 Clouds 2 1024 80 10000 3.09 220 13:55 10.01.2021
3918 Clouds 2 1024 80 10000 3.09 240 13:37 10.01.2021
3919 Clouds 2 1024 80 10000 3.09 240 13:18 10.01.2021
3920 Clouds 2 1024 80 10000 3.09 260 12:50 10.01.2021
3921 Clouds 2 1024 80 10000 4.12 240 12:31 10.01.2021
3922 Clouds 1 1025 93 10000 3.6 260 11:40 10.01.2021
3923 Clouds 1 1025 93 10000 3.6 260 11:19 10.01.2021
3924 Clouds 1 1025 93 10000 3.6 260 11:19 10.01.2021
3925 Clouds 1 1025 93 10000 3.6 280 10:42 10.01.2021
3926 Clouds 1 1024 88 2150 4.02 243 10:21 10.01.2021
3927 Clouds 1 1024 86 10000 3.6 260 09:28 10.01.2021
3928 Clouds 1 1024 86 10000 2.57 260 08:22 10.01.2021
3929 Clouds 1 1023 93 10000 3.09 260 07:33 10.01.2021
3930 Clouds 2 1023 86 10000 3.09 280 06:20 10.01.2021
3931 Clouds 2 1023 86 10000 3.6 280 05:38 10.01.2021
3932 Clouds 2 1023 93 10000 3.09 290 03:56 10.01.2021
3933 Clouds 2 1023 93 10000 3.6 280 01:30 10.01.2021
3934 Drizzle 3 1023 93 10000 3.09 290 23:58 09.01.2021
3935 Drizzle 3 1023 93 10000 3.09 290 23:40 09.01.2021
3936 Clouds 3 1022 93 10000 3.09 290 22:57 09.01.2021
3937 Clouds 3 1022 93 10000 2.57 290 22:19 09.01.2021
3938 Clouds 3 1022 93 10000 2.57 290 21:58 09.01.2021
3939 Clouds 3 1022 93 10000 2.57 290 21:39 09.01.2021
3940 Clouds 3 1022 93 10000 2.57 290 21:20 09.01.2021
3941 Clouds 3 1022 93 10000 2.57 300 20:47 09.01.2021
3942 Clouds 3 1022 93 10000 3.09 300 20:28 09.01.2021
3943 Clouds 3 1021 93 10000 2.57 290 19:39 09.01.2021
3944 Clouds 3 1021 93 10000 3.09 310 19:20 09.01.2021
3945 Clouds 3 1021 93 10000 3.09 310 18:37 09.01.2021
3946 Clouds 3 1021 93 10000 3.09 320 17:53 09.01.2021
3947 Clouds 3 1021 93 10000 3.09 310 17:33 09.01.2021
3948 Clouds 3 1020 93 10000 2.57 300 16:57 09.01.2021
3949 Clouds 3 1020 93 8000 2.57 300 16:23 09.01.2021
3950 Clouds 3 1020 93 9000 3.09 300 15:41 09.01.2021
3951 Clouds 3 1020 93 10000 3.09 300 15:22 09.01.2021
3952 Clouds 2 1020 93 10000 3.6 290 14:37 09.01.2021
3953 Clouds 2 1019 93 7000 3.09 290 14:19 09.01.2021
3954 Clouds 2 1019 94 10000 2.68 268 13:45 09.01.2021
3955 Clouds 2 1019 95 5634 2.24 265 13:27 09.01.2021
3956 Clouds 2 1019 95 10000 2.24 270 12:46 09.01.2021
3957 Mist 2 1019 93 4300 3.09 260 12:21 09.01.2021
3958 Clouds 2 1019 93 10000 3.09 260 11:41 09.01.2021
3959 Clouds 2 1019 93 10000 3.09 260 11:22 09.01.2021
3960 Clouds 2 1019 93 10000 3.09 270 10:50 09.01.2021
3961 Clouds 1 1019 93 10000 2.57 280 10:26 09.01.2021
3962 Clouds 1 1018 93 10000 2.06 260 09:45 09.01.2021
3963 Clouds 1 1018 93 10000 1.54 250 09:21 09.01.2021
3964 Clouds 1 1018 100 10000 2.06 260 08:25 09.01.2021
3965 Snow 1 1017 100 9000 1.54 230 06:55 09.01.2021
3966 Snow 1 1017 100 10000 2.06 230 06:37 09.01.2021
3967 Snow 1 1016 100 7000 2.57 220 04:43 09.01.2021
3968 Snow 1 1016 100 10000 2.57 220 02:48 09.01.2021
3969 Snow 1 1016 100 10000 3.09 230 02:29 09.01.2021
3970 Snow 1 1015 100 10000 3.09 220 01:36 09.01.2021
3971 Snow 1 1015 93 10000 2.57 220 00:34 09.01.2021
3972 Snow 1 1015 93 10000 2.06 230 23:50 08.01.2021
3973 Snow 1 1015 93 10000 2.06 230 23:50 08.01.2021
3974 Snow 1 1015 93 10000 2.06 230 23:50 08.01.2021
3975 Clouds 1 1015 90 236 3.13 242 22:56 08.01.2021
3976 Clouds 1 1015 86 10000 2.57 260 21:59 08.01.2021
3977 Clouds 1 1014 80 10000 2.06 280 21:35 08.01.2021
3978 Clouds 1 1014 80 10000 3.6 290 20:42 08.01.2021
3979 Clouds 1 1014 86 10000 3.6 280 20:23 08.01.2021
3980 Clouds 1 1014 86 10000 4.12 290 19:44 08.01.2021
3981 Clouds 1 1014 86 10000 4.12 290 19:22 08.01.2021
3982 Snow 1 1013 93 10000 3.09 310 18:35 08.01.2021
3983 Snow 1 1013 93 9000 4.63 290 17:57 08.01.2021
3984 Drizzle 1 1012 93 9000 2.57 280 17:35 08.01.2021
3985 Clouds 2 1012 100 10000 2.57 280 16:56 08.01.2021
3986 Clouds 2 1012 100 10000 2.57 260 16:33 08.01.2021
3987 Drizzle 2 1012 100 10000 2.06 250 15:43 08.01.2021
3988 Drizzle 2 1011 87 10000 2.57 240 14:51 08.01.2021
3989 Drizzle 2 1011 87 10000 3.09 240 14:32 08.01.2021
3990 Clouds 2 1011 93 8000 2.57 250 13:39 08.01.2021
3991 Clouds 2 1011 91 240 3.13 269 13:18 08.01.2021
3992 Clouds 2 1011 91 240 3.13 232 12:45 08.01.2021
3993 Clouds 2 1011 93 8000 3.09 240 12:19 08.01.2021
3994 Snow 2 1011 93 8000 3.6 240 11:42 08.01.2021
3995 Snow 2 1011 93 8000 3.09 230 11:23 08.01.2021
3996 Snow 1 1011 100 7000 3.09 230 10:49 08.01.2021
3997 Snow 1 1011 93 8000 3.09 220 10:26 08.01.2021
3998 Snow 1 1011 93 7000 3.09 220 09:45 08.01.2021
3999 Snow 1 1010 93 7000 3.09 220 09:25 08.01.2021
4000 Snow 1 1010 93 8000 2.57 220 08:33 08.01.2021
4001 Snow 1 1010 93 9000 3.09 220 07:25 08.01.2021
4002 Clouds 1 1009 93 10000 3.6 210 05:51 08.01.2021
4003 Snow 2 1010 86 10000 3.09 230 23:47 07.01.2021
4004 Clouds 2 1010 86 10000 3.6 230 23:29 07.01.2021
4005 Clouds 2 1010 86 10000 3.6 220 22:46 07.01.2021
4006 Clouds 2 1010 86 10000 4.12 220 22:26 07.01.2021
4007 Clouds 2 1010 86 10000 3.6 230 21:44 07.01.2021
4008 Clouds 2 1010 86 10000 3.6 230 21:26 07.01.2021
4009 Clouds 2 1010 86 10000 4.12 230 20:47 07.01.2021
4010 Clouds 2 1010 86 10000 4.12 230 20:47 07.01.2021
4011 Clouds 2 1010 86 10000 4.12 230 20:28 07.01.2021
4012 Snow 2 1010 86 10000 4.63 240 19:45 07.01.2021
4013 Snow 2 1010 86 10000 4.12 230 19:21 07.01.2021
4014 Clouds 2 1010 86 10000 4.12 240 18:30 07.01.2021
4015 Snow 2 1010 86 10000 4.63 240 17:58 07.01.2021
4016 Snow 2 1010 80 10000 4.63 230 17:28 07.01.2021
4017 Snow 2 1010 93 10000 4.12 230 16:54 07.01.2021
4018 Snow 2 1009 86 10000 4.12 240 16:30 07.01.2021
4019 Clouds 2 1009 86 10000 4.63 240 15:47 07.01.2021
4020 Snow 2 1009 93 10000 4.12 250 15:29 07.01.2021
4021 Snow 2 1009 93 10000 4.12 250 15:29 07.01.2021
4022 Snow 2 1009 93 10000 5.66 250 14:27 07.01.2021
4023 Snow 2 1009 86 10000 5.66 250 13:49 07.01.2021
4024 Clouds 2 1009 86 10000 5.66 260 13:19 07.01.2021
4025 Clouds 2 1010 92 10000 4.6 250 12:51 07.01.2021
4026 Clouds 2 1010 92 10000 4.6 250 12:21 07.01.2021
4027 Clouds 2 1010 86 10000 5.7 250 11:38 07.01.2021
4028 Clouds 2 1010 86 10000 5.1 250 10:54 07.01.2021
4029 Clouds 2 1010 94 10000 5.1 260 10:35 07.01.2021
4030 Clouds 1 1010 86 10000 5.7 260 09:50 07.01.2021
4031 Snow 1 1009 86 10000 5.7 260 09:32 07.01.2021
4032 Snow 1 1009 86 10000 4.6 250 08:40 07.01.2021
4033 Snow 1 1009 86 10000 4.6 250 08:21 07.01.2021
4034 Snow 1 1009 86 10000 5.1 260 07:40 07.01.2021
4035 Snow 1 1009 86 10000 5.1 250 06:46 07.01.2021
4036 Snow 1 1009 95 10000 4.6 260 02:18 07.01.2021
4037 Clouds 2 1009 95 10000 4.6 240 23:58 06.01.2021
4038 Clouds 2 1009 94 10000 4.1 250 23:25 06.01.2021
4039 Clouds 2 1009 95 10000 4.1 260 22:29 06.01.2021
4040 Clouds 2 1009 95 10000 4.1 260 21:42 06.01.2021
4041 Clouds 2 1009 95 10000 4.6 260 21:22 06.01.2021
4042 Clouds 2 1009 95 10000 4.6 260 20:50 06.01.2021
4043 Drizzle 2 1009 95 10000 3.6 260 20:22 06.01.2021
4044 Drizzle 2 1009 95 10000 4.1 260 19:48 06.01.2021
4045 Drizzle 2 1009 95 10000 4.1 240 19:29 06.01.2021
4046 Clouds 2 1009 94 53 4.02 278 18:50 06.01.2021
4047 Rain 2 1009 100 10000 3.6 250 18:32 06.01.2021
4048 Drizzle 2 1009 100 10000 3.6 250 17:59 06.01.2021
4049 Clouds 2 1009 100 10000 3.6 250 17:41 06.01.2021
4050 Clouds 2 1009 93 53 3.58 274 17:21 06.01.2021
4051 Clouds 2 1009 96 10000 3.6 270 16:38 06.01.2021
4052 Clouds 2 1009 96 10000 3.6 270 16:38 06.01.2021
4053 Clouds 2 1009 96 10000 4.6 270 16:18 06.01.2021
4054 Clouds 2 1009 96 10000 5.1 270 15:46 06.01.2021
4055 Clouds 2 1009 96 10000 5.7 270 15:24 06.01.2021
4056 Clouds 3 1009 96 10000 5.1 270 14:41 06.01.2021
4057 Clouds 2 1009 93 10000 4.1 280 14:19 06.01.2021
4058 Clouds 2 1009 93 10000 4.1 280 13:40 06.01.2021
4059 Clouds 2 1010 93 72 3.6 270 13:18 06.01.2021
4060 Drizzle 2 1010 93 10000 4.1 290 12:45 06.01.2021
4061 Drizzle 2 1010 93 7000 3.1 290 11:50 06.01.2021
4062 Drizzle 2 1010 93 7000 3.1 290 11:24 06.01.2021
4063 Drizzle 2 1010 93 10000 3.1 310 10:46 06.01.2021
4064 Drizzle 2 1010 93 10000 4.1 320 09:53 06.01.2021
4065 Drizzle 2 1010 93 10000 4.1 320 09:34 06.01.2021
4066 Clouds 2 1010 93 10000 4.1 310 08:55 06.01.2021
4067 Clouds 2 1010 93 10000 3.6 300 08:21 06.01.2021
4068 Clouds 2 1010 93 10000 3.6 320 07:54 06.01.2021
4069 Clouds 2 1010 93 10000 4.6 330 06:45 06.01.2021
4070 Clouds 3 1011 93 10000 5.1 330 05:32 06.01.2021
4071 Clouds 3 1011 93 10000 5.1 330 04:32 06.01.2021
4072 Clouds 3 1012 93 10000 5.1 340 02:46 06.01.2021
4073 Clouds 3 1012 93 10000 5.1 330 02:23 06.01.2021
4074 Clouds 3 1013 93 10000 3.6 330 00:29 06.01.2021
4075 Clouds 3 1013 93 10000 4.1 340 23:28 05.01.2021
4076 Clouds 3 1014 93 10000 4.1 350 22:41 05.01.2021
4077 Clouds 3 1014 93 10000 3.1 350 22:20 05.01.2021
4078 Clouds 3 1014 93 10000 3.6 350 21:52 05.01.2021
4079 Clouds 3 1015 93 10000 3.1 360 20:49 05.01.2021
4080 Clouds 3 1015 93 10000 3.1 360 20:25 05.01.2021
4081 Clouds 3 1015 93 6000 4.6 10 19:44 05.01.2021
4082 Clouds 3 1015 93 6000 5.1 10 19:21 05.01.2021
4083 Clouds 3 1015 93 9000 4.6 20 18:44 05.01.2021
4084 Clouds 3 1015 93 10000 4.1 20 18:25 05.01.2021
4085 Clouds 3 1015 93 10000 4.6 20 17:50 05.01.2021
4086 Clouds 2 1015 93 10000 4.6 20 17:29 05.01.2021
4087 Clouds 2 1015 93 10000 4.6 20 16:53 05.01.2021
4088 Clouds 2 1015 93 9000 4.6 20 16:22 05.01.2021
4089 Clouds 2 1015 95 642 3.13 25 15:51 05.01.2021
4090 Mist 2 1015 100 4800 5.1 20 15:26 05.01.2021
4091 Mist 2 1015 100 2500 4.1 20 14:46 05.01.2021
4092 Mist 2 1015 100 4500 3.6 30 13:51 05.01.2021
4093 Clouds 2 1016 100 6000 5.1 30 13:32 05.01.2021
4094 Mist 2 1016 100 4000 4.6 30 12:50 05.01.2021
4095 Mist 2 1016 100 4000 4.6 30 12:29 05.01.2021
4096 Clouds 2 1016 93 10000 4.1 30 11:42 05.01.2021
4097 Clouds 2 1017 92 10000 3.6 20 11:23 05.01.2021
4098 Clouds 2 1017 92 10000 3.6 20 11:23 05.01.2021
4099 Clouds 2 1017 92 10000 3.1 30 10:44 05.01.2021
4100 Snow 2 1017 92 8000 3.6 40 09:59 05.01.2021
4101 Clouds 2 1017 92 10000 3.6 40 09:40 05.01.2021
4102 Clouds 1 1016 93 10000 4.1 50 08:45 05.01.2021
4103 Clouds 1 1016 95 10000 4.6 50 08:18 05.01.2021
4104 Clouds 1 1016 95 6000 5.1 50 05:32 05.01.2021
4105 Clouds 1 1017 97 6000 3.6 40 02:58 05.01.2021
4106 Clouds 1 986 99 10000 2.36 59 00:23 05.01.2021
4107 Clouds 1 1017 95 10000 2.68 58 23:42 04.01.2021
4108 Clouds 1 1017 95 10000 2.68 54 23:22 04.01.2021
4109 Clouds 1 987 99 10000 2.56 62 22:46 04.01.2021
4110 Clouds 1 1017 95 10000 2.68 52 22:19 04.01.2021
4111 Clouds 1 986 99 10000 3.05 57 21:40 04.01.2021
4112 Clouds 1 1017 95 10000 2.68 67 21:20 04.01.2021
4113 Clouds 1 1017 95 10000 2.68 60 20:42 04.01.2021
4114 Clouds 1 1017 95 239 2.68 53 20:21 04.01.2021
4115 Clouds 1 1017 95 239 2.68 54 19:43 04.01.2021
4116 Clouds 1 1017 95 150 2.68 59 19:21 04.01.2021
4117 Clouds 1 1017 95 66 2.68 50 18:46 04.01.2021
4118 Clouds 1 1017 96 10000 4.6 60 18:18 04.01.2021
4119 Clouds 1 1016 96 10000 4.6 60 17:39 04.01.2021
4120 Clouds 1 1016 96 10000 4.1 60 17:21 04.01.2021
4121 Clouds 1 1016 96 10000 4.1 60 16:44 04.01.2021
4122 Clouds 1 1016 96 10000 4.1 60 16:26 04.01.2021
4123 Clouds 1 1016 96 7000 3.6 60 15:49 04.01.2021
4124 Clouds 1 1016 96 41 4.1 60 15:25 04.01.2021
4125 Mist 1 1016 95 3700 4.6 60 14:21 04.01.2021
4126 Mist 1 1016 95 3700 4.6 60 13:43 04.01.2021
4127 Mist 1 1017 95 4500 3.6 60 13:20 04.01.2021
4128 Rain 1 1017 95 4500 4.1 60 12:32 04.01.2021
4129 Mist 1 1017 95 4500 3.6 60 11:55 04.01.2021
4130 Rain 1 1017 96 5000 4.1 70 11:21 04.01.2021
4131 Clouds 1 1017 96 8000 4.6 60 10:47 04.01.2021
4132 Clouds 1 1017 95 8000 4.6 60 10:25 04.01.2021
4133 Clouds 1 1016 95 10000 5.1 60 09:51 04.01.2021
4134 Clouds 1 1016 97 10000 4.6 60 09:19 04.01.2021
4135 Clouds 1 1016 97 10000 4.1 50 08:42 04.01.2021
4136 Rain 1 1016 97 10000 3.6 50 07:54 04.01.2021
4137 Snow 1 1016 96 10000 3.6 50 07:31 04.01.2021
4138 Snow 1 1016 96 10000 4.1 50 05:32 04.01.2021
4139 Snow 1 1015 97 10000 4.6 50 02:45 04.01.2021
4140 Clouds 1 1016 95 143 2.68 56 00:47 04.01.2021
4141 Rain 1 1016 96 2609 3.13 43 23:49 03.01.2021
4142 Rain 1 1016 96 2609 3.13 43 23:49 03.01.2021
4143 Snow 1 1016 96 10000 4.6 50 23:24 03.01.2021
4144 Snow 1 1015 96 8000 5.1 50 22:56 03.01.2021
4145 Snow 1 1015 97 8000 5.1 50 22:32 03.01.2021
4146 Clouds 1 1016 96 139 3.58 37 21:55 03.01.2021
4147 Rain 1 1015 96 125 3.58 52 21:29 03.01.2021
4148 Clouds 1 1015 95 125 3.58 52 20:50 03.01.2021
4149 Clouds 1 1015 95 122 3.13 57 20:32 03.01.2021
4150 Rain 1 1015 97 9000 6.2 60 19:57 03.01.2021
4151 Snow 1 1015 97 9000 6.2 60 19:35 03.01.2021
4152 Clouds 1 984 99 1201 5.57 61 18:57 03.01.2021
4153 Snow 1 1015 95 1201 3.58 51 18:38 03.01.2021
4154 Snow 1 1014 95 1440 4.02 47 18:19 03.01.2021
4155 Snow 1 1014 95 1440 3.58 48 17:48 03.01.2021
4156 Snow 1 1014 95 112 3.58 43 17:23 03.01.2021
4157 Rain 1 984 99 112 5.67 60 16:43 03.01.2021
4158 Snow 1 1014 95 84 4.02 41 16:20 03.01.2021
4159 Snow 1 1014 95 84 4.47 47 15:46 03.01.2021
4160 Rain 1 1014 95 132 4.02 45 15:27 03.01.2021
4161 Snow 1 1013 97 2400 6.7 60 14:57 03.01.2021
4162 Snow 1 1013 97 2400 6.7 60 14:29 03.01.2021
4163 Snow 1 983 99 199 5.37 67 13:42 03.01.2021
4164 Snow 1 1014 94 69 3.58 58 13:23 03.01.2021
4165 Snow 1 983 99 51 5.81 61 12:33 03.01.2021
4166 Snow 1 1014 96 2000 7.2 60 11:42 03.01.2021
4167 Snow 1 1014 96 3500 6.7 50 11:24 03.01.2021
4168 Snow 1 1014 96 1800 6.2 50 10:45 03.01.2021
4169 Snow 1 1014 96 1800 6.2 60 10:18 03.01.2021
4170 Snow 1 1014 91 67 6.26 39 09:41 03.01.2021
4171 Snow 1 1014 91 167 5.36 41 09:22 03.01.2021
4172 Snow 1 1014 90 782 4.02 41 07:50 03.01.2021
4173 Clouds 1 1014 80 10000 6.7 50 05:58 03.01.2021
4174 Mist 0 1016 100 4500 3.6 50 02:28 03.01.2021
4175 Mist 0 1016 100 2400 4.1 60 01:47 03.01.2021
4176 Mist 0 1016 100 4500 3.6 50 01:47 03.01.2021
4177 Fog 0 1016 92 3000 4.1 60 00:20 03.01.2021
4178 Fog 0 1016 92 4500 2.6 60 23:30 02.01.2021
4179 Fog 0 1016 100 2800 2.1 110 22:56 02.01.2021
4180 Fog 0 1016 100 2800 2.1 110 22:32 02.01.2021
4181 Fog 1 1016 92 1600 3.1 90 21:52 02.01.2021
4182 Fog 1 1016 92 1600 3.1 90 21:32 02.01.2021
4183 Mist 1 1016 92 5000 1.5 50 20:56 02.01.2021
4184 Mist 1 1016 92 5000 1.5 50 20:38 02.01.2021
4185 Mist 1 1016 92 3000 2.1 110 20:19 02.01.2021
4186 Mist 1 1016 100 1300 1.5 90 19:40 02.01.2021
4187 Fog 1 1016 100 550 2.6 110 19:18 02.01.2021
4188 Mist 1 1015 100 1400 2.6 130 18:40 02.01.2021
4189 Clear 2 1015 88 10000 0.45 71 18:21 02.01.2021
4190 Clouds 2 1015 96 7000 1.5 90 17:45 02.01.2021
4191 Clouds 2 1015 93 8000 2.1 120 17:22 02.01.2021
4192 Clouds 3 1015 93 9000 1.5 120 16:38 02.01.2021
4193 Clouds 3 1015 91 10000 2.1 130 16:19 02.01.2021
4194 Clouds 3 1015 93 10000 2.1 130 15:41 02.01.2021
4195 Clouds 4 1015 86 10000 1 0 15:21 02.01.2021
4196 Clouds 4 1014 86 10000 1.5 160 14:37 02.01.2021
4197 Clouds 4 1014 83 10000 1.5 180 13:58 02.01.2021
4198 Clouds 4 1014 83 10000 1.5 170 13:38 02.01.2021
4199 Clouds 3 1014 88 10000 1.34 147 12:54 02.01.2021
4200 Clouds 3 1014 86 10000 0.5 0 12:32 02.01.2021
4201 Clouds 2 1015 84 10000 1 0 11:48 02.01.2021
4202 Clouds 2 984 89 10000 1.8 204 11:22 02.01.2021
4203 Clouds 1 1014 92 10000 2.6 150 10:51 02.01.2021
4204 Clouds 1 1014 92 10000 2.6 160 10:28 02.01.2021
4205 Clouds 1 983 89 10000 1.88 202 09:54 02.01.2021
4206 Clouds 1 1013 89 10000 1.34 163 09:23 02.01.2021
4207 Clouds 0 1013 92 9000 2.6 190 08:50 02.01.2021
4208 Clouds 0 1013 92 9000 2.6 190 08:28 02.01.2021
4209 Clouds 0 1013 92 10000 1 0 07:47 02.01.2021
4210 Clouds 0 1013 92 10000 1 0 07:22 02.01.2021
4211 Clouds 0 1013 100 10000 3.1 190 06:46 02.01.2021
4212 Clouds 0 1012 92 10000 3.6 180 05:45 02.01.2021
4213 Clouds 2 1011 91 10000 3.6 200 00:59 02.01.2021
4214 Clouds 2 1011 93 10000 3.6 190 00:37 02.01.2021
4215 Clouds 2 1011 93 10000 2.6 200 23:57 01.01.2021
4216 Clouds 2 1011 90 10000 3.6 190 23:23 01.01.2021
4217 Clouds 3 1010 90 10000 4.1 200 22:48 01.01.2021
4218 Clouds 2 1010 90 10000 4.1 200 22:26 01.01.2021
4219 Clouds 2 1010 100 10000 2.6 230 21:59 01.01.2021
4220 Clouds 2 1010 100 10000 2.6 230 21:41 01.01.2021
4221 Clouds 2 1010 100 10000 2.6 200 21:19 01.01.2021
4222 Clouds 2 1009 100 10000 3.1 200 20:44 01.01.2021
4223 Clouds 2 1009 93 9000 3.6 200 20:18 01.01.2021
4224 Clouds 2 1009 100 6000 3.6 200 19:41 01.01.2021
4225 Clouds 2 1009 100 6000 3.6 220 19:21 01.01.2021
4226 Clouds 2 1009 100 8000 2.6 210 18:45 01.01.2021
4227 Clouds 2 1008 100 8000 2.1 230 18:23 01.01.2021
4228 Clouds 3 1008 100 8000 3.1 230 17:47 01.01.2021
4229 Clouds 3 1008 100 8000 3.1 230 17:23 01.01.2021
4230 Clouds 3 1008 100 7000 2.6 220 16:50 01.01.2021
4231 Clouds 3 1008 100 7000 2.6 220 16:26 01.01.2021
4232 Clouds 3 1007 100 7000 2.6 240 15:42 01.01.2021
4233 Clouds 3 1007 93 6000 2.1 230 14:49 01.01.2021
4234 Drizzle 3 1007 93 5000 2.1 240 14:28 01.01.2021
4235 Drizzle 3 1007 93 5000 2.1 240 13:40 01.01.2021
4236 Drizzle 3 1007 93 4700 2.1 230 13:20 01.01.2021
4237 Drizzle 3 1007 93 4500 2.1 220 12:37 01.01.2021
4238 Mist 3 1007 100 4300 2.1 220 12:18 01.01.2021
4239 Clouds 3 1007 91 10000 1.79 191 11:39 01.01.2021
4240 Drizzle 2 1007 94 3800 2.1 200 11:18 01.01.2021
4241 Drizzle 2 1006 94 4300 2.1 190 10:35 01.01.2021
4242 Snow 2 1006 91 117 2.68 171 09:47 01.01.2021
4243 Snow 2 1006 96 4800 3.1 160 09:20 01.01.2021
4244 Snow 1 1006 96 8000 1 170 08:29 01.01.2021
4245 Clouds 2 1005 86 10000 2.1 140 04:53 01.01.2021
4246 Clouds 2 1005 86 10000 2.1 120 02:56 01.01.2021
4247 Clouds 2 1005 86 10000 2.6 130 01:37 01.01.2021
4248 Clouds 3 1005 85 10000 2.68 161 00:28 01.01.2021
4249 Clouds 2 1005 87 10000 2.6 170 23:37 31.12.2020
4250 Clouds 2 1006 80 10000 2.6 160 23:19 31.12.2020
4251 Clouds 2 1006 86 10000 3.1 170 22:41 31.12.2020
4252 Clouds 2 1006 80 10000 4.1 160 22:21 31.12.2020
4253 Clouds 3 1005 74 10000 4.1 160 21:47 31.12.2020
4254 Clouds 3 1005 74 10000 4.1 160 21:29 31.12.2020
4255 Clear 3 1005 80 10000 4.1 160 20:54 31.12.2020
4256 Clear 3 1005 80 10000 2.6 140 20:24 31.12.2020
4257 Clear 3 1005 80 10000 2.6 130 19:49 31.12.2020
4258 Clear 3 1005 80 10000 2.6 130 19:31 31.12.2020
4259 Clear 3 1005 80 10000 3.1 150 18:50 31.12.2020
4260 Clear 3 1005 80 10000 3.1 150 18:25 31.12.2020
4261 Clear 3 1005 74 10000 3.1 150 17:46 31.12.2020
4262 Clear 3 1005 80 10000 2.6 150 17:25 31.12.2020
4263 Clear 3 1005 80 10000 2.6 150 16:55 31.12.2020
4264 Clear 4 1005 74 10000 2.6 160 16:37 31.12.2020
4265 Clear 4 1005 82 10000 2.6 190 16:18 31.12.2020
4266 Clear 4 1005 82 10000 3.6 190 15:42 31.12.2020
4267 Clear 5 1005 79 10000 3.6 190 15:18 31.12.2020
4268 Clear 5 1005 79 10000 3.6 190 14:40 31.12.2020
4269 Clear 5 1005 76 10000 4.1 200 14:22 31.12.2020
4270 Clear 5 1005 76 10000 4.1 200 13:57 31.12.2020
4271 Clear 5 1005 76 10000 4.1 210 13:36 31.12.2020
4272 Clear 5 1006 76 10000 4.6 200 13:18 31.12.2020
4273 Clear 5 1006 76 10000 4.1 190 12:45 31.12.2020
4274 Clear 5 1006 78 10000 4.1 190 12:26 31.12.2020
4275 Clear 3 1006 78 10000 5.1 180 11:46 31.12.2020
4276 Clear 3 1006 82 10000 5.1 180 11:28 31.12.2020
4277 Clear 3 1006 82 10000 4.6 190 10:41 31.12.2020
4278 Clear 2 1006 88 10000 4.1 190 10:22 31.12.2020
4279 Clear 2 1006 88 10000 3.1 170 09:47 31.12.2020
4280 Clear 1 1006 92 10000 3.1 170 09:23 31.12.2020
4281 Clear 1 1006 86 10000 3.1 200 08:46 31.12.2020
4282 Clear 1 1006 86 10000 3.1 200 08:46 31.12.2020
4283 Clear 1 1006 92 10000 3.1 200 08:28 31.12.2020
4284 Clear 2 1006 92 10000 3.1 200 07:54 31.12.2020
4285 Clear 2 1005 88 10000 3.6 190 07:24 31.12.2020
4286 Clear 2 1005 88 10000 5.1 200 05:30 31.12.2020
4287 Clouds 2 1005 90 10000 4.1 200 03:36 31.12.2020
4288 Clouds 2 1005 91 10000 3.1 190 02:36 31.12.2020
4289 Clouds 2 1004 91 10000 3.1 190 01:56 31.12.2020
4290 Clouds 2 1004 91 10000 3.1 190 01:37 31.12.2020
4291 Clouds 2 1004 91 10000 4.1 220 00:59 31.12.2020
4292 Clouds 2 1004 91 10000 4.1 190 00:39 31.12.2020
4293 Clear 2 1004 91 10000 4.6 190 23:41 30.12.2020
4294 Clear 2 1004 86 10000 4.6 190 23:18 30.12.2020
4295 Clear 2 1004 93 10000 4.1 200 22:43 30.12.2020
4296 Clouds 2 1004 86 10000 4.1 190 22:23 30.12.2020
4297 Clouds 2 1004 88 10000 3.6 190 21:38 30.12.2020
4298 Clouds 2 1003 88 10000 3.1 180 21:19 30.12.2020
4299 Clear 3 1003 88 10000 3.1 180 20:41 30.12.2020
4300 Clear 3 1003 89 10000 3.1 190 20:20 30.12.2020
4301 Clouds 3 1003 89 10000 3.6 190 19:39 30.12.2020
4302 Clouds 3 1003 89 10000 3.6 200 19:20 30.12.2020
4303 Clouds 4 1003 86 10000 4.1 200 18:44 30.12.2020
4304 Clouds 4 1002 80 10000 4.1 180 18:24 30.12.2020
4305 Clouds 4 1002 80 10000 3.6 180 17:50 30.12.2020
4306 Clouds 5 1002 80 10000 3.6 180 17:32 30.12.2020
4307 Clouds 4 1002 80 10000 3.6 180 16:52 30.12.2020
4308 Clouds 5 1002 80 10000 4.1 220 16:29 30.12.2020
4309 Clear 5 1001 75 10000 4.1 220 15:47 30.12.2020
4310 Clouds 5 1001 75 10000 3.6 220 15:24 30.12.2020
4311 Clouds 5 1001 70 10000 4.1 230 14:44 30.12.2020
4312 Clear 5 1001 75 10000 4.1 200 14:22 30.12.2020
4313 Clear 5 1001 75 10000 4.1 210 13:29 30.12.2020
4314 Clear 4 1001 80 10000 3.6 190 12:40 30.12.2020
4315 Clear 4 1001 85 10000 2.24 212 12:20 30.12.2020
4316 Clouds 2 1001 82 10000 3.6 190 11:36 30.12.2020
4317 Clouds 2 1001 82 10000 3.6 190 11:18 30.12.2020
4318 Clouds 2 1001 86 10000 4.1 200 10:43 30.12.2020
4319 Clouds 2 1001 88 10000 3.6 190 10:25 30.12.2020
4320 Clear 1 1001 92 10000 3.1 180 09:49 30.12.2020
4321 Clouds 0 1000 92 10000 3.1 170 09:28 30.12.2020
4322 Clouds 0 1000 92 10000 4.1 180 08:28 30.12.2020
4323 Clouds 1 999 95 10000 3.6 190 07:30 30.12.2020
4324 Clouds 1 999 96 10000 4.6 190 06:52 30.12.2020
4325 Clouds 1 999 95 10000 4.6 190 06:31 30.12.2020
4326 Clear 1 998 95 10000 3.1 180 05:44 30.12.2020
4327 Clear 1 998 93 10000 3.1 180 05:25 30.12.2020
4328 Clear 1 998 89 10000 4.1 180 03:28 30.12.2020
4329 Clear 1 998 89 10000 4.1 180 02:42 30.12.2020
4330 Clear 1 998 86 10000 5.1 180 01:56 30.12.2020
4331 Clear 2 998 86 10000 5.1 180 01:33 30.12.2020
4332 Clear 2 997 86 10000 5.1 200 00:50 30.12.2020
4333 Clear 2 997 86 10000 5.1 200 00:30 30.12.2020
4334 Clear 2 997 87 10000 6.2 190 23:56 29.12.2020
4335 Clear 2 997 87 10000 6.2 190 23:37 29.12.2020
4336 Clear 2 996 86 10000 6.2 190 23:18 29.12.2020
4337 Clear 3 996 86 10000 5.7 200 22:40 29.12.2020
4338 Clear 3 995 85 10000 4.6 200 22:22 29.12.2020
4339 Clear 3 995 93 10000 5.1 200 21:46 29.12.2020
4340 Clear 3 995 86 10000 6.2 210 21:26 29.12.2020
4341 Clear 3 994 93 10000 6.2 210 20:48 29.12.2020
4342 Clear 3 994 93 10000 5.7 210 20:26 29.12.2020
4343 Clear 3 993 93 10000 4.6 210 19:56 29.12.2020
4344 Clear 3 993 93 10000 4.6 210 19:36 29.12.2020
4345 Clear 3 993 93 10000 4.6 210 19:18 29.12.2020
4346 Clouds 3 993 93 10000 5.1 220 18:39 29.12.2020
4347 Clouds 3 992 93 10000 5.7 230 18:18 29.12.2020
4348 Clouds 4 991 86 10000 4.6 220 17:38 29.12.2020
4349 Clouds 4 991 86 10000 4.6 220 17:38 29.12.2020
4350 Clouds 4 991 86 10000 5.7 230 17:19 29.12.2020
4351 Clouds 4 990 86 10000 4.1 220 16:36 29.12.2020
4352 Clouds 4 990 93 10000 3.1 180 15:59 29.12.2020
4353 Clouds 4 989 93 10000 3.1 160 15:36 29.12.2020
4354 Clouds 4 989 86 10000 2.6 170 14:58 29.12.2020
4355 Clouds 4 988 86 10000 4.1 190 14:36 29.12.2020
4356 Clouds 4 988 86 10000 3.6 170 14:18 29.12.2020
4357 Clouds 4 988 86 10000 2.6 160 13:39 29.12.2020
4358 Clouds 4 987 86 10000 2.6 160 13:18 29.12.2020
4359 Clouds 3 987 93 10000 3.1 170 12:37 29.12.2020
4360 Clouds 3 987 77 10000 3.6 170 12:19 29.12.2020
4361 Clouds 3 987 77 10000 3.6 170 11:52 29.12.2020
4362 Clouds 2 987 83 10000 3.6 160 11:31 29.12.2020
4363 Clear 1 986 87 10000 3.6 170 10:30 29.12.2020
4364 Clear 1 985 87 10000 2.1 160 09:49 29.12.2020
4365 Clear 1 984 92 10000 2.6 190 09:20 29.12.2020
4366 Clear 1 984 92 10000 3.1 200 08:53 29.12.2020
4367 Clear 1 984 92 10000 4.1 200 08:23 29.12.2020
4368 Clear 1 983 94 10000 3.1 200 07:26 29.12.2020
4369 Clouds 2 983 93 10000 3.6 190 06:27 29.12.2020
4370 Clouds 2 983 100 10000 4.1 160 05:25 29.12.2020
4371 Rain 2 983 93 10000 1 0 00:49 29.12.2020
4372 Rain 2 983 93 10000 1.5 70 00:21 29.12.2020
4373 Rain 3 983 93 10000 1.5 110 23:36 28.12.2020
4374 Rain 3 983 87 10000 3.6 130 22:28 28.12.2020
4375 Clear 3 984 87 10000 4.6 120 21:46 28.12.2020
4376 Clear 3 984 83 10000 4.6 120 21:28 28.12.2020
4377 Clouds 3 984 83 10000 3.6 100 20:44 28.12.2020
4378 Clouds 3 984 83 10000 3.6 120 20:24 28.12.2020
4379 Clouds 3 984 83 10000 4.6 120 19:50 28.12.2020
4380 Clouds 3 984 86 10000 3.6 120 19:26 28.12.2020
4381 Rain 3 984 87 10000 3.6 120 18:59 28.12.2020
4382 Rain 3 984 86 10000 3.6 120 18:32 28.12.2020
4383 Clear 3 984 80 10000 3.6 120 17:55 28.12.2020
4384 Clear 3 984 80 10000 3.6 120 17:37 28.12.2020
4385 Clouds 3 984 80 10000 3.6 120 17:18 28.12.2020
4386 Clouds 4 984 74 10000 3.1 120 16:31 28.12.2020
4387 Clouds 4 984 82 10000 3.1 130 15:54 28.12.2020
4388 Clouds 4 983 79 10000 4.02 170 15:36 28.12.2020
4389 Clouds 5 984 77 10000 4.6 160 14:35 28.12.2020
4390 Clear 5 983 77 10000 5.1 150 13:49 28.12.2020
4391 Clear 5 983 77 10000 5.1 150 13:22 28.12.2020
4392 Clouds 4 983 77 10000 5.1 150 12:38 28.12.2020
4393 Clouds 4 984 69 10000 4.6 150 12:18 28.12.2020
4394 Clouds 4 984 74 10000 4.6 150 11:42 28.12.2020
4395 Clouds 3 984 74 10000 5.1 150 11:18 28.12.2020
4396 Clouds 3 984 74 10000 5.1 140 10:38 28.12.2020
4397 Clouds 3 984 85 10000 4.1 130 10:19 28.12.2020
4398 Clear 2 984 80 10000 4.1 130 09:38 28.12.2020
4399 Clear 2 983 80 10000 4.6 120 09:18 28.12.2020
4400 Clear 2 984 80 10000 4.6 130 06:55 28.12.2020
4401 Clouds 2 985 80 10000 3.1 120 05:34 28.12.2020
4402 Clear 2 986 74 10000 4.1 150 03:59 28.12.2020
4403 Clear 3 987 64 10000 6.2 150 01:56 28.12.2020
4404 Clear 2 987 59 10000 7.2 160 00:29 28.12.2020
4405 Clear 2 988 59 10000 7.2 150 23:45 27.12.2020
4406 Clear 2 988 59 10000 7.2 150 23:18 27.12.2020
4407 Clear 2 988 59 10000 8.7 150 21:56 27.12.2020
4408 Clear 2 989 59 10000 8.2 150 21:25 27.12.2020
4409 Clear 2 990 55 10000 8.2 150 20:42 27.12.2020
4410 Clouds 2 990 63 10000 7.15 158 19:25 27.12.2020
4411 Clear 2 992 55 10000 8.7 150 18:55 27.12.2020
4412 Clear 2 992 55 10000 8.7 150 18:37 27.12.2020
4413 Clear 2 993 55 10000 8.7 150 18:18 27.12.2020
4414 Clear 2 993 55 10000 7.7 160 17:43 27.12.2020
4415 Clear 2 994 50 10000 8.2 150 17:22 27.12.2020
4416 Clouds 2 995 47 10000 8.7 150 16:32 27.12.2020
4417 Clear 2 995 47 10000 9.3 160 15:54 27.12.2020
4418 Clear 2 997 55 10000 8.2 160 14:59 27.12.2020
4419 Clear 2 997 55 10000 8.2 160 14:40 27.12.2020
4420 Clear 2 998 55 10000 8.2 160 14:19 27.12.2020
4421 Clear 2 999 55 10000 8.7 170 13:22 27.12.2020
4422 Clear 2 999 55 10000 8.7 170 12:47 27.12.2020
4423 Clouds 2 1000 67 10000 8.05 162 12:18 27.12.2020
4424 Clear 2 1002 64 10000 8.2 170 11:39 27.12.2020
4425 Clear 2 1002 59 10000 10.3 170 10:52 27.12.2020
4426 Clear 2 1002 59 10000 10.3 170 10:25 27.12.2020
4427 Clear 1 1002 64 10000 11.3 170 09:53 27.12.2020
4428 Clear 2 1003 69 10000 8.7 180 08:50 27.12.2020
4429 Clear 1 1004 69 10000 8.2 180 08:26 27.12.2020
4430 Clear 2 1005 74 10000 7.7 180 07:27 27.12.2020
4431 Clear 2 1007 74 10000 7.7 190 05:46 27.12.2020
4432 Clear 2 1007 80 10000 8.2 190 04:58 27.12.2020
4433 Clouds 2 1009 84 10000 6.26 191 03:22 27.12.2020
4434 Clouds 2 1012 74 10000 7.7 200 01:35 27.12.2020
4435 Clouds 2 1013 87 10000 4.47 198 00:24 27.12.2020
4436 Clouds 2 1014 80 10000 6.2 190 23:41 26.12.2020
4437 Clouds 1 1014 86 10000 6.2 190 23:21 26.12.2020
4438 Clouds 2 1015 80 10000 6.2 200 22:38 26.12.2020
4439 Clouds 2 1015 86 10000 6.2 200 22:18 26.12.2020
4440 Clouds 2 1015 86 10000 6.2 200 22:18 26.12.2020
4441 Clouds 2 1016 86 10000 6.2 200 21:52 26.12.2020
4442 Clouds 2 1016 80 10000 6.2 200 21:24 26.12.2020
4443 Clouds 2 1016 80 10000 7.2 200 20:43 26.12.2020
4444 Clouds 2 1017 80 10000 7.2 210 20:20 26.12.2020
4445 Clear 2 1017 81 10000 6.2 210 19:30 26.12.2020
4446 Clear 2 1017 81 10000 6.2 200 18:54 26.12.2020
4447 Clouds 2 1017 90 10000 4.02 204 18:32 26.12.2020
4448 Clouds 2 1018 81 10000 5.1 210 17:46 26.12.2020
4449 Clouds 2 1018 81 10000 5.1 210 17:28 26.12.2020
4450 Clouds 2 1019 81 10000 4.6 200 16:38 26.12.2020
4451 Clouds 2 1019 81 10000 5.1 200 15:59 26.12.2020
4452 Clouds 2 1019 82 10000 4.6 220 15:20 26.12.2020
4453 Clouds 2 1020 83 10000 4.6 220 14:38 26.12.2020
4454 Clouds 2 1020 83 10000 4.6 220 14:19 26.12.2020
4455 Clouds 2 1020 86 10000 5.1 230 13:37 26.12.2020
4456 Snow 2 1021 80 10000 4.6 230 12:58 26.12.2020
4457 Clouds 2 1021 80 10000 4.1 240 12:39 26.12.2020
4458 Clouds 2 1021 80 10000 4.1 240 12:39 26.12.2020
4459 Clouds 1 1021 80 10000 4.6 230 12:19 26.12.2020
4460 Clouds 1 1021 86 10000 4.1 220 11:42 26.12.2020
4461 Clouds 1 1021 89 10000 4.1 240 11:20 26.12.2020
4462 Clouds 1 1021 89 10000 4.1 240 10:47 26.12.2020
4463 Clouds 1 1021 92 10000 4.1 240 10:26 26.12.2020
4464 Clouds 0 1021 92 10000 5.7 250 09:47 26.12.2020
4465 Clouds 0 991 90 10000 2.93 225 08:55 26.12.2020
4466 Clouds 0 1021 86 10000 3.6 230 08:20 26.12.2020
4467 Clouds 0 1021 96 10000 3.6 250 07:21 26.12.2020
4468 Clouds 1 1021 95 10000 4.1 270 05:52 26.12.2020
4469 Clouds 1 1020 86 10000 4.6 270 02:48 26.12.2020
4470 Clouds 2 1020 86 10000 4.1 260 00:42 26.12.2020
4471 Clouds 2 1020 86 10000 4.1 270 23:59 25.12.2020
4472 Clouds 2 1020 80 10000 5.7 280 23:39 25.12.2020
4473 Clouds 2 1020 80 10000 6.2 280 23:20 25.12.2020
4474 Clouds 2 1020 80 10000 5.1 280 22:37 25.12.2020
4475 Clouds 2 1020 88 10000 4.1 280 21:50 25.12.2020
4476 Clouds 2 1020 87 10000 4.6 280 21:32 25.12.2020
4477 Clouds 3 1020 87 10000 5.1 280 20:49 25.12.2020
4478 Clouds 3 1020 86 10000 5.1 280 20:30 25.12.2020
4479 Clouds 3 1020 86 10000 4.1 290 19:47 25.12.2020
4480 Clouds 3 1020 84 10000 4.1 290 18:58 25.12.2020
4481 Clouds 3 1019 89 10000 4.6 290 18:38 25.12.2020
4482 Clouds 3 1019 86 10000 3.6 290 17:40 25.12.2020
4483 Clouds 3 1019 82 10000 4.6 320 17:21 25.12.2020
4484 Clouds 3 1019 79 10000 4.6 290 16:33 25.12.2020
4485 Clouds 3 1018 74 10000 5.1 300 15:58 25.12.2020
4486 Clouds 3 1018 74 10000 5.1 300 15:36 25.12.2020
4487 Clouds 3 1018 77 10000 5.7 290 14:50 25.12.2020
4488 Clouds 3 1018 77 10000 5.7 290 14:29 25.12.2020
4489 Clouds 3 1018 77 10000 5.7 290 14:29 25.12.2020
4490 Clouds 4 1018 77 10000 5.1 290 13:44 25.12.2020
4491 Clouds 4 1018 78 10000 5.1 290 13:26 25.12.2020
4492 Clouds 4 1018 78 10000 5.1 310 12:45 25.12.2020
4493 Clouds 4 1017 86 10000 5.7 310 12:23 25.12.2020
4494 Clouds 3 1017 79 10000 5.7 310 11:44 25.12.2020
4495 Clouds 3 1017 86 10000 5.1 310 11:20 25.12.2020
4496 Clouds 3 1017 86 10000 5.7 320 10:27 25.12.2020
4497 Clouds 3 1016 86 10000 4.1 310 09:43 25.12.2020
4498 Clouds 3 1015 89 10000 4.6 330 08:49 25.12.2020
4499 Clouds 3 1015 88 10000 4.6 330 08:27 25.12.2020
4500 Clouds 3 1014 86 10000 3.6 340 06:48 25.12.2020
4501 Clouds 4 1013 80 10000 6.2 340 04:47 25.12.2020
4502 Clouds 4 1011 86 10000 3.1 320 02:19 25.12.2020
4503 Clouds 4 1010 93 10000 3.6 310 00:19 25.12.2020
4504 Clouds 5 1010 86 10000 4.1 310 23:28 24.12.2020
4505 Clouds 5 1010 86 10000 4.1 310 22:53 24.12.2020
4506 Clouds 5 1010 86 10000 4.1 290 22:23 24.12.2020
4507 Clouds 5 1009 86 10000 4.1 290 21:42 24.12.2020
4508 Clouds 5 1009 86 10000 4.1 310 20:48 24.12.2020
4509 Clouds 5 1008 86 10000 4.1 310 19:34 24.12.2020
4510 Clouds 4 1006 93 10000 5.1 310 18:21 24.12.2020
4511 Clouds 4 1006 93 10000 5.7 310 17:38 24.12.2020
4512 Clouds 4 1005 86 10000 6.2 310 17:20 24.12.2020
4513 Drizzle 4 1004 93 9000 6.7 310 16:25 24.12.2020
4514 Rain 4 1004 93 9000 6.7 320 15:43 24.12.2020
4515 Drizzle 4 1002 86 7000 7.7 300 15:21 24.12.2020
4516 Rain 4 1002 86 7000 7.7 300 14:56 24.12.2020
4517 Drizzle 5 1002 86 10000 9.8 260 14:24 24.12.2020
4518 Clouds 6 1001 87 10000 9.3 260 13:49 24.12.2020
4519 Clouds 7 1001 86 10000 6.71 249 13:30 24.12.2020
4520 Clouds 7 1001 81 10000 9.3 250 12:58 24.12.2020
4521 Clouds 8 1001 75 10000 8.7 240 12:38 24.12.2020
4522 Clouds 8 1002 75 10000 8.2 240 12:18 24.12.2020
4523 Clouds 8 1002 75 10000 8.7 230 11:38 24.12.2020
4524 Clouds 8 1002 75 10000 8.2 230 11:19 24.12.2020
4525 Rain 8 1002 75 10000 8.7 240 10:43 24.12.2020
4526 Clouds 8 1002 75 10000 8.7 230 10:20 24.12.2020
4527 Rain 8 1002 81 10000 7.2 220 09:50 24.12.2020
4528 Clouds 8 1002 81 10000 6.2 240 08:50 24.12.2020
4529 Clouds 9 1002 87 10000 9.8 230 07:56 24.12.2020
4530 Clouds 9 1002 87 10000 9.8 230 07:37 24.12.2020
4531 Clouds 10 1002 87 10000 6.7 230 06:27 24.12.2020
4532 Clouds 10 1003 93 10000 6.2 230 03:51 24.12.2020
4533 Clouds 10 1003 100 10000 5.1 230 01:52 24.12.2020
4534 Clouds 10 1004 93 10000 6.2 240 01:23 24.12.2020
4535 Clouds 10 1004 93 10000 6.2 230 00:44 24.12.2020
4536 Clouds 10 1004 100 9000 3.6 200 00:19 24.12.2020
4537 Clouds 9 1004 100 10000 4.1 200 23:40 23.12.2020
4538 Clouds 9 1004 100 7000 4.6 160 23:21 23.12.2020
4539 Clouds 9 1004 100 6000 3.1 150 22:48 23.12.2020
4540 Rain 9 1005 93 5000 2.6 150 22:27 23.12.2020
4541 Rain 8 1005 100 6000 3.1 150 21:49 23.12.2020
4542 Rain 8 1006 100 7000 3.1 150 21:23 23.12.2020
4543 Rain 8 1006 100 7000 2.6 140 20:46 23.12.2020
4544 Rain 8 1006 100 7000 2.6 140 20:28 23.12.2020
4545 Rain 8 1007 93 8000 3.6 140 19:59 23.12.2020
4546 Clouds 8 1008 100 8000 4.1 130 19:38 23.12.2020
4547 Rain 8 1008 100 6000 4.6 130 19:19 23.12.2020
4548 Rain 8 1009 100 6000 4.1 130 18:46 23.12.2020
4549 Rain 7 1009 93 6000 4.1 120 18:21 23.12.2020
4550 Drizzle 7 1009 93 6000 4.1 120 17:37 23.12.2020
4551 Clouds 7 1010 93 10000 3.6 110 17:19 23.12.2020
4552 Clouds 7 1011 93 10000 3.1 120 16:42 23.12.2020
4553 Clouds 8 1011 93 10000 4.6 120 16:24 23.12.2020
4554 Clouds 8 1011 87 10000 4.6 130 15:54 23.12.2020
4555 Clouds 8 1012 87 10000 3.6 110 15:28 23.12.2020
4556 Clouds 8 1012 87 10000 3.6 110 14:58 23.12.2020
4557 Rain 8 981 93 10000 2.22 110 14:39 23.12.2020
4558 Rain 8 1013 87 10000 3.1 120 14:20 23.12.2020
4559 Clouds 8 1013 87 10000 3.6 130 13:43 23.12.2020
4560 Clouds 8 1013 87 10000 2.6 140 13:19 23.12.2020
4561 Clouds 8 1014 87 10000 2.6 140 12:52 23.12.2020
4562 Clouds 8 1014 87 10000 2.6 140 12:28 23.12.2020
4563 Clouds 8 1015 81 10000 3.1 140 11:49 23.12.2020
4564 Clouds 8 1015 81 10000 2.6 120 11:21 23.12.2020
4565 Clouds 7 1015 81 10000 2.1 130 10:50 23.12.2020
4566 Clouds 7 1015 81 10000 2.1 130 10:32 23.12.2020
4567 Clouds 7 1015 87 10000 1.5 120 09:36 23.12.2020
4568 Clouds 7 1015 87 10000 1.5 150 08:51 23.12.2020
4569 Clouds 7 1015 87 10000 1.5 90 08:22 23.12.2020
4570 Clouds 7 1015 87 10000 1 0 07:37 23.12.2020
4571 Clouds 7 1015 81 10000 1 230 06:41 23.12.2020
4572 Clouds 7 1015 87 10000 1 140 05:55 23.12.2020
4573 Clouds 7 1014 93 10000 0.5 110 05:20 23.12.2020
4574 Rain 7 1015 81 10000 2.1 300 01:57 23.12.2020
4575 Clouds 8 1014 87 10000 3.1 290 00:32 23.12.2020
4576 Clouds 9 1014 87 10000 4.6 290 23:43 22.12.2020
4577 Clouds 9 1014 87 10000 3.1 290 23:22 22.12.2020
4578 Clouds 9 1014 87 10000 3.6 280 22:42 22.12.2020
4579 Clouds 9 1014 87 10000 2.6 270 22:24 22.12.2020
4580 Clouds 9 1013 87 10000 2.1 270 21:52 22.12.2020
4581 Clouds 9 1013 87 10000 4.1 290 21:21 22.12.2020
4582 Clouds 9 1013 87 10000 4.1 290 20:54 22.12.2020
4583 Clouds 10 1013 81 10000 4.6 300 20:35 22.12.2020
4584 Clouds 10 1012 81 10000 6.7 290 19:59 22.12.2020
4585 Clouds 10 1012 81 10000 7.2 300 19:41 22.12.2020
4586 Clouds 10 1011 87 10000 7.7 300 19:20 22.12.2020
4587 Clouds 11 1011 87 10000 6.7 270 18:44 22.12.2020
4588 Clouds 11 1010 87 10000 7.7 270 18:24 22.12.2020
4589 Clouds 12 1010 87 10000 8.7 260 17:41 22.12.2020
4590 Clouds 12 1010 87 10000 8.7 260 17:18 22.12.2020
4591 Clouds 12 1010 87 10000 8.7 260 17:18 22.12.2020
4592 Clouds 12 1009 87 10000 7.2 240 16:47 22.12.2020
4593 Clouds 13 1008 87 10000 7.2 240 16:21 22.12.2020
4594 Clouds 13 1008 87 10000 7.7 240 15:49 22.12.2020
4595 Clouds 13 1008 87 10000 7.7 240 15:31 22.12.2020
4596 Clouds 13 1008 93 10000 7.2 240 14:59 22.12.2020
4597 Rain 13 1008 93 10000 7.2 240 14:41 22.12.2020
4598 Clouds 13 1008 87 10000 8.2 240 14:22 22.12.2020
4599 Clouds 13 1008 87 10000 8.2 240 13:47 22.12.2020
4600 Clouds 12 1007 87 10000 6.2 230 13:19 22.12.2020
4601 Clouds 12 1007 87 10000 6.2 230 12:55 22.12.2020
4602 Clouds 12 1007 93 10000 7.7 230 12:37 22.12.2020
4603 Clouds 12 1007 87 10000 8.7 230 12:18 22.12.2020
4604 Clouds 11 1007 93 10000 8.7 240 11:40 22.12.2020
4605 Clouds 11 1007 93 10000 7.2 230 11:21 22.12.2020
4606 Clouds 10 1007 93 10000 7.2 230 10:54 22.12.2020
4607 Clouds 10 1007 87 10000 8.2 220 10:26 22.12.2020
4608 Clouds 10 1007 87 10000 8.2 220 09:58 22.12.2020
4609 Clouds 9 1007 93 10000 7.7 220 09:29 22.12.2020
4610 Clouds 9 1007 93 4000 7.7 210 08:57 22.12.2020
4611 Clouds 8 1007 93 4000 7.7 210 08:38 22.12.2020
4612 Rain 8 1007 100 4000 6.2 200 07:57 22.12.2020
4613 Rain 8 1007 100 8000 7.2 190 07:27 22.12.2020
4614 Rain 7 977 99 4576 6.11 199 06:31 22.12.2020
4615 Rain 6 1009 93 10000 6.2 160 05:30 22.12.2020
4616 Clouds 6 1013 86 10000 6.7 160 02:24 22.12.2020
4617 Clouds 5 1015 86 10000 6.2 150 00:25 22.12.2020
4618 Clouds 4 1016 86 10000 6.2 150 23:46 21.12.2020
4619 Rain 4 1017 86 10000 5.7 160 23:22 21.12.2020
4620 Rain 4 1017 93 10000 5.7 160 22:37 21.12.2020
4621 Rain 4 1017 86 10000 5.1 150 22:18 21.12.2020
4622 Clear 4 1018 86 10000 5.1 150 21:47 21.12.2020
4623 Clear 4 1018 86 10000 5.1 150 21:28 21.12.2020
4624 Clear 4 1018 93 10000 5.1 150 20:45 21.12.2020
4625 Clear 4 1019 86 10000 5.1 150 20:21 21.12.2020
4626 Clear 4 1019 86 10000 5.1 150 19:54 21.12.2020
4627 Clear 4 1019 86 10000 5.1 160 19:36 21.12.2020
4628 Clear 4 1019 93 10000 4.1 150 19:18 21.12.2020
4629 Clear 4 1020 93 10000 3.6 150 18:44 21.12.2020
4630 Clear 4 1020 100 10000 3.6 150 18:25 21.12.2020
4631 Clear 4 1020 93 10000 3.1 150 17:42 21.12.2020
4632 Clouds 5 1021 86 10000 3.1 160 17:23 21.12.2020
4633 Clouds 5 1021 86 10000 3.1 160 16:45 21.12.2020
4634 Clouds 5 1021 86 10000 3.6 170 16:21 21.12.2020
4635 Clouds 6 1021 81 10000 3.1 170 15:43 21.12.2020
4636 Clouds 6 1021 81 10000 3.6 170 15:18 21.12.2020
4637 Clouds 7 1021 81 10000 3.6 170 14:54 21.12.2020
4638 Clouds 7 1022 87 10000 4.6 220 14:20 21.12.2020
4639 Clouds 7 1022 87 10000 4.1 210 13:42 21.12.2020
4640 Clouds 7 1022 87 10000 4.6 210 13:22 21.12.2020
4641 Clouds 7 1022 87 10000 4.6 220 12:43 21.12.2020
4642 Clouds 6 1023 87 10000 3.6 210 12:23 21.12.2020
4643 Clouds 6 1023 86 10000 3.6 200 11:43 21.12.2020
4644 Clouds 5 1023 93 10000 3.1 200 11:23 21.12.2020
4645 Clouds 5 1023 93 10000 3.1 200 10:58 21.12.2020
4646 Clear 5 1023 93 10000 3.1 200 10:40 21.12.2020
4647 Clear 4 1023 93 10000 3.6 190 10:18 21.12.2020
4648 Clear 4 1022 100 10000 2.6 180 09:42 21.12.2020
4649 Clear 4 1022 100 10000 2.6 180 09:24 21.12.2020
4650 Clouds 4 1022 93 10000 3.6 190 08:47 21.12.2020
4651 Clouds 4 1022 100 10000 3.1 190 07:48 21.12.2020
4652 Clouds 5 1022 93 10000 3.1 190 06:22 21.12.2020
4653 Clouds 5 1022 93 10000 2.6 180 04:32 21.12.2020
4654 Rain 4 1022 93 10000 2.6 190 01:25 21.12.2020
4655 Rain 4 1022 93 10000 2.6 180 00:31 21.12.2020
4656 Rain 4 1021 87 10000 2.24 192 23:34 20.12.2020
4657 Rain 5 1021 85 10000 2.24 192 22:59 20.12.2020
4658 Clouds 5 1021 85 10000 2.24 180 22:40 20.12.2020
4659 Clouds 5 1021 85 10000 2.24 183 22:21 20.12.2020
4660 Clear 4 1021 86 10000 2.6 160 21:40 20.12.2020
4661 Clear 5 1021 80 10000 2.6 160 21:20 20.12.2020
4662 Clear 5 1021 80 10000 3.6 170 20:51 20.12.2020
4663 Clouds 5 1021 80 10000 3.6 170 20:24 20.12.2020
4664 Rain 5 1021 80 10000 3.6 170 19:49 20.12.2020
4665 Rain 5 1021 80 10000 4.1 160 19:31 20.12.2020
4666 Rain 5 1020 80 10000 3.6 160 18:58 20.12.2020
4667 Clear 5 1020 86 10000 3.1 160 18:40 20.12.2020
4668 Rain 5 1020 86 10000 3.6 150 18:22 20.12.2020
4669 Clear 5 1020 86 10000 3.6 150 17:44 20.12.2020
4670 Clear 5 1020 86 10000 3.6 150 17:23 20.12.2020
4671 Clear 5 1020 80 10000 3.6 150 16:45 20.12.2020
4672 Clear 5 1020 80 10000 4.1 140 16:27 20.12.2020
4673 Clear 5 1020 80 10000 3.6 130 15:49 20.12.2020
4674 Clear 5 1020 75 10000 4.1 130 15:25 20.12.2020
4675 Clear 5 1020 75 10000 2.6 140 14:54 20.12.2020
4676 Clear 5 1020 75 10000 2.6 140 14:33 20.12.2020
4677 Clear 5 1021 80 10000 3.6 170 13:47 20.12.2020
4678 Clear 5 1021 80 10000 3.6 170 13:28 20.12.2020
4679 Clear 5 1021 80 10000 3.6 160 12:58 20.12.2020
4680 Clear 5 1021 80 10000 4.1 160 12:39 20.12.2020
4681 Clouds 5 1021 85 10000 3.58 138 12:21 20.12.2020
4682 Clear 4 1021 68 10000 4.1 150 11:44 20.12.2020
4683 Clear 3 1021 71 10000 3.1 140 11:25 20.12.2020
4684 Clouds 3 1021 91 10000 2.24 152 10:48 20.12.2020
4685 Clouds 2 1021 91 10000 2.24 159 10:20 20.12.2020
4686 Clouds 2 1021 91 10000 3.58 140 09:46 20.12.2020
4687 Clear 1 1021 78 10000 3.6 140 09:27 20.12.2020
4688 Clear 1 1021 78 10000 3.6 140 09:27 20.12.2020
4689 Clear 2 1021 78 10000 4.1 150 08:59 20.12.2020
4690 Clear 1 1021 78 10000 4.6 150 08:40 20.12.2020
4691 Clear 2 1021 78 10000 3.6 150 07:29 20.12.2020
4692 Clear 2 1021 77 10000 3.1 150 06:28 20.12.2020
4693 Clear 2 1021 75 10000 3.1 150 02:37 20.12.2020
4694 Clear 2 1020 78 10000 5.1 150 00:53 20.12.2020
4695 Clouds 3 1020 90 10000 3.13 165 23:36 19.12.2020
4696 Clear 3 1020 77 10000 5.7 150 23:18 19.12.2020
4697 Clear 3 1021 77 10000 4.6 150 22:42 19.12.2020
4698 Clear 3 1020 93 10000 5.7 150 22:24 19.12.2020
4699 Clear 3 1020 93 10000 3.6 150 21:45 19.12.2020
4700 Clear 3 1020 93 10000 3.6 150 21:26 19.12.2020
4701 Clear 3 1020 86 10000 3.6 150 20:58 19.12.2020
4702 Clear 4 1020 86 10000 4.1 150 20:36 19.12.2020
4703 Clear 4 1020 86 10000 3.6 160 20:18 19.12.2020
4704 Clear 4 1020 86 10000 3.6 150 19:41 19.12.2020
4705 Clear 4 1020 86 10000 3.6 150 19:23 19.12.2020
4706 Clear 5 1020 86 10000 4.1 150 18:34 19.12.2020
4707 Clear 5 1020 86 10000 4.1 150 17:57 19.12.2020
4708 Clear 5 1020 86 10000 4.1 140 17:37 19.12.2020
4709 Clear 5 1020 80 10000 4.6 150 17:19 19.12.2020
4710 Clear 6 1020 80 10000 4.1 160 16:40 19.12.2020
4711 Clear 6 1020 80 10000 4.1 160 16:22 19.12.2020
4712 Clear 6 1020 81 10000 4.6 160 15:54 19.12.2020
4713 Clear 7 1019 75 10000 5.1 150 15:26 19.12.2020
4714 Clear 7 1020 75 10000 5.1 140 14:39 19.12.2020
4715 Clear 7 1020 75 10000 4.1 150 13:59 19.12.2020
4716 Clear 7 1020 81 10000 4.6 160 13:41 19.12.2020
4717 Clear 6 1020 75 10000 4.1 150 13:19 19.12.2020
4718 Clear 6 1020 80 10000 4.1 160 12:42 19.12.2020
4719 Clear 6 1020 80 10000 4.1 150 12:24 19.12.2020
4720 Clear 5 1020 80 10000 4.1 150 11:56 19.12.2020
4721 Clear 4 1021 86 10000 3.6 150 11:35 19.12.2020
4722 Clear 3 1020 93 10000 4.6 150 10:43 19.12.2020
4723 Clear 2 1020 81 10000 4.1 140 10:23 19.12.2020
4724 Clear 2 1020 81 10000 5.1 150 09:47 19.12.2020
4725 Clear 1 1020 86 10000 5.1 150 09:29 19.12.2020
4726 Clear 1 1021 87 10000 2.6 140 08:36 19.12.2020
4727 Clear 0 1021 100 10000 1.5 130 07:25 19.12.2020
4728 Clear 1 1021 100 10000 2.1 120 06:53 19.12.2020
4729 Clear 0 1021 100 10000 2.1 130 06:20 19.12.2020
4730 Clear 1 1021 100 10000 2.1 140 05:18 19.12.2020
4731 Clear 1 1022 85 10000 3.1 150 03:20 19.12.2020
4732 Clear 2 1023 86 10000 3.1 140 00:41 19.12.2020
4733 Clear 2 1023 87 10000 4.6 160 00:18 19.12.2020
4734 Clear 2 1023 87 10000 5.1 150 23:48 18.12.2020
4735 Clear 3 1023 87 10000 5.1 150 23:23 18.12.2020
4736 Clear 3 1023 93 10000 4.6 150 22:47 18.12.2020
4737 Clear 3 1023 93 10000 4.1 150 22:24 18.12.2020
4738 Clear 3 1023 93 10000 4.1 150 21:51 18.12.2020
4739 Clear 4 1023 93 10000 4.1 160 21:31 18.12.2020
4740 Clear 4 1023 93 10000 3.6 160 20:44 18.12.2020
4741 Clear 4 1023 86 10000 4.6 160 20:23 18.12.2020
4742 Clear 5 1023 86 10000 4.6 160 19:47 18.12.2020
4743 Clear 5 1023 86 10000 4.6 160 19:22 18.12.2020
4744 Clear 5 1023 86 10000 4.6 160 18:45 18.12.2020
4745 Clear 6 1023 86 10000 4.6 160 18:26 18.12.2020
4746 Clear 6 1024 86 10000 3.6 160 17:50 18.12.2020
4747 Clear 6 1024 81 10000 4.1 170 17:20 18.12.2020
4748 Clear 6 1024 81 10000 3.1 170 16:45 18.12.2020
4749 Clear 7 1024 81 10000 3.1 170 16:21 18.12.2020
4750 Clear 7 1024 75 10000 3.1 190 15:52 18.12.2020
4751 Clear 8 1024 75 10000 3.1 190 15:34 18.12.2020
4752 Clear 8 1024 75 10000 3.6 180 14:57 18.12.2020
4753 Clear 9 1024 81 10000 2.6 200 14:26 18.12.2020
4754 Clear 9 1024 81 10000 2.6 200 13:59 18.12.2020
4755 Clear 8 1024 81 10000 3.6 200 13:40 18.12.2020
4756 Clear 8 1024 81 10000 3.1 190 13:21 18.12.2020
4757 Clear 8 1024 87 10000 3.6 180 12:42 18.12.2020
4758 Clear 6 1025 93 10000 2.6 190 11:29 18.12.2020
4759 Clear 5 1025 86 10000 3.1 190 10:58 18.12.2020
4760 Clear 5 1025 93 10000 2.6 200 10:37 18.12.2020
4761 Clear 4 1025 100 10000 2.6 190 10:19 18.12.2020
4762 Clear 4 1025 93 10000 3.1 180 09:38 18.12.2020
4763 Clear 4 1024 93 10000 2.6 180 09:19 18.12.2020
4764 Clear 4 1025 93 10000 2.6 180 08:50 18.12.2020
4765 Clear 4 1024 93 10000 3.1 190 08:22 18.12.2020
4766 Clear 5 1024 93 10000 2.1 210 07:20 18.12.2020
4767 Clear 5 1024 93 10000 2.1 210 06:59 18.12.2020
4768 Clear 5 1024 93 10000 3.1 220 05:45 18.12.2020
4769 Clear 5 1024 93 10000 3.1 220 05:27 18.12.2020
4770 Clear 6 1024 93 10000 3.1 220 04:43 18.12.2020
4771 Clear 6 1023 93 10000 3.6 230 01:47 18.12.2020
4772 Clouds 6 1023 93 10000 4.6 230 01:22 18.12.2020
4773 Clear 6 1023 93 10000 4.1 220 23:57 17.12.2020
4774 Clear 6 1022 93 10000 4.1 220 23:25 17.12.2020
4775 Clear 6 1022 100 10000 4.1 230 22:50 17.12.2020
4776 Clear 6 1022 100 10000 4.1 230 22:28 17.12.2020
4777 Clear 6 1022 93 10000 5.1 230 22:28 17.12.2020
4778 Clear 6 1022 93 10000 5.1 230 22:28 17.12.2020
4779 Clear 7 1022 93 10000 5.1 230 21:55 17.12.2020
4780 Clear 7 1022 93 10000 5.1 230 21:37 17.12.2020
4781 Clouds 7 1022 93 10000 5.1 230 21:18 17.12.2020
4782 Clear 7 1021 93 10000 4.1 220 20:41 17.12.2020
4783 Clear 7 1021 93 10000 4.1 220 20:18 17.12.2020
4784 Clouds 7 1021 93 10000 4.1 220 19:47 17.12.2020
4785 Clouds 7 1021 93 10000 3.6 210 19:24 17.12.2020
4786 Clouds 7 1021 87 10000 4.1 220 18:42 17.12.2020
4787 Clouds 7 1021 87 10000 4.1 220 18:23 17.12.2020
4788 Rain 7 1020 87 10000 4.1 190 17:53 17.12.2020
4789 Rain 7 1020 87 10000 4.1 190 17:32 17.12.2020
4790 Rain 7 1020 83 10000 3.13 195 16:46 17.12.2020
4791 Rain 7 990 84 10000 3.44 207 16:27 17.12.2020
4792 Clear 7 1020 81 10000 3.6 180 15:56 17.12.2020
4793 Clouds 7 1019 81 10000 4.92 171 15:34 17.12.2020
4794 Clear 8 1019 75 10000 5.7 170 14:55 17.12.2020
4795 Clear 8 1019 75 10000 5.7 170 14:37 17.12.2020
4796 Clear 8 1019 75 10000 5.7 170 14:37 17.12.2020
4797 Clear 8 1019 75 10000 4.6 160 13:59 17.12.2020
4798 Clear 7 1019 75 10000 5.1 160 13:39 17.12.2020
4799 Clear 7 1019 75 10000 4.6 170 12:58 17.12.2020
4800 Clear 7 1020 75 10000 4.6 170 12:36 17.12.2020
4801 Clear 6 1020 80 10000 4.1 160 11:58 17.12.2020
4802 Clear 6 1020 80 10000 4.1 160 11:58 17.12.2020
4803 Clear 5 1020 86 10000 5.1 160 11:38 17.12.2020
4804 Clear 5 1020 80 10000 6.2 160 11:20 17.12.2020
4805 Clear 4 1020 80 10000 5.1 150 10:33 17.12.2020
4806 Clear 4 1020 86 10000 5.1 140 09:36 17.12.2020
4807 Clear 3 1020 93 10000 5.1 140 08:40 17.12.2020
4808 Clear 3 1020 93 10000 4.6 150 07:42 17.12.2020
4809 Clear 3 1020 93 10000 4.6 150 07:20 17.12.2020
4810 Clear 3 1020 86 10000 3.6 170 06:47 17.12.2020
4811 Clear 3 1020 86 10000 3.6 170 06:27 17.12.2020
4812 Clear 5 1020 93 10000 3.6 140 03:29 17.12.2020
4813 Clear 5 1021 93 10000 3.6 140 00:20 17.12.2020
4814 Clear 6 1021 93 10000 4.6 130 23:40 16.12.2020
4815 Clouds 6 1021 93 9000 4.6 130 23:18 16.12.2020
4816 Clouds 6 1022 87 9000 3.6 130 22:48 16.12.2020
4817 Clouds 7 1022 93 9000 3.6 130 22:28 16.12.2020
4818 Clouds 7 1022 93 9000 3.6 120 21:42 16.12.2020
4819 Clouds 8 1022 93 10000 3.1 130 21:23 16.12.2020
4820 Clouds 8 1022 93 10000 3.1 130 20:52 16.12.2020
4821 Clouds 8 1022 93 10000 3.6 130 20:20 16.12.2020
4822 Clouds 8 1022 93 10000 3.6 120 19:38 16.12.2020
4823 Clouds 8 1021 93 9000 3.6 120 19:18 16.12.2020
4824 Clouds 8 1021 93 10000 3.6 130 18:49 16.12.2020
4825 Clouds 9 1021 93 10000 3.6 120 18:25 16.12.2020
4826 Clouds 8 1021 93 10000 4.1 130 17:38 16.12.2020
4827 Clouds 8 1021 93 10000 4.1 130 17:38 16.12.2020
4828 Clouds 9 1021 93 10000 3.1 120 16:56 16.12.2020
4829 Clouds 9 1021 93 10000 3.1 120 16:37 16.12.2020
4830 Clouds 9 1021 87 10000 2.6 110 16:19 16.12.2020
4831 Clouds 9 1021 87 10000 2.6 110 15:46 16.12.2020
4832 Clouds 9 1020 87 10000 3.1 90 15:19 16.12.2020
4833 Clouds 10 1020 87 10000 2.6 110 14:45 16.12.2020
4834 Clouds 10 1020 87 10000 2.6 110 14:27 16.12.2020
4835 Clouds 10 1020 87 10000 2.6 140 13:42 16.12.2020
4836 Clouds 10 1021 93 10000 1.5 120 13:21 16.12.2020
4837 Clouds 10 1021 87 10000 1.5 130 12:44 16.12.2020
4838 Clouds 9 1020 93 10000 1 0 12:20 16.12.2020
4839 Clouds 9 1020 93 10000 1.5 160 11:38 16.12.2020
4840 Clouds 9 1020 93 9000 1 80 11:19 16.12.2020
4841 Clouds 9 1020 93 8000 1 0 10:41 16.12.2020
4842 Clouds 8 1020 93 7000 1 190 10:18 16.12.2020
4843 Clouds 8 1020 93 7000 1 190 10:18 16.12.2020
4844 Clouds 8 1020 100 6000 1.5 230 09:39 16.12.2020
4845 Clouds 8 1019 100 6000 1 270 08:24 16.12.2020
4846 Clouds 8 1019 100 8000 1.5 270 07:48 16.12.2020
4847 Clouds 8 1019 100 8000 1.5 270 07:48 16.12.2020
4848 Clouds 8 1019 100 8000 1.5 270 07:30 16.12.2020
4849 Clouds 8 1018 100 10000 2.1 230 06:41 16.12.2020
4850 Clouds 7 1016 92 10000 1.79 195 02:24 16.12.2020
4851 Clouds 7 1015 87 10000 3.6 200 00:23 16.12.2020
4852 Clouds 7 1015 87 10000 3.1 200 23:44 15.12.2020
4853 Clouds 7 1014 87 10000 3.6 210 22:46 15.12.2020
4854 Clouds 7 1014 81 10000 3.6 200 22:24 15.12.2020
4855 Rain 7 1014 81 10000 3.6 200 21:51 15.12.2020
4856 Rain 7 1013 75 10000 3.6 190 21:25 15.12.2020
4857 Clouds 7 1013 75 10000 3.6 190 20:58 15.12.2020
4858 Clouds 7 1013 75 10000 3.6 190 20:39 15.12.2020
4859 Clouds 7 1013 81 10000 3.6 170 20:21 15.12.2020
4860 Clouds 7 1013 81 10000 4.1 170 19:42 15.12.2020
4861 Clouds 6 1013 81 10000 4.1 170 19:23 15.12.2020
4862 Clouds 6 1012 81 10000 3.6 170 18:39 15.12.2020
4863 Clouds 6 1012 81 10000 3.6 150 18:21 15.12.2020
4864 Clouds 7 1012 75 10000 3.1 150 17:44 15.12.2020
4865 Clouds 7 1013 75 10000 2.6 170 17:23 15.12.2020
4866 Clouds 7 1012 75 10000 3.1 170 16:39 15.12.2020
4867 Clear 7 1012 75 10000 3.1 170 16:21 15.12.2020
4868 Clear 7 1012 75 10000 3.1 150 15:37 15.12.2020
4869 Clear 7 1012 75 10000 3.1 160 15:18 15.12.2020
4870 Clear 8 1012 75 10000 3.1 170 14:42 15.12.2020
4871 Clear 8 1012 75 10000 3.1 160 14:20 15.12.2020
4872 Clouds 7 1012 82 10000 2.68 144 13:49 15.12.2020
4873 Clear 7 1012 75 10000 4.1 150 13:25 15.12.2020
4874 Clouds 7 1011 83 10000 3.58 160 12:46 15.12.2020
4875 Clear 6 1012 86 10000 4.1 160 12:19 15.12.2020
4876 Rain 6 1012 80 10000 3.6 150 11:52 15.12.2020
4877 Clear 6 1012 80 10000 3.6 150 11:25 15.12.2020
4878 Clear 5 1012 86 10000 5.7 150 10:52 15.12.2020
4879 Clear 5 1012 86 10000 4.6 150 10:21 15.12.2020
4880 Clear 5 1012 86 10000 4.1 140 09:45 15.12.2020
4881 Clear 4 1012 86 10000 4.1 140 09:27 15.12.2020
4882 Clear 4 1012 86 10000 3.1 140 08:47 15.12.2020
4883 Clear 4 1012 93 10000 4.1 140 08:25 15.12.2020
4884 Clear 4 1013 93 10000 3.6 160 07:49 15.12.2020
4885 Clear 4 1012 93 10000 3.6 150 07:23 15.12.2020
4886 Clear 4 1012 93 10000 4.1 160 06:27 15.12.2020
4887 Clear 5 1013 86 10000 3.6 150 02:55 15.12.2020
4888 Clouds 5 1013 93 10000 3.6 150 00:34 15.12.2020
4889 Clouds 6 1013 86 10000 2.6 170 23:26 14.12.2020
4890 Clouds 6 1013 86 10000 3.1 160 22:56 14.12.2020
4891 Clouds 6 1013 93 10000 3.6 150 22:32 14.12.2020
4892 Clouds 7 1013 89 10000 3.58 186 21:45 14.12.2020
4893 Clouds 7 1012 89 10000 4.02 182 21:23 14.12.2020
4894 Clouds 7 1013 87 10000 4.6 170 20:52 14.12.2020
4895 Clouds 7 1013 87 10000 4.6 170 20:30 14.12.2020
4896 Clouds 7 1013 87 10000 4.6 160 19:54 14.12.2020
4897 Clouds 7 1013 87 10000 4.6 160 19:29 14.12.2020
4898 Clear 7 1013 87 10000 3.6 160 18:51 14.12.2020
4899 Clear 7 1013 87 10000 3.6 160 18:31 14.12.2020
4900 Clear 7 1013 93 10000 3.1 160 17:47 14.12.2020
4901 Clear 6 1013 93 10000 3.1 160 17:28 14.12.2020
4902 Clear 7 1013 87 10000 3.6 160 16:52 14.12.2020
4903 Clear 7 1013 87 10000 4.6 150 16:29 14.12.2020
4904 Clear 7 1013 87 10000 3.6 160 15:46 14.12.2020
4905 Clear 7 1013 87 10000 3.6 140 15:25 14.12.2020
4906 Clouds 8 1013 81 10000 4.6 160 14:44 14.12.2020
4907 Clouds 7 1013 81 10000 4.6 160 14:25 14.12.2020
4908 Clear 7 1013 87 10000 5.1 170 13:46 14.12.2020
4909 Clear 7 1013 87 10000 5.1 170 13:24 14.12.2020
4910 Clear 7 1014 93 10000 4.6 160 12:53 14.12.2020
4911 Clouds 6 1014 93 10000 5.1 160 12:29 14.12.2020
4912 Clouds 5 1014 93 10000 4.6 150 11:36 14.12.2020
4913 Clouds 4 1014 100 7000 4.1 150 10:48 14.12.2020
4914 Clouds 4 1014 98 10000 3.13 142 10:27 14.12.2020
4915 Mist 4 1014 100 3000 2.1 140 09:44 14.12.2020
4916 Fog 4 1014 100 1700 3.6 130 08:50 14.12.2020
4917 Fog 4 1014 100 1700 3.6 130 08:30 14.12.2020
4918 Fog 4 1014 100 900 2.6 150 07:52 14.12.2020
4919 Fog 4 1014 100 600 2.6 130 06:59 14.12.2020
4920 Fog 4 1014 100 500 3.1 170 05:55 14.12.2020
4921 Mist 5 1014 100 1100 1.5 120 03:49 14.12.2020
4922 Fog 4 1014 100 600 2.6 120 00:57 14.12.2020
4923 Fog 4 1014 100 600 2.6 120 00:37 14.12.2020
4924 Mist 4 1014 100 1000 2.1 110 00:18 14.12.2020
4925 Mist 4 1014 100 1200 1.5 110 23:42 13.12.2020
4926 Mist 4 1014 100 1300 1.5 130 22:57 13.12.2020
4927 Mist 3 1014 100 1200 2.6 100 22:39 13.12.2020
4928 Fog 3 1014 100 800 2.6 90 22:18 13.12.2020
4929 Fog 3 1014 100 700 2.1 100 21:41 13.12.2020
4930 Fog 3 1014 100 700 1.5 110 20:55 13.12.2020
4931 Fog 4 1013 100 700 2.1 80 20:25 13.12.2020
4932 Fog 4 1013 100 700 2.6 100 19:47 13.12.2020
4933 Fog 4 1013 100 700 2.6 100 19:24 13.12.2020
4934 Mist 4 1013 100 2500 1 90 18:56 13.12.2020
4935 Mist 4 1013 100 2500 1 90 18:36 13.12.2020
4936 Mist 4 1013 100 3000 1.5 90 18:18 13.12.2020
4937 Mist 4 1012 100 3500 3.1 70 17:45 13.12.2020
4938 Mist 4 1012 93 3800 2.6 70 17:18 13.12.2020
4939 Mist 4 1012 93 4200 2.1 70 16:50 13.12.2020
4940 Mist 4 1012 93 4200 2.1 70 16:31 13.12.2020
4941 Clouds 4 1011 93 6000 1.5 60 15:48 13.12.2020
4942 Clouds 4 1011 93 6000 1.5 60 15:27 13.12.2020
4943 Clouds 4 1011 93 6000 1 0 14:48 13.12.2020
4944 Clouds 4 1011 93 6000 1 0 14:29 13.12.2020
4945 Clouds 5 1011 93 6000 0.5 0 13:57 13.12.2020
4946 Clouds 4 1011 93 6000 0.5 0 13:36 13.12.2020
4947 Clouds 4 1011 93 6000 1.5 90 12:59 13.12.2020
4948 Mist 4 1011 93 5000 1.5 80 12:36 13.12.2020
4949 Mist 4 1010 93 4200 2.1 70 12:18 13.12.2020
4950 Mist 4 1011 93 3500 2.1 60 11:34 13.12.2020
4951 Mist 3 1010 93 2400 1.5 50 10:47 13.12.2020
4952 Mist 3 1010 93 2400 1.5 50 10:29 13.12.2020
4953 Mist 3 1009 100 1200 1.5 70 09:51 13.12.2020
4954 Mist 3 1009 100 1100 1 60 08:53 13.12.2020
4955 Mist 3 1009 100 1100 1.5 60 08:32 13.12.2020
4956 Clouds 3 1008 95 10000 0.89 77 07:27 13.12.2020
4957 Mist 2 1007 93 1200 1.5 70 03:26 13.12.2020
4958 Mist 2 1006 93 1400 1.5 90 02:32 13.12.2020
4959 Mist 2 1006 93 3800 1.5 80 01:37 13.12.2020
4960 Mist 3 1006 93 4300 1.5 90 00:47 13.12.2020
4961 Mist 2 1005 93 4700 2.1 80 23:50 12.12.2020
4962 Mist 2 1005 93 4700 2.1 80 23:29 12.12.2020
4963 Mist 2 1005 93 4800 2.6 80 22:39 12.12.2020
4964 Mist 2 1005 93 4800 2.6 80 22:39 12.12.2020
4965 Clouds 2 1005 93 10000 3.13 96 21:56 12.12.2020
4966 Clouds 2 1005 92 10000 2.68 82 21:32 12.12.2020
4967 Clouds 2 1004 91 10000 3.13 72 20:48 12.12.2020
4968 Clouds 2 1004 91 10000 3.13 81 20:24 12.12.2020
4969 Clouds 2 1004 91 10000 3.58 77 19:57 12.12.2020
4970 Clouds 2 1004 90 8000 2.6 80 19:38 12.12.2020
4971 Clouds 2 1004 90 8000 2.6 80 19:20 12.12.2020
4972 Clouds 2 1003 91 8000 3.6 90 18:41 12.12.2020
4973 Clouds 2 1003 91 9000 4.1 90 18:23 12.12.2020
4974 Clouds 2 1003 91 9000 4.1 90 17:45 12.12.2020
4975 Clouds 2 1002 89 9000 4.6 90 16:54 12.12.2020
4976 Clouds 2 1002 87 7000 5.1 90 16:19 12.12.2020
4977 Clouds 3 1002 87 7000 5.1 90 15:44 12.12.2020
4978 Clouds 3 1002 93 6000 5.1 100 15:26 12.12.2020
4979 Mist 2 1002 80 3800 3.1 100 14:44 12.12.2020
4980 Mist 3 1001 76 3200 1.5 120 13:54 12.12.2020
4981 Mist 3 1001 75 3500 1.5 110 13:36 12.12.2020
4982 Mist 3 1001 76 4000 2.6 100 12:53 12.12.2020
4983 Mist 1 1001 78 3500 6.2 100 11:46 12.12.2020
4984 Mist 1 1001 82 3500 5.1 90 10:53 12.12.2020
4985 Mist 1 1000 95 4500 5.1 90 09:32 12.12.2020
4986 Clear 0 1000 100 6000 4.1 90 08:53 12.12.2020
4987 Mist 1 999 96 4100 3.6 90 02:56 12.12.2020
4988 Mist 1 1000 93 5000 4.6 90 23:54 11.12.2020
4989 Clouds 1 1000 95 10000 3.58 107 22:28 11.12.2020
4990 Mist 1 1001 93 5000 5.7 90 20:40 11.12.2020
4991 Clouds 1 1002 90 7000 5.1 110 18:26 11.12.2020
4992 Clouds 1 1002 89 9000 4.6 90 15:54 11.12.2020
4993 Clouds 1 1003 85 9000 5.1 110 13:59 11.12.2020
4994 Clouds 1 1003 85 10000 5.7 110 13:25 11.12.2020
4995 Clouds 0 1004 92 10000 5.1 110 12:19 11.12.2020
4996 Clouds 0 1004 92 10000 5.7 130 11:51 11.12.2020
4997 Clouds 0 1005 92 8000 4.6 130 10:46 11.12.2020
4998 Clouds 0 1005 92 6000 3.1 100 08:53 11.12.2020
4999 Clouds -1 1006 92 8000 3.6 120 05:43 11.12.2020
5000 Clouds -1 1006 92 9000 4.1 130 05:18 11.12.2020
5001 Clouds -1 1007 92 9000 3.6 130 02:28 11.12.2020
5002 Clouds -1 1008 92 9000 3.1 100 00:31 11.12.2020
5003 Clouds -1 1008 92 9000 3.1 110 22:56 10.12.2020
5004 Clouds 0 1008 92 10000 3.1 110 21:37 10.12.2020
5005 Clouds 0 1008 100 6000 3.1 100 20:47 10.12.2020
5006 Mist 0 1008 100 4800 2.6 110 19:46 10.12.2020
5007 Mist 0 1008 92 4200 3.6 110 19:20 10.12.2020
5008 Mist 0 1009 100 3600 2.6 100 18:24 10.12.2020
5009 Mist 0 1009 100 3800 4.1 100 16:49 10.12.2020
5010 Mist 0 1008 100 4200 4.1 80 15:50 10.12.2020
5011 Clouds 0 1008 94 10000 3.13 61 14:58 10.12.2020
5012 Mist 0 1008 100 4200 3.6 110 14:38 10.12.2020
5013 Mist 0 1009 100 4800 2.6 120 13:23 10.12.2020
5014 Mist 0 1009 100 4100 3.6 90 11:43 10.12.2020
5015 Clouds 0 1010 94 10000 5.36 106 09:21 10.12.2020
5016 Mist 0 1010 100 3300 5.7 100 08:19 10.12.2020
5017 Mist 0 1010 97 4000 5.7 90 06:51 10.12.2020
5018 Mist 0 1011 95 4200 5.1 80 03:55 10.12.2020
5019 Mist 1 1011 94 4500 5.7 90 02:24 10.12.2020
5020 Mist 1 1012 92 5000 4.6 90 00:48 10.12.2020
5021 Mist 1 1012 89 5000 4.6 100 23:23 09.12.2020
5022 Mist 2 1012 86 5000 5.1 100 20:37 09.12.2020
5023 Mist 2 1012 85 4500 6.2 100 19:38 09.12.2020
5024 Mist 2 1011 82 5000 4.6 90 17:55 09.12.2020
5025 Mist 2 1011 93 5000 5.7 100 16:54 09.12.2020
5026 Mist 2 1011 93 5000 4.6 90 16:25 09.12.2020
5027 Clouds 3 1011 93 5000 5.1 90 15:38 09.12.2020
5028 Clouds 3 1010 77 7000 5.1 90 14:49 09.12.2020
5029 Clouds 3 1010 74 7000 5.1 90 14:25 09.12.2020
5030 Clouds 3 1011 75 6000 4.1 90 13:19 09.12.2020
5031 Clouds 3 1011 75 6000 4.1 90 12:57 09.12.2020
5032 Mist 3 1011 93 5000 4.6 100 12:22 09.12.2020
5033 Clouds 2 1011 91 10000 4.02 95 11:32 09.12.2020
5034 Mist 2 1010 79 4500 3.6 80 09:51 09.12.2020
5035 Mist 2 1010 100 4000 4.6 90 08:34 09.12.2020
5036 Mist 2 1009 93 4500 4.1 80 06:38 09.12.2020
5037 Mist 2 1009 93 4800 5.1 90 05:27 09.12.2020
5038 Rain 2 1009 83 7000 4.1 80 02:31 09.12.2020
5039 Clouds 2 1009 81 7000 4.1 70 00:34 09.12.2020
5040 Clouds 3 1009 90 10000 4.02 70 23:33 08.12.2020
5041 Clouds 2 1009 90 10000 3.58 93 21:56 08.12.2020
5042 Clouds 2 1009 79 9000 5.7 90 20:24 08.12.2020
5043 Clouds 2 1008 80 9000 5.1 90 19:29 08.12.2020
5044 Clouds 3 1008 93 10000 6.2 100 18:35 08.12.2020
5045 Clear 4 1007 86 10000 4.1 90 16:39 08.12.2020
5046 Clear 5 1007 75 10000 5.1 80 15:22 08.12.2020
5047 Clear 7 1007 75 10000 4.6 100 13:49 08.12.2020
5048 Clear 7 1007 75 10000 4.1 100 12:41 08.12.2020
5049 Clear 6 1007 80 10000 4.6 100 11:55 08.12.2020
5050 Clear 5 1007 80 10000 4.1 90 10:57 08.12.2020
5051 Clouds 5 1007 86 10000 4.1 90 10:39 08.12.2020
5052 Clouds 5 1006 88 10000 4.02 93 09:45 08.12.2020
5053 Clear 5 1005 86 10000 3.6 90 07:40 08.12.2020
5054 Clouds 5 1005 93 10000 3.1 90 05:42 08.12.2020
5055 Clouds 5 1005 93 10000 3.1 60 02:33 08.12.2020
5056 Clouds 5 1006 93 10000 2.1 50 00:45 08.12.2020
5057 Clouds 4 1006 100 10000 1 0 23:46 07.12.2020
5058 Clouds 5 1005 100 10000 0.5 0 22:21 07.12.2020
5059 Clouds 4 1005 93 10000 0.5 0 21:47 07.12.2020
5060 Clouds 4 1005 86 10000 1.5 110 19:45 07.12.2020
5061 Clouds 5 1004 75 10000 2.6 190 18:19 07.12.2020
5062 Clouds 6 1003 75 10000 3.1 190 17:23 07.12.2020
5063 Clouds 6 1003 75 10000 2.1 200 16:48 07.12.2020
5064 Clouds 7 1002 75 10000 4.1 210 15:26 07.12.2020
5065 Drizzle 7 1002 87 10000 4.1 150 14:41 07.12.2020
5066 Clouds 8 1001 81 10000 5.1 160 13:44 07.12.2020
5067 Clouds 8 1000 75 10000 6.7 120 12:35 07.12.2020
5068 Clouds 7 1000 75 10000 7.7 110 11:43 07.12.2020
5069 Clouds 7 970 83 10000 7.07 147 10:44 07.12.2020
5070 Clouds 7 999 84 10000 6.71 105 09:40 07.12.2020
5071 Rain 7 999 75 10000 7.7 110 07:58 07.12.2020
5072 Rain 8 998 81 10000 5.1 90 05:43 07.12.2020
5073 Rain 8 998 75 10000 7.2 100 04:48 07.12.2020
5074 Clouds 8 999 84 10000 4.47 117 01:48 07.12.2020
5075 Clear 9 1000 81 10000 3.6 100 23:50 06.12.2020
5076 Clear 9 1000 76 10000 4.1 90 22:23 06.12.2020
5077 Clear 10 1000 76 10000 6.2 110 20:54 06.12.2020
5078 Clear 10 1000 76 10000 6.2 110 20:34 06.12.2020
5079 Clear 10 1000 76 10000 6.7 110 19:53 06.12.2020
5080 Clear 10 1000 81 10000 6.2 110 18:18 06.12.2020
5081 Clear 10 1000 81 10000 4.1 90 16:47 06.12.2020
5082 Clear 11 1000 71 10000 5.7 120 14:57 06.12.2020
5083 Clear 11 1001 71 10000 6.2 110 13:42 06.12.2020
5084 Clear 11 1001 76 10000 7.2 120 12:51 06.12.2020
5085 Clear 10 1001 76 10000 6.2 120 11:58 06.12.2020
5086 Clear 9 1001 81 10000 6.2 110 11:34 06.12.2020
5087 Clouds 8 1001 88 10000 5.36 101 10:45 06.12.2020
5088 Clouds 7 1001 89 10000 4.47 104 09:57 06.12.2020
5089 Clouds 6 1001 90 10000 6.26 103 08:29 06.12.2020
5090 Clouds 5 1001 90 10000 5.36 113 06:37 06.12.2020
5091 Clouds 5 1004 83 10000 2.68 47 01:47 06.12.2020
5092 Clouds 5 1004 82 10000 0.89 16 00:41 06.12.2020
5093 Clouds 5 1004 82 10000 0.89 19 00:23 06.12.2020
5094 Clouds 4 1004 85 10000 2.6 10 22:46 05.12.2020
5095 Clouds 4 1004 84 10000 2.6 20 22:20 05.12.2020
5096 Clear 3 1004 84 10000 2.6 20 21:48 05.12.2020
5097 Clear 3 1004 82 10000 2.6 20 21:26 05.12.2020
5098 Clear 4 1004 86 10000 2.1 20 19:21 05.12.2020
5099 Clear 4 1004 80 10000 2.1 80 18:40 05.12.2020
5100 Clear 4 1004 80 10000 2.1 120 17:33 05.12.2020
5101 Rain 5 1003 75 10000 1 160 16:31 05.12.2020
5102 Clear 6 1003 70 10000 1 160 15:54 05.12.2020
5103 Clear 7 1002 70 10000 4.1 200 14:27 05.12.2020
5104 Clear 7 1000 65 10000 4.1 180 12:23 05.12.2020
5105 Clear 6 999 80 10000 4.6 160 11:41 05.12.2020
5106 Clouds 4 969 89 10000 3.68 184 10:31 05.12.2020
5107 Clear 2 996 86 10000 2.1 80 07:49 05.12.2020
5108 Clear 2 996 86 10000 2.1 80 07:24 05.12.2020
5109 Clear 2 995 86 10000 3.6 80 03:55 05.12.2020
5110 Clear 2 996 86 10000 3.1 90 23:55 04.12.2020
5111 Clear 2 996 86 10000 3.6 90 22:32 04.12.2020
5112 Clear 2 996 86 10000 3.1 100 20:26 04.12.2020
5113 Clear 2 995 86 10000 2.6 90 18:53 04.12.2020
5114 Clear 2 995 85 10000 2.1 100 18:19 04.12.2020
5115 Clear 3 995 85 10000 2.1 100 17:40 04.12.2020
5116 Clear 4 994 82 10000 5.1 110 15:50 04.12.2020
5117 Clear 4 995 77 10000 4.6 130 13:57 04.12.2020
5118 Clear 4 995 78 10000 4.6 130 13:29 04.12.2020
5119 Clear 4 995 80 10000 4.6 130 12:54 04.12.2020
5120 Clear 2 995 80 10000 5.7 120 10:42 04.12.2020
5121 Clear 2 995 80 10000 5.7 120 10:23 04.12.2020
5122 Clouds 0 995 96 10000 4.6 120 07:43 04.12.2020
5123 Clouds -1 995 86 10000 4.6 130 06:39 04.12.2020
5124 Clear -1 997 80 10000 5.7 130 04:38 04.12.2020
5125 Clouds 0 1000 92 10000 5.1 150 23:51 03.12.2020
5126 Clouds 1 1001 92 10000 6.2 160 22:47 03.12.2020
5127 Clouds 1 1002 69 10000 6.7 160 21:20 03.12.2020
5128 Clouds 1 1002 69 10000 5.7 160 19:49 03.12.2020
5129 Clouds 1 1002 74 10000 6.2 150 19:20 03.12.2020
5130 Clouds 1 1002 74 10000 5.1 150 18:40 03.12.2020
5131 Clouds 1 1004 93 10000 4.1 160 17:21 03.12.2020
5132 Clouds 1 1004 84 10000 5.36 150 15:59 03.12.2020
5133 Clouds 1 1004 91 10000 4.1 150 15:32 03.12.2020
5134 Clouds 1 1005 91 10000 5.1 150 14:48 03.12.2020
5135 Clouds 1 1006 95 9000 5.7 150 13:51 03.12.2020
5136 Clouds 0 976 87 10000 5.15 175 12:33 03.12.2020
5137 Clouds 0 1007 85 10000 4.02 151 11:59 03.12.2020
5138 Snow -1 1008 87 10000 4.47 159 10:38 03.12.2020
5139 Mist -1 1010 86 5000 3.1 140 08:41 03.12.2020
5140 Clouds -2 1013 92 6000 3.1 130 03:45 03.12.2020
5141 Clouds -2 1014 92 6000 3.6 120 01:46 03.12.2020
5142 Clouds -2 1014 92 6000 3.6 120 23:56 02.12.2020
5143 Clear -2 1015 92 7000 3.1 110 22:46 02.12.2020
5144 Clear -1 1016 92 7000 2.6 120 21:46 02.12.2020
5145 Clouds -1 1016 92 6000 3.6 120 20:51 02.12.2020
5146 Clouds -1 1016 92 6000 3.6 120 20:32 02.12.2020
5147 Clear -1 1016 92 6000 4.1 120 19:50 02.12.2020
5148 Clear 0 1017 92 7000 2.1 100 17:51 02.12.2020
5149 Clear 0 1017 92 7000 2.1 100 17:31 02.12.2020
5150 Clear 1 1017 90 9000 3.1 80 16:42 02.12.2020
5151 Clear 2 1018 80 10000 2.6 90 14:33 02.12.2020
5152 Clear 1 1021 88 6000 2.1 90 11:33 02.12.2020
5153 Clouds 1 1021 100 6000 1.5 90 10:26 02.12.2020
5154 Mist -1 1022 92 4000 2.1 70 08:24 02.12.2020
5155 Clouds 0 1022 100 8000 2.1 60 00:50 02.12.2020
5156 Clear 1 1022 88 10000 3.1 110 22:21 01.12.2020
5157 Clouds 2 1021 85 10000 3.1 100 20:36 01.12.2020
5158 Clouds 3 1020 84 10000 2.6 110 19:34 01.12.2020
5159 Clouds 4 1019 89 10000 2.6 100 17:29 01.12.2020
5160 Clouds 4 1017 86 10000 3.1 150 15:24 01.12.2020
5161 Clouds 4 1016 85 10000 2.6 160 13:37 01.12.2020
5162 Clouds 4 1016 85 10000 4.1 160 11:44 01.12.2020
5163 Clouds 3 1015 86 10000 4.1 160 11:26 01.12.2020
5164 Clouds 3 1015 84 10000 3.58 178 10:37 01.12.2020
5165 Clouds 2 1014 80 10000 3.6 170 08:20 01.12.2020
5166 Clouds 2 1014 80 10000 4.6 190 06:47 01.12.2020
5167 Clear 2 1015 80 10000 4.1 170 01:52 01.12.2020
5168 Clear 2 1015 80 10000 4.1 170 00:55 01.12.2020
5169 Clear 2 1017 80 10000 5.1 170 23:21 30.11.2020
5170 Clear 2 1017 86 10000 4.6 160 22:44 30.11.2020
5171 Clear 2 1018 86 10000 4.1 150 22:25 30.11.2020
5172 Clear 2 1019 86 10000 3.6 150 20:47 30.11.2020
5173 Clear 2 1020 80 10000 4.6 160 19:42 30.11.2020
5174 Clear 2 1020 80 10000 4.6 160 19:42 30.11.2020
5175 Clouds 2 1021 80 10000 3.6 160 18:23 30.11.2020
5176 Clouds 2 1021 74 10000 3.1 170 17:47 30.11.2020
5177 Clouds 3 1022 80 10000 2.6 200 16:55 30.11.2020
5178 Clouds 3 1022 80 10000 3.6 200 15:59 30.11.2020
5179 Clouds 3 1023 78 10000 3.6 200 14:47 30.11.2020
5180 Clouds 3 1024 79 10000 4.1 210 13:53 30.11.2020
5181 Clouds 2 1025 77 10000 3.6 230 12:26 30.11.2020
5182 Clouds 2 1025 77 10000 3.6 230 11:58 30.11.2020
5183 Clouds 3 1026 80 10000 3.6 230 10:28 30.11.2020
5184 Clouds 3 1026 80 10000 2.6 240 09:51 30.11.2020
5185 Clouds 2 1026 84 10000 2.1 250 07:26 30.11.2020
5186 Clouds 0 1026 92 10000 2.1 290 00:54 30.11.2020
5187 Clear 1 1026 92 10000 1.5 310 22:19 29.11.2020
5188 Clear 2 1026 90 10000 1.5 310 21:42 29.11.2020
5189 Clear 2 1026 90 10000 2.6 320 21:24 29.11.2020
5190 Clouds 4 1025 83 10000 3.1 320 17:48 29.11.2020
5191 Clouds 4 1025 81 10000 3.6 320 16:57 29.11.2020
5192 Clouds 5 1026 86 10000 3.6 340 13:24 29.11.2020
5193 Clouds 5 1026 86 10000 3.6 340 12:27 29.11.2020
5194 Clouds 3 1026 93 10000 3.6 320 10:54 29.11.2020
5195 Clouds 2 1026 100 8000 2.1 290 08:52 29.11.2020
5196 Clouds 2 1026 84 7000 1.5 270 08:34 29.11.2020
5197 Clouds 1 1026 100 10000 1.5 350 01:43 29.11.2020
5198 Clouds 3 1026 93 10000 2.6 40 22:57 28.11.2020
5199 Clouds 3 1026 80 10000 2.6 20 21:20 28.11.2020
5200 Clouds 4 1026 80 10000 2.1 20 19:54 28.11.2020
5201 Clouds 4 1025 79 10000 1.5 360 19:27 28.11.2020
5202 Clouds 4 1025 79 10000 1.5 350 18:52 28.11.2020
5203 Clouds 5 1025 75 10000 1 0 17:52 28.11.2020
5204 Clouds 5 1025 71 10000 1 0 16:56 28.11.2020
5205 Clouds 6 1025 65 10000 1 0 14:58 28.11.2020
5206 Clouds 6 1024 65 10000 2.6 70 13:47 28.11.2020
5207 Clouds 5 1025 80 10000 1 0 11:25 28.11.2020
5208 Clouds 3 1024 93 10000 1.5 260 08:47 28.11.2020
5209 Clouds 4 1023 86 10000 2.6 40 03:39 28.11.2020
5210 Clouds 4 1023 86 10000 1 0 01:52 28.11.2020
5211 Clouds 4 1023 86 10000 1 0 01:52 28.11.2020
5212 Clouds 5 1023 86 10000 1 0 23:19 27.11.2020
5213 Clouds 5 1023 93 10000 1 0 22:24 27.11.2020
5214 Clouds 5 1023 93 10000 1 0 20:39 27.11.2020
5215 Clouds 5 1023 86 10000 2.1 70 19:34 27.11.2020
5216 Clear 5 993 95 10000 1.38 75 18:57 27.11.2020
5217 Clouds 5 1022 93 10000 3.6 60 16:51 27.11.2020
5218 Clouds 7 1022 87 10000 2.6 60 14:45 27.11.2020
5219 Mist 8 1022 87 4200 1.5 100 13:20 27.11.2020
5220 Mist 8 1022 93 3300 2.1 70 12:47 27.11.2020
5221 Mist 8 1022 100 2500 0.5 0 11:34 27.11.2020
5222 Mist 7 1022 100 1500 1 0 10:44 27.11.2020
5223 Fog 7 1022 100 400 0.5 0 09:53 27.11.2020
5224 Mist 7 1021 100 4300 2.1 240 23:50 26.11.2020
5225 Clouds 7 990 99 10000 2.21 258 22:25 26.11.2020
5226 Clouds 7 1020 93 9000 1 230 21:56 26.11.2020
5227 Clouds 7 1020 93 10000 2.1 250 20:49 26.11.2020
5228 Clouds 7 1020 93 10000 2.6 240 18:37 26.11.2020
5229 Clouds 6 1020 93 10000 3.6 230 17:41 26.11.2020
5230 Rain 6 1019 93 10000 3.13 207 14:39 26.11.2020
5231 Clouds 5 1020 93 10000 3.6 200 13:19 26.11.2020
5232 Clouds 5 1019 94 10000 2.68 206 12:41 26.11.2020
5233 Clouds 4 1020 93 8000 3.6 210 11:35 26.11.2020
5234 Clouds 4 1020 94 10000 2.24 180 10:27 26.11.2020
5235 Clouds 3 1020 94 10000 1.79 176 09:39 26.11.2020
5236 Clouds 3 1020 79 8000 3.6 190 09:21 26.11.2020
5237 Clouds 2 1020 79 8000 2.1 190 08:38 26.11.2020
5238 Clear 1 1020 92 10000 2.6 200 02:19 26.11.2020
5239 Clear 1 1019 84 10000 2.6 190 22:32 25.11.2020
5240 Clear 1 1019 100 10000 1.5 140 20:42 25.11.2020
5241 Fog 1 1019 100 5000 2.1 120 19:44 25.11.2020
5242 Fog 2 1019 81 6000 1.5 80 18:27 25.11.2020
5243 Clouds 3 1019 93 8000 0.5 240 16:34 25.11.2020
5244 Clouds 3 1019 93 8000 3.6 220 15:36 25.11.2020
5245 Mist 3 1019 93 5000 4.1 200 13:56 25.11.2020
5246 Mist 3 1020 93 5000 3.6 220 13:37 25.11.2020
5247 Fog 2 1020 100 900 4.1 190 11:45 25.11.2020
5248 Fog 2 1020 100 800 4.6 190 11:18 25.11.2020
5249 Clouds 1 990 99 10000 3.06 179 09:18 25.11.2020
5250 Clouds 1 1020 97 10000 3.58 195 08:43 25.11.2020
5251 Clouds 1 1021 100 8000 1.5 170 03:59 25.11.2020
5252 Fog 1 1021 92 4500 3.1 160 02:26 25.11.2020
5253 Fog 2 1022 100 4000 1.5 140 00:24 25.11.2020
5254 Clouds 3 1022 84 10000 1 120 23:52 24.11.2020
5255 Clouds 3 1022 84 10000 1 120 23:34 24.11.2020
5256 Clear 4 1023 100 10000 2.1 160 21:52 24.11.2020
5257 Clear 4 1023 100 10000 2.1 160 21:31 24.11.2020
5258 Clear 4 1023 100 10000 1.5 170 20:45 24.11.2020
5259 Clear 5 1023 93 10000 2.1 180 18:57 24.11.2020
5260 Clear 5 1023 80 10000 2.6 210 17:31 24.11.2020
5261 Clear 5 1024 86 10000 3.6 210 16:56 24.11.2020
5262 Clear 6 1024 86 10000 3.6 210 16:36 24.11.2020
5263 Clear 7 1024 75 10000 3.1 190 15:55 24.11.2020
5264 Clear 7 1024 75 10000 3.6 210 15:19 24.11.2020
5265 Clear 7 1024 75 10000 3.6 210 14:43 24.11.2020
5266 Clouds 6 1024 83 10000 3.13 207 12:58 24.11.2020
5267 Clear 6 1025 86 10000 3.6 190 12:31 24.11.2020
5268 Clear 5 1026 86 10000 3.1 200 11:58 24.11.2020
5269 Clear 5 1026 93 10000 3.6 210 10:49 24.11.2020
5270 Clear 4 1026 93 10000 3.6 210 10:25 24.11.2020
5271 Clear 3 1026 76 10000 4.1 210 09:37 24.11.2020
5272 Clear 2 1026 77 10000 3.6 200 08:33 24.11.2020
5273 Clear 3 1027 80 10000 2.1 210 04:51 24.11.2020
5274 Clear 5 1028 93 10000 3.1 220 00:41 24.11.2020
5275 Clouds 6 1028 86 10000 4.1 250 21:56 23.11.2020
5276 Clouds 7 1028 81 10000 3.6 260 21:29 23.11.2020
5277 Clouds 7 1027 86 10000 4.6 250 20:29 23.11.2020
5278 Clouds 7 1027 81 10000 4.6 260 19:56 23.11.2020
5279 Clear 7 1027 86 10000 4.1 260 17:53 23.11.2020
5280 Clouds 8 1026 75 10000 5.1 270 16:56 23.11.2020
5281 Clouds 8 1025 70 10000 7.2 280 15:18 23.11.2020
5282 Clouds 9 1025 66 10000 7.7 280 14:37 23.11.2020
5283 Clouds 9 1024 75 10000 7.2 270 12:41 23.11.2020
5284 Clouds 8 1024 75 10000 7.2 270 12:18 23.11.2020
5285 Clouds 7 1024 81 10000 7.2 270 11:41 23.11.2020
5286 Clouds 7 1023 87 10000 6.7 260 10:22 23.11.2020
5287 Clouds 6 1023 86 10000 5.7 260 09:31 23.11.2020
5288 Clear 6 1022 86 10000 5.7 250 08:36 23.11.2020
5289 Clouds 6 1022 93 10000 5.1 260 06:57 23.11.2020
5290 Clouds 7 1023 93 10000 3.6 240 00:21 23.11.2020
5291 Clear 7 1023 93 10000 4.1 250 22:45 22.11.2020
5292 Clouds 8 1023 93 10000 3.6 230 21:26 22.11.2020
5293 Clear 8 1022 87 10000 4.6 240 20:43 22.11.2020
5294 Clear 9 1022 87 10000 4.1 240 19:52 22.11.2020
5295 Clear 9 1022 87 10000 3.1 270 18:40 22.11.2020
5296 Rain 9 1021 86 10000 5.36 264 16:50 22.11.2020
5297 Clouds 10 1021 79 10000 8.94 268 15:30 22.11.2020
5298 Clouds 11 1021 76 10000 7.2 260 14:28 22.11.2020
5299 Clouds 10 1021 86 10000 6.26 250 12:49 22.11.2020
5300 Clouds 9 1022 81 10000 7.2 240 11:56 22.11.2020
5301 Clouds 9 1022 75 10000 6.7 240 11:20 22.11.2020
5302 Clouds 8 1022 75 10000 6.2 240 10:39 22.11.2020
5303 Clouds 7 1022 75 10000 7.2 220 08:51 22.11.2020
5304 Clouds 7 1024 68 10000 7.2 220 01:48 22.11.2020
5305 Clouds 7 1024 66 10000 8.2 220 23:35 21.11.2020
5306 Clouds 7 1025 60 10000 7.7 220 21:57 21.11.2020
5307 Clouds 6 1025 60 10000 8.2 220 21:19 21.11.2020
5308 Clouds 7 1026 60 10000 7.2 220 20:34 21.11.2020
5309 Clouds 7 1026 60 10000 8.7 220 19:54 21.11.2020
5310 Clouds 7 1026 60 10000 8.7 220 19:27 21.11.2020
5311 Clouds 6 1027 66 10000 7.7 220 17:57 21.11.2020
5312 Clouds 6 1028 66 10000 8.2 220 16:49 21.11.2020
5313 Clouds 6 1028 67 10000 8.7 210 16:26 21.11.2020
5314 Rain 6 1028 65 10000 7.7 210 15:22 21.11.2020
5315 Clouds 6 1029 65 10000 7.2 210 14:43 21.11.2020
5316 Clear 6 1029 65 10000 8.2 220 14:20 21.11.2020
5317 Clouds 6 996 72 10000 6.52 214 14:20 21.11.2020
5318 Clear 6 1031 64 10000 6.7 200 12:28 21.11.2020
5319 Clear 5 1031 64 10000 6.7 200 11:58 21.11.2020
5320 Clear 5 1031 64 10000 6.7 200 11:58 21.11.2020
5321 Clear 4 1032 93 10000 5.7 190 10:41 21.11.2020
5322 Clouds 3 1033 72 6000 4.1 190 09:59 21.11.2020
5323 Mist 1 1033 77 2000 4.6 200 08:51 21.11.2020
5324 Clouds 1 1033 85 10000 4.1 180 06:35 21.11.2020
5325 Clouds 1 1034 88 10000 2.6 220 04:39 21.11.2020
5326 Clouds 2 1034 92 10000 2.1 180 01:21 21.11.2020
5327 Clouds 2 1034 100 10000 2.6 200 23:59 20.11.2020
5328 Clear 2 1034 100 10000 1 240 22:26 20.11.2020
5329 Clear 2 1033 100 10000 2.1 260 21:42 20.11.2020
5330 Clear 3 1033 86 10000 1.34 267 21:21 20.11.2020
5331 Clouds 3 1033 77 10000 3.1 270 19:46 20.11.2020
5332 Clouds 3 1033 75 10000 2.6 250 18:50 20.11.2020
5333 Clouds 4 1032 72 10000 3.1 260 17:53 20.11.2020
5334 Clouds 4 1031 86 10000 3.1 270 17:28 20.11.2020
5335 Clouds 5 1031 86 10000 3.6 270 16:40 20.11.2020
5336 Clouds 6 1030 75 10000 3.1 280 15:59 20.11.2020
5337 Clouds 6 1030 75 10000 3.1 280 15:27 20.11.2020
5338 Clouds 6 1030 75 10000 5.1 270 13:47 20.11.2020
5339 Clouds 6 1030 80 10000 5.1 280 13:19 20.11.2020
5340 Clouds 6 1030 80 10000 4.6 270 12:36 20.11.2020
5341 Clouds 6 1030 86 10000 4.6 290 11:45 20.11.2020
5342 Clouds 6 1030 86 10000 3.6 280 11:20 20.11.2020
5343 Clouds 4 1028 86 10000 3.6 270 09:31 20.11.2020
5344 Clear 3 1027 93 10000 4.6 280 08:26 20.11.2020
5345 Clear 3 1027 93 10000 4.6 270 07:34 20.11.2020
5346 Clear 4 1025 86 10000 5.7 270 03:44 20.11.2020
5347 Clear 5 1023 80 10000 5.7 280 23:25 19.11.2020
5348 Clear 6 1022 80 10000 6.2 280 22:27 19.11.2020
5349 Clouds 6 1021 81 10000 4.6 280 21:49 19.11.2020
5350 Clouds 7 1020 75 10000 5.1 280 20:36 19.11.2020
5351 Clouds 7 1020 75 10000 5.1 290 20:18 19.11.2020
5352 Clouds 8 1018 70 10000 6.7 290 19:25 19.11.2020
5353 Clouds 9 1016 81 10000 8.7 280 17:50 19.11.2020
5354 Clouds 10 1015 66 10000 9.3 250 16:59 19.11.2020
5355 Clear 11 1015 61 10000 8.7 240 15:59 19.11.2020
5356 Clouds 11 1015 57 10000 8.7 250 15:28 19.11.2020
5357 Clouds 11 1014 58 10000 9.3 260 13:47 19.11.2020
5358 Clouds 11 1014 58 10000 9.3 260 13:25 19.11.2020
5359 Clouds 12 1014 66 10000 9.3 260 12:51 19.11.2020
5360 Clouds 11 1014 71 10000 10.3 260 12:25 19.11.2020
5361 Clouds 11 1014 76 10000 7.7 250 11:40 19.11.2020
5362 Clouds 11 1014 76 10000 7.2 240 11:00 19.11.2020
5363 Clouds 12 1013 76 10000 7.2 240 10:28 19.11.2020
5364 Clouds 12 1013 71 10000 6.7 220 09:45 19.11.2020
5365 Clouds 12 1013 71 10000 6.7 220 09:26 19.11.2020
5366 Clouds 11 1013 66 10000 6.7 220 08:20 19.11.2020
5367 Clouds 11 1013 66 10000 7.2 220 06:54 19.11.2020
5368 Clear 9 1015 70 10000 8.2 190 01:46 19.11.2020
5369 Clear 9 1016 76 10000 6.2 190 00:31 19.11.2020
5370 Clear 9 1017 81 10000 6.2 190 23:31 18.11.2020
5371 Clear 9 1018 81 10000 5.7 190 22:57 18.11.2020
5372 Clear 9 1018 87 10000 4.1 180 22:27 18.11.2020
5373 Clear 9 1019 87 10000 4.1 170 21:41 18.11.2020
5374 Clear 9 1019 87 10000 4.1 170 21:21 18.11.2020
5375 Clear 9 1020 87 10000 4.6 160 20:31 18.11.2020
5376 Clouds 10 1020 87 10000 3.1 160 19:37 18.11.2020
5377 Clouds 10 1021 81 10000 3.6 170 18:58 18.11.2020
5378 Clouds 11 1021 76 10000 3.6 180 18:39 18.11.2020
5379 Clouds 12 1022 76 10000 4.6 200 17:41 18.11.2020
5380 Clouds 12 1023 71 10000 5.1 190 16:26 18.11.2020
5381 Clouds 12 1023 71 10000 5.1 190 15:57 18.11.2020
5382 Clouds 13 1024 66 10000 5.7 210 14:41 18.11.2020
5383 Clouds 13 1024 66 10000 5.1 220 13:46 18.11.2020
5384 Clouds 13 1025 66 10000 6.7 230 13:21 18.11.2020
5385 Clouds 13 1025 71 10000 5.7 220 12:42 18.11.2020
5386 Clouds 13 1026 76 10000 4.1 210 11:42 18.11.2020
5387 Clouds 13 1026 76 10000 4.1 210 11:42 18.11.2020
5388 Clouds 12 1026 81 10000 4.1 210 10:54 18.11.2020
5389 Clouds 12 1026 81 10000 4.1 210 10:54 18.11.2020
5390 Clouds 12 1026 81 10000 4.1 210 10:27 18.11.2020
5391 Clouds 11 1026 81 10000 4.6 220 08:33 18.11.2020
5392 Clouds 11 1025 87 10000 3.6 220 06:41 18.11.2020
5393 Clouds 11 1025 93 10000 3.1 230 03:48 18.11.2020
5394 Clouds 11 1025 87 10000 5.1 230 00:18 18.11.2020
5395 Clouds 11 1025 87 10000 5.1 220 23:24 17.11.2020
5396 Clouds 11 1025 87 10000 5.1 210 22:44 17.11.2020
5397 Clouds 11 1024 87 10000 4.6 220 22:25 17.11.2020
5398 Clouds 11 1024 87 10000 4.6 230 21:46 17.11.2020
5399 Clouds 11 1024 93 10000 3.6 230 21:22 17.11.2020
5400 Clouds 11 1024 93 10000 4.6 240 20:43 17.11.2020
5401 Clouds 10 1024 93 10000 4.6 240 20:22 17.11.2020
5402 Clouds 10 1024 93 10000 5.7 240 18:56 17.11.2020
5403 Clouds 10 1023 100 10000 6.2 230 18:22 17.11.2020
5404 Drizzle 10 1023 100 9000 6.2 230 17:27 17.11.2020
5405 Drizzle 10 1023 93 6000 5.7 220 16:33 17.11.2020
5406 Drizzle 10 1023 93 7000 6.2 220 15:53 17.11.2020
5407 Drizzle 10 1023 93 7000 6.2 220 15:34 17.11.2020
5408 Clouds 10 1023 93 4500 5.1 210 14:58 17.11.2020
5409 Rain 10 1023 93 5000 5.7 210 14:29 17.11.2020
5410 Rain 10 1023 93 6000 6.2 220 14:29 17.11.2020
5411 Clouds 10 1023 87 10000 6.2 230 13:42 17.11.2020
5412 Rain 11 1023 76 10000 6.2 230 13:20 17.11.2020
5413 Clouds 11 1023 76 10000 5.7 220 12:41 17.11.2020
5414 Clear 11 1023 81 10000 5.7 230 11:44 17.11.2020
5415 Clear 10 1023 81 10000 5.7 230 10:56 17.11.2020
5416 Clear 10 1023 81 10000 5.1 220 10:36 17.11.2020
5417 Clear 10 1023 87 10000 4.1 210 09:51 17.11.2020
5418 Clouds 9 1023 81 10000 4.6 210 09:30 17.11.2020
5419 Clouds 8 1022 87 10000 4.6 220 08:25 17.11.2020
5420 Clouds 9 1022 87 10000 5.7 230 07:50 17.11.2020
5421 Clouds 9 1022 93 10000 4.6 220 06:59 17.11.2020
5422 Clouds 10 1021 93 10000 4.1 230 04:20 17.11.2020
5423 Clouds 10 1020 87 10000 3.6 230 02:55 17.11.2020
5424 Clouds 10 1020 81 10000 4.6 230 01:31 17.11.2020
5425 Clouds 10 1020 81 10000 4.6 220 00:56 17.11.2020
5426 Clouds 10 1019 87 10000 5.1 230 23:51 16.11.2020
5427 Clouds 10 1019 81 10000 5.1 230 23:51 16.11.2020
5428 Clouds 10 1019 81 10000 5.1 230 23:29 16.11.2020
5429 Clouds 10 1018 81 10000 5.1 230 22:48 16.11.2020
5430 Clouds 10 1018 81 10000 5.7 230 22:21 16.11.2020
5431 Clouds 10 1017 81 10000 5.7 230 21:49 16.11.2020
5432 Clouds 10 1017 81 10000 6.2 230 21:25 16.11.2020
5433 Clouds 10 1017 81 10000 6.2 230 20:59 16.11.2020
5434 Clouds 11 1017 81 10000 5.1 220 20:25 16.11.2020
5435 Clouds 10 1016 81 10000 6.2 240 19:45 16.11.2020
5436 Clear 10 1016 81 10000 5.1 220 19:27 16.11.2020
5437 Clear 11 1016 81 10000 5.1 220 18:48 16.11.2020
5438 Clouds 11 1015 76 10000 3.6 220 17:57 16.11.2020
5439 Clouds 11 1015 76 10000 4.1 210 17:26 16.11.2020
5440 Clouds 12 1014 76 10000 3.6 220 16:57 16.11.2020
5441 Clouds 12 1014 76 10000 3.6 220 16:39 16.11.2020
5442 Clouds 12 1014 76 10000 5.1 240 16:19 16.11.2020
5443 Clouds 12 1014 71 10000 4.1 240 15:43 16.11.2020
5444 Clouds 12 1013 71 10000 4.6 240 15:23 16.11.2020
5445 Clouds 12 1013 71 10000 5.1 260 14:47 16.11.2020
5446 Clouds 13 1012 76 10000 6.2 230 13:41 16.11.2020
5447 Clouds 13 1012 76 10000 7.2 240 12:51 16.11.2020
5448 Clouds 13 1012 76 10000 7.2 240 12:28 16.11.2020
5449 Clouds 12 1012 87 10000 4.6 220 11:39 16.11.2020
5450 Clouds 11 1012 87 10000 3.6 190 11:21 16.11.2020
5451 Clouds 10 1011 93 10000 3.6 190 10:44 16.11.2020
5452 Clouds 10 1011 93 10000 3.6 190 10:25 16.11.2020
5453 Clear 10 1011 93 10000 2.6 190 09:46 16.11.2020
5454 Clear 9 1010 93 10000 2.6 190 09:23 16.11.2020
5455 Clear 8 1010 93 10000 3.1 200 08:41 16.11.2020
5456 Clouds 8 1009 93 10000 4.1 210 07:48 16.11.2020
5457 Clouds 8 1008 93 10000 4.1 200 06:54 16.11.2020
5458 Rain 8 1008 93 10000 4.1 200 06:35 16.11.2020
5459 Rain 8 1008 81 10000 2.6 170 04:53 16.11.2020
5460 Rain 8 1008 81 10000 2.6 150 03:52 16.11.2020
5461 Clear 8 1008 81 10000 4.1 150 01:44 16.11.2020
5462 Clear 8 1009 81 10000 5.1 160 00:20 16.11.2020
5463 Clear 8 1009 81 10000 6.2 150 23:28 15.11.2020
5464 Clear 8 1009 81 10000 6.2 150 22:57 15.11.2020
5465 Clear 8 1010 81 10000 4.6 160 22:22 15.11.2020
5466 Clear 8 1010 81 10000 4.1 180 21:51 15.11.2020
5467 Clear 8 1010 81 10000 6.2 150 21:27 15.11.2020
5468 Clear 8 1010 81 10000 6.2 150 20:51 15.11.2020
5469 Clouds 8 979 83 10000 5.73 164 20:32 15.11.2020
5470 Clouds 9 1010 80 10000 5.81 146 19:55 15.11.2020
5471 Clear 9 1011 75 10000 6.2 160 19:36 15.11.2020
5472 Clear 9 1010 81 10000 6.2 150 19:18 15.11.2020
5473 Clear 10 1011 76 10000 6.7 150 18:43 15.11.2020
5474 Clear 10 1011 76 10000 4.6 150 18:24 15.11.2020
5475 Clear 11 1012 76 10000 4.6 150 17:47 15.11.2020
5476 Clear 11 1012 71 10000 4.1 150 17:26 15.11.2020
5477 Clear 12 1012 71 10000 4.1 150 16:58 15.11.2020
5478 Clear 12 1012 66 10000 5.1 150 16:38 15.11.2020
5479 Clear 13 1012 66 10000 4.1 150 16:18 15.11.2020
5480 Clear 14 1012 66 10000 4.6 170 15:42 15.11.2020
5481 Clear 14 1012 62 10000 4.6 170 15:22 15.11.2020
5482 Clear 14 1012 67 10000 5.1 180 14:50 15.11.2020
5483 Clear 14 1012 62 10000 5.7 170 14:25 15.11.2020
5484 Clear 15 1013 67 10000 5.7 170 13:41 15.11.2020
5485 Clear 15 1013 67 10000 5.1 170 13:18 15.11.2020
5486 Clear 14 1013 67 10000 5.1 180 12:42 15.11.2020
5487 Clear 14 1014 71 10000 5.7 180 12:19 15.11.2020
5488 Clear 13 1014 76 10000 3.6 180 11:42 15.11.2020
5489 Clear 13 1014 76 10000 4.1 170 11:18 15.11.2020
5490 Clear 12 1014 76 10000 3.1 170 10:49 15.11.2020
5491 Clear 11 1014 76 10000 3.1 170 10:30 15.11.2020
5492 Clear 10 1015 87 10000 2.6 170 09:46 15.11.2020
5493 Clear 10 1015 87 10000 2.6 170 09:46 15.11.2020
5494 Clouds 10 1014 83 10000 2.68 183 09:24 15.11.2020
5495 Clear 10 1015 81 10000 4.1 170 08:54 15.11.2020
5496 Clear 10 1015 81 10000 4.1 170 08:54 15.11.2020
5497 Clear 9 1015 81 10000 3.6 170 08:32 15.11.2020
5498 Clear 9 1014 87 10000 4.1 160 07:44 15.11.2020
5499 Clouds 10 1014 85 10000 4.02 182 06:25 15.11.2020
5500 Clear 9 1015 87 10000 3.6 160 04:53 15.11.2020
5501 Clear 10 1016 93 10000 3.6 170 01:37 15.11.2020
5502 Clear 10 1016 93 10000 3.1 170 00:30 15.11.2020
5503 Clear 10 1016 93 10000 4.1 160 23:44 14.11.2020
5504 Clear 10 1017 93 10000 3.1 150 22:55 14.11.2020
5505 Clear 11 1017 93 10000 4.1 150 22:37 14.11.2020
5506 Clear 11 1017 93 10000 3.6 160 22:18 14.11.2020
5507 Clear 11 1017 87 10000 4.6 160 21:39 14.11.2020
5508 Clear 11 1017 93 10000 3.6 160 21:20 14.11.2020
5509 Clear 12 1017 87 10000 3.1 160 20:42 14.11.2020
5510 Clear 12 1017 87 10000 3.1 160 20:23 14.11.2020
5511 Clear 12 1017 93 10000 3.1 170 19:36 14.11.2020
5512 Clear 12 1017 87 10000 3.1 170 18:59 14.11.2020
5513 Clear 12 1017 87 10000 3.6 160 18:39 14.11.2020
5514 Clouds 12 1017 87 10000 2.6 160 18:21 14.11.2020
5515 Clouds 12 1018 87 10000 2.6 160 17:44 14.11.2020
5516 Clouds 13 1018 82 10000 2.6 180 17:26 14.11.2020
5517 Clouds 13 1018 82 10000 2.6 180 16:52 14.11.2020
5518 Clouds 13 1018 82 10000 2.6 210 16:33 14.11.2020
5519 Clouds 14 1018 82 10000 3.1 220 15:55 14.11.2020
5520 Clouds 15 1018 82 10000 3.1 220 15:32 14.11.2020
5521 Clouds 15 1018 77 10000 2.1 240 14:57 14.11.2020
5522 Rain 15 1018 77 10000 4.1 240 14:30 14.11.2020
5523 Clouds 15 1018 82 10000 4.6 230 13:55 14.11.2020
5524 Clouds 15 1018 82 10000 4.1 230 13:37 14.11.2020
5525 Clouds 14 1018 82 10000 4.1 230 13:18 14.11.2020
5526 Clouds 14 1018 82 10000 4.6 230 12:39 14.11.2020
5527 Clouds 14 1018 82 10000 3.6 220 12:18 14.11.2020
5528 Clouds 13 1018 87 10000 3.6 230 11:39 14.11.2020
5529 Clouds 12 1018 87 10000 2.6 210 11:21 14.11.2020
5530 Clouds 12 1018 87 10000 2.6 190 10:40 14.11.2020
5531 Clouds 12 1018 93 10000 2.1 210 10:22 14.11.2020
5532 Clouds 11 1019 87 10000 2.6 210 09:45 14.11.2020
5533 Clouds 11 1019 87 10000 2.6 210 09:27 14.11.2020
5534 Clouds 10 1018 93 10000 2.1 190 08:44 14.11.2020
5535 Clouds 10 1018 93 10000 2.1 190 08:23 14.11.2020
5536 Clouds 10 1018 93 10000 2.6 190 07:42 14.11.2020
5537 Clouds 10 1018 93 10000 2.6 190 07:21 14.11.2020
5538 Clouds 10 1018 100 10000 2.1 170 06:29 14.11.2020
5539 Clouds 10 1018 100 8000 2.6 220 05:27 14.11.2020
5540 Clouds 9 1018 100 10000 1 210 03:40 14.11.2020
5541 Clear 8 1018 87 10000 3.1 190 00:54 14.11.2020
5542 Clear 8 1017 93 10000 2.1 170 23:46 13.11.2020
5543 Clear 7 1017 93 10000 2.1 170 23:23 13.11.2020
5544 Clouds 8 1018 87 10000 2.1 180 22:44 13.11.2020
5545 Clouds 7 1018 87 10000 2.1 180 22:25 13.11.2020
5546 Clouds 8 1017 93 10000 2.1 170 21:55 13.11.2020
5547 Clear 7 1017 93 10000 2.6 150 21:37 13.11.2020
5548 Clear 7 1017 93 10000 2.6 150 21:19 13.11.2020
5549 Clear 7 1017 87 10000 3.1 150 20:41 13.11.2020
5550 Clear 7 1017 87 10000 2.6 140 20:21 13.11.2020
5551 Clouds 7 1017 87 10000 2.6 140 19:46 13.11.2020
5552 Clouds 8 1018 81 10000 3.1 140 19:23 13.11.2020
5553 Clouds 8 1018 81 10000 2.6 160 18:56 13.11.2020
5554 Clear 8 1018 81 10000 3.1 150 18:23 13.11.2020
5555 Clouds 9 1018 81 10000 2.1 140 17:41 13.11.2020
5556 Clouds 9 1018 81 10000 3.1 190 17:19 13.11.2020
5557 Clouds 10 1018 76 10000 3.1 180 16:49 13.11.2020
5558 Clouds 10 1018 76 10000 3.1 180 16:24 13.11.2020
5559 Clouds 11 1018 71 10000 3.6 210 15:50 13.11.2020
5560 Clouds 11 1018 71 10000 3.6 210 15:27 13.11.2020
5561 Clouds 12 1019 71 10000 3.6 200 14:50 13.11.2020
5562 Clear 12 1019 71 10000 3.6 220 14:25 13.11.2020
5563 Clear 11 1019 71 10000 3.6 220 13:53 13.11.2020
5564 Clear 11 1019 71 10000 4.6 220 13:25 13.11.2020
5565 Clear 11 1020 81 10000 3.1 200 12:48 13.11.2020
5566 Clear 10 1020 87 10000 3.6 190 12:25 13.11.2020
5567 Clear 10 1020 81 10000 3.1 210 11:50 13.11.2020
5568 Clear 10 1020 81 10000 3.1 210 11:32 13.11.2020
5569 Clear 9 1020 81 10000 3.1 220 10:59 13.11.2020
5570 Clear 8 1020 87 10000 2.6 220 10:40 13.11.2020
5571 Clear 8 1020 87 10000 2.1 230 10:22 13.11.2020
5572 Clear 8 1020 93 10000 2.6 200 09:44 13.11.2020
5573 Clear 7 1020 93 10000 3.1 200 09:24 13.11.2020
5574 Clear 7 1020 93 10000 3.1 200 08:52 13.11.2020
5575 Clear 7 1020 93 10000 3.1 200 08:22 13.11.2020
5576 Clear 6 1020 93 10000 3.1 190 07:48 13.11.2020
5577 Clear 6 1020 93 10000 3.1 190 07:27 13.11.2020
5578 Clear 6 1020 100 10000 2.6 180 06:55 13.11.2020
5579 Clear 6 1020 100 10000 2.6 180 06:34 13.11.2020
5580 Clouds 6 1020 93 10000 2.1 190 05:40 13.11.2020
5581 Clouds 6 1020 93 10000 2.6 190 02:57 13.11.2020
5582 Clear 6 1020 93 10000 2.1 180 01:39 13.11.2020
5583 Clouds 6 1020 87 10000 2.6 180 00:35 13.11.2020
5584 Clouds 7 1020 93 10000 2.1 170 23:47 12.11.2020
5585 Clear 7 1020 86 10000 2.6 160 23:21 12.11.2020
5586 Clouds 7 1020 87 10000 2.1 160 22:54 12.11.2020
5587 Clouds 7 1020 87 10000 2.1 160 22:36 12.11.2020
5588 Clouds 7 1020 81 10000 2.1 160 21:57 12.11.2020
5589 Clouds 8 1020 81 10000 2.1 160 21:39 12.11.2020
5590 Clouds 8 1020 81 10000 2.6 160 21:21 12.11.2020
5591 Clouds 8 1020 81 10000 3.1 170 20:41 12.11.2020
5592 Clouds 8 1020 81 10000 3.1 170 20:23 12.11.2020
5593 Clouds 8 1020 81 10000 3.1 170 19:53 12.11.2020
5594 Clouds 8 1020 75 10000 4.1 160 19:34 12.11.2020
5595 Clouds 8 1020 81 10000 4.1 160 18:59 12.11.2020
5596 Clouds 8 1019 80 10000 3.58 166 18:41 12.11.2020
5597 Clouds 9 1020 79 10000 3.58 174 18:20 12.11.2020
5598 Clouds 8 1020 75 10000 4.1 170 17:40 12.11.2020
5599 Clouds 9 1020 75 10000 3.6 180 17:22 12.11.2020
5600 Clouds 9 1019 75 10000 4.6 150 16:45 12.11.2020
5601 Clouds 9 1019 70 10000 4.6 160 16:23 12.11.2020
5602 Clouds 10 1019 70 10000 5.7 160 15:53 12.11.2020
5603 Clouds 10 1019 70 10000 5.7 160 15:29 12.11.2020
5604 Clear 10 1019 66 10000 5.1 150 14:56 12.11.2020
5605 Clear 11 1019 66 10000 5.1 150 14:38 12.11.2020
5606 Clouds 11 1020 66 10000 5.1 180 14:19 12.11.2020
5607 Clouds 10 1020 66 10000 4.6 190 13:45 12.11.2020
5608 Clouds 11 1020 77 10000 3.58 170 13:20 12.11.2020
5609 Clouds 10 1020 70 10000 6.2 190 12:49 12.11.2020
5610 Clouds 10 1020 70 10000 6.2 190 12:49 12.11.2020
5611 Clouds 10 1020 70 10000 6.2 190 12:26 12.11.2020
5612 Clouds 9 1020 76 10000 4.6 190 11:58 12.11.2020
5613 Clouds 9 1020 81 10000 4.6 180 11:40 12.11.2020
5614 Clouds 9 1021 81 10000 5.1 190 10:58 12.11.2020
5615 Clouds 8 1021 81 10000 4.6 190 10:38 12.11.2020
5616 Clouds 8 1021 81 10000 3.1 160 10:19 12.11.2020
5617 Clouds 8 1021 87 10000 3.1 150 09:40 12.11.2020
5618 Clouds 8 1021 87 10000 2.6 150 09:18 12.11.2020
5619 Clouds 7 1021 87 10000 2.6 140 08:40 12.11.2020
5620 Clouds 7 1021 87 10000 2.6 140 08:40 12.11.2020
5621 Clouds 7 1021 87 10000 3.1 150 08:21 12.11.2020
5622 Clouds 7 1021 87 10000 3.1 150 07:56 12.11.2020
5623 Clouds 7 1021 87 10000 2.6 140 07:37 12.11.2020
5624 Clouds 7 1021 93 10000 2.1 140 06:54 12.11.2020
5625 Clouds 7 1021 93 10000 2.1 140 06:27 12.11.2020
5626 Clouds 7 1022 100 5000 2.6 140 03:51 12.11.2020
5627 Mist 7 1022 100 3700 2.6 140 03:20 12.11.2020
5628 Mist 7 1023 93 4100 1.5 120 00:54 12.11.2020
5629 Clouds 7 1024 93 8000 1 0 23:47 11.11.2020
5630 Clouds 7 1024 93 8000 3.1 120 23:25 11.11.2020
5631 Clouds 6 1024 93 8000 3.1 120 22:57 11.11.2020
5632 Drizzle 6 1024 87 10000 2.6 110 22:38 11.11.2020
5633 Drizzle 6 1024 87 10000 2.6 110 22:19 11.11.2020
5634 Clouds 7 1024 87 10000 2.1 110 21:41 11.11.2020
5635 Clouds 7 1025 87 10000 1.5 100 21:23 11.11.2020
5636 Clouds 6 1025 87 10000 1.5 100 20:55 11.11.2020
5637 Clouds 7 1025 87 10000 1.5 120 20:37 11.11.2020
5638 Clouds 6 1025 87 10000 1.5 60 20:19 11.11.2020
5639 Clouds 6 1025 87 10000 1 150 19:48 11.11.2020
5640 Clouds 7 1025 87 10000 1 150 19:30 11.11.2020
5641 Clouds 7 1025 87 10000 1 150 19:30 11.11.2020
5642 Clouds 7 1025 81 10000 2.1 160 18:50 11.11.2020
5643 Clouds 7 1025 81 10000 2.1 160 18:31 11.11.2020
5644 Clouds 7 1025 75 10000 2.1 130 17:42 11.11.2020
5645 Clouds 7 1025 75 10000 3.1 130 17:22 11.11.2020
5646 Clouds 7 1025 75 10000 3.1 130 16:50 11.11.2020
5647 Clouds 7 1025 75 10000 3.1 130 16:32 11.11.2020
5648 Clouds 7 1025 75 10000 3.1 130 16:32 11.11.2020
5649 Clouds 7 1025 75 10000 2.6 130 15:50 11.11.2020
5650 Clouds 7 1025 75 10000 2.1 130 15:27 11.11.2020
5651 Clouds 7 1025 75 10000 2.6 110 14:56 11.11.2020
5652 Clouds 7 1026 75 10000 0.5 0 14:37 11.11.2020
5653 Clouds 7 1026 75 10000 1.5 150 13:57 11.11.2020
5654 Clouds 7 1026 75 10000 2.1 110 13:35 11.11.2020
5655 Clouds 7 1027 75 10000 3.1 140 12:48 11.11.2020
5656 Clouds 7 1027 75 10000 2.1 150 12:21 11.11.2020
5657 Clouds 7 1027 75 10000 2.1 150 11:49 11.11.2020
5658 Clouds 7 1027 87 10000 2.1 160 11:30 11.11.2020
5659 Clouds 7 1027 87 10000 2.6 140 10:43 11.11.2020
5660 Clouds 7 1027 87 10000 2.6 140 10:24 11.11.2020
5661 Clouds 7 1027 87 10000 2.6 130 09:49 11.11.2020
5662 Clouds 7 1027 87 10000 2.6 130 09:28 11.11.2020
5663 Clouds 7 1027 87 10000 2.6 130 08:51 11.11.2020
5664 Clouds 6 1028 87 10000 2.1 110 08:30 11.11.2020
5665 Clouds 6 1027 87 10000 2.6 120 07:58 11.11.2020
5666 Clouds 6 1028 87 10000 2.6 120 07:39 11.11.2020
5667 Clouds 6 1028 87 10000 2.6 110 06:30 11.11.2020
5668 Clouds 6 1028 87 10000 2.6 110 06:30 11.11.2020
5669 Clouds 6 1028 87 10000 2.6 90 04:48 11.11.2020
5670 Clouds 6 1029 93 10000 2.6 100 01:36 11.11.2020
5671 Clouds 6 1029 93 10000 3.1 100 00:55 11.11.2020
5672 Clouds 6 1029 93 10000 3.1 110 00:22 11.11.2020
5673 Clouds 6 1029 93 10000 2.1 100 23:36 10.11.2020
5674 Clouds 6 1029 93 10000 2.6 100 23:18 10.11.2020
5675 Clouds 6 1029 93 10000 3.1 110 22:43 10.11.2020
5676 Clouds 6 1029 93 10000 2.6 100 22:19 10.11.2020
5677 Clouds 6 1029 93 10000 2.6 100 21:40 10.11.2020
5678 Clouds 6 1029 87 10000 3.1 100 21:22 10.11.2020
5679 Clouds 6 1029 87 10000 3.1 90 20:43 10.11.2020
5680 Clouds 6 1029 87 10000 4.1 100 20:24 10.11.2020
5681 Clouds 6 1029 87 10000 4.1 100 19:58 10.11.2020
5682 Clouds 6 1029 87 10000 3.1 100 19:39 10.11.2020
5683 Clouds 6 1029 93 10000 2.6 110 19:21 10.11.2020
5684 Clouds 6 1029 93 10000 3.1 110 18:42 10.11.2020
5685 Clouds 6 1029 87 10000 2.6 100 18:21 10.11.2020
5686 Clouds 6 1029 87 10000 3.1 100 17:57 10.11.2020
5687 Clouds 6 1029 87 10000 3.1 100 17:38 10.11.2020
5688 Clouds 6 1029 87 10000 2.6 100 17:20 10.11.2020
5689 Clouds 6 1029 87 10000 3.1 110 16:41 10.11.2020
5690 Clouds 6 1029 87 10000 3.1 100 16:22 10.11.2020
5691 Clouds 6 1029 87 10000 3.1 100 15:48 10.11.2020
5692 Clouds 6 1029 87 10000 3.6 110 15:27 10.11.2020
5693 Clouds 6 1029 87 10000 4.1 110 14:56 10.11.2020
5694 Clouds 6 1029 87 10000 4.1 110 14:37 10.11.2020
5695 Clouds 6 1029 93 10000 4.1 120 14:18 10.11.2020
5696 Clouds 6 1029 93 10000 3.1 120 13:38 10.11.2020
5697 Clouds 6 1029 93 10000 3.6 120 13:20 10.11.2020
5698 Clouds 6 1030 93 10000 4.1 120 12:46 10.11.2020
5699 Clouds 6 1030 93 10000 4.1 120 12:27 10.11.2020
5700 Clouds 6 1030 93 10000 4.1 120 11:43 10.11.2020
5701 Clouds 6 1030 93 10000 4.1 120 11:43 10.11.2020
5702 Clouds 6 1029 93 10000 4.6 130 11:22 10.11.2020
5703 Clouds 5 1029 93 10000 4.6 130 10:58 10.11.2020
5704 Clouds 5 1030 93 10000 4.1 120 10:39 10.11.2020
5705 Clouds 5 1029 93 10000 4.6 120 10:21 10.11.2020
5706 Clouds 5 1029 93 8000 4.6 140 09:46 10.11.2020
5707 Clouds 5 1029 93 8000 4.6 140 09:25 10.11.2020
5708 Clouds 5 1029 93 6000 4.6 120 08:55 10.11.2020
5709 Clouds 5 1029 93 5000 3.6 130 08:29 10.11.2020
5710 Mist 5 1029 93 4800 3.6 130 07:46 10.11.2020
5711 Mist 5 1029 93 4800 3.6 130 07:26 10.11.2020
5712 Mist 5 1029 93 4800 4.1 130 06:42 10.11.2020
5713 Mist 5 1029 100 4800 5.1 130 05:56 10.11.2020
5714 Mist 5 1028 100 4800 4.1 130 05:24 10.11.2020
5715 Mist 5 1029 93 4800 5.1 130 02:48 10.11.2020
5716 Mist 6 1028 93 4800 4.6 120 01:32 10.11.2020
5717 Clear 6 1029 93 10000 4.02 97 00:23 10.11.2020
5718 Mist 6 1029 100 4800 4.1 130 23:38 09.11.2020
5719 Mist 6 1028 100 4800 4.1 140 22:56 09.11.2020
5720 Mist 6 1028 93 4800 4.1 140 22:37 09.11.2020
5721 Mist 6 1028 93 4800 4.1 130 22:19 09.11.2020
5722 Mist 6 1028 93 5000 4.6 120 21:39 09.11.2020
5723 Mist 6 1028 93 5000 4.1 110 21:20 09.11.2020
5724 Clouds 6 1028 93 6000 4.6 90 20:40 09.11.2020
5725 Clouds 6 1028 93 6000 4.6 90 20:21 09.11.2020
5726 Mist 6 1028 93 4900 5.1 100 19:42 09.11.2020
5727 Mist 6 1028 93 4900 5.1 100 19:22 09.11.2020
5728 Mist 6 1028 93 4900 3.6 120 18:56 09.11.2020
5729 Mist 7 1028 93 4900 4.6 100 18:37 09.11.2020
5730 Mist 7 1028 93 4900 3.6 90 18:18 09.11.2020
5731 Clouds 7 1028 93 5000 3.6 110 17:42 09.11.2020
5732 Clouds 7 1028 93 6000 4.1 120 17:24 09.11.2020
5733 Clouds 7 1027 93 7000 4.6 110 16:41 09.11.2020
5734 Clouds 7 1027 93 7000 5.1 100 16:20 09.11.2020
5735 Clouds 7 1027 93 7000 4.1 100 15:44 09.11.2020
5736 Clouds 7 1027 93 10000 3.13 77 15:25 09.11.2020
5737 Clouds 7 1027 93 6000 4.1 110 14:46 09.11.2020
5738 Clouds 7 1027 93 6000 4.1 110 14:28 09.11.2020
5739 Clouds 7 1028 93 5000 4.1 110 13:52 09.11.2020
5740 Clouds 7 1028 93 5000 4.6 80 13:25 09.11.2020
5741 Clouds 6 1028 93 5000 4.6 80 12:57 09.11.2020
5742 Mist 7 1028 93 4500 3.6 110 12:39 09.11.2020
5743 Mist 6 1028 93 3700 4.1 100 12:20 09.11.2020
5744 Mist 6 1028 93 3200 4.1 100 11:42 09.11.2020
5745 Mist 6 1028 93 3000 4.6 120 11:24 09.11.2020
5746 Mist 6 1028 93 3000 4.6 120 11:24 09.11.2020
5747 Mist 6 1028 93 2900 3.6 110 10:43 09.11.2020
5748 Clouds 6 1027 94 10000 3.58 91 10:25 09.11.2020
5749 Clouds 6 1027 95 10000 3.13 90 09:52 09.11.2020
5750 Mist 6 1027 93 3000 3.1 90 09:28 09.11.2020
5751 Mist 6 1027 93 3000 3.1 90 08:50 09.11.2020
5752 Mist 6 1027 93 2000 3.1 90 08:27 09.11.2020
5753 Mist 6 1027 93 2000 3.6 100 07:43 09.11.2020
5754 Mist 6 1027 93 2000 3.1 100 07:22 09.11.2020
5755 Mist 6 1027 100 1600 4.6 100 06:51 09.11.2020
5756 Mist 6 1027 100 3500 3.6 100 03:51 09.11.2020
5757 Clouds 5 1027 100 10000 3.6 90 01:57 09.11.2020
5758 Mist 5 1027 100 4000 3.1 100 01:39 09.11.2020
5759 Mist 5 1027 100 3500 3.1 100 00:40 09.11.2020
5760 Mist 6 1027 100 3500 3.1 90 23:40 08.11.2020
5761 Mist 6 1027 100 3500 3.1 90 23:22 08.11.2020
5762 Mist 5 1027 100 3000 3.6 90 22:43 08.11.2020
5763 Mist 5 1027 100 2800 3.1 90 22:21 08.11.2020
5764 Mist 5 1027 100 2800 2.6 90 21:47 08.11.2020
5765 Mist 5 1026 100 2500 3.6 80 21:22 08.11.2020
5766 Mist 5 1026 100 3500 2.6 70 20:57 08.11.2020
5767 Mist 5 1026 100 3500 2.6 70 20:38 08.11.2020
5768 Mist 5 1026 93 4000 3.1 80 20:20 08.11.2020
5769 Mist 5 1026 93 4500 3.1 90 19:45 08.11.2020
5770 Mist 6 1026 93 5000 2.6 90 19:22 08.11.2020
5771 Mist 6 1026 93 5000 2.6 90 18:57 08.11.2020
5772 Clouds 6 1026 100 6000 2.6 90 18:39 08.11.2020
5773 Clouds 6 1026 93 6000 3.6 80 18:20 08.11.2020
5774 Clouds 7 1025 93 10000 3.6 70 17:42 08.11.2020
5775 Clear 8 1025 81 10000 3.6 60 17:20 08.11.2020
5776 Clear 8 1025 81 10000 3.6 60 16:57 08.11.2020
5777 Clear 9 1025 81 10000 2.6 70 16:38 08.11.2020
5778 Clear 10 1025 76 10000 2.6 80 16:19 08.11.2020
5779 Clear 10 1025 76 10000 2.6 80 15:46 08.11.2020
5780 Clear 11 1025 66 10000 3.1 70 15:27 08.11.2020
5781 Clear 11 1025 66 10000 2.6 100 14:43 08.11.2020
5782 Clear 11 1025 66 10000 2.1 60 14:24 08.11.2020
5783 Clear 11 1025 66 10000 2.1 60 13:56 08.11.2020
5784 Clear 10 1025 71 10000 2.1 90 13:26 08.11.2020
5785 Clear 10 1025 71 10000 2.1 90 13:26 08.11.2020
5786 Clear 10 1025 71 10000 2.1 90 12:59 08.11.2020
5787 Clear 10 1025 71 10000 1.5 100 12:40 08.11.2020
5788 Clear 9 1025 76 10000 1.5 90 12:20 08.11.2020
5789 Clear 9 1025 81 10000 1 0 11:55 08.11.2020
5790 Clear 8 1025 81 10000 1 0 11:37 08.11.2020
5791 Clear 7 1025 81 10000 1 0 11:19 08.11.2020
5792 Clear 8 1025 87 10000 0.5 0 10:42 08.11.2020
5793 Clear 6 1025 93 10000 0.5 0 10:18 08.11.2020
5794 Clear 4 1025 93 8000 0.74 151 09:41 08.11.2020
5795 Clear 4 1025 93 8000 1.11 153 09:22 08.11.2020
5796 Fog 4 1025 100 7000 0.5 0 08:47 08.11.2020
5797 Fog 2 1024 100 7000 1.13 141 08:23 08.11.2020
5798 Fog 2 1024 100 7000 1.13 141 07:53 08.11.2020
5799 Fog 2 1024 93 7000 0.5 0 07:31 08.11.2020
5800 Fog 2 1024 100 5000 1 0 06:45 08.11.2020
5801 Fog 3 1024 100 6000 0.5 100 05:54 08.11.2020
5802 Fog 4 1024 100 7000 0.5 130 04:51 08.11.2020
5803 Fog 4 1024 100 10000 0.5 0 03:27 08.11.2020
5804 Fog 4 1024 93 10000 1 90 01:20 08.11.2020
5805 Fog 4 1024 100 10000 0.5 110 00:49 08.11.2020
5806 Fog 5 1024 100 10000 0.5 330 00:20 08.11.2020
5807 Clear 5 1024 100 10000 1 0 23:40 07.11.2020
5808 Clear 5 1024 100 10000 1 0 23:22 07.11.2020
5809 Clear 6 1024 93 10000 1 0 22:40 07.11.2020
5810 Clear 6 1025 93 10000 0.5 0 22:21 07.11.2020
5811 Clear 6 1025 93 10000 0.5 0 21:44 07.11.2020
5812 Clear 6 1025 86 10000 0.5 0 21:21 07.11.2020
5813 Clear 7 1025 81 10000 1 170 20:48 07.11.2020
5814 Clear 7 1025 81 10000 1 170 20:30 07.11.2020
5815 Clear 7 1025 87 10000 0.5 190 19:51 07.11.2020
5816 Clear 7 1025 87 10000 0.5 190 19:29 07.11.2020
5817 Clear 8 1025 81 10000 1.5 130 18:58 07.11.2020
5818 Clear 8 1025 76 10000 1 150 18:37 07.11.2020
5819 Clear 9 1025 76 10000 1.5 140 18:18 07.11.2020
5820 Clear 9 1025 76 10000 3.1 140 17:40 07.11.2020
5821 Clear 10 1025 66 10000 2.6 120 17:22 07.11.2020
5822 Clear 11 1026 66 10000 2.6 150 16:41 07.11.2020
5823 Clear 11 1026 62 10000 2.6 130 16:23 07.11.2020
5824 Clear 12 1026 62 10000 2.6 150 15:43 07.11.2020
5825 Clear 13 1026 58 10000 2.6 150 15:23 07.11.2020
5826 Clear 13 1026 62 10000 2.6 150 14:48 07.11.2020
5827 Clear 13 1026 62 10000 2.6 150 14:30 07.11.2020
5828 Clear 13 1026 62 10000 2.6 150 14:30 07.11.2020
5829 Clear 12 1027 62 10000 3.1 140 13:59 07.11.2020
5830 Clear 12 1027 62 10000 2.6 150 13:39 07.11.2020
5831 Clear 12 1027 62 10000 3.1 150 13:20 07.11.2020
5832 Clear 12 1028 66 10000 2.6 150 12:32 07.11.2020
5833 Clouds 10 1029 76 10000 2.6 140 11:45 07.11.2020
5834 Clouds 9 1029 81 10000 3.6 140 11:24 07.11.2020
5835 Clouds 9 1029 87 10000 4.1 140 10:56 07.11.2020
5836 Clouds 8 1029 87 10000 4.1 140 10:38 07.11.2020
5837 Clouds 8 1029 93 9000 2.6 140 10:20 07.11.2020
5838 Clouds 8 1029 93 9000 3.6 140 09:47 07.11.2020
5839 Clouds 8 1029 93 8000 4.1 140 09:21 07.11.2020
5840 Drizzle 7 1029 100 4500 2.1 140 08:43 07.11.2020
5841 Drizzle 7 1029 100 4500 2.1 140 08:22 07.11.2020
5842 Mist 7 1029 100 4000 3.1 150 07:37 07.11.2020
5843 Drizzle 7 1030 100 2500 3.6 160 06:48 07.11.2020
5844 Mist 8 1030 100 4000 3.1 160 05:40 07.11.2020
5845 Clouds 8 1031 93 6000 2.6 190 03:25 07.11.2020
5846 Clouds 9 1031 93 8000 1.5 140 02:38 07.11.2020
5847 Clouds 9 1032 93 7000 1.5 200 01:27 07.11.2020
5848 Clouds 9 1032 93 7000 1.5 220 00:34 07.11.2020
5849 Drizzle 9 1032 93 6000 1.5 200 23:36 06.11.2020
5850 Drizzle 9 1032 93 7000 1.5 190 23:18 06.11.2020
5851 Clouds 9 1032 93 7000 1.5 280 22:40 06.11.2020
5852 Clouds 9 1032 93 7000 1.5 260 22:18 06.11.2020
5853 Clouds 9 1032 93 8000 1.5 260 21:42 06.11.2020
5854 Clouds 9 1033 93 8000 1 0 21:20 06.11.2020
5855 Clouds 9 1033 93 8000 1 0 20:47 06.11.2020
5856 Clouds 9 1033 93 10000 1.5 290 20:20 06.11.2020
5857 Clouds 9 1033 93 10000 1.5 290 20:20 06.11.2020
5858 Clouds 9 1033 93 10000 3.1 260 19:46 06.11.2020
5859 Clouds 9 1033 93 10000 2.1 260 19:28 06.11.2020
5860 Clouds 9 1033 93 10000 2.1 260 18:58 06.11.2020
5861 Clouds 9 1033 93 10000 2.6 280 18:40 06.11.2020
5862 Clouds 9 1033 93 10000 3.6 270 18:19 06.11.2020
5863 Clouds 9 1033 93 10000 3.1 260 17:47 06.11.2020
5864 Clouds 9 1033 93 10000 3.1 260 17:25 06.11.2020
5865 Clouds 9 1033 93 10000 3.6 260 16:45 06.11.2020
5866 Clouds 10 1033 93 10000 3.6 260 16:22 06.11.2020
5867 Clouds 10 1033 87 10000 3.6 290 15:47 06.11.2020
5868 Clouds 10 1033 87 10000 3.6 290 15:27 06.11.2020
5869 Clouds 10 1033 87 10000 4.1 270 14:51 06.11.2020
5870 Clouds 10 1033 87 10000 4.1 270 14:24 06.11.2020
5871 Clouds 10 1034 87 10000 4.1 260 13:44 06.11.2020
5872 Clouds 10 1034 87 10000 3.6 270 13:23 06.11.2020
5873 Clouds 10 1034 87 10000 4.1 270 12:45 06.11.2020
5874 Clouds 10 1034 87 10000 3.6 290 12:23 06.11.2020
5875 Clouds 10 1034 87 10000 3.6 280 11:49 06.11.2020
5876 Clouds 10 1034 87 10000 3.6 280 11:28 06.11.2020
5877 Clouds 10 1034 93 8000 4.1 270 10:44 06.11.2020
5878 Clouds 10 1034 93 8000 4.1 270 10:25 06.11.2020
5879 Clouds 10 1034 93 8000 4.6 280 09:49 06.11.2020
5880 Clouds 9 1034 93 8000 4.1 270 09:22 06.11.2020
5881 Clouds 9 1034 93 8000 4.1 270 08:51 06.11.2020
5882 Clouds 9 1034 93 8000 3.6 280 08:29 06.11.2020
5883 Clouds 9 1034 93 10000 4.1 270 07:54 06.11.2020
5884 Clouds 9 1034 93 10000 4.1 270 07:34 06.11.2020
5885 Clouds 9 1033 93 10000 3.6 270 06:58 06.11.2020
5886 Clouds 9 1033 87 10000 4.1 260 06:24 06.11.2020
5887 Clouds 9 1033 87 10000 3.1 270 05:36 06.11.2020
5888 Clouds 9 1034 87 10000 5.1 260 01:23 06.11.2020
5889 Clouds 9 1034 87 10000 5.1 250 00:23 06.11.2020
5890 Clouds 9 1034 87 10000 4.6 250 23:39 05.11.2020
5891 Clouds 9 1034 87 10000 4.6 250 22:59 05.11.2020
5892 Clouds 9 1034 87 10000 4.6 250 22:41 05.11.2020
5893 Clear 9 1034 81 10000 4.6 260 22:22 05.11.2020
5894 Clear 9 1035 81 10000 5.1 250 21:44 05.11.2020
5895 Clear 9 1035 81 10000 5.1 250 21:24 05.11.2020
5896 Clear 9 1035 81 10000 5.7 260 20:59 05.11.2020
5897 Clear 9 1035 81 10000 5.1 250 20:41 05.11.2020
5898 Clear 10 1035 76 10000 6.2 250 20:21 05.11.2020
5899 Clear 9 1035 81 10000 5.1 250 19:44 05.11.2020
5900 Clear 9 1035 81 10000 5.1 250 19:25 05.11.2020
5901 Clear 10 1035 76 10000 4.6 250 18:56 05.11.2020
5902 Clear 10 1035 76 10000 4.6 250 18:38 05.11.2020
5903 Clear 10 1035 76 10000 4.1 250 18:20 05.11.2020
5904 Clear 10 1034 76 10000 4.1 240 17:42 05.11.2020
5905 Clouds 10 1035 76 10000 4.1 250 17:23 05.11.2020
5906 Clouds 10 1035 76 10000 5.1 260 16:45 05.11.2020
5907 Clouds 10 1035 76 10000 6.2 260 16:26 05.11.2020
5908 Clouds 11 1035 71 10000 6.7 260 15:50 05.11.2020
5909 Clouds 11 1035 71 10000 6.7 260 15:50 05.11.2020
5910 Clouds 11 1035 71 10000 5.7 250 15:27 05.11.2020
5911 Clouds 11 1035 71 10000 5.7 250 14:55 05.11.2020
5912 Clouds 11 1036 71 10000 6.2 270 14:36 05.11.2020
5913 Clouds 11 1036 71 10000 6.2 250 14:18 05.11.2020
5914 Clouds 11 1036 71 10000 6.2 250 13:40 05.11.2020
5915 Clouds 11 1036 76 10000 5.1 260 12:56 05.11.2020
5916 Clouds 11 1036 76 10000 5.1 260 12:37 05.11.2020
5917 Clouds 10 1036 81 10000 5.1 260 12:19 05.11.2020
5918 Clouds 9 1036 87 10000 4.6 260 11:41 05.11.2020
5919 Clouds 9 1036 87 10000 4.6 260 11:22 05.11.2020
5920 Clouds 7 1037 87 10000 4.1 250 10:48 05.11.2020
5921 Clouds 7 1037 87 10000 4.1 250 10:26 05.11.2020
5922 Clouds 6 1037 93 10000 2.6 260 09:49 05.11.2020
5923 Clouds 5 1036 100 10000 2.6 250 09:24 05.11.2020
5924 Clouds 5 1036 100 10000 1.5 260 08:49 05.11.2020
5925 Clouds 5 1036 100 10000 1.5 260 08:31 05.11.2020
5926 Clouds 5 1036 100 10000 2.1 250 07:58 05.11.2020
5927 Clear 4 1036 100 10000 1.5 270 07:28 05.11.2020
5928 Clear 4 1035 100 10000 2.1 250 06:43 05.11.2020
5929 Clear 4 1036 100 10000 1.5 250 06:20 05.11.2020
5930 Clear 5 1035 93 10000 2.1 270 03:45 05.11.2020
5931 Clear 6 1035 93 10000 1.5 260 00:38 05.11.2020
5932 Clear 6 1035 93 10000 1.5 280 00:18 05.11.2020
5933 Clear 6 1035 93 10000 2.1 270 23:36 04.11.2020
5934 Clear 7 1034 87 10000 2.1 280 23:18 04.11.2020
5935 Clear 6 1034 93 10000 1.5 280 22:41 04.11.2020
5936 Clear 7 1034 86 10000 2.6 270 22:21 04.11.2020
5937 Clear 7 1034 87 10000 2.1 280 21:47 04.11.2020
5938 Clear 8 1034 81 10000 2.1 280 21:27 04.11.2020
5939 Clear 7 1034 81 10000 2.1 280 20:56 04.11.2020
5940 Clear 8 1033 81 10000 2.6 270 20:36 04.11.2020
5941 Clear 8 1033 87 10000 2.6 270 20:18 04.11.2020
5942 Clear 8 1033 93 10000 2.1 280 19:41 04.11.2020
5943 Clear 7 1033 93 10000 2.1 280 19:23 04.11.2020
5944 Clouds 8 1032 81 10000 1.5 280 18:42 04.11.2020
5945 Clouds 8 1031 87 10000 1.5 280 18:24 04.11.2020
5946 Clouds 9 1031 76 10000 1.5 290 17:48 04.11.2020
5947 Clouds 9 1031 76 10000 1.5 290 17:28 04.11.2020
5948 Clouds 10 1030 71 10000 2.6 280 16:57 04.11.2020
5949 Clouds 10 1030 71 10000 2.6 280 16:37 04.11.2020
5950 Clouds 11 1030 66 10000 4.6 280 16:18 04.11.2020
5951 Clouds 11 1030 66 10000 5.1 270 15:42 04.11.2020
5952 Clouds 11 1030 66 10000 4.6 290 15:23 04.11.2020
5953 Clouds 12 1030 66 10000 5.7 270 14:47 04.11.2020
5954 Clouds 12 1030 66 10000 5.7 270 14:26 04.11.2020
5955 Clouds 12 1030 66 10000 5.1 290 13:56 04.11.2020
5956 Clouds 12 1029 66 10000 6.2 280 13:37 04.11.2020
5957 Clouds 12 1029 62 10000 5.1 270 13:19 04.11.2020
5958 Clouds 12 1029 66 10000 6.2 280 12:47 04.11.2020
5959 Clouds 11 1029 71 10000 5.7 270 12:24 04.11.2020
5960 Clouds 11 1029 71 10000 7.2 260 11:48 04.11.2020
5961 Clouds 10 1029 71 10000 7.2 260 11:30 04.11.2020
5962 Clouds 10 1029 71 10000 7.2 250 10:58 04.11.2020
5963 Clouds 9 1028 76 10000 7.2 250 10:39 04.11.2020
5964 Clouds 9 1028 76 10000 6.2 250 10:21 04.11.2020
5965 Clear 9 1028 81 10000 5.7 250 09:43 04.11.2020
5966 Clear 8 1027 75 10000 5.1 250 09:20 04.11.2020
5967 Clear 8 1027 81 10000 4.6 250 08:42 04.11.2020
5968 Clear 8 1027 75 10000 4.6 240 08:18 04.11.2020
5969 Clear 8 1026 75 10000 4.6 240 07:44 04.11.2020
5970 Clear 8 1026 75 10000 4.6 240 07:25 04.11.2020
5971 Clouds 8 1026 81 10000 3.6 250 06:41 04.11.2020
5972 Clear 9 1025 75 10000 3.1 250 05:59 04.11.2020
5973 Clear 10 1024 71 10000 4.6 270 02:32 04.11.2020
5974 Clear 11 1023 71 10000 4.6 260 01:40 04.11.2020
5975 Clear 11 1023 71 10000 4.1 250 00:40 04.11.2020
5976 Clear 11 1022 71 10000 5.7 240 23:38 03.11.2020
5977 Clear 11 1022 76 10000 4.1 210 23:20 03.11.2020
5978 Clear 11 1022 76 10000 3.6 200 22:41 03.11.2020
5979 Rain 10 1022 76 10000 2.6 180 22:20 03.11.2020
5980 Clear 10 1022 76 10000 2.1 140 21:56 03.11.2020
5981 Clear 11 1022 76 10000 2.1 140 21:37 03.11.2020
5982 Clouds 11 1022 81 10000 1.5 150 21:18 03.11.2020
5983 Clouds 10 1022 76 10000 0.5 0 20:42 03.11.2020
5984 Clouds 11 1022 71 10000 1 0 20:22 03.11.2020
5985 Clouds 11 1022 71 10000 0.5 0 19:43 03.11.2020
5986 Clouds 11 1022 71 10000 0.5 0 19:20 03.11.2020
5987 Clouds 11 1022 71 10000 0.5 0 18:44 03.11.2020
5988 Clouds 11 1022 71 10000 0.5 200 18:20 03.11.2020
5989 Clouds 11 1022 71 10000 0.5 200 17:58 03.11.2020
5990 Clouds 11 1022 66 10000 0.5 0 17:40 03.11.2020
5991 Clouds 12 1022 66 10000 1 0 17:21 03.11.2020
5992 Clear 12 1022 66 10000 2.1 280 16:44 03.11.2020
5993 Clear 12 1022 66 10000 2.1 280 16:22 03.11.2020
5994 Clouds 13 1022 58 10000 3.6 290 15:43 03.11.2020
5995 Clouds 13 1022 62 10000 4.1 280 15:24 03.11.2020
5996 Clouds 14 1022 58 10000 4.6 270 14:49 03.11.2020
5997 Clouds 14 1022 62 10000 2.6 0 14:30 03.11.2020
5998 Clouds 14 1022 58 10000 2.1 260 13:46 03.11.2020
5999 Clouds 14 1022 58 10000 2.1 260 13:23 03.11.2020
6000 Clouds 14 1022 62 10000 4.6 260 12:59 03.11.2020
6001 Clouds 14 1022 62 10000 6.2 260 12:37 03.11.2020
6002 Clouds 14 1022 66 10000 4.1 290 12:19 03.11.2020
6003 Clouds 13 1022 71 10000 5.7 280 11:41 03.11.2020
6004 Clear 13 1022 66 10000 5.7 280 11:20 03.11.2020
6005 Clouds 13 1022 71 10000 6.7 270 10:39 03.11.2020
6006 Clouds 13 1021 66 10000 5.7 270 10:21 03.11.2020
6007 Clear 13 1021 71 10000 5.1 260 09:52 03.11.2020
6008 Clear 12 1021 71 10000 5.1 260 09:33 03.11.2020
6009 Clear 12 1021 76 10000 3.6 260 08:56 03.11.2020
6010 Clear 12 1020 81 10000 4.1 260 08:36 03.11.2020
6011 Clear 11 1020 81 10000 5.1 260 07:58 03.11.2020
6012 Clear 11 1019 81 10000 6.2 260 07:35 03.11.2020
6013 Clear 11 1018 76 10000 4.1 270 06:52 03.11.2020
6014 Clear 12 1018 76 10000 2.1 280 05:50 03.11.2020
6015 Rain 14 1015 87 10000 5.1 270 03:34 03.11.2020
6016 Clouds 16 1013 82 10000 5.7 280 00:43 03.11.2020
6017 Rain 16 1013 82 10000 7.7 290 23:59 02.11.2020
6018 Clouds 17 1011 68 10000 5.7 220 23:40 02.11.2020
6019 Clouds 17 1011 77 10000 5.1 220 22:56 02.11.2020
6020 Clear 18 1011 72 10000 4.6 220 22:37 02.11.2020
6021 Clear 17 1011 82 10000 4.6 190 22:19 02.11.2020
6022 Clear 18 1010 72 10000 5.7 210 21:39 02.11.2020
6023 Clear 18 1010 72 10000 5.7 210 21:39 02.11.2020
6024 Clear 18 1010 72 10000 6.2 210 21:20 02.11.2020
6025 Clouds 18 1011 82 10000 5.1 200 20:55 02.11.2020
6026 Clouds 18 1010 72 10000 4.6 200 20:36 02.11.2020
6027 Clouds 18 1010 72 10000 4.6 200 20:18 02.11.2020
6028 Clouds 18 1010 77 10000 4.6 190 19:42 02.11.2020
6029 Clouds 18 1010 77 10000 3.6 190 19:22 02.11.2020
6030 Clouds 18 1010 77 10000 3.1 190 18:42 02.11.2020
6031 Clear 18 1009 77 10000 3.1 180 18:21 02.11.2020
6032 Clear 17 1009 77 10000 3.1 180 17:57 02.11.2020
6033 Clear 18 1009 77 10000 3.6 210 17:39 02.11.2020
6034 Clear 18 1009 72 10000 4.6 210 17:20 02.11.2020
6035 Clear 19 1009 72 10000 6.2 210 16:41 02.11.2020
6036 Clouds 19 1009 68 10000 6.7 220 16:23 02.11.2020
6037 Clouds 20 1008 72 10000 6.7 220 15:41 02.11.2020
6038 Clouds 20 1009 72 10000 6.2 220 15:22 02.11.2020
6039 Clouds 20 1009 72 10000 6.2 220 14:54 02.11.2020
6040 Clouds 20 1009 72 10000 7.2 220 14:21 02.11.2020
6041 Clouds 20 1009 72 10000 7.2 220 13:58 02.11.2020
6042 Clouds 20 1009 82 10000 6.2 220 13:40 02.11.2020
6043 Clouds 19 1009 82 10000 7.2 220 13:21 02.11.2020
6044 Clouds 19 1009 82 10000 6.7 220 12:33 02.11.2020
6045 Clouds 18 1009 88 10000 6.2 210 11:59 02.11.2020
6046 Clouds 18 1009 88 10000 5.7 210 11:39 02.11.2020
6047 Clouds 17 1009 88 10000 5.1 210 11:19 02.11.2020
6048 Clouds 16 1009 93 10000 4.6 200 10:44 02.11.2020
6049 Clouds 16 1009 93 10000 4.6 200 10:22 02.11.2020
6050 Rain 15 1009 93 10000 4.6 200 09:55 02.11.2020
6051 Clouds 15 1010 100 10000 5.7 200 09:25 02.11.2020
6052 Clouds 15 1009 100 5000 5.1 200 08:46 02.11.2020
6053 Clouds 15 1009 100 5000 5.1 200 08:27 02.11.2020
6054 Rain 15 1009 93 10000 4.1 190 07:54 02.11.2020
6055 Rain 15 1009 93 10000 4.1 190 07:30 02.11.2020
6056 Rain 15 1009 93 10000 3.1 200 06:37 02.11.2020
6057 Clouds 14 1009 93 10000 4.6 190 04:56 02.11.2020
6058 Rain 15 1010 87 10000 3.1 190 01:26 02.11.2020
6059 Clouds 15 1010 87 10000 3.6 190 00:36 02.11.2020
6060 Clouds 14 1010 93 10000 4.1 200 23:56 01.11.2020
6061 Clouds 14 1010 93 10000 4.1 200 23:37 01.11.2020
6062 Clouds 14 1010 82 10000 4.6 200 23:19 01.11.2020
6063 Clouds 14 1010 82 10000 4.1 200 22:41 01.11.2020
6064 Clouds 14 1010 87 10000 4.1 190 22:18 01.11.2020
6065 Clouds 14 1011 87 10000 3.6 190 21:41 01.11.2020
6066 Clouds 14 1011 87 10000 4.6 180 21:23 01.11.2020
6067 Clouds 14 1011 87 10000 3.6 190 20:46 01.11.2020
6068 Clouds 14 1011 87 10000 3.6 190 20:25 01.11.2020
6069 Clouds 14 1011 87 10000 4.6 190 19:46 01.11.2020
6070 Clouds 14 1011 87 10000 4.6 190 19:28 01.11.2020
6071 Clouds 14 1011 87 10000 3.6 190 18:57 01.11.2020
6072 Clear 13 1012 87 10000 4.1 180 18:38 01.11.2020
6073 Clear 13 1012 87 10000 3.6 170 18:19 01.11.2020
6074 Clear 13 1012 87 10000 3.6 170 18:19 01.11.2020
6075 Clouds 13 1012 87 10000 3.6 180 17:45 01.11.2020
6076 Clouds 13 1012 87 10000 3.6 180 17:27 01.11.2020
6077 Clouds 14 1012 87 10000 4.1 180 16:45 01.11.2020
6078 Clouds 14 1012 87 10000 4.1 180 16:27 01.11.2020
6079 Clouds 14 1012 87 10000 4.1 180 16:27 01.11.2020
6080 Clouds 14 1012 87 10000 4.1 180 15:59 01.11.2020
6081 Clouds 14 1013 87 10000 4.6 190 15:38 01.11.2020
6082 Clouds 14 1013 87 10000 3.6 180 15:20 01.11.2020
6083 Clouds 14 1013 87 10000 4.6 170 14:46 01.11.2020
6084 Clouds 14 1013 87 10000 3.1 160 14:23 01.11.2020
6085 Clouds 14 1013 87 10000 3.1 160 13:58 01.11.2020
6086 Clouds 14 1014 87 10000 3.1 190 13:39 01.11.2020
6087 Clouds 14 1014 93 10000 3.6 190 13:21 01.11.2020
6088 Clouds 13 1014 93 10000 3.1 190 12:43 01.11.2020
6089 Clouds 13 1015 93 10000 3.1 190 12:22 01.11.2020
6090 Clouds 13 1015 93 9000 3.1 190 11:49 01.11.2020
6091 Clouds 12 1015 100 8000 2.6 180 11:18 01.11.2020
6092 Clouds 12 1015 93 8000 2.1 160 10:42 01.11.2020
6093 Rain 12 1015 93 8000 2.1 160 10:24 01.11.2020
6094 Clouds 12 1015 100 6000 2.1 180 09:50 01.11.2020
6095 Clouds 12 1015 100 6000 2.1 180 09:30 01.11.2020
6096 Drizzle 11 1015 100 2000 1.5 180 08:44 01.11.2020
6097 Drizzle 11 1015 100 2800 1.5 190 08:18 01.11.2020
6098 Rain 11 1015 93 3600 2.1 200 07:35 01.11.2020
6099 Clouds 11 1016 87 10000 3.6 180 03:26 01.11.2020
6100 Clouds 12 1017 93 10000 4.1 170 01:47 01.11.2020
6101 Clouds 13 1017 87 10000 5.1 160 00:23 01.11.2020
6102 Clouds 13 1017 93 10000 3.6 150 23:25 31.10.2020
6103 Clouds 13 1017 93 10000 3.6 150 22:57 31.10.2020
6104 Clouds 13 1017 93 10000 3.6 150 22:37 31.10.2020
6105 Clouds 13 1018 93 10000 4.1 160 22:19 31.10.2020
6106 Clouds 14 1018 93 10000 3.6 140 21:43 31.10.2020
6107 Clouds 14 1018 93 10000 2.6 150 21:19 31.10.2020
6108 Drizzle 14 1019 93 10000 3.1 160 20:38 31.10.2020
6109 Clouds 14 1019 93 10000 2.6 150 20:18 31.10.2020
6110 Clouds 14 1019 93 10000 2.6 140 19:41 31.10.2020
6111 Clouds 14 1019 93 10000 2.6 140 19:22 31.10.2020
6112 Clouds 14 1019 93 10000 3.1 130 18:47 31.10.2020
6113 Clouds 14 1019 93 10000 3.1 130 18:24 31.10.2020
6114 Clouds 14 1020 93 10000 2.1 180 17:40 31.10.2020
6115 Clouds 14 1020 100 10000 1.5 180 17:22 31.10.2020
6116 Clouds 14 1020 93 10000 1.5 190 16:44 31.10.2020
6117 Clouds 15 1020 93 10000 1.5 190 16:26 31.10.2020
6118 Clouds 15 1020 93 10000 1.5 210 15:45 31.10.2020
6119 Drizzle 15 1021 93 10000 2.1 220 15:25 31.10.2020
6120 Drizzle 15 1021 93 10000 2.1 220 14:52 31.10.2020
6121 Drizzle 15 1021 93 10000 1 260 14:31 31.10.2020
6122 Clouds 15 1021 87 10000 2.1 260 13:52 31.10.2020
6123 Clouds 15 1021 87 10000 2.1 270 13:28 31.10.2020
6124 Clouds 15 1021 93 10000 1.5 280 12:48 31.10.2020
6125 Clouds 15 1022 87 10000 1 0 12:22 31.10.2020
6126 Clouds 15 1022 100 10000 1.5 270 11:41 31.10.2020
6127 Clouds 15 1022 100 10000 1.5 270 11:22 31.10.2020
6128 Drizzle 14 1022 100 2800 2.1 270 10:42 31.10.2020
6129 Drizzle 14 1022 100 2600 2.1 270 10:19 31.10.2020
6130 Drizzle 14 1022 100 2000 2.1 260 09:39 31.10.2020
6131 Drizzle 14 1022 93 1800 2.1 270 09:20 31.10.2020
6132 Drizzle 13 1021 100 2000 2.1 260 08:26 31.10.2020
6133 Drizzle 13 1021 100 2000 2.6 270 07:45 31.10.2020
6134 Drizzle 13 1021 100 2300 2.6 270 07:25 31.10.2020
6135 Drizzle 13 1021 100 3500 2.6 260 06:37 31.10.2020
6136 Drizzle 13 1020 100 3500 4.1 270 03:49 31.10.2020
6137 Rain 13 1020 93 3400 4.1 270 02:48 31.10.2020
6138 Rain 13 1019 93 3500 4.6 280 00:55 31.10.2020
6139 Clouds 14 1019 93 7000 4.6 280 23:58 30.10.2020
6140 Clouds 14 1018 93 10000 5.7 270 23:39 30.10.2020
6141 Drizzle 14 1018 93 4000 5.1 270 23:20 30.10.2020
6142 Drizzle 14 1018 93 8000 5.1 270 22:40 30.10.2020
6143 Drizzle 14 1018 93 8000 5.7 270 22:22 30.10.2020
6144 Clouds 14 1017 93 8000 5.7 270 21:50 30.10.2020
6145 Clouds 14 1017 93 8000 5.7 270 21:29 30.10.2020
6146 Clouds 14 1017 93 3900 5.7 270 20:58 30.10.2020
6147 Drizzle 13 1017 93 5000 5.1 280 20:37 30.10.2020
6148 Rain 14 1017 93 7000 5.1 270 20:18 30.10.2020
6149 Rain 13 1017 93 7000 5.1 270 20:18 30.10.2020
6150 Drizzle 13 1016 93 6000 5.1 270 19:41 30.10.2020
6151 Drizzle 13 1016 93 4000 5.7 270 19:18 30.10.2020
6152 Rain 13 1016 93 6000 6.7 270 18:45 30.10.2020
6153 Drizzle 13 1015 93 8000 6.2 270 18:27 30.10.2020
6154 Drizzle 13 1015 93 8000 6.2 270 17:48 30.10.2020
6155 Drizzle 13 1015 100 7000 5.7 270 17:22 30.10.2020
6156 Drizzle 13 1015 100 7000 5.7 270 17:22 30.10.2020
6157 Drizzle 13 1015 100 4500 6.2 270 16:57 30.10.2020
6158 Drizzle 13 1015 100 4500 6.2 270 16:36 30.10.2020
6159 Drizzle 13 1015 100 4500 6.2 270 16:36 30.10.2020
6160 Drizzle 13 1014 100 4000 6.2 260 16:18 30.10.2020
6161 Rain 13 1014 100 3500 5.7 260 15:40 30.10.2020
6162 Rain 13 1014 100 4500 6.2 260 15:19 30.10.2020
6163 Drizzle 13 1014 100 4000 6.2 260 14:44 30.10.2020
6164 Rain 13 1014 100 4000 6.2 260 14:25 30.10.2020
6165 Rain 13 1014 100 7000 6.2 250 13:44 30.10.2020
6166 Rain 13 1014 93 4500 6.2 250 13:21 30.10.2020
6167 Rain 13 1014 93 4500 6.2 250 13:21 30.10.2020
6168 Rain 13 1014 93 6000 6.7 250 12:52 30.10.2020
6169 Rain 13 1014 93 10000 6.2 260 12:22 30.10.2020
6170 Rain 12 1014 93 10000 6.2 260 11:56 30.10.2020
6171 Clouds 12 1014 100 3800 4.1 240 11:23 30.10.2020
6172 Rain 11 1014 100 3800 4.1 240 10:52 30.10.2020
6173 Rain 11 1014 100 3500 2.6 210 10:26 30.10.2020
6174 Drizzle 10 1014 100 4000 2.6 180 09:59 30.10.2020
6175 Rain 10 1014 93 4500 3.1 170 09:41 30.10.2020
6176 Rain 10 1014 100 5000 3.6 180 09:20 30.10.2020
6177 Rain 9 1014 100 3500 3.6 180 08:36 30.10.2020
6178 Drizzle 9 1014 100 5000 3.1 180 08:18 30.10.2020
6179 Rain 9 1014 100 5000 3.1 180 08:18 30.10.2020
6180 Rain 9 1014 93 6000 3.6 180 07:45 30.10.2020
6181 Rain 9 1014 93 6000 3.6 180 07:26 30.10.2020
6182 Rain 8 1015 100 6000 3.6 180 06:21 30.10.2020
6183 Rain 8 1015 93 10000 3.1 190 04:26 30.10.2020
6184 Rain 9 1016 81 10000 3.1 250 01:39 30.10.2020
6185 Clear 8 1016 81 10000 3.6 240 00:38 30.10.2020
6186 Clear 8 1017 81 10000 3.6 240 23:48 29.10.2020
6187 Clear 9 1017 81 10000 3.6 240 23:30 29.10.2020
6188 Clouds 9 1017 76 10000 4.1 260 22:49 29.10.2020
6189 Clouds 9 1017 76 10000 4.1 260 22:27 29.10.2020
6190 Clouds 10 1017 76 10000 5.1 260 21:56 29.10.2020
6191 Clouds 10 1016 76 10000 5.1 260 21:36 29.10.2020
6192 Clouds 10 1016 76 10000 4.6 250 21:18 29.10.2020
6193 Clouds 10 1016 76 10000 4.6 250 20:40 29.10.2020
6194 Clouds 10 1016 76 10000 4.6 250 20:19 29.10.2020
6195 Clouds 10 1015 76 10000 5.7 250 19:42 29.10.2020
6196 Clouds 10 1015 76 10000 5.7 250 19:21 29.10.2020
6197 Clouds 11 1015 76 10000 5.7 250 18:48 29.10.2020
6198 Clouds 10 1015 76 10000 5.7 250 18:29 29.10.2020
6199 Clouds 11 1014 81 10000 5.1 250 17:56 29.10.2020
6200 Clouds 11 1014 76 10000 4.1 250 17:37 29.10.2020
6201 Clouds 11 1014 81 10000 4.1 260 17:18 29.10.2020
6202 Clouds 11 1014 81 10000 5.7 260 16:43 29.10.2020
6203 Clouds 11 1013 71 10000 6.2 280 16:19 29.10.2020
6204 Clouds 11 1013 71 10000 6.2 280 15:55 29.10.2020
6205 Clouds 12 1013 71 10000 5.7 270 15:37 29.10.2020
6206 Clouds 11 1012 81 10000 5.1 270 15:18 29.10.2020
6207 Clouds 11 1012 81 10000 5.1 270 14:44 29.10.2020
6208 Clouds 12 1012 81 10000 5.7 270 14:22 29.10.2020
6209 Clouds 11 1012 81 10000 5.1 280 13:47 29.10.2020
6210 Clouds 12 1012 81 10000 5.1 280 13:27 29.10.2020
6211 Clouds 12 1012 71 10000 7.7 270 12:44 29.10.2020
6212 Clouds 11 1011 71 10000 9.8 260 12:20 29.10.2020
6213 Clouds 12 1011 71 10000 9.8 260 11:58 29.10.2020
6214 Clouds 12 1011 76 10000 9.3 260 11:39 29.10.2020
6215 Clouds 11 1010 76 10000 8.2 250 11:20 29.10.2020
6216 Clouds 11 1010 76 10000 8.2 250 10:37 29.10.2020
6217 Clouds 11 1010 76 10000 8.2 250 10:37 29.10.2020
6218 Clouds 11 1010 76 10000 9.8 260 10:19 29.10.2020
6219 Clouds 11 1010 76 10000 9.8 260 09:50 29.10.2020
6220 Clouds 11 1009 87 10000 5.1 240 09:26 29.10.2020
6221 Clouds 10 1008 87 10000 5.1 250 08:48 29.10.2020
6222 Clouds 10 1008 87 10000 5.1 250 08:26 29.10.2020
6223 Clouds 10 1008 93 10000 5.1 220 07:52 29.10.2020
6224 Clouds 10 1008 93 10000 5.1 220 07:23 29.10.2020
6225 Clouds 10 1007 93 10000 4.6 200 06:54 29.10.2020
6226 Rain 10 1007 87 10000 4.6 200 04:51 29.10.2020
6227 Clouds 9 979 90 10000 5.5 206 02:40 29.10.2020
6228 Clouds 9 1009 87 10000 3.58 173 00:51 29.10.2020
6229 Clouds 9 1009 87 10000 4.02 183 00:30 29.10.2020
6230 Clouds 10 980 90 10000 4.34 205 23:45 28.10.2020
6231 Clouds 9 980 90 10000 4.16 211 23:20 28.10.2020
6232 Clear 10 1010 87 10000 3.1 190 22:44 28.10.2020
6233 Clear 10 1010 87 10000 3.1 190 22:44 28.10.2020
6234 Clear 10 1010 87 10000 3.1 190 22:26 28.10.2020
6235 Clear 10 1010 87 10000 3.1 190 21:58 28.10.2020
6236 Clear 10 1010 87 10000 3.6 200 21:39 28.10.2020
6237 Clear 10 1010 81 10000 4.6 200 21:18 28.10.2020
6238 Clear 11 1010 81 10000 5.1 200 20:41 28.10.2020
6239 Clear 10 1010 81 10000 5.1 200 20:20 28.10.2020
6240 Clear 11 1010 76 10000 4.1 180 19:49 28.10.2020
6241 Clear 11 1010 76 10000 4.1 180 19:28 28.10.2020
6242 Clear 11 1010 81 10000 4.6 190 18:47 28.10.2020
6243 Clear 12 1010 81 10000 4.1 180 18:21 28.10.2020
6244 Clear 12 1010 81 10000 4.1 190 17:44 28.10.2020
6245 Clouds 12 1010 81 10000 4.1 200 17:25 28.10.2020
6246 Clouds 12 1010 81 10000 4.1 200 16:57 28.10.2020
6247 Clouds 12 1009 76 10000 4.1 200 16:38 28.10.2020
6248 Clouds 13 1009 76 10000 4.6 190 16:20 28.10.2020
6249 Clouds 13 1009 76 10000 5.7 200 15:37 28.10.2020
6250 Clouds 14 1009 78 10000 4.92 191 15:18 28.10.2020
6251 Clouds 14 1009 71 10000 4.6 200 14:42 28.10.2020
6252 Clouds 14 1009 77 10000 4.47 201 14:22 28.10.2020
6253 Clouds 14 980 76 10000 4.84 207 12:42 28.10.2020
6254 Clouds 13 1009 79 10000 4.02 198 12:22 28.10.2020
6255 Clouds 12 980 76 10000 4.75 200 11:57 28.10.2020
6256 Clouds 12 1008 74 10000 2.68 202 11:39 28.10.2020
6257 Clouds 11 1009 80 10000 6.26 196 11:19 28.10.2020
6258 Clouds 11 1009 76 10000 5.1 200 10:44 28.10.2020
6259 Clouds 11 1009 76 10000 5.1 200 10:26 28.10.2020
6260 Clouds 10 1009 81 10000 4.6 200 09:44 28.10.2020
6261 Clouds 10 1008 81 10000 4.6 200 09:23 28.10.2020
6262 Clouds 10 1008 81 10000 4.6 200 08:51 28.10.2020
6263 Clouds 9 1008 81 10000 4.6 200 08:31 28.10.2020
6264 Clouds 9 1008 81 10000 4.6 190 07:54 28.10.2020
6265 Clouds 9 1007 81 10000 4.6 190 07:31 28.10.2020
6266 Clouds 9 1007 81 10000 5.1 200 06:56 28.10.2020
6267 Clouds 9 1007 81 10000 5.1 200 06:37 28.10.2020
6268 Clear 10 1007 71 10000 5.7 190 05:44 28.10.2020
6269 Clouds 9 1007 76 10000 5.1 180 04:50 28.10.2020
6270 Clear 9 1007 76 10000 6.7 180 03:53 28.10.2020
6271 Clear 9 1008 76 10000 4.6 170 01:56 28.10.2020
6272 Clear 9 1009 71 10000 5.1 190 00:33 28.10.2020
6273 Clear 10 1009 71 10000 6.2 190 23:50 27.10.2020
6274 Clear 10 1009 76 10000 5.7 190 23:22 27.10.2020
6275 Clear 10 1009 76 10000 5.7 180 22:45 27.10.2020
6276 Clear 10 1009 71 10000 5.7 190 22:22 27.10.2020
6277 Clear 10 1009 71 10000 5.7 190 21:57 27.10.2020
6278 Clear 10 1009 66 10000 5.7 180 21:38 27.10.2020
6279 Clear 10 1009 66 10000 5.1 180 21:20 27.10.2020
6280 Clear 10 1009 66 10000 5.1 180 20:54 27.10.2020
6281 Clouds 11 1009 66 10000 4.6 190 20:36 27.10.2020
6282 Clear 10 1009 66 10000 5.1 190 20:18 27.10.2020
6283 Clear 11 1009 66 10000 5.1 190 19:39 27.10.2020
6284 Clear 11 1009 66 10000 5.1 190 19:20 27.10.2020
6285 Clear 11 1009 71 10000 4.6 190 18:57 27.10.2020
6286 Clouds 11 1009 71 10000 5.1 190 18:39 27.10.2020
6287 Clouds 11 1009 66 10000 3.6 200 18:18 27.10.2020
6288 Clouds 11 1008 66 10000 4.6 200 17:42 27.10.2020
6289 Clouds 12 1008 66 10000 5.7 210 17:21 27.10.2020
6290 Clouds 12 1008 66 10000 4.6 200 17:21 27.10.2020
6291 Clouds 12 1008 66 10000 4.6 200 17:21 27.10.2020
6292 Clouds 12 1008 66 10000 4.6 200 17:21 27.10.2020
6293 Clouds 12 1008 66 10000 5.1 200 16:48 27.10.2020
6294 Clouds 12 1008 66 10000 5.7 200 16:25 27.10.2020
6295 Clouds 13 1008 62 10000 6.2 220 15:48 27.10.2020
6296 Clouds 13 1008 62 10000 6.2 220 15:30 27.10.2020
6297 Clouds 13 1008 62 10000 5.1 220 14:57 27.10.2020
6298 Clouds 13 1008 66 10000 4.6 210 14:39 27.10.2020
6299 Clouds 13 1008 62 10000 6.2 220 14:20 27.10.2020
6300 Clouds 13 1008 66 10000 6.2 200 13:41 27.10.2020
6301 Clouds 13 1008 66 10000 6.7 210 13:21 27.10.2020
6302 Clouds 12 1008 76 10000 4.6 210 12:40 27.10.2020
6303 Clear 12 1008 76 10000 4.6 210 12:21 27.10.2020
6304 Clear 12 1008 76 10000 4.6 200 11:42 27.10.2020
6305 Clear 11 1008 76 10000 4.1 210 11:23 27.10.2020
6306 Clear 11 1008 81 10000 4.1 210 10:47 27.10.2020
6307 Clear 10 1008 81 10000 4.1 210 10:28 27.10.2020
6308 Clear 10 1008 81 10000 3.6 210 09:47 27.10.2020
6309 Clear 9 1007 81 10000 3.6 200 09:26 27.10.2020
6310 Clear 9 1007 87 10000 3.1 190 08:41 27.10.2020
6311 Clear 9 1007 87 10000 3.6 200 08:22 27.10.2020
6312 Clear 8 1007 87 10000 3.6 210 07:46 27.10.2020
6313 Clear 8 1007 87 10000 3.6 210 07:28 27.10.2020
6314 Clear 8 1007 87 10000 4.1 210 06:38 27.10.2020
6315 Clear 8 1007 87 10000 3.6 200 06:19 27.10.2020
6316 Clear 8 1007 93 10000 3.6 190 05:43 27.10.2020
6317 Clear 8 1006 93 10000 2.6 190 04:51 27.10.2020
6318 Clear 9 1006 93 10000 2.6 200 02:35 27.10.2020
6319 Clouds 10 1005 87 10000 3.1 230 00:59 27.10.2020
6320 Clouds 11 1005 93 10000 2.6 210 23:53 26.10.2020
6321 Clouds 11 1005 100 10000 3.1 210 23:32 26.10.2020
6322 Clouds 11 1005 100 10000 2.6 210 22:52 26.10.2020
6323 Clouds 11 1004 93 10000 2.6 230 22:28 26.10.2020
6324 Clouds 11 1004 100 10000 2.6 230 21:51 26.10.2020
6325 Clouds 11 1004 100 10000 1.5 200 21:21 26.10.2020
6326 Clouds 11 1004 100 10000 1.5 200 20:59 26.10.2020
6327 Clouds 11 1004 100 10000 2.1 210 20:41 26.10.2020
6328 Rain 12 1003 93 10000 1.5 260 20:22 26.10.2020
6329 Clouds 12 1004 93 10000 2.1 250 19:48 26.10.2020
6330 Clouds 12 1004 93 10000 2.1 250 19:28 26.10.2020
6331 Rain 12 1003 100 10000 2.1 250 18:57 26.10.2020
6332 Clouds 12 1003 93 10000 2.1 250 18:36 26.10.2020
6333 Clouds 12 1003 87 10000 2.1 250 18:18 26.10.2020
6334 Rain 12 1003 87 10000 1.5 210 17:41 26.10.2020
6335 Clouds 12 1003 87 10000 2.1 240 17:23 26.10.2020
6336 Clouds 12 1003 87 10000 2.1 230 16:45 26.10.2020
6337 Clouds 13 1002 87 10000 2.1 240 16:22 26.10.2020
6338 Clouds 12 1002 87 10000 2.1 240 15:55 26.10.2020
6339 Clouds 13 1003 82 10000 2.1 210 15:36 26.10.2020
6340 Clouds 13 1002 82 10000 2.1 230 15:18 26.10.2020
6341 Clouds 13 1002 82 10000 2.1 210 14:44 26.10.2020
6342 Clouds 14 1002 82 10000 2.1 200 14:18 26.10.2020
6343 Clouds 14 1002 82 10000 2.1 230 13:41 26.10.2020
6344 Clouds 14 1003 87 10000 2.1 220 13:22 26.10.2020
6345 Rain 13 1003 87 10000 2.1 210 12:45 26.10.2020
6346 Clear 13 1003 87 10000 3.1 220 12:27 26.10.2020
6347 Clear 12 1003 87 10000 3.1 220 11:55 26.10.2020
6348 Clear 12 1003 87 10000 1 0 11:37 26.10.2020
6349 Clear 11 1003 93 10000 3.1 160 11:18 26.10.2020
6350 Clear 11 1003 93 10000 2.1 160 10:42 26.10.2020
6351 Clouds 11 1003 93 10000 2.1 130 10:22 26.10.2020
6352 Rain 11 1003 93 10000 2.1 120 09:44 26.10.2020
6353 Rain 11 1003 93 10000 2.1 120 09:23 26.10.2020
6354 Rain 11 1004 81 10000 3.1 180 08:30 26.10.2020
6355 Rain 11 1004 81 10000 1.5 170 07:56 26.10.2020
6356 Rain 11 1003 87 10000 1.5 220 07:37 26.10.2020
6357 Clear 10 1003 87 10000 0.5 0 06:49 26.10.2020
6358 Clear 10 1003 87 10000 1 0 04:47 26.10.2020
6359 Clear 10 1003 87 10000 0.5 0 04:18 26.10.2020
6360 Clear 10 1003 81 10000 1.5 140 03:20 26.10.2020
6361 Clear 11 1004 81 10000 3.6 170 01:33 26.10.2020
6362 Clear 11 1004 81 10000 1.5 200 00:33 26.10.2020
6363 Clear 11 1004 76 10000 2.6 170 23:43 25.10.2020
6364 Clear 11 1004 76 10000 3.1 190 23:22 25.10.2020
6365 Clear 12 1004 76 10000 4.1 170 22:42 25.10.2020
6366 Clear 12 1004 71 10000 3.6 160 22:24 25.10.2020
6367 Clear 12 1005 76 10000 3.6 160 21:49 25.10.2020
6368 Clear 12 1005 76 10000 3.6 160 21:29 25.10.2020
6369 Clear 12 1005 76 10000 4.1 170 20:58 25.10.2020
6370 Clear 13 1005 71 10000 4.6 160 20:39 25.10.2020
6371 Clear 13 1005 71 10000 5.1 160 20:19 25.10.2020
6372 Clear 14 1005 71 10000 3.6 160 19:49 25.10.2020
6373 Clear 13 1005 71 10000 4.1 160 19:25 25.10.2020
6374 Clear 14 1005 71 10000 4.1 160 18:58 25.10.2020
6375 Clear 14 1005 72 10000 4.1 150 18:39 25.10.2020
6376 Clear 14 1005 72 10000 4.1 150 18:20 25.10.2020
6377 Clear 14 1006 72 10000 3.6 140 17:54 25.10.2020
6378 Clear 14 1006 72 10000 3.6 140 17:36 25.10.2020
6379 Clear 15 1006 63 10000 4.1 160 17:18 25.10.2020
6380 Clear 16 1006 59 10000 4.6 160 16:39 25.10.2020
6381 Clear 16 1006 59 10000 4.6 160 16:21 25.10.2020
6382 Clear 17 1006 63 10000 5.7 170 15:47 25.10.2020
6383 Clear 17 1007 63 10000 4.1 200 15:26 25.10.2020
6384 Clear 17 1007 63 10000 5.7 180 14:52 25.10.2020
6385 Clear 17 1007 59 10000 5.7 180 14:29 25.10.2020
6386 Clear 17 1007 63 10000 5.1 180 13:44 25.10.2020
6387 Clear 17 1007 59 10000 5.7 190 13:24 25.10.2020
6388 Clear 17 1007 59 10000 5.7 190 12:56 25.10.2020
6389 Clear 17 1009 63 10000 5.7 200 12:38 25.10.2020
6390 Clear 17 1008 67 10000 6.2 190 12:18 25.10.2020
6391 Clear 16 1008 67 10000 6.2 190 11:42 25.10.2020
6392 Clear 16 1009 71 10000 5.7 200 11:19 25.10.2020
6393 Clear 15 1009 71 10000 5.7 180 10:46 25.10.2020
6394 Clear 14 1009 71 10000 5.7 180 10:26 25.10.2020
6395 Clear 13 1009 81 10000 2.1 170 09:52 25.10.2020
6396 Clear 12 1009 81 10000 3.6 160 09:23 25.10.2020
6397 Clear 11 1009 81 10000 3.6 160 08:59 25.10.2020
6398 Clear 11 1009 81 10000 4.1 150 08:40 25.10.2020
6399 Clear 10 1009 81 10000 3.1 170 08:22 25.10.2020
6400 Clear 10 1009 81 10000 3.6 170 07:46 25.10.2020
6401 Clear 10 1009 87 10000 3.6 180 06:57 25.10.2020
6402 Clear 10 1009 81 10000 3.6 180 06:30 25.10.2020
6403 Clear 10 1010 87 10000 4.6 170 05:22 25.10.2020
6404 Clear 10 1010 87 10000 3.1 180 04:51 25.10.2020
6405 Clear 11 1011 81 10000 4.1 190 02:42 25.10.2020
6406 Clouds 12 1012 81 10000 3.1 190 00:54 25.10.2020
6407 Clouds 12 1012 81 10000 3.1 190 00:31 25.10.2020
6408 Clouds 12 1012 81 10000 3.6 190 23:59 24.10.2020
6409 Clouds 12 1012 87 10000 3.6 190 23:40 24.10.2020
6410 Clouds 12 1012 82 10000 3.6 190 23:20 24.10.2020
6411 Clouds 12 1012 82 10000 4.1 200 22:41 24.10.2020
6412 Clouds 12 1012 82 10000 4.1 200 22:23 24.10.2020
6413 Clear 13 1012 76 10000 4.1 190 21:56 24.10.2020
6414 Clear 13 1012 72 10000 3.6 200 21:38 24.10.2020
6415 Clouds 14 1012 77 10000 3.6 190 21:19 24.10.2020
6416 Clouds 14 1012 77 10000 3.6 180 20:45 24.10.2020
6417 Clouds 14 1012 77 10000 3.6 180 20:21 24.10.2020
6418 Clouds 14 1012 77 10000 2.6 180 19:45 24.10.2020
6419 Clouds 14 1012 77 10000 2.6 180 19:25 24.10.2020
6420 Clouds 14 1012 77 10000 2.6 180 18:55 24.10.2020
6421 Clouds 15 1012 72 10000 3.1 200 18:31 24.10.2020
6422 Clouds 16 1013 72 10000 4.1 220 17:56 24.10.2020
6423 Clouds 16 1013 72 10000 4.1 220 17:27 24.10.2020
6424 Clouds 17 1013 72 10000 3.6 220 16:59 24.10.2020
6425 Clouds 17 1013 67 10000 4.1 220 16:41 24.10.2020
6426 Clouds 17 1013 67 10000 5.1 230 16:18 24.10.2020
6427 Clouds 17 1013 67 10000 6.7 240 15:38 24.10.2020
6428 Clouds 17 1013 67 10000 4.1 250 15:19 24.10.2020
6429 Clouds 16 1013 72 10000 7.2 260 14:46 24.10.2020
6430 Clouds 16 1013 72 10000 7.2 260 14:27 24.10.2020
6431 Clouds 16 1013 77 10000 7.7 260 13:45 24.10.2020
6432 Clouds 16 1013 77 10000 7.7 260 13:24 24.10.2020
6433 Clouds 15 1013 77 10000 7.2 260 12:44 24.10.2020
6434 Clouds 15 1013 82 10000 5.7 250 12:21 24.10.2020
6435 Clouds 15 1013 82 10000 5.7 250 11:53 24.10.2020
6436 Clouds 14 1013 82 10000 4.6 240 11:35 24.10.2020
6437 Clouds 13 1013 93 10000 3.1 200 10:54 24.10.2020
6438 Clouds 13 1013 93 10000 3.1 200 10:33 24.10.2020
6439 Clouds 12 1012 93 10000 2.6 220 09:55 24.10.2020
6440 Clouds 12 1012 93 10000 2.6 230 09:37 24.10.2020
6441 Clouds 11 1012 100 10000 3.1 240 09:19 24.10.2020
6442 Clouds 11 1012 93 6000 2.1 210 08:20 24.10.2020
6443 Clouds 11 1012 93 6000 2.1 210 07:55 24.10.2020
6444 Clouds 11 1011 100 7000 2.1 200 07:37 24.10.2020
6445 Clouds 11 1011 100 7000 2.1 190 07:18 24.10.2020
6446 Clouds 12 1011 100 8000 2.1 190 06:23 24.10.2020
6447 Mist 12 1011 100 3500 1 0 03:37 24.10.2020
6448 Fog 12 1011 100 700 3.1 270 02:18 24.10.2020
6449 Fog 12 1011 100 8000 0.5 0 00:43 24.10.2020
6450 Fog 12 1011 100 8000 1 0 00:22 24.10.2020
6451 Fog 12 1011 100 8000 1 0 23:56 23.10.2020
6452 Clouds 12 1011 100 10000 2.1 290 23:36 23.10.2020
6453 Clouds 12 1010 100 10000 2.1 290 23:18 23.10.2020
6454 Clouds 13 1010 100 10000 2.6 280 22:42 23.10.2020
6455 Clouds 13 1009 93 10000 1.5 70 22:21 23.10.2020
6456 Clouds 13 1009 93 10000 2.1 70 21:52 23.10.2020
6457 Clouds 13 1009 93 10000 2.1 70 21:29 23.10.2020
6458 Rain 13 1009 93 10000 2.1 20 20:57 23.10.2020
6459 Clouds 13 1010 100 10000 2.6 360 20:37 23.10.2020
6460 Clouds 14 1010 93 3800 3.1 340 20:18 23.10.2020
6461 Clouds 15 1009 93 7000 1.5 180 19:42 23.10.2020
6462 Clouds 15 1009 93 7000 1.5 180 19:23 23.10.2020
6463 Rain 15 1009 93 6000 2.1 180 18:42 23.10.2020
6464 Rain 15 1009 93 6000 2.1 180 18:22 23.10.2020
6465 Rain 15 1010 93 5000 1.5 170 17:44 23.10.2020
6466 Rain 15 1010 93 10000 2.1 140 17:21 23.10.2020
6467 Rain 16 1010 82 10000 2.1 170 16:47 23.10.2020
6468 Clouds 16 1010 82 10000 1.5 150 16:26 23.10.2020
6469 Clouds 16 1010 82 10000 1.5 150 15:56 23.10.2020
6470 Rain 16 1010 82 10000 1.5 170 15:38 23.10.2020
6471 Clouds 16 1011 77 10000 2.6 170 15:19 23.10.2020
6472 Rain 17 1011 72 10000 1.5 200 14:41 23.10.2020
6473 Clouds 17 1011 72 10000 1 0 14:22 23.10.2020
6474 Clouds 17 1012 72 10000 1.5 260 13:41 23.10.2020
6475 Clear 17 1012 72 10000 1.5 260 13:23 23.10.2020
6476 Clear 17 1012 77 10000 2.1 260 12:50 23.10.2020
6477 Clear 16 1012 77 10000 2.1 260 12:30 23.10.2020
6478 Clear 15 1012 77 10000 2.1 250 11:50 23.10.2020
6479 Clouds 15 1012 82 10000 2.6 260 11:26 23.10.2020
6480 Clear 14 1012 87 10000 0.5 0 10:52 23.10.2020
6481 Clear 14 1012 87 10000 0.5 0 10:26 23.10.2020
6482 Clear 13 1012 93 10000 0.5 0 09:57 23.10.2020
6483 Clouds 13 1012 100 10000 1 0 09:39 23.10.2020
6484 Clouds 12 1012 93 10000 0.5 0 09:20 23.10.2020
6485 Clouds 13 1012 93 10000 0.5 0 08:50 23.10.2020
6486 Clouds 12 1012 93 10000 0.5 0 08:24 23.10.2020
6487 Clouds 12 1011 93 10000 1.5 250 07:26 23.10.2020
6488 Clouds 12 1012 93 10000 1 0 07:26 23.10.2020
6489 Clouds 13 1012 93 10000 0.5 280 06:49 23.10.2020
6490 Clouds 13 1012 93 10000 1 0 06:20 23.10.2020
6491 Clear 14 1011 82 10000 4.6 240 03:38 23.10.2020
6492 Clear 15 1012 82 10000 3.1 240 02:26 23.10.2020
6493 Rain 15 1012 87 10000 3.1 230 00:52 23.10.2020
6494 Rain 15 1012 82 10000 2.1 270 00:32 23.10.2020
6495 Clear 15 1012 77 10000 3.6 190 23:37 22.10.2020
6496 Clear 15 1011 77 10000 3.1 190 23:19 22.10.2020
6497 Clear 14 1011 82 10000 3.6 220 22:45 22.10.2020
6498 Clear 15 1011 82 10000 3.1 210 22:23 22.10.2020
6499 Clear 15 1011 82 10000 3.1 210 21:56 22.10.2020
6500 Clear 15 1011 77 10000 4.1 200 21:37 22.10.2020
6501 Clear 15 1012 82 10000 3.1 190 21:18 22.10.2020
6502 Clear 15 1012 82 10000 2.6 200 20:42 22.10.2020
6503 Clear 15 1012 82 10000 2.6 200 20:24 22.10.2020
6504 Clear 15 1012 82 10000 2.6 200 19:43 22.10.2020
6505 Clear 16 1012 77 10000 2.6 200 19:20 22.10.2020
6506 Clear 16 1012 72 10000 3.6 180 18:57 22.10.2020
6507 Clear 17 1012 72 10000 3.6 180 18:36 22.10.2020
6508 Clear 17 1012 72 10000 4.1 200 18:18 22.10.2020
6509 Clear 18 1012 68 10000 5.7 220 17:42 22.10.2020
6510 Clear 18 1012 72 10000 4.1 210 17:20 22.10.2020
6511 Clear 18 1012 72 10000 4.6 200 16:44 22.10.2020
6512 Clear 18 1012 68 10000 4.1 210 16:24 22.10.2020
6513 Clear 18 1012 68 10000 4.6 210 15:49 22.10.2020
6514 Clear 18 1012 68 10000 5.7 220 15:27 22.10.2020
6515 Clouds 19 1012 68 10000 5.7 220 14:55 22.10.2020
6516 Clear 19 1013 68 10000 5.7 210 14:36 22.10.2020
6517 Clear 19 1013 63 10000 7.2 220 14:18 22.10.2020
6518 Clear 19 1013 63 10000 5.7 220 13:41 22.10.2020
6519 Clouds 19 1013 63 10000 7.7 230 13:22 22.10.2020
6520 Clear 19 1013 67 10000 3.6 200 12:40 22.10.2020
6521 Clear 18 1013 67 10000 3.6 200 12:22 22.10.2020
6522 Clear 17 1013 67 10000 4.1 220 11:42 22.10.2020
6523 Clouds 17 1012 72 10000 3.1 200 11:18 22.10.2020
6524 Clouds 16 1012 77 10000 2.1 190 10:47 22.10.2020
6525 Clouds 15 1012 77 10000 2.1 190 10:25 22.10.2020
6526 Clouds 15 1011 82 10000 2.6 220 09:43 22.10.2020
6527 Clouds 15 1011 76 10000 3.1 210 09:22 22.10.2020
6528 Clear 14 1010 76 10000 3.6 210 08:43 22.10.2020
6529 Clouds 14 1010 76 10000 3.6 210 08:25 22.10.2020
6530 Clouds 14 1010 72 10000 4.1 220 07:43 22.10.2020
6531 Clouds 15 1009 72 10000 5.1 220 07:20 22.10.2020
6532 Clouds 15 1009 72 10000 5.1 210 06:45 22.10.2020
6533 Clouds 15 1009 67 10000 5.7 210 06:23 22.10.2020
6534 Clouds 15 1008 72 10000 5.1 210 05:39 22.10.2020
6535 Clear 15 1008 71 10000 4.6 180 03:26 22.10.2020
6536 Clouds 14 1007 67 10000 4.1 190 01:34 22.10.2020
6537 Clouds 14 1007 67 10000 4.1 190 01:34 22.10.2020
6538 Clouds 14 1007 67 10000 4.1 190 01:34 22.10.2020
6539 Clouds 14 1007 67 10000 3.6 190 00:24 22.10.2020
6540 Clouds 14 1007 67 10000 4.1 190 23:44 21.10.2020
6541 Clouds 14 1007 71 10000 3.6 190 23:19 21.10.2020
6542 Clouds 13 1007 76 10000 3.1 190 22:39 21.10.2020
6543 Clouds 13 1007 76 10000 3.1 190 22:19 21.10.2020
6544 Clouds 13 1007 76 10000 3.6 190 21:46 21.10.2020
6545 Clouds 13 1007 76 10000 4.6 180 21:20 21.10.2020
6546 Clouds 13 1007 76 10000 4.6 180 20:59 21.10.2020
6547 Clouds 13 1006 76 10000 3.6 170 20:41 21.10.2020
6548 Clouds 13 1006 71 10000 4.6 160 20:18 21.10.2020
6549 Clouds 13 1006 71 10000 4.1 160 19:43 21.10.2020
6550 Clouds 13 1006 71 10000 4.1 160 19:25 21.10.2020
6551 Clouds 13 1007 71 10000 4.1 170 18:54 21.10.2020
6552 Clouds 14 1007 71 10000 4.1 170 18:32 21.10.2020
6553 Clouds 14 1007 67 10000 4.1 170 17:54 21.10.2020
6554 Rain 14 1007 67 10000 4.1 170 17:36 21.10.2020
6555 Rain 14 1008 67 10000 3.6 170 17:18 21.10.2020
6556 Rain 14 1008 71 10000 3.6 180 16:40 21.10.2020
6557 Clouds 14 1008 71 10000 3.6 180 16:21 21.10.2020
6558 Rain 14 1008 71 10000 3.6 190 15:49 21.10.2020
6559 Clouds 13 1008 76 10000 3.1 180 15:29 21.10.2020
6560 Clouds 13 1008 76 10000 4.1 180 14:58 21.10.2020
6561 Clouds 13 1008 76 10000 4.1 180 14:40 21.10.2020
6562 Clouds 13 1009 76 10000 4.1 170 14:21 21.10.2020
6563 Rain 12 1009 81 10000 3.1 150 13:42 21.10.2020
6564 Clouds 12 1009 81 10000 3.1 170 13:23 21.10.2020
6565 Clouds 12 1009 81 10000 3.6 150 12:42 21.10.2020
6566 Clouds 12 1009 81 10000 3.6 150 12:23 21.10.2020
6567 Rain 11 1009 81 10000 3.1 150 11:56 21.10.2020
6568 Rain 11 1010 81 10000 3.6 170 11:37 21.10.2020
6569 Rain 11 1010 81 10000 3.6 170 11:18 21.10.2020
6570 Rain 11 1010 87 10000 3.1 160 10:40 21.10.2020
6571 Rain 11 1010 87 10000 2.6 170 10:21 21.10.2020
6572 Rain 11 1010 87 10000 3.1 160 09:51 21.10.2020
6573 Rain 10 1010 87 10000 2.1 180 09:28 21.10.2020
6574 Rain 10 1010 93 10000 3.1 160 08:42 21.10.2020
6575 Rain 10 1010 93 10000 3.1 160 08:24 21.10.2020
6576 Rain 10 1010 93 10000 2.6 150 07:57 21.10.2020
6577 Rain 10 1010 93 10000 2.6 150 07:29 21.10.2020
6578 Rain 10 1010 93 10000 2.6 170 06:50 21.10.2020
6579 Rain 10 1010 93 10000 2.6 170 06:26 21.10.2020
6580 Rain 10 1011 93 10000 3.1 190 04:46 21.10.2020
6581 Clouds 11 1012 93 10000 2.1 210 00:51 21.10.2020
6582 Rain 11 1012 93 10000 2.6 190 23:49 20.10.2020
6583 Clouds 11 1012 87 10000 2.6 200 22:53 20.10.2020
6584 Clouds 10 1012 87 10000 3.1 210 22:28 20.10.2020
6585 Rain 10 1012 93 10000 3.6 190 21:50 20.10.2020
6586 Rain 10 1012 87 10000 3.1 190 21:20 20.10.2020
6587 Rain 11 1012 81 10000 2.6 200 20:56 20.10.2020
6588 Rain 11 1012 76 10000 3.6 180 20:36 20.10.2020
6589 Rain 11 1012 76 10000 3.6 180 20:18 20.10.2020
6590 Rain 11 1012 71 10000 3.1 170 19:42 20.10.2020
6591 Clouds 11 1012 71 10000 3.6 170 19:22 20.10.2020
6592 Clouds 11 1012 76 10000 4.1 160 18:52 20.10.2020
6593 Clouds 11 1012 71 10000 4.1 150 18:34 20.10.2020
6594 Clouds 11 1012 71 10000 4.1 170 17:48 20.10.2020
6595 Clouds 12 1012 71 10000 3.6 150 17:29 20.10.2020
6596 Clouds 12 1013 71 10000 4.1 160 16:48 20.10.2020
6597 Clouds 12 1012 66 10000 5.7 160 16:28 20.10.2020
6598 Clouds 12 1013 66 10000 6.2 150 15:57 20.10.2020
6599 Clouds 12 1013 66 10000 6.2 150 15:39 20.10.2020
6600 Clouds 12 1014 66 10000 5.7 170 15:20 20.10.2020
6601 Clouds 12 1014 71 10000 5.1 160 14:42 20.10.2020
6602 Clouds 11 1014 71 10000 5.1 150 14:24 20.10.2020
6603 Clouds 11 1015 76 10000 5.1 150 13:56 20.10.2020
6604 Clouds 11 1015 76 10000 5.7 150 13:37 20.10.2020
6605 Clouds 10 1015 76 10000 5.7 150 13:18 20.10.2020
6606 Clouds 10 1016 81 10000 5.1 150 12:40 20.10.2020
6607 Clouds 10 1016 76 10000 4.6 160 12:22 20.10.2020
6608 Clouds 9 1016 76 10000 6.2 140 11:45 20.10.2020
6609 Clouds 9 1017 76 10000 5.7 150 11:27 20.10.2020
6610 Clouds 8 1017 81 10000 5.1 150 10:40 20.10.2020
6611 Clouds 8 1017 81 10000 5.1 150 10:40 20.10.2020
6612 Clouds 7 1017 81 10000 5.1 150 10:21 20.10.2020
6613 Clouds 6 1018 81 10000 4.6 140 09:44 20.10.2020
6614 Clouds 6 1018 81 10000 3.6 150 09:19 20.10.2020
6615 Clouds 6 1018 87 10000 3.1 150 08:39 20.10.2020
6616 Clouds 5 1018 87 10000 3.6 130 07:54 20.10.2020
6617 Clouds 5 1018 93 10000 3.6 120 07:26 20.10.2020
6618 Clouds 5 1019 93 10000 3.1 130 06:57 20.10.2020
6619 Clouds 6 1020 93 10000 2.6 140 06:19 20.10.2020
6620 Clouds 6 1020 100 10000 1.5 110 04:26 20.10.2020
6621 Clouds 6 1021 100 10000 1 130 02:30 20.10.2020
6622 Clouds 7 1021 100 10000 1.5 130 01:22 20.10.2020
6623 Clouds 7 1021 100 10000 0.5 0 00:51 20.10.2020
6624 Clouds 7 1021 93 10000 1 100 00:26 20.10.2020
6625 Clouds 8 1022 93 10000 0.5 100 23:51 19.10.2020
6626 Clouds 8 1022 93 10000 0.5 0 23:25 19.10.2020
6627 Clouds 8 1022 93 10000 2.87 179 22:54 19.10.2020
6628 Clouds 9 1022 87 10000 1.5 170 22:26 19.10.2020
6629 Clouds 8 1022 87 10000 1.5 150 21:57 19.10.2020
6630 Clouds 9 1022 87 10000 1.5 150 21:39 19.10.2020
6631 Clouds 9 1022 81 10000 0.5 0 21:18 19.10.2020
6632 Clouds 10 1021 81 10000 2.1 160 20:42 19.10.2020
6633 Clouds 10 1022 76 10000 2.1 160 20:24 19.10.2020
6634 Clouds 10 1022 76 10000 2.1 170 19:45 19.10.2020
6635 Clouds 10 1022 76 10000 2.1 170 19:19 19.10.2020
6636 Clouds 10 1022 76 10000 1 0 18:50 19.10.2020
6637 Clouds 11 1022 66 10000 0.5 0 18:28 19.10.2020
6638 Clouds 11 1022 71 10000 1 0 17:49 19.10.2020
6639 Clouds 11 1022 71 10000 2.1 250 17:28 19.10.2020
6640 Clouds 11 1022 71 10000 2.1 250 16:54 19.10.2020
6641 Clouds 11 1022 71 10000 2.1 250 16:30 19.10.2020
6642 Clouds 11 1022 78 10000 2.68 279 15:57 19.10.2020
6643 Clouds 11 1021 77 10000 2.68 276 15:36 19.10.2020
6644 Clouds 11 1022 77 10000 3.13 262 15:18 19.10.2020
6645 Clouds 11 1022 78 10000 3.58 285 14:43 19.10.2020
6646 Clouds 11 1021 77 10000 4.47 282 14:23 19.10.2020
6647 Clouds 12 1022 77 10000 3.58 255 13:46 19.10.2020
6648 Clouds 12 1022 77 10000 4.02 265 13:28 19.10.2020
6649 Clouds 11 1022 80 10000 4.02 246 12:46 19.10.2020
6650 Clouds 11 1021 71 10000 0.89 180 12:26 19.10.2020
6651 Clouds 10 1022 87 10000 3.6 240 11:51 19.10.2020
6652 Clouds 10 1022 87 10000 3.6 240 11:24 19.10.2020
6653 Clouds 10 1022 87 10000 3.6 240 10:55 19.10.2020
6654 Clouds 9 1022 93 10000 3.6 250 10:36 19.10.2020
6655 Clouds 9 1021 93 10000 3.1 250 10:18 19.10.2020
6656 Clouds 8 1021 93 10000 3.1 250 09:42 19.10.2020
6657 Clouds 8 1021 100 10000 3.1 260 09:18 19.10.2020
6658 Clouds 7 1021 100 10000 3.6 240 08:47 19.10.2020
6659 Clouds 7 1021 93 10000 2.6 250 08:21 19.10.2020
6660 Clouds 7 1020 100 10000 2.1 270 07:22 19.10.2020
6661 Clouds 7 1020 100 10000 2.6 260 06:51 19.10.2020
6662 Clouds 7 1020 93 10000 2.1 260 06:18 19.10.2020
6663 Clouds 8 1020 93 10000 2.6 260 03:47 19.10.2020
6664 Clouds 8 1020 93 10000 3.1 260 02:23 19.10.2020
6665 Clouds 7 1019 93 10000 3.1 250 00:46 19.10.2020
6666 Clouds 8 1019 93 10000 3.1 260 00:20 19.10.2020
6667 Clouds 7 1019 100 10000 3.1 260 23:45 18.10.2020
6668 Clouds 7 1019 100 10000 3.6 260 23:21 18.10.2020
6669 Clouds 7 1018 93 10000 3.6 260 22:48 18.10.2020
6670 Clouds 7 1018 93 10000 3.6 260 22:22 18.10.2020
6671 Clouds 7 1018 93 10000 3.6 260 21:53 18.10.2020
6672 Clouds 8 1018 93 10000 3.1 260 21:30 18.10.2020
6673 Clouds 8 1018 93 10000 3.6 260 20:58 18.10.2020
6674 Clouds 8 1018 93 10000 3.6 260 20:39 18.10.2020
6675 Clouds 8 1018 93 10000 3.1 260 20:19 18.10.2020
6676 Clouds 8 1017 93 10000 2.1 250 19:42 18.10.2020
6677 Clouds 9 1017 87 10000 3.1 270 19:22 18.10.2020
6678 Clouds 9 1017 87 10000 4.1 270 18:48 18.10.2020
6679 Clouds 9 1017 87 10000 4.1 270 18:26 18.10.2020
6680 Clouds 9 1016 87 10000 5.1 270 17:43 18.10.2020
6681 Clouds 9 1016 87 10000 5.1 270 17:25 18.10.2020
6682 Clouds 10 1016 87